<?xml version="1.0" encoding="UTF-8" standalone="no" ?>
<gpx xmlns="http://www.topografix.com/GPX/1/1" xmlns:xsi="http://www.w3.org/2001/XMLSchema-instance" xsi:schemaLocation="http://www.topografix.com/GPX/1/1 http://www.topografix.com/GPX/1/1/gpx.xsd" version="1.1" creator="VisuGPX - https://www.visugpx.com">
  <metadata>
    <name>Monnet La Ville Marigny Chalain Fontenu</name>
  </metadata>
  <trk>
    <name><![CDATA[Monnet La Ville Marigny Chalain Fontenu_1]]></name>
    <extensions>
      <line xmlns="http://www.topografix.com/GPX/gpx_style/0/2">
        <color>0000FF</color>
        <width>4</width>
      </line>
    </extensions>
    <trkseg>
      <trkpt lat="46.71457" lon="5.79781">
        <ele>508.5</ele>
        <time>2022-02-24T07:48:13Z</time>
      </trkpt>
      <trkpt lat="46.71455" lon="5.79776">
        <ele>508.4</ele>
        <time>2022-02-24T07:48:27Z</time>
      </trkpt>
      <trkpt lat="46.7145" lon="5.79774">
        <ele>505.6</ele>
        <time>2022-02-24T07:49:51Z</time>
      </trkpt>
      <trkpt lat="46.71445" lon="5.79777">
        <ele>505.4</ele>
        <time>2022-02-24T07:49:57Z</time>
      </trkpt>
      <trkpt lat="46.7144" lon="5.79777">
        <ele>505.1</ele>
        <time>2022-02-24T07:50:03Z</time>
      </trkpt>
      <trkpt lat="46.71435" lon="5.7978">
        <ele>504.6</ele>
        <time>2022-02-24T07:50:08Z</time>
      </trkpt>
      <trkpt lat="46.71431" lon="5.79781">
        <ele>503.9</ele>
        <time>2022-02-24T07:50:14Z</time>
      </trkpt>
      <trkpt lat="46.71426" lon="5.79785">
        <ele>503.5</ele>
        <time>2022-02-24T07:50:20Z</time>
      </trkpt>
      <trkpt lat="46.71422" lon="5.79789">
        <ele>502.8</ele>
        <time>2022-02-24T07:50:25Z</time>
      </trkpt>
      <trkpt lat="46.71418" lon="5.79792">
        <ele>502.2</ele>
        <time>2022-02-24T07:50:29Z</time>
      </trkpt>
      <trkpt lat="46.71414" lon="5.79797">
        <ele>501.8</ele>
        <time>2022-02-24T07:50:33Z</time>
      </trkpt>
      <trkpt lat="46.71409" lon="5.79801">
        <ele>501.4</ele>
        <time>2022-02-24T07:50:37Z</time>
      </trkpt>
      <trkpt lat="46.71406" lon="5.79805">
        <ele>501.3</ele>
        <time>2022-02-24T07:50:42Z</time>
      </trkpt>
      <trkpt lat="46.71403" lon="5.7981">
        <ele>501.5</ele>
        <time>2022-02-24T07:50:48Z</time>
      </trkpt>
      <trkpt lat="46.71398" lon="5.79814">
        <ele>501.9</ele>
        <time>2022-02-24T07:50:53Z</time>
      </trkpt>
      <trkpt lat="46.71394" lon="5.79817">
        <ele>502.3</ele>
        <time>2022-02-24T07:50:57Z</time>
      </trkpt>
      <trkpt lat="46.7139" lon="5.79821">
        <ele>502.8</ele>
        <time>2022-02-24T07:51:02Z</time>
      </trkpt>
      <trkpt lat="46.71385" lon="5.79824">
        <ele>503.7</ele>
        <time>2022-02-24T07:51:08Z</time>
      </trkpt>
      <trkpt lat="46.7138" lon="5.79827">
        <ele>505.4</ele>
        <time>2022-02-24T07:51:14Z</time>
      </trkpt>
      <trkpt lat="46.71376" lon="5.7983">
        <ele>507.2</ele>
        <time>2022-02-24T07:51:20Z</time>
      </trkpt>
      <trkpt lat="46.71372" lon="5.79834">
        <ele>508.5</ele>
        <time>2022-02-24T07:51:25Z</time>
      </trkpt>
      <trkpt lat="46.71368" lon="5.79839">
        <ele>509.3</ele>
        <time>2022-02-24T07:51:30Z</time>
      </trkpt>
      <trkpt lat="46.71364" lon="5.79842">
        <ele>509.9</ele>
        <time>2022-02-24T07:51:34Z</time>
      </trkpt>
      <trkpt lat="46.7136" lon="5.79845">
        <ele>510.4</ele>
        <time>2022-02-24T07:51:38Z</time>
      </trkpt>
      <trkpt lat="46.71355" lon="5.79849">
        <ele>511.3</ele>
        <time>2022-02-24T07:51:44Z</time>
      </trkpt>
      <trkpt lat="46.71351" lon="5.79852">
        <ele>512.5</ele>
        <time>2022-02-24T07:51:50Z</time>
      </trkpt>
      <trkpt lat="46.71348" lon="5.79857">
        <ele>513.4</ele>
        <time>2022-02-24T07:51:56Z</time>
      </trkpt>
      <trkpt lat="46.71344" lon="5.79864">
        <ele>514</ele>
        <time>2022-02-24T07:52:00Z</time>
      </trkpt>
      <trkpt lat="46.7134" lon="5.79869">
        <ele>514.6</ele>
        <time>2022-02-24T07:52:05Z</time>
      </trkpt>
      <trkpt lat="46.71336" lon="5.79872">
        <ele>515.3</ele>
        <time>2022-02-24T07:52:10Z</time>
      </trkpt>
      <trkpt lat="46.71331" lon="5.79873">
        <ele>516.3</ele>
        <time>2022-02-24T07:52:14Z</time>
      </trkpt>
      <trkpt lat="46.71326" lon="5.79876">
        <ele>517.1</ele>
        <time>2022-02-24T07:52:19Z</time>
      </trkpt>
      <trkpt lat="46.7132" lon="5.79878">
        <ele>517.1</ele>
        <time>2022-02-24T07:52:25Z</time>
      </trkpt>
      <trkpt lat="46.71315" lon="5.7988">
        <ele>517.6</ele>
        <time>2022-02-24T07:52:30Z</time>
      </trkpt>
      <trkpt lat="46.7131" lon="5.79882">
        <ele>518.2</ele>
        <time>2022-02-24T07:52:34Z</time>
      </trkpt>
      <trkpt lat="46.71304" lon="5.79885">
        <ele>518.3</ele>
        <time>2022-02-24T07:52:38Z</time>
      </trkpt>
      <trkpt lat="46.713" lon="5.79887">
        <ele>518.2</ele>
        <time>2022-02-24T07:52:41Z</time>
      </trkpt>
      <trkpt lat="46.71296" lon="5.7989">
        <ele>518.2</ele>
        <time>2022-02-24T07:52:44Z</time>
      </trkpt>
      <trkpt lat="46.71291" lon="5.79891">
        <ele>518.6</ele>
        <time>2022-02-24T07:52:48Z</time>
      </trkpt>
      <trkpt lat="46.71286" lon="5.79893">
        <ele>519.6</ele>
        <time>2022-02-24T07:52:53Z</time>
      </trkpt>
      <trkpt lat="46.71281" lon="5.79891">
        <ele>520.7</ele>
        <time>2022-02-24T07:52:58Z</time>
      </trkpt>
      <trkpt lat="46.71276" lon="5.7989">
        <ele>521.2</ele>
        <time>2022-02-24T07:53:03Z</time>
      </trkpt>
      <trkpt lat="46.71271" lon="5.7989">
        <ele>520.9</ele>
        <time>2022-02-24T07:53:08Z</time>
      </trkpt>
      <trkpt lat="46.71266" lon="5.79891">
        <ele>521.2</ele>
        <time>2022-02-24T07:53:12Z</time>
      </trkpt>
      <trkpt lat="46.71262" lon="5.79893">
        <ele>521.4</ele>
        <time>2022-02-24T07:53:17Z</time>
      </trkpt>
      <trkpt lat="46.71257" lon="5.79891">
        <ele>520.3</ele>
        <time>2022-02-24T07:53:22Z</time>
      </trkpt>
      <trkpt lat="46.71253" lon="5.7989">
        <ele>518.5</ele>
        <time>2022-02-24T07:53:27Z</time>
      </trkpt>
      <trkpt lat="46.71249" lon="5.79885">
        <ele>516.8</ele>
        <time>2022-02-24T07:53:33Z</time>
      </trkpt>
      <trkpt lat="46.71244" lon="5.79881">
        <ele>515.6</ele>
        <time>2022-02-24T07:53:38Z</time>
      </trkpt>
      <trkpt lat="46.7124" lon="5.79876">
        <ele>515</ele>
        <time>2022-02-24T07:53:42Z</time>
      </trkpt>
      <trkpt lat="46.71237" lon="5.7987">
        <ele>514.6</ele>
        <time>2022-02-24T07:53:46Z</time>
      </trkpt>
      <trkpt lat="46.71233" lon="5.79866">
        <ele>514.5</ele>
        <time>2022-02-24T07:53:51Z</time>
      </trkpt>
      <trkpt lat="46.71229" lon="5.79862">
        <ele>514.6</ele>
        <time>2022-02-24T07:53:57Z</time>
      </trkpt>
      <trkpt lat="46.71226" lon="5.79856">
        <ele>515.3</ele>
        <time>2022-02-24T07:54:03Z</time>
      </trkpt>
      <trkpt lat="46.71223" lon="5.79851">
        <ele>515.5</ele>
        <time>2022-02-24T07:54:08Z</time>
      </trkpt>
      <trkpt lat="46.71221" lon="5.79845">
        <ele>516</ele>
        <time>2022-02-24T07:54:12Z</time>
      </trkpt>
      <trkpt lat="46.71221" lon="5.79837">
        <ele>517</ele>
        <time>2022-02-24T07:54:17Z</time>
      </trkpt>
      <trkpt lat="46.71222" lon="5.79829">
        <ele>517.6</ele>
        <time>2022-02-24T07:54:22Z</time>
      </trkpt>
      <trkpt lat="46.71222" lon="5.79822">
        <ele>517.5</ele>
        <time>2022-02-24T07:54:27Z</time>
      </trkpt>
      <trkpt lat="46.71221" lon="5.79815">
        <ele>516.9</ele>
        <time>2022-02-24T07:54:33Z</time>
      </trkpt>
      <trkpt lat="46.71221" lon="5.79807">
        <ele>516.8</ele>
        <time>2022-02-24T07:54:38Z</time>
      </trkpt>
      <trkpt lat="46.71222" lon="5.798">
        <ele>517</ele>
        <time>2022-02-24T07:54:42Z</time>
      </trkpt>
      <trkpt lat="46.71224" lon="5.79793">
        <ele>517.1</ele>
        <time>2022-02-24T07:54:46Z</time>
      </trkpt>
      <trkpt lat="46.71225" lon="5.79787">
        <ele>517.3</ele>
        <time>2022-02-24T07:54:50Z</time>
      </trkpt>
      <trkpt lat="46.71225" lon="5.79779">
        <ele>518.1</ele>
        <time>2022-02-24T07:54:55Z</time>
      </trkpt>
      <trkpt lat="46.71224" lon="5.79772">
        <ele>518.9</ele>
        <time>2022-02-24T07:54:59Z</time>
      </trkpt>
      <trkpt lat="46.71223" lon="5.79765">
        <ele>520</ele>
        <time>2022-02-24T07:55:04Z</time>
      </trkpt>
      <trkpt lat="46.71221" lon="5.79758">
        <ele>520.5</ele>
        <time>2022-02-24T07:55:08Z</time>
      </trkpt>
      <trkpt lat="46.71217" lon="5.79754">
        <ele>521.1</ele>
        <time>2022-02-24T07:55:13Z</time>
      </trkpt>
      <trkpt lat="46.71213" lon="5.79751">
        <ele>522.3</ele>
        <time>2022-02-24T07:55:18Z</time>
      </trkpt>
      <trkpt lat="46.7121" lon="5.79746">
        <ele>522.5</ele>
        <time>2022-02-24T07:55:22Z</time>
      </trkpt>
      <trkpt lat="46.71207" lon="5.79741">
        <ele>522</ele>
        <time>2022-02-24T07:55:26Z</time>
      </trkpt>
      <trkpt lat="46.71204" lon="5.79735">
        <ele>522</ele>
        <time>2022-02-24T07:55:32Z</time>
      </trkpt>
      <trkpt lat="46.71201" lon="5.79728">
        <ele>522.6</ele>
        <time>2022-02-24T07:55:37Z</time>
      </trkpt>
      <trkpt lat="46.71198" lon="5.79721">
        <ele>523.3</ele>
        <time>2022-02-24T07:55:42Z</time>
      </trkpt>
      <trkpt lat="46.71197" lon="5.79714">
        <ele>524.9</ele>
        <time>2022-02-24T07:55:48Z</time>
      </trkpt>
      <trkpt lat="46.71196" lon="5.79708">
        <ele>526.6</ele>
        <time>2022-02-24T07:55:53Z</time>
      </trkpt>
      <trkpt lat="46.71195" lon="5.797">
        <ele>527.6</ele>
        <time>2022-02-24T07:55:58Z</time>
      </trkpt>
      <trkpt lat="46.71195" lon="5.79693">
        <ele>527.7</ele>
        <time>2022-02-24T07:56:01Z</time>
      </trkpt>
      <trkpt lat="46.71195" lon="5.79686">
        <ele>528</ele>
        <time>2022-02-24T07:56:05Z</time>
      </trkpt>
      <trkpt lat="46.71192" lon="5.79681">
        <ele>528.6</ele>
        <time>2022-02-24T07:56:10Z</time>
      </trkpt>
      <trkpt lat="46.71189" lon="5.79674">
        <ele>528.8</ele>
        <time>2022-02-24T07:56:14Z</time>
      </trkpt>
      <trkpt lat="46.71187" lon="5.79667">
        <ele>529</ele>
        <time>2022-02-24T07:56:18Z</time>
      </trkpt>
      <trkpt lat="46.71185" lon="5.79662">
        <ele>529.1</ele>
        <time>2022-02-24T07:56:21Z</time>
      </trkpt>
      <trkpt lat="46.71182" lon="5.79655">
        <ele>528.9</ele>
        <time>2022-02-24T07:56:25Z</time>
      </trkpt>
      <trkpt lat="46.7118" lon="5.79648">
        <ele>528.8</ele>
        <time>2022-02-24T07:56:30Z</time>
      </trkpt>
      <trkpt lat="46.71177" lon="5.79642">
        <ele>528.3</ele>
        <time>2022-02-24T07:56:35Z</time>
      </trkpt>
      <trkpt lat="46.71174" lon="5.79635">
        <ele>527.6</ele>
        <time>2022-02-24T07:56:40Z</time>
      </trkpt>
      <trkpt lat="46.71171" lon="5.79629">
        <ele>527.2</ele>
        <time>2022-02-24T07:56:44Z</time>
      </trkpt>
      <trkpt lat="46.71168" lon="5.79624">
        <ele>526.5</ele>
        <time>2022-02-24T07:56:49Z</time>
      </trkpt>
      <trkpt lat="46.71163" lon="5.7962">
        <ele>525.5</ele>
        <time>2022-02-24T07:56:54Z</time>
      </trkpt>
      <trkpt lat="46.71159" lon="5.79616">
        <ele>524.5</ele>
        <time>2022-02-24T07:56:58Z</time>
      </trkpt>
      <trkpt lat="46.71154" lon="5.79612">
        <ele>523.4</ele>
        <time>2022-02-24T07:57:03Z</time>
      </trkpt>
      <trkpt lat="46.71151" lon="5.79606">
        <ele>523.5</ele>
        <time>2022-02-24T07:57:09Z</time>
      </trkpt>
      <trkpt lat="46.71147" lon="5.79602">
        <ele>524.2</ele>
        <time>2022-02-24T07:57:13Z</time>
      </trkpt>
      <trkpt lat="46.71143" lon="5.79599">
        <ele>524.3</ele>
        <time>2022-02-24T07:57:17Z</time>
      </trkpt>
      <trkpt lat="46.71139" lon="5.79595">
        <ele>524.3</ele>
        <time>2022-02-24T07:57:22Z</time>
      </trkpt>
      <trkpt lat="46.71135" lon="5.79591">
        <ele>523</ele>
        <time>2022-02-24T07:57:28Z</time>
      </trkpt>
      <trkpt lat="46.71131" lon="5.79587">
        <ele>521</ele>
        <time>2022-02-24T07:57:34Z</time>
      </trkpt>
      <trkpt lat="46.71126" lon="5.79582">
        <ele>519.9</ele>
        <time>2022-02-24T07:57:39Z</time>
      </trkpt>
      <trkpt lat="46.71122" lon="5.7958">
        <ele>518.9</ele>
        <time>2022-02-24T07:57:43Z</time>
      </trkpt>
      <trkpt lat="46.71118" lon="5.79575">
        <ele>518.2</ele>
        <time>2022-02-24T07:57:47Z</time>
      </trkpt>
      <trkpt lat="46.71114" lon="5.7957">
        <ele>517.6</ele>
        <time>2022-02-24T07:57:51Z</time>
      </trkpt>
      <trkpt lat="46.71109" lon="5.79565">
        <ele>518.1</ele>
        <time>2022-02-24T07:57:55Z</time>
      </trkpt>
      <trkpt lat="46.71105" lon="5.79561">
        <ele>518.9</ele>
        <time>2022-02-24T07:58:00Z</time>
      </trkpt>
      <trkpt lat="46.71101" lon="5.7956">
        <ele>519.4</ele>
        <time>2022-02-24T07:58:05Z</time>
      </trkpt>
      <trkpt lat="46.71096" lon="5.79556">
        <ele>520.2</ele>
        <time>2022-02-24T07:58:10Z</time>
      </trkpt>
      <trkpt lat="46.71093" lon="5.79551">
        <ele>520.6</ele>
        <time>2022-02-24T07:58:15Z</time>
      </trkpt>
      <trkpt lat="46.71088" lon="5.79549">
        <ele>520.2</ele>
        <time>2022-02-24T07:58:21Z</time>
      </trkpt>
      <trkpt lat="46.71084" lon="5.79544">
        <ele>519.3</ele>
        <time>2022-02-24T07:58:28Z</time>
      </trkpt>
      <trkpt lat="46.71079" lon="5.79541">
        <ele>518.4</ele>
        <time>2022-02-24T07:58:33Z</time>
      </trkpt>
      <trkpt lat="46.71075" lon="5.79538">
        <ele>517.6</ele>
        <time>2022-02-24T07:58:36Z</time>
      </trkpt>
      <trkpt lat="46.7107" lon="5.79535">
        <ele>516.5</ele>
        <time>2022-02-24T07:58:40Z</time>
      </trkpt>
      <trkpt lat="46.71065" lon="5.79533">
        <ele>515.2</ele>
        <time>2022-02-24T07:58:44Z</time>
      </trkpt>
      <trkpt lat="46.71061" lon="5.7953">
        <ele>513.9</ele>
        <time>2022-02-24T07:58:48Z</time>
      </trkpt>
      <trkpt lat="46.71057" lon="5.79528">
        <ele>512.8</ele>
        <time>2022-02-24T07:58:53Z</time>
      </trkpt>
      <trkpt lat="46.71052" lon="5.79523">
        <ele>512.2</ele>
        <time>2022-02-24T07:58:58Z</time>
      </trkpt>
      <trkpt lat="46.71048" lon="5.79522">
        <ele>512.2</ele>
        <time>2022-02-24T07:59:03Z</time>
      </trkpt>
      <trkpt lat="46.71043" lon="5.79521">
        <ele>512.2</ele>
        <time>2022-02-24T07:59:08Z</time>
      </trkpt>
      <trkpt lat="46.71038" lon="5.7952">
        <ele>511.7</ele>
        <time>2022-02-24T07:59:12Z</time>
      </trkpt>
      <trkpt lat="46.71032" lon="5.7952">
        <ele>510.8</ele>
        <time>2022-02-24T07:59:17Z</time>
      </trkpt>
      <trkpt lat="46.71028" lon="5.79519">
        <ele>510.3</ele>
        <time>2022-02-24T07:59:22Z</time>
      </trkpt>
      <trkpt lat="46.71023" lon="5.79518">
        <ele>509.7</ele>
        <time>2022-02-24T07:59:26Z</time>
      </trkpt>
      <trkpt lat="46.71018" lon="5.79517">
        <ele>509.5</ele>
        <time>2022-02-24T07:59:30Z</time>
      </trkpt>
      <trkpt lat="46.71012" lon="5.79516">
        <ele>509.7</ele>
        <time>2022-02-24T07:59:34Z</time>
      </trkpt>
      <trkpt lat="46.71008" lon="5.79512">
        <ele>510</ele>
        <time>2022-02-24T07:59:38Z</time>
      </trkpt>
      <trkpt lat="46.71003" lon="5.79508">
        <ele>511</ele>
        <time>2022-02-24T07:59:43Z</time>
      </trkpt>
      <trkpt lat="46.70998" lon="5.79507">
        <ele>512.2</ele>
        <time>2022-02-24T07:59:48Z</time>
      </trkpt>
      <trkpt lat="46.70994" lon="5.79504">
        <ele>512.4</ele>
        <time>2022-02-24T07:59:53Z</time>
      </trkpt>
      <trkpt lat="46.70988" lon="5.79502">
        <ele>512.8</ele>
        <time>2022-02-24T07:59:57Z</time>
      </trkpt>
      <trkpt lat="46.70984" lon="5.79499">
        <ele>513.5</ele>
        <time>2022-02-24T08:00:01Z</time>
      </trkpt>
      <trkpt lat="46.70979" lon="5.79495">
        <ele>514.2</ele>
        <time>2022-02-24T08:00:05Z</time>
      </trkpt>
      <trkpt lat="46.70975" lon="5.79493">
        <ele>514.8</ele>
        <time>2022-02-24T08:00:08Z</time>
      </trkpt>
      <trkpt lat="46.7097" lon="5.7949">
        <ele>515.6</ele>
        <time>2022-02-24T08:00:12Z</time>
      </trkpt>
      <trkpt lat="46.70966" lon="5.79487">
        <ele>516.3</ele>
        <time>2022-02-24T08:00:16Z</time>
      </trkpt>
      <trkpt lat="46.70961" lon="5.79486">
        <ele>517</ele>
        <time>2022-02-24T08:00:19Z</time>
      </trkpt>
      <trkpt lat="46.70956" lon="5.79484">
        <ele>517.1</ele>
        <time>2022-02-24T08:00:23Z</time>
      </trkpt>
      <trkpt lat="46.70951" lon="5.79485">
        <ele>517</ele>
        <time>2022-02-24T08:00:27Z</time>
      </trkpt>
      <trkpt lat="46.70946" lon="5.79486">
        <ele>516.8</ele>
        <time>2022-02-24T08:00:31Z</time>
      </trkpt>
      <trkpt lat="46.70942" lon="5.79486">
        <ele>516.6</ele>
        <time>2022-02-24T08:00:35Z</time>
      </trkpt>
      <trkpt lat="46.70936" lon="5.79485">
        <ele>516.3</ele>
        <time>2022-02-24T08:00:40Z</time>
      </trkpt>
      <trkpt lat="46.70931" lon="5.79485">
        <ele>516.5</ele>
        <time>2022-02-24T08:00:45Z</time>
      </trkpt>
      <trkpt lat="46.70927" lon="5.79482">
        <ele>516.6</ele>
        <time>2022-02-24T08:00:50Z</time>
      </trkpt>
      <trkpt lat="46.70922" lon="5.79481">
        <ele>516.5</ele>
        <time>2022-02-24T08:00:55Z</time>
      </trkpt>
      <trkpt lat="46.70917" lon="5.7948">
        <ele>515.4</ele>
        <time>2022-02-24T08:01:01Z</time>
      </trkpt>
      <trkpt lat="46.70912" lon="5.79482">
        <ele>514.5</ele>
        <time>2022-02-24T08:01:07Z</time>
      </trkpt>
      <trkpt lat="46.70908" lon="5.79481">
        <ele>513.1</ele>
        <time>2022-02-24T08:01:13Z</time>
      </trkpt>
      <trkpt lat="46.70903" lon="5.79479">
        <ele>512.4</ele>
        <time>2022-02-24T08:01:17Z</time>
      </trkpt>
      <trkpt lat="46.70898" lon="5.79479">
        <ele>512.1</ele>
        <time>2022-02-24T08:01:21Z</time>
      </trkpt>
      <trkpt lat="46.70892" lon="5.79479">
        <ele>512.1</ele>
        <time>2022-02-24T08:01:25Z</time>
      </trkpt>
      <trkpt lat="46.70887" lon="5.7948">
        <ele>512</ele>
        <time>2022-02-24T08:01:29Z</time>
      </trkpt>
      <trkpt lat="46.70883" lon="5.79477">
        <ele>511.4</ele>
        <time>2022-02-24T08:01:35Z</time>
      </trkpt>
      <trkpt lat="46.70877" lon="5.79476">
        <ele>511.4</ele>
        <time>2022-02-24T08:01:39Z</time>
      </trkpt>
      <trkpt lat="46.70872" lon="5.79477">
        <ele>511.8</ele>
        <time>2022-02-24T08:01:43Z</time>
      </trkpt>
      <trkpt lat="46.70867" lon="5.79476">
        <ele>512.6</ele>
        <time>2022-02-24T08:01:47Z</time>
      </trkpt>
      <trkpt lat="46.70861" lon="5.79475">
        <ele>513.1</ele>
        <time>2022-02-24T08:01:52Z</time>
      </trkpt>
      <trkpt lat="46.70857" lon="5.79473">
        <ele>513.4</ele>
        <time>2022-02-24T08:01:56Z</time>
      </trkpt>
      <trkpt lat="46.70852" lon="5.79473">
        <ele>513.2</ele>
        <time>2022-02-24T08:02:01Z</time>
      </trkpt>
      <trkpt lat="46.70847" lon="5.79474">
        <ele>512.6</ele>
        <time>2022-02-24T08:02:06Z</time>
      </trkpt>
      <trkpt lat="46.70842" lon="5.79475">
        <ele>512</ele>
        <time>2022-02-24T08:02:12Z</time>
      </trkpt>
      <trkpt lat="46.70837" lon="5.79475">
        <ele>512.1</ele>
        <time>2022-02-24T08:02:16Z</time>
      </trkpt>
      <trkpt lat="46.70831" lon="5.79474">
        <ele>512.1</ele>
        <time>2022-02-24T08:02:20Z</time>
      </trkpt>
      <trkpt lat="46.70826" lon="5.79474">
        <ele>512.3</ele>
        <time>2022-02-24T08:02:24Z</time>
      </trkpt>
      <trkpt lat="46.70821" lon="5.79473">
        <ele>512</ele>
        <time>2022-02-24T08:02:29Z</time>
      </trkpt>
      <trkpt lat="46.70816" lon="5.79471">
        <ele>512.1</ele>
        <time>2022-02-24T08:02:33Z</time>
      </trkpt>
      <trkpt lat="46.70811" lon="5.7947">
        <ele>512.4</ele>
        <time>2022-02-24T08:02:37Z</time>
      </trkpt>
      <trkpt lat="46.70806" lon="5.7947">
        <ele>512.6</ele>
        <time>2022-02-24T08:02:41Z</time>
      </trkpt>
      <trkpt lat="46.70801" lon="5.79469">
        <ele>512.9</ele>
        <time>2022-02-24T08:02:46Z</time>
      </trkpt>
      <trkpt lat="46.70796" lon="5.79469">
        <ele>513.4</ele>
        <time>2022-02-24T08:02:51Z</time>
      </trkpt>
      <trkpt lat="46.70791" lon="5.7947">
        <ele>513.7</ele>
        <time>2022-02-24T08:02:56Z</time>
      </trkpt>
      <trkpt lat="46.70786" lon="5.7947">
        <ele>514.9</ele>
        <time>2022-02-24T08:03:01Z</time>
      </trkpt>
      <trkpt lat="46.70781" lon="5.79471">
        <ele>515.5</ele>
        <time>2022-02-24T08:03:06Z</time>
      </trkpt>
      <trkpt lat="46.70776" lon="5.79473">
        <ele>516.2</ele>
        <time>2022-02-24T08:03:11Z</time>
      </trkpt>
      <trkpt lat="46.70771" lon="5.79475">
        <ele>516.4</ele>
        <time>2022-02-24T08:03:16Z</time>
      </trkpt>
      <trkpt lat="46.70766" lon="5.79475">
        <ele>515.7</ele>
        <time>2022-02-24T08:03:21Z</time>
      </trkpt>
      <trkpt lat="46.7076" lon="5.79475">
        <ele>515.1</ele>
        <time>2022-02-24T08:03:26Z</time>
      </trkpt>
      <trkpt lat="46.70755" lon="5.79475">
        <ele>515.1</ele>
        <time>2022-02-24T08:03:30Z</time>
      </trkpt>
      <trkpt lat="46.7075" lon="5.79476">
        <ele>515.5</ele>
        <time>2022-02-24T08:03:34Z</time>
      </trkpt>
      <trkpt lat="46.70745" lon="5.79477">
        <ele>516.2</ele>
        <time>2022-02-24T08:03:38Z</time>
      </trkpt>
      <trkpt lat="46.7074" lon="5.79477">
        <ele>516.8</ele>
        <time>2022-02-24T08:03:41Z</time>
      </trkpt>
      <trkpt lat="46.70734" lon="5.79477">
        <ele>517.6</ele>
        <time>2022-02-24T08:03:45Z</time>
      </trkpt>
      <trkpt lat="46.70729" lon="5.79476">
        <ele>518.4</ele>
        <time>2022-02-24T08:03:49Z</time>
      </trkpt>
      <trkpt lat="46.70724" lon="5.79475">
        <ele>519.4</ele>
        <time>2022-02-24T08:03:54Z</time>
      </trkpt>
      <trkpt lat="46.70719" lon="5.79477">
        <ele>519.8</ele>
        <time>2022-02-24T08:03:59Z</time>
      </trkpt>
      <trkpt lat="46.70714" lon="5.79477">
        <ele>519.3</ele>
        <time>2022-02-24T08:04:04Z</time>
      </trkpt>
      <trkpt lat="46.70709" lon="5.79477">
        <ele>518.3</ele>
        <time>2022-02-24T08:04:10Z</time>
      </trkpt>
      <trkpt lat="46.70704" lon="5.79476">
        <ele>517.4</ele>
        <time>2022-02-24T08:04:14Z</time>
      </trkpt>
      <trkpt lat="46.70699" lon="5.79476">
        <ele>516.2</ele>
        <time>2022-02-24T08:04:19Z</time>
      </trkpt>
      <trkpt lat="46.70694" lon="5.79477">
        <ele>514.5</ele>
        <time>2022-02-24T08:04:24Z</time>
      </trkpt>
      <trkpt lat="46.7069" lon="5.79476">
        <ele>513.3</ele>
        <time>2022-02-24T08:04:29Z</time>
      </trkpt>
      <trkpt lat="46.70685" lon="5.79475">
        <ele>512.5</ele>
        <time>2022-02-24T08:04:34Z</time>
      </trkpt>
      <trkpt lat="46.70681" lon="5.79472">
        <ele>512.2</ele>
        <time>2022-02-24T08:04:39Z</time>
      </trkpt>
      <trkpt lat="46.70676" lon="5.79471">
        <ele>511.9</ele>
        <time>2022-02-24T08:04:44Z</time>
      </trkpt>
      <trkpt lat="46.70671" lon="5.79469">
        <ele>511.7</ele>
        <time>2022-02-24T08:04:48Z</time>
      </trkpt>
      <trkpt lat="46.70666" lon="5.79468">
        <ele>512.1</ele>
        <time>2022-02-24T08:04:52Z</time>
      </trkpt>
      <trkpt lat="46.70661" lon="5.79467">
        <ele>512.3</ele>
        <time>2022-02-24T08:04:57Z</time>
      </trkpt>
      <trkpt lat="46.70656" lon="5.79468">
        <ele>512.3</ele>
        <time>2022-02-24T08:05:00Z</time>
      </trkpt>
      <trkpt lat="46.70651" lon="5.79471">
        <ele>512.3</ele>
        <time>2022-02-24T08:05:04Z</time>
      </trkpt>
      <trkpt lat="46.70646" lon="5.79472">
        <ele>512.3</ele>
        <time>2022-02-24T08:05:09Z</time>
      </trkpt>
      <trkpt lat="46.70641" lon="5.79473">
        <ele>512.4</ele>
        <time>2022-02-24T08:05:14Z</time>
      </trkpt>
      <trkpt lat="46.70636" lon="5.79474">
        <ele>513.2</ele>
        <time>2022-02-24T08:05:19Z</time>
      </trkpt>
      <trkpt lat="46.70631" lon="5.79477">
        <ele>513.9</ele>
        <time>2022-02-24T08:05:24Z</time>
      </trkpt>
      <trkpt lat="46.70626" lon="5.79481">
        <ele>514</ele>
        <time>2022-02-24T08:05:29Z</time>
      </trkpt>
      <trkpt lat="46.70622" lon="5.79485">
        <ele>513.9</ele>
        <time>2022-02-24T08:05:34Z</time>
      </trkpt>
      <trkpt lat="46.70619" lon="5.7949">
        <ele>513.6</ele>
        <time>2022-02-24T08:05:39Z</time>
      </trkpt>
      <trkpt lat="46.70614" lon="5.79494">
        <ele>513.3</ele>
        <time>2022-02-24T08:05:44Z</time>
      </trkpt>
      <trkpt lat="46.7061" lon="5.79498">
        <ele>513.1</ele>
        <time>2022-02-24T08:05:48Z</time>
      </trkpt>
      <trkpt lat="46.70605" lon="5.795">
        <ele>513</ele>
        <time>2022-02-24T08:05:53Z</time>
      </trkpt>
      <trkpt lat="46.706" lon="5.79502">
        <ele>513</ele>
        <time>2022-02-24T08:05:57Z</time>
      </trkpt>
      <trkpt lat="46.70595" lon="5.79503">
        <ele>513.1</ele>
        <time>2022-02-24T08:06:01Z</time>
      </trkpt>
      <trkpt lat="46.70589" lon="5.79502">
        <ele>513.1</ele>
        <time>2022-02-24T08:06:06Z</time>
      </trkpt>
      <trkpt lat="46.70585" lon="5.795">
        <ele>512.7</ele>
        <time>2022-02-24T08:06:10Z</time>
      </trkpt>
      <trkpt lat="46.7058" lon="5.79496">
        <ele>512</ele>
        <time>2022-02-24T08:06:15Z</time>
      </trkpt>
      <trkpt lat="46.70576" lon="5.79491">
        <ele>511.8</ele>
        <time>2022-02-24T08:06:19Z</time>
      </trkpt>
      <trkpt lat="46.70573" lon="5.79487">
        <ele>512</ele>
        <time>2022-02-24T08:06:23Z</time>
      </trkpt>
      <trkpt lat="46.70568" lon="5.79483">
        <ele>512.7</ele>
        <time>2022-02-24T08:06:27Z</time>
      </trkpt>
      <trkpt lat="46.70563" lon="5.7948">
        <ele>513.2</ele>
        <time>2022-02-24T08:06:31Z</time>
      </trkpt>
      <trkpt lat="46.70559" lon="5.79476">
        <ele>513.9</ele>
        <time>2022-02-24T08:06:35Z</time>
      </trkpt>
      <trkpt lat="46.70555" lon="5.79473">
        <ele>514.5</ele>
        <time>2022-02-24T08:06:40Z</time>
      </trkpt>
      <trkpt lat="46.7055" lon="5.79472">
        <ele>514.9</ele>
        <time>2022-02-24T08:06:44Z</time>
      </trkpt>
      <trkpt lat="46.70545" lon="5.79471">
        <ele>515.5</ele>
        <time>2022-02-24T08:06:49Z</time>
      </trkpt>
      <trkpt lat="46.7054" lon="5.79471">
        <ele>516.3</ele>
        <time>2022-02-24T08:06:54Z</time>
      </trkpt>
      <trkpt lat="46.70535" lon="5.79469">
        <ele>516.9</ele>
        <time>2022-02-24T08:06:58Z</time>
      </trkpt>
      <trkpt lat="46.70531" lon="5.79467">
        <ele>517.1</ele>
        <time>2022-02-24T08:07:02Z</time>
      </trkpt>
      <trkpt lat="46.70526" lon="5.79463">
        <ele>517.5</ele>
        <time>2022-02-24T08:07:06Z</time>
      </trkpt>
      <trkpt lat="46.70521" lon="5.7946">
        <ele>518.6</ele>
        <time>2022-02-24T08:07:10Z</time>
      </trkpt>
      <trkpt lat="46.70517" lon="5.79458">
        <ele>519.6</ele>
        <time>2022-02-24T08:07:15Z</time>
      </trkpt>
      <trkpt lat="46.70512" lon="5.79456">
        <ele>520.2</ele>
        <time>2022-02-24T08:07:19Z</time>
      </trkpt>
      <trkpt lat="46.70507" lon="5.79455">
        <ele>520.4</ele>
        <time>2022-02-24T08:07:23Z</time>
      </trkpt>
      <trkpt lat="46.70502" lon="5.79453">
        <ele>520.4</ele>
        <time>2022-02-24T08:07:27Z</time>
      </trkpt>
      <trkpt lat="46.70497" lon="5.79451">
        <ele>520.4</ele>
        <time>2022-02-24T08:07:31Z</time>
      </trkpt>
      <trkpt lat="46.70492" lon="5.7945">
        <ele>520.5</ele>
        <time>2022-02-24T08:07:36Z</time>
      </trkpt>
      <trkpt lat="46.70486" lon="5.79449">
        <ele>520.4</ele>
        <time>2022-02-24T08:07:42Z</time>
      </trkpt>
      <trkpt lat="46.70481" lon="5.79447">
        <ele>519.6</ele>
        <time>2022-02-24T08:07:48Z</time>
      </trkpt>
      <trkpt lat="46.70476" lon="5.79446">
        <ele>519.2</ele>
        <time>2022-02-24T08:07:52Z</time>
      </trkpt>
      <trkpt lat="46.70471" lon="5.79445">
        <ele>519.4</ele>
        <time>2022-02-24T08:07:56Z</time>
      </trkpt>
      <trkpt lat="46.70466" lon="5.79443">
        <ele>520</ele>
        <time>2022-02-24T08:08:00Z</time>
      </trkpt>
      <trkpt lat="46.70461" lon="5.79442">
        <ele>520.5</ele>
        <time>2022-02-24T08:08:04Z</time>
      </trkpt>
      <trkpt lat="46.70456" lon="5.79441">
        <ele>520.9</ele>
        <time>2022-02-24T08:08:08Z</time>
      </trkpt>
      <trkpt lat="46.70451" lon="5.79439">
        <ele>521.5</ele>
        <time>2022-02-24T08:08:13Z</time>
      </trkpt>
      <trkpt lat="46.70445" lon="5.79438">
        <ele>521.8</ele>
        <time>2022-02-24T08:08:17Z</time>
      </trkpt>
      <trkpt lat="46.70441" lon="5.79437">
        <ele>521.7</ele>
        <time>2022-02-24T08:08:22Z</time>
      </trkpt>
      <trkpt lat="46.70435" lon="5.79435">
        <ele>521.5</ele>
        <time>2022-02-24T08:08:27Z</time>
      </trkpt>
      <trkpt lat="46.70431" lon="5.79433">
        <ele>521</ele>
        <time>2022-02-24T08:08:32Z</time>
      </trkpt>
      <trkpt lat="46.70426" lon="5.79432">
        <ele>520.7</ele>
        <time>2022-02-24T08:08:36Z</time>
      </trkpt>
      <trkpt lat="46.70421" lon="5.79431">
        <ele>520.3</ele>
        <time>2022-02-24T08:08:41Z</time>
      </trkpt>
      <trkpt lat="46.70417" lon="5.7943">
        <ele>520</ele>
        <time>2022-02-24T08:08:46Z</time>
      </trkpt>
      <trkpt lat="46.70412" lon="5.79429">
        <ele>519.6</ele>
        <time>2022-02-24T08:08:51Z</time>
      </trkpt>
      <trkpt lat="46.70407" lon="5.79428">
        <ele>519.3</ele>
        <time>2022-02-24T08:08:55Z</time>
      </trkpt>
      <trkpt lat="46.70402" lon="5.79428">
        <ele>519</ele>
        <time>2022-02-24T08:08:59Z</time>
      </trkpt>
      <trkpt lat="46.70397" lon="5.79426">
        <ele>518.9</ele>
        <time>2022-02-24T08:09:04Z</time>
      </trkpt>
      <trkpt lat="46.70392" lon="5.79426">
        <ele>519</ele>
        <time>2022-02-24T08:09:08Z</time>
      </trkpt>
      <trkpt lat="46.70387" lon="5.79426">
        <ele>519.1</ele>
        <time>2022-02-24T08:09:12Z</time>
      </trkpt>
      <trkpt lat="46.70382" lon="5.79425">
        <ele>519.4</ele>
        <time>2022-02-24T08:09:16Z</time>
      </trkpt>
      <trkpt lat="46.70378" lon="5.79424">
        <ele>519.5</ele>
        <time>2022-02-24T08:09:20Z</time>
      </trkpt>
      <trkpt lat="46.70373" lon="5.79423">
        <ele>519.7</ele>
        <time>2022-02-24T08:09:24Z</time>
      </trkpt>
      <trkpt lat="46.70367" lon="5.79422">
        <ele>519.7</ele>
        <time>2022-02-24T08:09:29Z</time>
      </trkpt>
      <trkpt lat="46.70362" lon="5.79422">
        <ele>519.5</ele>
        <time>2022-02-24T08:09:34Z</time>
      </trkpt>
      <trkpt lat="46.70357" lon="5.7942">
        <ele>519</ele>
        <time>2022-02-24T08:09:39Z</time>
      </trkpt>
      <trkpt lat="46.70352" lon="5.79419">
        <ele>518.4</ele>
        <time>2022-02-24T08:09:44Z</time>
      </trkpt>
      <trkpt lat="46.70347" lon="5.79417">
        <ele>517.6</ele>
        <time>2022-02-24T08:09:49Z</time>
      </trkpt>
      <trkpt lat="46.70342" lon="5.79416">
        <ele>517.2</ele>
        <time>2022-02-24T08:09:54Z</time>
      </trkpt>
      <trkpt lat="46.70336" lon="5.79415">
        <ele>516.6</ele>
        <time>2022-02-24T08:09:59Z</time>
      </trkpt>
      <trkpt lat="46.70332" lon="5.79411">
        <ele>516.4</ele>
        <time>2022-02-24T08:10:04Z</time>
      </trkpt>
      <trkpt lat="46.70328" lon="5.79408">
        <ele>516.1</ele>
        <time>2022-02-24T08:10:08Z</time>
      </trkpt>
      <trkpt lat="46.70322" lon="5.79405">
        <ele>515.6</ele>
        <time>2022-02-24T08:10:13Z</time>
      </trkpt>
      <trkpt lat="46.70318" lon="5.79402">
        <ele>514.9</ele>
        <time>2022-02-24T08:10:17Z</time>
      </trkpt>
      <trkpt lat="46.70313" lon="5.794">
        <ele>514.8</ele>
        <time>2022-02-24T08:10:21Z</time>
      </trkpt>
      <trkpt lat="46.70309" lon="5.79397">
        <ele>514.8</ele>
        <time>2022-02-24T08:10:25Z</time>
      </trkpt>
      <trkpt lat="46.70304" lon="5.79394">
        <ele>514.7</ele>
        <time>2022-02-24T08:10:30Z</time>
      </trkpt>
      <trkpt lat="46.70299" lon="5.7939">
        <ele>514.7</ele>
        <time>2022-02-24T08:10:35Z</time>
      </trkpt>
      <trkpt lat="46.70295" lon="5.79386">
        <ele>514.7</ele>
        <time>2022-02-24T08:10:41Z</time>
      </trkpt>
      <trkpt lat="46.7029" lon="5.79383">
        <ele>514.7</ele>
        <time>2022-02-24T08:10:46Z</time>
      </trkpt>
      <trkpt lat="46.70285" lon="5.79382">
        <ele>514.3</ele>
        <time>2022-02-24T08:10:51Z</time>
      </trkpt>
      <trkpt lat="46.7028" lon="5.7938">
        <ele>513.8</ele>
        <time>2022-02-24T08:10:56Z</time>
      </trkpt>
      <trkpt lat="46.70275" lon="5.79379">
        <ele>512.9</ele>
        <time>2022-02-24T08:11:01Z</time>
      </trkpt>
      <trkpt lat="46.7027" lon="5.79378">
        <ele>511.5</ele>
        <time>2022-02-24T08:11:06Z</time>
      </trkpt>
      <trkpt lat="46.70265" lon="5.79375">
        <ele>510.2</ele>
        <time>2022-02-24T08:11:10Z</time>
      </trkpt>
      <trkpt lat="46.7026" lon="5.79373">
        <ele>508.5</ele>
        <time>2022-02-24T08:11:15Z</time>
      </trkpt>
      <trkpt lat="46.70255" lon="5.79372">
        <ele>507.1</ele>
        <time>2022-02-24T08:11:20Z</time>
      </trkpt>
      <trkpt lat="46.70251" lon="5.79369">
        <ele>505.8</ele>
        <time>2022-02-24T08:11:25Z</time>
      </trkpt>
      <trkpt lat="46.70245" lon="5.79367">
        <ele>504.9</ele>
        <time>2022-02-24T08:11:30Z</time>
      </trkpt>
      <trkpt lat="46.7024" lon="5.79366">
        <ele>504.7</ele>
        <time>2022-02-24T08:11:34Z</time>
      </trkpt>
      <trkpt lat="46.70236" lon="5.79364">
        <ele>504.4</ele>
        <time>2022-02-24T08:11:38Z</time>
      </trkpt>
      <trkpt lat="46.7023" lon="5.79362">
        <ele>504.1</ele>
        <time>2022-02-24T08:11:43Z</time>
      </trkpt>
      <trkpt lat="46.70225" lon="5.79361">
        <ele>503.7</ele>
        <time>2022-02-24T08:11:48Z</time>
      </trkpt>
      <trkpt lat="46.70221" lon="5.79358">
        <ele>503.2</ele>
        <time>2022-02-24T08:11:53Z</time>
      </trkpt>
      <trkpt lat="46.70216" lon="5.79356">
        <ele>502.5</ele>
        <time>2022-02-24T08:11:57Z</time>
      </trkpt>
      <trkpt lat="46.70212" lon="5.79353">
        <ele>501.7</ele>
        <time>2022-02-24T08:12:01Z</time>
      </trkpt>
      <trkpt lat="46.70206" lon="5.79351">
        <ele>501.2</ele>
        <time>2022-02-24T08:12:06Z</time>
      </trkpt>
      <trkpt lat="46.70201" lon="5.79351">
        <ele>500.6</ele>
        <time>2022-02-24T08:12:11Z</time>
      </trkpt>
      <trkpt lat="46.70196" lon="5.79349">
        <ele>499.8</ele>
        <time>2022-02-24T08:12:18Z</time>
      </trkpt>
      <trkpt lat="46.70191" lon="5.79346">
        <ele>499.3</ele>
        <time>2022-02-24T08:12:22Z</time>
      </trkpt>
      <trkpt lat="46.70186" lon="5.79344">
        <ele>499.1</ele>
        <time>2022-02-24T08:12:26Z</time>
      </trkpt>
      <trkpt lat="46.70182" lon="5.79343">
        <ele>498.7</ele>
        <time>2022-02-24T08:12:30Z</time>
      </trkpt>
      <trkpt lat="46.70176" lon="5.79342">
        <ele>498.4</ele>
        <time>2022-02-24T08:12:35Z</time>
      </trkpt>
      <trkpt lat="46.70171" lon="5.7934">
        <ele>497.6</ele>
        <time>2022-02-24T08:12:40Z</time>
      </trkpt>
      <trkpt lat="46.70166" lon="5.79338">
        <ele>496.7</ele>
        <time>2022-02-24T08:12:45Z</time>
      </trkpt>
      <trkpt lat="46.70161" lon="5.79337">
        <ele>496.2</ele>
        <time>2022-02-24T08:12:51Z</time>
      </trkpt>
      <trkpt lat="46.70156" lon="5.79337">
        <ele>495.9</ele>
        <time>2022-02-24T08:12:57Z</time>
      </trkpt>
      <trkpt lat="46.70151" lon="5.79337">
        <ele>495.3</ele>
        <time>2022-02-24T08:13:01Z</time>
      </trkpt>
      <trkpt lat="46.70146" lon="5.79336">
        <ele>494.8</ele>
        <time>2022-02-24T08:13:05Z</time>
      </trkpt>
      <trkpt lat="46.70141" lon="5.79335">
        <ele>494.7</ele>
        <time>2022-02-24T08:13:09Z</time>
      </trkpt>
      <trkpt lat="46.70136" lon="5.79333">
        <ele>495.2</ele>
        <time>2022-02-24T08:13:13Z</time>
      </trkpt>
      <trkpt lat="46.70131" lon="5.79332">
        <ele>495.7</ele>
        <time>2022-02-24T08:13:17Z</time>
      </trkpt>
      <trkpt lat="46.70125" lon="5.79332">
        <ele>496.1</ele>
        <time>2022-02-24T08:13:21Z</time>
      </trkpt>
      <trkpt lat="46.70121" lon="5.79333">
        <ele>496.4</ele>
        <time>2022-02-24T08:13:24Z</time>
      </trkpt>
      <trkpt lat="46.70115" lon="5.79333">
        <ele>497.1</ele>
        <time>2022-02-24T08:13:28Z</time>
      </trkpt>
      <trkpt lat="46.70111" lon="5.79333">
        <ele>497.8</ele>
        <time>2022-02-24T08:13:32Z</time>
      </trkpt>
      <trkpt lat="46.70105" lon="5.79332">
        <ele>498.5</ele>
        <time>2022-02-24T08:13:36Z</time>
      </trkpt>
      <trkpt lat="46.701" lon="5.79333">
        <ele>499.2</ele>
        <time>2022-02-24T08:13:41Z</time>
      </trkpt>
      <trkpt lat="46.70095" lon="5.79334">
        <ele>499.2</ele>
        <time>2022-02-24T08:13:46Z</time>
      </trkpt>
      <trkpt lat="46.70091" lon="5.79335">
        <ele>498.9</ele>
        <time>2022-02-24T08:13:51Z</time>
      </trkpt>
      <trkpt lat="46.70085" lon="5.79336">
        <ele>498.4</ele>
        <time>2022-02-24T08:13:56Z</time>
      </trkpt>
      <trkpt lat="46.7008" lon="5.79338">
        <ele>498.2</ele>
        <time>2022-02-24T08:14:00Z</time>
      </trkpt>
      <trkpt lat="46.70076" lon="5.79339">
        <ele>498.3</ele>
        <time>2022-02-24T08:14:04Z</time>
      </trkpt>
      <trkpt lat="46.70071" lon="5.7934">
        <ele>498.5</ele>
        <time>2022-02-24T08:14:09Z</time>
      </trkpt>
      <trkpt lat="46.70066" lon="5.79341">
        <ele>498.8</ele>
        <time>2022-02-24T08:14:14Z</time>
      </trkpt>
      <trkpt lat="46.7006" lon="5.79342">
        <ele>499</ele>
        <time>2022-02-24T08:14:19Z</time>
      </trkpt>
      <trkpt lat="46.70056" lon="5.79343">
        <ele>499.1</ele>
        <time>2022-02-24T08:14:23Z</time>
      </trkpt>
      <trkpt lat="46.70051" lon="5.79344">
        <ele>499.2</ele>
        <time>2022-02-24T08:14:27Z</time>
      </trkpt>
      <trkpt lat="46.70046" lon="5.79345">
        <ele>499.3</ele>
        <time>2022-02-24T08:14:31Z</time>
      </trkpt>
      <trkpt lat="46.70042" lon="5.79347">
        <ele>499.4</ele>
        <time>2022-02-24T08:14:35Z</time>
      </trkpt>
      <trkpt lat="46.70037" lon="5.79347">
        <ele>499.4</ele>
        <time>2022-02-24T08:14:39Z</time>
      </trkpt>
      <trkpt lat="46.70031" lon="5.79346">
        <ele>499.2</ele>
        <time>2022-02-24T08:14:44Z</time>
      </trkpt>
      <trkpt lat="46.70026" lon="5.79346">
        <ele>498.8</ele>
        <time>2022-02-24T08:14:49Z</time>
      </trkpt>
      <trkpt lat="46.70022" lon="5.79345">
        <ele>498</ele>
        <time>2022-02-24T08:14:55Z</time>
      </trkpt>
      <trkpt lat="46.70017" lon="5.79345">
        <ele>497.5</ele>
        <time>2022-02-24T08:15:00Z</time>
      </trkpt>
      <trkpt lat="46.70012" lon="5.79345">
        <ele>497</ele>
        <time>2022-02-24T08:15:05Z</time>
      </trkpt>
      <trkpt lat="46.70006" lon="5.79344">
        <ele>496.5</ele>
        <time>2022-02-24T08:15:10Z</time>
      </trkpt>
      <trkpt lat="46.70001" lon="5.79345">
        <ele>496.4</ele>
        <time>2022-02-24T08:15:15Z</time>
      </trkpt>
      <trkpt lat="46.69995" lon="5.79346">
        <ele>496.8</ele>
        <time>2022-02-24T08:15:20Z</time>
      </trkpt>
      <trkpt lat="46.69991" lon="5.79348">
        <ele>497.4</ele>
        <time>2022-02-24T08:15:24Z</time>
      </trkpt>
      <trkpt lat="46.69986" lon="5.79349">
        <ele>498.1</ele>
        <time>2022-02-24T08:15:29Z</time>
      </trkpt>
      <trkpt lat="46.69981" lon="5.79351">
        <ele>498.4</ele>
        <time>2022-02-24T08:15:33Z</time>
      </trkpt>
      <trkpt lat="46.69977" lon="5.79353">
        <ele>498.6</ele>
        <time>2022-02-24T08:15:37Z</time>
      </trkpt>
      <trkpt lat="46.69972" lon="5.79354">
        <ele>498.7</ele>
        <time>2022-02-24T08:15:41Z</time>
      </trkpt>
      <trkpt lat="46.69967" lon="5.79356">
        <ele>498.4</ele>
        <time>2022-02-24T08:15:46Z</time>
      </trkpt>
      <trkpt lat="46.69963" lon="5.79359">
        <ele>497.6</ele>
        <time>2022-02-24T08:15:51Z</time>
      </trkpt>
      <trkpt lat="46.69958" lon="5.79362">
        <ele>497.2</ele>
        <time>2022-02-24T08:15:55Z</time>
      </trkpt>
      <trkpt lat="46.69953" lon="5.79366">
        <ele>497.1</ele>
        <time>2022-02-24T08:15:59Z</time>
      </trkpt>
      <trkpt lat="46.69948" lon="5.79369">
        <ele>496.9</ele>
        <time>2022-02-24T08:16:04Z</time>
      </trkpt>
      <trkpt lat="46.69943" lon="5.79371">
        <ele>496.7</ele>
        <time>2022-02-24T08:16:08Z</time>
      </trkpt>
      <trkpt lat="46.69939" lon="5.79374">
        <ele>496.7</ele>
        <time>2022-02-24T08:16:12Z</time>
      </trkpt>
      <trkpt lat="46.69934" lon="5.79378">
        <ele>496.9</ele>
        <time>2022-02-24T08:16:17Z</time>
      </trkpt>
      <trkpt lat="46.69929" lon="5.79381">
        <ele>496.9</ele>
        <time>2022-02-24T08:16:21Z</time>
      </trkpt>
      <trkpt lat="46.69925" lon="5.79384">
        <ele>496.9</ele>
        <time>2022-02-24T08:16:26Z</time>
      </trkpt>
      <trkpt lat="46.6992" lon="5.79385">
        <ele>497.1</ele>
        <time>2022-02-24T08:16:30Z</time>
      </trkpt>
      <trkpt lat="46.69915" lon="5.79385">
        <ele>497.3</ele>
        <time>2022-02-24T08:16:34Z</time>
      </trkpt>
      <trkpt lat="46.6991" lon="5.79385">
        <ele>497.5</ele>
        <time>2022-02-24T08:16:38Z</time>
      </trkpt>
      <trkpt lat="46.69905" lon="5.79384">
        <ele>497.1</ele>
        <time>2022-02-24T08:16:43Z</time>
      </trkpt>
      <trkpt lat="46.699" lon="5.79384">
        <ele>496.5</ele>
        <time>2022-02-24T08:16:47Z</time>
      </trkpt>
      <trkpt lat="46.69896" lon="5.79383">
        <ele>495.7</ele>
        <time>2022-02-24T08:16:51Z</time>
      </trkpt>
      <trkpt lat="46.69891" lon="5.79382">
        <ele>494.7</ele>
        <time>2022-02-24T08:16:56Z</time>
      </trkpt>
      <trkpt lat="46.69886" lon="5.7938">
        <ele>494.2</ele>
        <time>2022-02-24T08:17:00Z</time>
      </trkpt>
      <trkpt lat="46.69881" lon="5.79378">
        <ele>493.7</ele>
        <time>2022-02-24T08:17:04Z</time>
      </trkpt>
      <trkpt lat="46.69877" lon="5.79373">
        <ele>493.4</ele>
        <time>2022-02-24T08:17:08Z</time>
      </trkpt>
      <trkpt lat="46.69873" lon="5.79368">
        <ele>492.8</ele>
        <time>2022-02-24T08:17:13Z</time>
      </trkpt>
      <trkpt lat="46.6987" lon="5.79362">
        <ele>491.9</ele>
        <time>2022-02-24T08:17:19Z</time>
      </trkpt>
      <trkpt lat="46.69867" lon="5.79355">
        <ele>491.3</ele>
        <time>2022-02-24T08:17:24Z</time>
      </trkpt>
      <trkpt lat="46.69864" lon="5.79349">
        <ele>490.9</ele>
        <time>2022-02-24T08:17:29Z</time>
      </trkpt>
      <trkpt lat="46.69863" lon="5.79342">
        <ele>490.9</ele>
        <time>2022-02-24T08:17:33Z</time>
      </trkpt>
      <trkpt lat="46.69861" lon="5.79335">
        <ele>491.3</ele>
        <time>2022-02-24T08:17:39Z</time>
      </trkpt>
      <trkpt lat="46.69859" lon="5.79329">
        <ele>491.4</ele>
        <time>2022-02-24T08:17:44Z</time>
      </trkpt>
      <trkpt lat="46.69858" lon="5.79323">
        <ele>491.3</ele>
        <time>2022-02-24T08:17:48Z</time>
      </trkpt>
      <trkpt lat="46.69855" lon="5.79317">
        <ele>491.6</ele>
        <time>2022-02-24T08:17:53Z</time>
      </trkpt>
      <trkpt lat="46.69853" lon="5.7931">
        <ele>492.2</ele>
        <time>2022-02-24T08:17:57Z</time>
      </trkpt>
      <trkpt lat="46.69851" lon="5.79303">
        <ele>492.7</ele>
        <time>2022-02-24T08:18:01Z</time>
      </trkpt>
      <trkpt lat="46.69849" lon="5.79297">
        <ele>493.3</ele>
        <time>2022-02-24T08:18:05Z</time>
      </trkpt>
      <trkpt lat="46.69846" lon="5.7929">
        <ele>494.1</ele>
        <time>2022-02-24T08:18:11Z</time>
      </trkpt>
      <trkpt lat="46.69844" lon="5.79284">
        <ele>494.2</ele>
        <time>2022-02-24T08:18:16Z</time>
      </trkpt>
      <trkpt lat="46.69841" lon="5.79279">
        <ele>494.2</ele>
        <time>2022-02-24T08:18:24Z</time>
      </trkpt>
      <trkpt lat="46.69841" lon="5.79272">
        <ele>493.9</ele>
        <time>2022-02-24T08:19:53Z</time>
      </trkpt>
      <trkpt lat="46.6984" lon="5.79264">
        <ele>493.8</ele>
        <time>2022-02-24T08:19:58Z</time>
      </trkpt>
      <trkpt lat="46.69839" lon="5.79257">
        <ele>494.8</ele>
        <time>2022-02-24T08:20:03Z</time>
      </trkpt>
      <trkpt lat="46.69838" lon="5.79249">
        <ele>495.4</ele>
        <time>2022-02-24T08:20:08Z</time>
      </trkpt>
      <trkpt lat="46.69837" lon="5.79242">
        <ele>495.6</ele>
        <time>2022-02-24T08:20:12Z</time>
      </trkpt>
      <trkpt lat="46.69836" lon="5.79236">
        <ele>496.2</ele>
        <time>2022-02-24T08:20:16Z</time>
      </trkpt>
      <trkpt lat="46.69833" lon="5.79229">
        <ele>497.1</ele>
        <time>2022-02-24T08:20:21Z</time>
      </trkpt>
      <trkpt lat="46.69832" lon="5.79222">
        <ele>497.5</ele>
        <time>2022-02-24T08:20:26Z</time>
      </trkpt>
      <trkpt lat="46.69831" lon="5.79215">
        <ele>497.6</ele>
        <time>2022-02-24T08:20:30Z</time>
      </trkpt>
      <trkpt lat="46.6983" lon="5.79207">
        <ele>498</ele>
        <time>2022-02-24T08:20:34Z</time>
      </trkpt>
      <trkpt lat="46.69829" lon="5.79201">
        <ele>498.1</ele>
        <time>2022-02-24T08:20:38Z</time>
      </trkpt>
      <trkpt lat="46.69828" lon="5.79195">
        <ele>498.1</ele>
        <time>2022-02-24T08:20:42Z</time>
      </trkpt>
      <trkpt lat="46.69826" lon="5.79188">
        <ele>498.2</ele>
        <time>2022-02-24T08:20:47Z</time>
      </trkpt>
      <trkpt lat="46.69826" lon="5.7918">
        <ele>497.9</ele>
        <time>2022-02-24T08:20:53Z</time>
      </trkpt>
      <trkpt lat="46.69825" lon="5.79173">
        <ele>497.1</ele>
        <time>2022-02-24T08:20:58Z</time>
      </trkpt>
      <trkpt lat="46.69824" lon="5.79166">
        <ele>496</ele>
        <time>2022-02-24T08:21:02Z</time>
      </trkpt>
      <trkpt lat="46.69823" lon="5.79158">
        <ele>495.1</ele>
        <time>2022-02-24T08:21:06Z</time>
      </trkpt>
      <trkpt lat="46.69822" lon="5.79151">
        <ele>494.1</ele>
        <time>2022-02-24T08:21:10Z</time>
      </trkpt>
      <trkpt lat="46.69821" lon="5.79145">
        <ele>493.2</ele>
        <time>2022-02-24T08:21:15Z</time>
      </trkpt>
      <trkpt lat="46.69819" lon="5.79138">
        <ele>492.8</ele>
        <time>2022-02-24T08:21:21Z</time>
      </trkpt>
      <trkpt lat="46.69819" lon="5.79131">
        <ele>492.6</ele>
        <time>2022-02-24T08:21:29Z</time>
      </trkpt>
      <trkpt lat="46.69814" lon="5.7913">
        <ele>490.7</ele>
        <time>2022-02-24T08:22:11Z</time>
      </trkpt>
      <trkpt lat="46.69808" lon="5.79129">
        <ele>490</ele>
        <time>2022-02-24T08:22:15Z</time>
      </trkpt>
      <trkpt lat="46.69803" lon="5.79126">
        <ele>489.8</ele>
        <time>2022-02-24T08:22:19Z</time>
      </trkpt>
      <trkpt lat="46.69798" lon="5.79124">
        <ele>489.7</ele>
        <time>2022-02-24T08:22:22Z</time>
      </trkpt>
      <trkpt lat="46.69794" lon="5.79121">
        <ele>489.9</ele>
        <time>2022-02-24T08:22:25Z</time>
      </trkpt>
      <trkpt lat="46.69788" lon="5.79119">
        <ele>490.1</ele>
        <time>2022-02-24T08:22:29Z</time>
      </trkpt>
      <trkpt lat="46.69782" lon="5.79118">
        <ele>490.7</ele>
        <time>2022-02-24T08:22:32Z</time>
      </trkpt>
      <trkpt lat="46.69778" lon="5.79116">
        <ele>491.3</ele>
        <time>2022-02-24T08:22:35Z</time>
      </trkpt>
      <trkpt lat="46.69772" lon="5.79114">
        <ele>492</ele>
        <time>2022-02-24T08:22:39Z</time>
      </trkpt>
      <trkpt lat="46.69768" lon="5.79112">
        <ele>492.7</ele>
        <time>2022-02-24T08:22:42Z</time>
      </trkpt>
      <trkpt lat="46.69762" lon="5.79111">
        <ele>493.6</ele>
        <time>2022-02-24T08:22:46Z</time>
      </trkpt>
      <trkpt lat="46.69758" lon="5.79108">
        <ele>494.4</ele>
        <time>2022-02-24T08:22:49Z</time>
      </trkpt>
      <trkpt lat="46.69752" lon="5.79105">
        <ele>495.4</ele>
        <time>2022-02-24T08:22:53Z</time>
      </trkpt>
      <trkpt lat="46.69747" lon="5.79103">
        <ele>496.2</ele>
        <time>2022-02-24T08:22:57Z</time>
      </trkpt>
      <trkpt lat="46.69742" lon="5.79101">
        <ele>496.8</ele>
        <time>2022-02-24T08:23:01Z</time>
      </trkpt>
      <trkpt lat="46.69737" lon="5.79099">
        <ele>497.3</ele>
        <time>2022-02-24T08:23:05Z</time>
      </trkpt>
      <trkpt lat="46.69732" lon="5.79097">
        <ele>497.9</ele>
        <time>2022-02-24T08:23:08Z</time>
      </trkpt>
      <trkpt lat="46.69727" lon="5.79097">
        <ele>498.2</ele>
        <time>2022-02-24T08:23:11Z</time>
      </trkpt>
      <trkpt lat="46.69722" lon="5.79093">
        <ele>498.5</ele>
        <time>2022-02-24T08:23:15Z</time>
      </trkpt>
      <trkpt lat="46.69717" lon="5.7909">
        <ele>498.7</ele>
        <time>2022-02-24T08:23:19Z</time>
      </trkpt>
      <trkpt lat="46.69712" lon="5.79087">
        <ele>498.9</ele>
        <time>2022-02-24T08:23:23Z</time>
      </trkpt>
      <trkpt lat="46.69707" lon="5.79086">
        <ele>498.9</ele>
        <time>2022-02-24T08:23:26Z</time>
      </trkpt>
      <trkpt lat="46.69703" lon="5.79085">
        <ele>498.8</ele>
        <time>2022-02-24T08:23:29Z</time>
      </trkpt>
      <trkpt lat="46.69698" lon="5.79083">
        <ele>498.8</ele>
        <time>2022-02-24T08:23:33Z</time>
      </trkpt>
      <trkpt lat="46.69693" lon="5.7908">
        <ele>498.6</ele>
        <time>2022-02-24T08:23:37Z</time>
      </trkpt>
      <trkpt lat="46.69689" lon="5.79077">
        <ele>498.5</ele>
        <time>2022-02-24T08:23:40Z</time>
      </trkpt>
      <trkpt lat="46.69684" lon="5.79075">
        <ele>498.4</ele>
        <time>2022-02-24T08:23:44Z</time>
      </trkpt>
      <trkpt lat="46.69678" lon="5.79072">
        <ele>498.4</ele>
        <time>2022-02-24T08:23:48Z</time>
      </trkpt>
      <trkpt lat="46.69673" lon="5.7907">
        <ele>498.2</ele>
        <time>2022-02-24T08:23:52Z</time>
      </trkpt>
      <trkpt lat="46.69668" lon="5.79067">
        <ele>498</ele>
        <time>2022-02-24T08:23:56Z</time>
      </trkpt>
      <trkpt lat="46.69664" lon="5.79065">
        <ele>497.8</ele>
        <time>2022-02-24T08:23:59Z</time>
      </trkpt>
      <trkpt lat="46.69659" lon="5.79063">
        <ele>497.7</ele>
        <time>2022-02-24T08:24:02Z</time>
      </trkpt>
      <trkpt lat="46.69654" lon="5.79062">
        <ele>497.8</ele>
        <time>2022-02-24T08:24:05Z</time>
      </trkpt>
      <trkpt lat="46.69649" lon="5.7906">
        <ele>497.8</ele>
        <time>2022-02-24T08:24:09Z</time>
      </trkpt>
      <trkpt lat="46.69644" lon="5.79057">
        <ele>497.8</ele>
        <time>2022-02-24T08:24:13Z</time>
      </trkpt>
      <trkpt lat="46.69639" lon="5.79055">
        <ele>497.8</ele>
        <time>2022-02-24T08:24:17Z</time>
      </trkpt>
      <trkpt lat="46.69634" lon="5.79053">
        <ele>497.7</ele>
        <time>2022-02-24T08:24:20Z</time>
      </trkpt>
      <trkpt lat="46.69629" lon="5.79052">
        <ele>497.8</ele>
        <time>2022-02-24T08:24:24Z</time>
      </trkpt>
      <trkpt lat="46.69624" lon="5.7905">
        <ele>497.7</ele>
        <time>2022-02-24T08:24:27Z</time>
      </trkpt>
      <trkpt lat="46.69618" lon="5.79048">
        <ele>497.5</ele>
        <time>2022-02-24T08:24:31Z</time>
      </trkpt>
      <trkpt lat="46.69614" lon="5.79044">
        <ele>497.2</ele>
        <time>2022-02-24T08:24:35Z</time>
      </trkpt>
      <trkpt lat="46.69609" lon="5.79041">
        <ele>496.9</ele>
        <time>2022-02-24T08:24:39Z</time>
      </trkpt>
      <trkpt lat="46.69604" lon="5.79039">
        <ele>497.1</ele>
        <time>2022-02-24T08:24:44Z</time>
      </trkpt>
      <trkpt lat="46.69599" lon="5.79038">
        <ele>497.5</ele>
        <time>2022-02-24T08:24:48Z</time>
      </trkpt>
      <trkpt lat="46.69595" lon="5.79037">
        <ele>497.6</ele>
        <time>2022-02-24T08:24:51Z</time>
      </trkpt>
      <trkpt lat="46.6959" lon="5.79035">
        <ele>497.9</ele>
        <time>2022-02-24T08:24:55Z</time>
      </trkpt>
      <trkpt lat="46.69585" lon="5.79033">
        <ele>498.4</ele>
        <time>2022-02-24T08:25:00Z</time>
      </trkpt>
      <trkpt lat="46.69581" lon="5.79031">
        <ele>498.7</ele>
        <time>2022-02-24T08:25:04Z</time>
      </trkpt>
      <trkpt lat="46.69576" lon="5.79029">
        <ele>498.7</ele>
        <time>2022-02-24T08:25:08Z</time>
      </trkpt>
      <trkpt lat="46.69571" lon="5.79026">
        <ele>498.8</ele>
        <time>2022-02-24T08:25:13Z</time>
      </trkpt>
      <trkpt lat="46.69567" lon="5.79025">
        <ele>499</ele>
        <time>2022-02-24T08:25:17Z</time>
      </trkpt>
      <trkpt lat="46.69562" lon="5.79023">
        <ele>499.1</ele>
        <time>2022-02-24T08:25:22Z</time>
      </trkpt>
      <trkpt lat="46.69557" lon="5.7902">
        <ele>499.3</ele>
        <time>2022-02-24T08:25:27Z</time>
      </trkpt>
      <trkpt lat="46.69552" lon="5.79018">
        <ele>499.5</ele>
        <time>2022-02-24T08:25:31Z</time>
      </trkpt>
      <trkpt lat="46.69547" lon="5.79016">
        <ele>499.7</ele>
        <time>2022-02-24T08:25:35Z</time>
      </trkpt>
      <trkpt lat="46.69543" lon="5.79014">
        <ele>500.1</ele>
        <time>2022-02-24T08:25:39Z</time>
      </trkpt>
      <trkpt lat="46.69538" lon="5.79012">
        <ele>500.5</ele>
        <time>2022-02-24T08:25:43Z</time>
      </trkpt>
      <trkpt lat="46.69534" lon="5.79011">
        <ele>501.3</ele>
        <time>2022-02-24T08:25:47Z</time>
      </trkpt>
      <trkpt lat="46.69529" lon="5.79009">
        <ele>501.8</ele>
        <time>2022-02-24T08:25:52Z</time>
      </trkpt>
      <trkpt lat="46.69524" lon="5.79006">
        <ele>501.6</ele>
        <time>2022-02-24T08:25:57Z</time>
      </trkpt>
      <trkpt lat="46.6952" lon="5.79003">
        <ele>501.2</ele>
        <time>2022-02-24T08:26:01Z</time>
      </trkpt>
      <trkpt lat="46.69516" lon="5.79001">
        <ele>500.9</ele>
        <time>2022-02-24T08:26:05Z</time>
      </trkpt>
      <trkpt lat="46.69511" lon="5.78999">
        <ele>500.6</ele>
        <time>2022-02-24T08:26:09Z</time>
      </trkpt>
      <trkpt lat="46.69506" lon="5.78997">
        <ele>500.5</ele>
        <time>2022-02-24T08:26:13Z</time>
      </trkpt>
      <trkpt lat="46.69502" lon="5.78995">
        <ele>500.6</ele>
        <time>2022-02-24T08:26:17Z</time>
      </trkpt>
      <trkpt lat="46.69497" lon="5.78993">
        <ele>500.6</ele>
        <time>2022-02-24T08:26:21Z</time>
      </trkpt>
      <trkpt lat="46.69492" lon="5.7899">
        <ele>500.4</ele>
        <time>2022-02-24T08:26:25Z</time>
      </trkpt>
      <trkpt lat="46.69487" lon="5.78988">
        <ele>500.1</ele>
        <time>2022-02-24T08:26:30Z</time>
      </trkpt>
      <trkpt lat="46.69483" lon="5.78985">
        <ele>499.9</ele>
        <time>2022-02-24T08:26:35Z</time>
      </trkpt>
      <trkpt lat="46.69478" lon="5.78982">
        <ele>499.9</ele>
        <time>2022-02-24T08:26:39Z</time>
      </trkpt>
      <trkpt lat="46.69473" lon="5.7898">
        <ele>499.9</ele>
        <time>2022-02-24T08:26:43Z</time>
      </trkpt>
      <trkpt lat="46.69468" lon="5.78976">
        <ele>499.7</ele>
        <time>2022-02-24T08:26:48Z</time>
      </trkpt>
      <trkpt lat="46.69464" lon="5.78972">
        <ele>499.3</ele>
        <time>2022-02-24T08:26:53Z</time>
      </trkpt>
      <trkpt lat="46.69459" lon="5.78971">
        <ele>499.4</ele>
        <time>2022-02-24T08:26:57Z</time>
      </trkpt>
      <trkpt lat="46.69455" lon="5.78969">
        <ele>499.7</ele>
        <time>2022-02-24T08:27:01Z</time>
      </trkpt>
      <trkpt lat="46.69449" lon="5.78968">
        <ele>500</ele>
        <time>2022-02-24T08:27:06Z</time>
      </trkpt>
      <trkpt lat="46.69444" lon="5.78966">
        <ele>500.3</ele>
        <time>2022-02-24T08:27:11Z</time>
      </trkpt>
      <trkpt lat="46.69439" lon="5.78964">
        <ele>500.8</ele>
        <time>2022-02-24T08:27:16Z</time>
      </trkpt>
      <trkpt lat="46.69434" lon="5.78963">
        <ele>500.8</ele>
        <time>2022-02-24T08:27:20Z</time>
      </trkpt>
      <trkpt lat="46.69429" lon="5.7896">
        <ele>500.8</ele>
        <time>2022-02-24T08:27:24Z</time>
      </trkpt>
      <trkpt lat="46.69424" lon="5.78957">
        <ele>500.5</ele>
        <time>2022-02-24T08:27:29Z</time>
      </trkpt>
      <trkpt lat="46.6942" lon="5.78955">
        <ele>500.5</ele>
        <time>2022-02-24T08:27:34Z</time>
      </trkpt>
      <trkpt lat="46.69415" lon="5.78954">
        <ele>500.3</ele>
        <time>2022-02-24T08:27:38Z</time>
      </trkpt>
      <trkpt lat="46.6941" lon="5.78953">
        <ele>500</ele>
        <time>2022-02-24T08:27:43Z</time>
      </trkpt>
      <trkpt lat="46.69405" lon="5.7895">
        <ele>499.4</ele>
        <time>2022-02-24T08:27:48Z</time>
      </trkpt>
      <trkpt lat="46.69401" lon="5.78948">
        <ele>499</ele>
        <time>2022-02-24T08:27:52Z</time>
      </trkpt>
      <trkpt lat="46.69396" lon="5.78946">
        <ele>499.2</ele>
        <time>2022-02-24T08:27:56Z</time>
      </trkpt>
      <trkpt lat="46.69391" lon="5.78943">
        <ele>499.6</ele>
        <time>2022-02-24T08:28:00Z</time>
      </trkpt>
      <trkpt lat="46.69387" lon="5.78941">
        <ele>500.2</ele>
        <time>2022-02-24T08:28:04Z</time>
      </trkpt>
      <trkpt lat="46.69381" lon="5.7894">
        <ele>500.8</ele>
        <time>2022-02-24T08:28:09Z</time>
      </trkpt>
      <trkpt lat="46.69376" lon="5.78937">
        <ele>501.5</ele>
        <time>2022-02-24T08:28:14Z</time>
      </trkpt>
      <trkpt lat="46.69372" lon="5.78935">
        <ele>501.8</ele>
        <time>2022-02-24T08:28:19Z</time>
      </trkpt>
      <trkpt lat="46.69367" lon="5.78933">
        <ele>501.8</ele>
        <time>2022-02-24T08:28:24Z</time>
      </trkpt>
      <trkpt lat="46.69363" lon="5.78931">
        <ele>501.7</ele>
        <time>2022-02-24T08:28:28Z</time>
      </trkpt>
      <trkpt lat="46.69358" lon="5.78928">
        <ele>501.5</ele>
        <time>2022-02-24T08:28:33Z</time>
      </trkpt>
      <trkpt lat="46.69353" lon="5.78926">
        <ele>501.4</ele>
        <time>2022-02-24T08:28:38Z</time>
      </trkpt>
      <trkpt lat="46.69349" lon="5.78924">
        <ele>501.4</ele>
        <time>2022-02-24T08:28:42Z</time>
      </trkpt>
      <trkpt lat="46.69343" lon="5.78922">
        <ele>501.5</ele>
        <time>2022-02-24T08:28:47Z</time>
      </trkpt>
      <trkpt lat="46.69339" lon="5.78919">
        <ele>501.7</ele>
        <time>2022-02-24T08:28:51Z</time>
      </trkpt>
      <trkpt lat="46.69334" lon="5.78916">
        <ele>501.9</ele>
        <time>2022-02-24T08:28:56Z</time>
      </trkpt>
      <trkpt lat="46.6933" lon="5.78914">
        <ele>502</ele>
        <time>2022-02-24T08:29:00Z</time>
      </trkpt>
      <trkpt lat="46.69325" lon="5.7891">
        <ele>501.9</ele>
        <time>2022-02-24T08:29:04Z</time>
      </trkpt>
      <trkpt lat="46.69321" lon="5.78908">
        <ele>501.8</ele>
        <time>2022-02-24T08:29:08Z</time>
      </trkpt>
      <trkpt lat="46.69317" lon="5.78904">
        <ele>501.6</ele>
        <time>2022-02-24T08:29:13Z</time>
      </trkpt>
      <trkpt lat="46.69311" lon="5.78901">
        <ele>501.5</ele>
        <time>2022-02-24T08:29:18Z</time>
      </trkpt>
      <trkpt lat="46.69307" lon="5.789">
        <ele>501.4</ele>
        <time>2022-02-24T08:29:22Z</time>
      </trkpt>
      <trkpt lat="46.69302" lon="5.78897">
        <ele>501.6</ele>
        <time>2022-02-24T08:29:26Z</time>
      </trkpt>
      <trkpt lat="46.69298" lon="5.78894">
        <ele>501.8</ele>
        <time>2022-02-24T08:29:30Z</time>
      </trkpt>
      <trkpt lat="46.69293" lon="5.78891">
        <ele>501.8</ele>
        <time>2022-02-24T08:29:35Z</time>
      </trkpt>
      <trkpt lat="46.69288" lon="5.78888">
        <ele>501.6</ele>
        <time>2022-02-24T08:29:40Z</time>
      </trkpt>
      <trkpt lat="46.69283" lon="5.78885">
        <ele>501.2</ele>
        <time>2022-02-24T08:29:44Z</time>
      </trkpt>
      <trkpt lat="46.69279" lon="5.78882">
        <ele>500.8</ele>
        <time>2022-02-24T08:29:48Z</time>
      </trkpt>
      <trkpt lat="46.69274" lon="5.78878">
        <ele>500.3</ele>
        <time>2022-02-24T08:29:53Z</time>
      </trkpt>
      <trkpt lat="46.6927" lon="5.78876">
        <ele>500</ele>
        <time>2022-02-24T08:29:57Z</time>
      </trkpt>
      <trkpt lat="46.69265" lon="5.78873">
        <ele>500.1</ele>
        <time>2022-02-24T08:30:01Z</time>
      </trkpt>
      <trkpt lat="46.6926" lon="5.78872">
        <ele>500.4</ele>
        <time>2022-02-24T08:30:05Z</time>
      </trkpt>
      <trkpt lat="46.69255" lon="5.78869">
        <ele>501</ele>
        <time>2022-02-24T08:30:10Z</time>
      </trkpt>
      <trkpt lat="46.6925" lon="5.78867">
        <ele>501.3</ele>
        <time>2022-02-24T08:30:14Z</time>
      </trkpt>
      <trkpt lat="46.69245" lon="5.78865">
        <ele>501.7</ele>
        <time>2022-02-24T08:30:18Z</time>
      </trkpt>
      <trkpt lat="46.6924" lon="5.78862">
        <ele>502.3</ele>
        <time>2022-02-24T08:30:23Z</time>
      </trkpt>
      <trkpt lat="46.69236" lon="5.7886">
        <ele>502.7</ele>
        <time>2022-02-24T08:30:28Z</time>
      </trkpt>
      <trkpt lat="46.69231" lon="5.78857">
        <ele>503</ele>
        <time>2022-02-24T08:30:33Z</time>
      </trkpt>
      <trkpt lat="46.69226" lon="5.78853">
        <ele>503.5</ele>
        <time>2022-02-24T08:30:38Z</time>
      </trkpt>
      <trkpt lat="46.69222" lon="5.7885">
        <ele>503.8</ele>
        <time>2022-02-24T08:30:42Z</time>
      </trkpt>
      <trkpt lat="46.69218" lon="5.78847">
        <ele>504.1</ele>
        <time>2022-02-24T08:30:46Z</time>
      </trkpt>
      <trkpt lat="46.69212" lon="5.78844">
        <ele>504.6</ele>
        <time>2022-02-24T08:30:51Z</time>
      </trkpt>
      <trkpt lat="46.69208" lon="5.78843">
        <ele>505.1</ele>
        <time>2022-02-24T08:30:55Z</time>
      </trkpt>
      <trkpt lat="46.69203" lon="5.78839">
        <ele>505.6</ele>
        <time>2022-02-24T08:31:00Z</time>
      </trkpt>
      <trkpt lat="46.69199" lon="5.78836">
        <ele>506.1</ele>
        <time>2022-02-24T08:31:05Z</time>
      </trkpt>
      <trkpt lat="46.69194" lon="5.78833">
        <ele>506.6</ele>
        <time>2022-02-24T08:31:10Z</time>
      </trkpt>
      <trkpt lat="46.69189" lon="5.78829">
        <ele>506.7</ele>
        <time>2022-02-24T08:31:15Z</time>
      </trkpt>
      <trkpt lat="46.69185" lon="5.78827">
        <ele>506.5</ele>
        <time>2022-02-24T08:31:19Z</time>
      </trkpt>
      <trkpt lat="46.6918" lon="5.78824">
        <ele>506.6</ele>
        <time>2022-02-24T08:31:23Z</time>
      </trkpt>
      <trkpt lat="46.69176" lon="5.78822">
        <ele>506.7</ele>
        <time>2022-02-24T08:31:27Z</time>
      </trkpt>
      <trkpt lat="46.69171" lon="5.7882">
        <ele>506.6</ele>
        <time>2022-02-24T08:31:32Z</time>
      </trkpt>
      <trkpt lat="46.69166" lon="5.78819">
        <ele>506.6</ele>
        <time>2022-02-24T08:31:36Z</time>
      </trkpt>
      <trkpt lat="46.69161" lon="5.78817">
        <ele>506.3</ele>
        <time>2022-02-24T08:31:41Z</time>
      </trkpt>
      <trkpt lat="46.69157" lon="5.78815">
        <ele>506.1</ele>
        <time>2022-02-24T08:31:45Z</time>
      </trkpt>
      <trkpt lat="46.69152" lon="5.78814">
        <ele>506.1</ele>
        <time>2022-02-24T08:31:49Z</time>
      </trkpt>
      <trkpt lat="46.69146" lon="5.78812">
        <ele>506.1</ele>
        <time>2022-02-24T08:31:54Z</time>
      </trkpt>
      <trkpt lat="46.69142" lon="5.78811">
        <ele>506.2</ele>
        <time>2022-02-24T08:31:58Z</time>
      </trkpt>
      <trkpt lat="46.69137" lon="5.78809">
        <ele>506.2</ele>
        <time>2022-02-24T08:32:03Z</time>
      </trkpt>
      <trkpt lat="46.69132" lon="5.78808">
        <ele>506.4</ele>
        <time>2022-02-24T08:32:08Z</time>
      </trkpt>
      <trkpt lat="46.69127" lon="5.78807">
        <ele>506.5</ele>
        <time>2022-02-24T08:32:13Z</time>
      </trkpt>
      <trkpt lat="46.69122" lon="5.78805">
        <ele>506.4</ele>
        <time>2022-02-24T08:32:18Z</time>
      </trkpt>
      <trkpt lat="46.69117" lon="5.78803">
        <ele>506.5</ele>
        <time>2022-02-24T08:32:23Z</time>
      </trkpt>
      <trkpt lat="46.69111" lon="5.78801">
        <ele>506.5</ele>
        <time>2022-02-24T08:32:28Z</time>
      </trkpt>
      <trkpt lat="46.69107" lon="5.78801">
        <ele>506.5</ele>
        <time>2022-02-24T08:32:32Z</time>
      </trkpt>
      <trkpt lat="46.69102" lon="5.78799">
        <ele>506.7</ele>
        <time>2022-02-24T08:32:36Z</time>
      </trkpt>
      <trkpt lat="46.69096" lon="5.78798">
        <ele>507</ele>
        <time>2022-02-24T08:32:40Z</time>
      </trkpt>
      <trkpt lat="46.69091" lon="5.78797">
        <ele>507.3</ele>
        <time>2022-02-24T08:32:45Z</time>
      </trkpt>
      <trkpt lat="46.69087" lon="5.78796">
        <ele>507.1</ele>
        <time>2022-02-24T08:32:50Z</time>
      </trkpt>
      <trkpt lat="46.69082" lon="5.78794">
        <ele>506.8</ele>
        <time>2022-02-24T08:32:55Z</time>
      </trkpt>
      <trkpt lat="46.69077" lon="5.78792">
        <ele>506.9</ele>
        <time>2022-02-24T08:33:00Z</time>
      </trkpt>
      <trkpt lat="46.69072" lon="5.7879">
        <ele>507.2</ele>
        <time>2022-02-24T08:33:05Z</time>
      </trkpt>
      <trkpt lat="46.69067" lon="5.78788">
        <ele>508</ele>
        <time>2022-02-24T08:33:09Z</time>
      </trkpt>
      <trkpt lat="46.69062" lon="5.78785">
        <ele>508.9</ele>
        <time>2022-02-24T08:33:13Z</time>
      </trkpt>
      <trkpt lat="46.69057" lon="5.78782">
        <ele>510.1</ele>
        <time>2022-02-24T08:33:17Z</time>
      </trkpt>
      <trkpt lat="46.69053" lon="5.78779">
        <ele>511.2</ele>
        <time>2022-02-24T08:33:21Z</time>
      </trkpt>
      <trkpt lat="46.69048" lon="5.78776">
        <ele>512.4</ele>
        <time>2022-02-24T08:33:26Z</time>
      </trkpt>
      <trkpt lat="46.69043" lon="5.78773">
        <ele>513.2</ele>
        <time>2022-02-24T08:33:31Z</time>
      </trkpt>
      <trkpt lat="46.69039" lon="5.78769">
        <ele>513.9</ele>
        <time>2022-02-24T08:33:36Z</time>
      </trkpt>
      <trkpt lat="46.69035" lon="5.78766">
        <ele>514.5</ele>
        <time>2022-02-24T08:33:40Z</time>
      </trkpt>
      <trkpt lat="46.69031" lon="5.78762">
        <ele>515</ele>
        <time>2022-02-24T08:33:44Z</time>
      </trkpt>
      <trkpt lat="46.69027" lon="5.78758">
        <ele>515.2</ele>
        <time>2022-02-24T08:33:48Z</time>
      </trkpt>
      <trkpt lat="46.69023" lon="5.78754">
        <ele>515.4</ele>
        <time>2022-02-24T08:33:54Z</time>
      </trkpt>
      <trkpt lat="46.69018" lon="5.78751">
        <ele>515.7</ele>
        <time>2022-02-24T08:33:58Z</time>
      </trkpt>
      <trkpt lat="46.69014" lon="5.78748">
        <ele>516.3</ele>
        <time>2022-02-24T08:34:02Z</time>
      </trkpt>
      <trkpt lat="46.6901" lon="5.78744">
        <ele>517.1</ele>
        <time>2022-02-24T08:34:06Z</time>
      </trkpt>
      <trkpt lat="46.69006" lon="5.78741">
        <ele>518</ele>
        <time>2022-02-24T08:34:10Z</time>
      </trkpt>
      <trkpt lat="46.69001" lon="5.78738">
        <ele>518.8</ele>
        <time>2022-02-24T08:34:15Z</time>
      </trkpt>
      <trkpt lat="46.68996" lon="5.78735">
        <ele>519.3</ele>
        <time>2022-02-24T08:34:19Z</time>
      </trkpt>
      <trkpt lat="46.68991" lon="5.78731">
        <ele>519.7</ele>
        <time>2022-02-24T08:34:24Z</time>
      </trkpt>
      <trkpt lat="46.68987" lon="5.78728">
        <ele>519.8</ele>
        <time>2022-02-24T08:34:28Z</time>
      </trkpt>
      <trkpt lat="46.68982" lon="5.78725">
        <ele>519.7</ele>
        <time>2022-02-24T08:34:33Z</time>
      </trkpt>
      <trkpt lat="46.68978" lon="5.78723">
        <ele>519.3</ele>
        <time>2022-02-24T08:34:37Z</time>
      </trkpt>
      <trkpt lat="46.68973" lon="5.78721">
        <ele>518.9</ele>
        <time>2022-02-24T08:34:41Z</time>
      </trkpt>
      <trkpt lat="46.68969" lon="5.78717">
        <ele>518.7</ele>
        <time>2022-02-24T08:34:46Z</time>
      </trkpt>
      <trkpt lat="46.68964" lon="5.78714">
        <ele>518.4</ele>
        <time>2022-02-24T08:34:51Z</time>
      </trkpt>
      <trkpt lat="46.68959" lon="5.78713">
        <ele>517.8</ele>
        <time>2022-02-24T08:34:56Z</time>
      </trkpt>
      <trkpt lat="46.68954" lon="5.7871">
        <ele>517.4</ele>
        <time>2022-02-24T08:35:00Z</time>
      </trkpt>
      <trkpt lat="46.68949" lon="5.78708">
        <ele>517.3</ele>
        <time>2022-02-24T08:35:04Z</time>
      </trkpt>
      <trkpt lat="46.68944" lon="5.78705">
        <ele>517.2</ele>
        <time>2022-02-24T08:35:08Z</time>
      </trkpt>
      <trkpt lat="46.6894" lon="5.78702">
        <ele>517</ele>
        <time>2022-02-24T08:35:12Z</time>
      </trkpt>
      <trkpt lat="46.68936" lon="5.78698">
        <ele>516.6</ele>
        <time>2022-02-24T08:35:16Z</time>
      </trkpt>
      <trkpt lat="46.68932" lon="5.78695">
        <ele>516.3</ele>
        <time>2022-02-24T08:35:20Z</time>
      </trkpt>
      <trkpt lat="46.68928" lon="5.78692">
        <ele>516</ele>
        <time>2022-02-24T08:35:24Z</time>
      </trkpt>
      <trkpt lat="46.68923" lon="5.78689">
        <ele>515.6</ele>
        <time>2022-02-24T08:35:29Z</time>
      </trkpt>
      <trkpt lat="46.68918" lon="5.78685">
        <ele>515.2</ele>
        <time>2022-02-24T08:35:34Z</time>
      </trkpt>
      <trkpt lat="46.68914" lon="5.78682">
        <ele>515.1</ele>
        <time>2022-02-24T08:35:38Z</time>
      </trkpt>
      <trkpt lat="46.6891" lon="5.78679">
        <ele>515.1</ele>
        <time>2022-02-24T08:35:42Z</time>
      </trkpt>
      <trkpt lat="46.68905" lon="5.78676">
        <ele>515.2</ele>
        <time>2022-02-24T08:35:46Z</time>
      </trkpt>
      <trkpt lat="46.689" lon="5.78673">
        <ele>515.1</ele>
        <time>2022-02-24T08:35:50Z</time>
      </trkpt>
      <trkpt lat="46.68896" lon="5.7867">
        <ele>515</ele>
        <time>2022-02-24T08:35:54Z</time>
      </trkpt>
      <trkpt lat="46.68892" lon="5.78666">
        <ele>514.8</ele>
        <time>2022-02-24T08:35:59Z</time>
      </trkpt>
      <trkpt lat="46.68889" lon="5.78661">
        <ele>514.6</ele>
        <time>2022-02-24T08:36:04Z</time>
      </trkpt>
      <trkpt lat="46.68885" lon="5.78658">
        <ele>514.3</ele>
        <time>2022-02-24T08:36:08Z</time>
      </trkpt>
      <trkpt lat="46.6888" lon="5.78655">
        <ele>514</ele>
        <time>2022-02-24T08:36:12Z</time>
      </trkpt>
      <trkpt lat="46.68876" lon="5.78651">
        <ele>513.9</ele>
        <time>2022-02-24T08:36:16Z</time>
      </trkpt>
      <trkpt lat="46.68872" lon="5.78646">
        <ele>513.5</ele>
        <time>2022-02-24T08:36:20Z</time>
      </trkpt>
      <trkpt lat="46.68869" lon="5.78642">
        <ele>513</ele>
        <time>2022-02-24T08:36:24Z</time>
      </trkpt>
      <trkpt lat="46.68866" lon="5.78636">
        <ele>511.8</ele>
        <time>2022-02-24T08:36:29Z</time>
      </trkpt>
      <trkpt lat="46.68864" lon="5.7863">
        <ele>509.3</ele>
        <time>2022-02-24T08:36:34Z</time>
      </trkpt>
      <trkpt lat="46.68862" lon="5.78623">
        <ele>506.3</ele>
        <time>2022-02-24T08:36:40Z</time>
      </trkpt>
      <trkpt lat="46.68859" lon="5.78617">
        <ele>504.3</ele>
        <time>2022-02-24T08:36:45Z</time>
      </trkpt>
      <trkpt lat="46.68857" lon="5.78611">
        <ele>503.4</ele>
        <time>2022-02-24T08:36:49Z</time>
      </trkpt>
      <trkpt lat="46.68854" lon="5.78606">
        <ele>503</ele>
        <time>2022-02-24T08:36:53Z</time>
      </trkpt>
      <trkpt lat="46.68851" lon="5.78599">
        <ele>502.9</ele>
        <time>2022-02-24T08:36:57Z</time>
      </trkpt>
      <trkpt lat="46.68849" lon="5.78593">
        <ele>502.9</ele>
        <time>2022-02-24T08:37:01Z</time>
      </trkpt>
      <trkpt lat="46.68846" lon="5.78587">
        <ele>503</ele>
        <time>2022-02-24T08:37:05Z</time>
      </trkpt>
      <trkpt lat="46.68844" lon="5.78581">
        <ele>503.1</ele>
        <time>2022-02-24T08:37:09Z</time>
      </trkpt>
      <trkpt lat="46.68841" lon="5.78575">
        <ele>503.3</ele>
        <time>2022-02-24T08:37:14Z</time>
      </trkpt>
      <trkpt lat="46.68839" lon="5.7857">
        <ele>503.2</ele>
        <time>2022-02-24T08:37:18Z</time>
      </trkpt>
      <trkpt lat="46.68835" lon="5.78565">
        <ele>503.2</ele>
        <time>2022-02-24T08:37:22Z</time>
      </trkpt>
      <trkpt lat="46.68831" lon="5.78561">
        <ele>503.2</ele>
        <time>2022-02-24T08:37:28Z</time>
      </trkpt>
      <trkpt lat="46.68827" lon="5.78555">
        <ele>503.3</ele>
        <time>2022-02-24T08:37:33Z</time>
      </trkpt>
      <trkpt lat="46.68824" lon="5.7855">
        <ele>503.3</ele>
        <time>2022-02-24T08:37:37Z</time>
      </trkpt>
      <trkpt lat="46.6882" lon="5.78546">
        <ele>503.4</ele>
        <time>2022-02-24T08:37:42Z</time>
      </trkpt>
      <trkpt lat="46.68816" lon="5.78541">
        <ele>503.4</ele>
        <time>2022-02-24T08:37:46Z</time>
      </trkpt>
      <trkpt lat="46.68813" lon="5.78537">
        <ele>503.5</ele>
        <time>2022-02-24T08:37:50Z</time>
      </trkpt>
      <trkpt lat="46.68808" lon="5.78532">
        <ele>503.8</ele>
        <time>2022-02-24T08:37:55Z</time>
      </trkpt>
      <trkpt lat="46.68803" lon="5.78529">
        <ele>504.4</ele>
        <time>2022-02-24T08:38:00Z</time>
      </trkpt>
      <trkpt lat="46.68798" lon="5.78527">
        <ele>505.2</ele>
        <time>2022-02-24T08:38:05Z</time>
      </trkpt>
      <trkpt lat="46.68793" lon="5.78525">
        <ele>506.2</ele>
        <time>2022-02-24T08:38:10Z</time>
      </trkpt>
      <trkpt lat="46.68789" lon="5.78523">
        <ele>506.9</ele>
        <time>2022-02-24T08:38:14Z</time>
      </trkpt>
      <trkpt lat="46.68784" lon="5.78521">
        <ele>507.7</ele>
        <time>2022-02-24T08:38:18Z</time>
      </trkpt>
      <trkpt lat="46.6878" lon="5.78518">
        <ele>508.5</ele>
        <time>2022-02-24T08:38:23Z</time>
      </trkpt>
      <trkpt lat="46.68775" lon="5.78516">
        <ele>509.3</ele>
        <time>2022-02-24T08:38:28Z</time>
      </trkpt>
      <trkpt lat="46.6877" lon="5.78514">
        <ele>510.1</ele>
        <time>2022-02-24T08:38:33Z</time>
      </trkpt>
      <trkpt lat="46.68765" lon="5.78511">
        <ele>510.7</ele>
        <time>2022-02-24T08:38:38Z</time>
      </trkpt>
      <trkpt lat="46.68761" lon="5.78508">
        <ele>511.1</ele>
        <time>2022-02-24T08:38:43Z</time>
      </trkpt>
      <trkpt lat="46.68757" lon="5.78505">
        <ele>511.4</ele>
        <time>2022-02-24T08:38:47Z</time>
      </trkpt>
      <trkpt lat="46.68753" lon="5.78502">
        <ele>511.8</ele>
        <time>2022-02-24T08:38:51Z</time>
      </trkpt>
      <trkpt lat="46.68749" lon="5.78497">
        <ele>512.3</ele>
        <time>2022-02-24T08:38:56Z</time>
      </trkpt>
      <trkpt lat="46.68744" lon="5.78494">
        <ele>512.7</ele>
        <time>2022-02-24T08:39:00Z</time>
      </trkpt>
      <trkpt lat="46.6874" lon="5.78491">
        <ele>513.4</ele>
        <time>2022-02-24T08:39:05Z</time>
      </trkpt>
      <trkpt lat="46.68735" lon="5.78488">
        <ele>514</ele>
        <time>2022-02-24T08:39:10Z</time>
      </trkpt>
      <trkpt lat="46.6873" lon="5.78485">
        <ele>514.8</ele>
        <time>2022-02-24T08:39:15Z</time>
      </trkpt>
      <trkpt lat="46.68725" lon="5.78483">
        <ele>515.4</ele>
        <time>2022-02-24T08:39:20Z</time>
      </trkpt>
      <trkpt lat="46.68721" lon="5.7848">
        <ele>515.6</ele>
        <time>2022-02-24T08:39:24Z</time>
      </trkpt>
      <trkpt lat="46.68716" lon="5.78478">
        <ele>515.6</ele>
        <time>2022-02-24T08:39:28Z</time>
      </trkpt>
      <trkpt lat="46.68711" lon="5.78475">
        <ele>515.5</ele>
        <time>2022-02-24T08:39:33Z</time>
      </trkpt>
      <trkpt lat="46.68706" lon="5.78472">
        <ele>515.6</ele>
        <time>2022-02-24T08:39:38Z</time>
      </trkpt>
      <trkpt lat="46.68701" lon="5.78469">
        <ele>515.6</ele>
        <time>2022-02-24T08:39:43Z</time>
      </trkpt>
      <trkpt lat="46.68696" lon="5.78467">
        <ele>515.7</ele>
        <time>2022-02-24T08:39:48Z</time>
      </trkpt>
      <trkpt lat="46.68691" lon="5.78465">
        <ele>515.9</ele>
        <time>2022-02-24T08:39:52Z</time>
      </trkpt>
      <trkpt lat="46.68687" lon="5.78462">
        <ele>516.3</ele>
        <time>2022-02-24T08:39:56Z</time>
      </trkpt>
      <trkpt lat="46.68682" lon="5.7846">
        <ele>516.7</ele>
        <time>2022-02-24T08:40:00Z</time>
      </trkpt>
      <trkpt lat="46.68677" lon="5.78458">
        <ele>517.4</ele>
        <time>2022-02-24T08:40:05Z</time>
      </trkpt>
      <trkpt lat="46.68672" lon="5.78456">
        <ele>518.4</ele>
        <time>2022-02-24T08:40:10Z</time>
      </trkpt>
      <trkpt lat="46.68667" lon="5.78454">
        <ele>519.8</ele>
        <time>2022-02-24T08:40:15Z</time>
      </trkpt>
      <trkpt lat="46.68662" lon="5.78453">
        <ele>521</ele>
        <time>2022-02-24T08:40:19Z</time>
      </trkpt>
      <trkpt lat="46.68657" lon="5.78451">
        <ele>522.3</ele>
        <time>2022-02-24T08:40:24Z</time>
      </trkpt>
      <trkpt lat="46.68652" lon="5.78451">
        <ele>523.4</ele>
        <time>2022-02-24T08:40:28Z</time>
      </trkpt>
      <trkpt lat="46.68648" lon="5.78449">
        <ele>524.1</ele>
        <time>2022-02-24T08:40:32Z</time>
      </trkpt>
      <trkpt lat="46.68642" lon="5.78449">
        <ele>524.8</ele>
        <time>2022-02-24T08:40:37Z</time>
      </trkpt>
      <trkpt lat="46.68638" lon="5.78449">
        <ele>525.2</ele>
        <time>2022-02-24T08:40:41Z</time>
      </trkpt>
      <trkpt lat="46.68633" lon="5.78449">
        <ele>525.6</ele>
        <time>2022-02-24T08:40:45Z</time>
      </trkpt>
      <trkpt lat="46.68628" lon="5.78449">
        <ele>525.8</ele>
        <time>2022-02-24T08:40:49Z</time>
      </trkpt>
      <trkpt lat="46.68623" lon="5.78448">
        <ele>525.9</ele>
        <time>2022-02-24T08:40:53Z</time>
      </trkpt>
      <trkpt lat="46.68619" lon="5.78448">
        <ele>525.9</ele>
        <time>2022-02-24T08:40:57Z</time>
      </trkpt>
      <trkpt lat="46.68613" lon="5.78447">
        <ele>525.8</ele>
        <time>2022-02-24T08:41:01Z</time>
      </trkpt>
      <trkpt lat="46.68608" lon="5.78446">
        <ele>526.1</ele>
        <time>2022-02-24T08:41:06Z</time>
      </trkpt>
      <trkpt lat="46.68603" lon="5.78445">
        <ele>526.2</ele>
        <time>2022-02-24T08:41:10Z</time>
      </trkpt>
      <trkpt lat="46.68599" lon="5.78442">
        <ele>526.4</ele>
        <time>2022-02-24T08:41:15Z</time>
      </trkpt>
      <trkpt lat="46.68594" lon="5.78439">
        <ele>526.5</ele>
        <time>2022-02-24T08:41:20Z</time>
      </trkpt>
      <trkpt lat="46.68589" lon="5.78434">
        <ele>526.5</ele>
        <time>2022-02-24T08:41:25Z</time>
      </trkpt>
      <trkpt lat="46.68584" lon="5.7843">
        <ele>526.5</ele>
        <time>2022-02-24T08:41:30Z</time>
      </trkpt>
      <trkpt lat="46.68581" lon="5.78425">
        <ele>526.2</ele>
        <time>2022-02-24T08:41:34Z</time>
      </trkpt>
      <trkpt lat="46.68577" lon="5.78421">
        <ele>526.1</ele>
        <time>2022-02-24T08:41:38Z</time>
      </trkpt>
      <trkpt lat="46.68572" lon="5.78418">
        <ele>526.3</ele>
        <time>2022-02-24T08:41:42Z</time>
      </trkpt>
      <trkpt lat="46.68568" lon="5.78414">
        <ele>526.7</ele>
        <time>2022-02-24T08:41:47Z</time>
      </trkpt>
      <trkpt lat="46.68564" lon="5.78409">
        <ele>526.9</ele>
        <time>2022-02-24T08:41:52Z</time>
      </trkpt>
      <trkpt lat="46.6856" lon="5.78404">
        <ele>527</ele>
        <time>2022-02-24T08:41:56Z</time>
      </trkpt>
      <trkpt lat="46.68555" lon="5.78402">
        <ele>527.2</ele>
        <time>2022-02-24T08:42:01Z</time>
      </trkpt>
      <trkpt lat="46.68551" lon="5.78405">
        <ele>527.7</ele>
        <time>2022-02-24T08:42:06Z</time>
      </trkpt>
      <trkpt lat="46.68549" lon="5.78413">
        <ele>528.3</ele>
        <time>2022-02-24T08:42:11Z</time>
      </trkpt>
      <trkpt lat="46.68547" lon="5.7842">
        <ele>528.6</ele>
        <time>2022-02-24T08:42:15Z</time>
      </trkpt>
      <trkpt lat="46.68546" lon="5.78426">
        <ele>529</ele>
        <time>2022-02-24T08:42:19Z</time>
      </trkpt>
      <trkpt lat="46.68544" lon="5.78433">
        <ele>529.5</ele>
        <time>2022-02-24T08:42:23Z</time>
      </trkpt>
      <trkpt lat="46.68545" lon="5.7844">
        <ele>529.8</ele>
        <time>2022-02-24T08:42:28Z</time>
      </trkpt>
      <trkpt lat="46.68544" lon="5.78447">
        <ele>529.9</ele>
        <time>2022-02-24T08:42:32Z</time>
      </trkpt>
      <trkpt lat="46.68542" lon="5.78453">
        <ele>529.8</ele>
        <time>2022-02-24T08:42:36Z</time>
      </trkpt>
      <trkpt lat="46.68541" lon="5.78461">
        <ele>529.3</ele>
        <time>2022-02-24T08:42:41Z</time>
      </trkpt>
      <trkpt lat="46.68541" lon="5.78468">
        <ele>528.3</ele>
        <time>2022-02-24T08:42:46Z</time>
      </trkpt>
      <trkpt lat="46.68541" lon="5.78475">
        <ele>527.4</ele>
        <time>2022-02-24T08:42:50Z</time>
      </trkpt>
      <trkpt lat="46.6854" lon="5.78482">
        <ele>526.6</ele>
        <time>2022-02-24T08:42:54Z</time>
      </trkpt>
      <trkpt lat="46.6854" lon="5.78489">
        <ele>526</ele>
        <time>2022-02-24T08:42:58Z</time>
      </trkpt>
      <trkpt lat="46.68538" lon="5.78495">
        <ele>525.3</ele>
        <time>2022-02-24T08:43:02Z</time>
      </trkpt>
      <trkpt lat="46.68537" lon="5.78502">
        <ele>524.7</ele>
        <time>2022-02-24T08:43:06Z</time>
      </trkpt>
      <trkpt lat="46.68536" lon="5.7851">
        <ele>524.1</ele>
        <time>2022-02-24T08:43:11Z</time>
      </trkpt>
      <trkpt lat="46.68535" lon="5.78518">
        <ele>523.6</ele>
        <time>2022-02-24T08:43:16Z</time>
      </trkpt>
      <trkpt lat="46.68535" lon="5.78525">
        <ele>523.1</ele>
        <time>2022-02-24T08:43:20Z</time>
      </trkpt>
      <trkpt lat="46.68534" lon="5.78532">
        <ele>522.8</ele>
        <time>2022-02-24T08:43:24Z</time>
      </trkpt>
      <trkpt lat="46.68533" lon="5.78539">
        <ele>522.7</ele>
        <time>2022-02-24T08:43:28Z</time>
      </trkpt>
      <trkpt lat="46.68532" lon="5.78547">
        <ele>522.6</ele>
        <time>2022-02-24T08:43:33Z</time>
      </trkpt>
      <trkpt lat="46.68531" lon="5.78554">
        <ele>522.4</ele>
        <time>2022-02-24T08:43:38Z</time>
      </trkpt>
      <trkpt lat="46.6853" lon="5.78561">
        <ele>522.2</ele>
        <time>2022-02-24T08:43:42Z</time>
      </trkpt>
      <trkpt lat="46.6853" lon="5.78568">
        <ele>522.1</ele>
        <time>2022-02-24T08:43:47Z</time>
      </trkpt>
      <trkpt lat="46.6853" lon="5.78576">
        <ele>521.7</ele>
        <time>2022-02-24T08:43:51Z</time>
      </trkpt>
      <trkpt lat="46.68529" lon="5.78582">
        <ele>521.4</ele>
        <time>2022-02-24T08:43:55Z</time>
      </trkpt>
      <trkpt lat="46.68528" lon="5.78589">
        <ele>521.3</ele>
        <time>2022-02-24T08:43:59Z</time>
      </trkpt>
      <trkpt lat="46.68527" lon="5.78597">
        <ele>521.4</ele>
        <time>2022-02-24T08:44:04Z</time>
      </trkpt>
      <trkpt lat="46.68526" lon="5.78605">
        <ele>521.5</ele>
        <time>2022-02-24T08:44:09Z</time>
      </trkpt>
      <trkpt lat="46.68525" lon="5.78612">
        <ele>521.8</ele>
        <time>2022-02-24T08:44:14Z</time>
      </trkpt>
      <trkpt lat="46.68524" lon="5.7862">
        <ele>522.1</ele>
        <time>2022-02-24T08:44:19Z</time>
      </trkpt>
      <trkpt lat="46.68523" lon="5.78627">
        <ele>522.4</ele>
        <time>2022-02-24T08:44:23Z</time>
      </trkpt>
      <trkpt lat="46.68522" lon="5.78635">
        <ele>522.7</ele>
        <time>2022-02-24T08:44:28Z</time>
      </trkpt>
      <trkpt lat="46.6852" lon="5.78643">
        <ele>523.1</ele>
        <time>2022-02-24T08:44:33Z</time>
      </trkpt>
      <trkpt lat="46.68519" lon="5.78649">
        <ele>523.4</ele>
        <time>2022-02-24T08:44:37Z</time>
      </trkpt>
      <trkpt lat="46.68518" lon="5.78656">
        <ele>523.7</ele>
        <time>2022-02-24T08:44:41Z</time>
      </trkpt>
      <trkpt lat="46.68517" lon="5.78662">
        <ele>524.1</ele>
        <time>2022-02-24T08:44:45Z</time>
      </trkpt>
      <trkpt lat="46.68517" lon="5.7867">
        <ele>524.4</ele>
        <time>2022-02-24T08:44:49Z</time>
      </trkpt>
      <trkpt lat="46.68516" lon="5.78677">
        <ele>524.7</ele>
        <time>2022-02-24T08:44:53Z</time>
      </trkpt>
      <trkpt lat="46.68515" lon="5.78683">
        <ele>524.9</ele>
        <time>2022-02-24T08:44:57Z</time>
      </trkpt>
      <trkpt lat="46.68514" lon="5.7869">
        <ele>524.9</ele>
        <time>2022-02-24T08:45:01Z</time>
      </trkpt>
      <trkpt lat="46.68514" lon="5.78697">
        <ele>524.9</ele>
        <time>2022-02-24T08:45:05Z</time>
      </trkpt>
      <trkpt lat="46.68512" lon="5.78703">
        <ele>525</ele>
        <time>2022-02-24T08:45:09Z</time>
      </trkpt>
      <trkpt lat="46.68512" lon="5.78711">
        <ele>525.2</ele>
        <time>2022-02-24T08:45:14Z</time>
      </trkpt>
      <trkpt lat="46.68511" lon="5.78719">
        <ele>525.5</ele>
        <time>2022-02-24T08:45:19Z</time>
      </trkpt>
      <trkpt lat="46.6851" lon="5.78727">
        <ele>525.6</ele>
        <time>2022-02-24T08:45:24Z</time>
      </trkpt>
      <trkpt lat="46.68509" lon="5.78734">
        <ele>525.5</ele>
        <time>2022-02-24T08:45:28Z</time>
      </trkpt>
      <trkpt lat="46.68508" lon="5.78741">
        <ele>525.4</ele>
        <time>2022-02-24T08:45:32Z</time>
      </trkpt>
      <trkpt lat="46.68507" lon="5.78748">
        <ele>525.4</ele>
        <time>2022-02-24T08:45:36Z</time>
      </trkpt>
      <trkpt lat="46.68507" lon="5.78755">
        <ele>525.6</ele>
        <time>2022-02-24T08:45:40Z</time>
      </trkpt>
      <trkpt lat="46.68506" lon="5.78761">
        <ele>525.8</ele>
        <time>2022-02-24T08:45:44Z</time>
      </trkpt>
      <trkpt lat="46.68506" lon="5.78768">
        <ele>525.8</ele>
        <time>2022-02-24T08:45:48Z</time>
      </trkpt>
      <trkpt lat="46.68505" lon="5.78776">
        <ele>525.7</ele>
        <time>2022-02-24T08:45:53Z</time>
      </trkpt>
      <trkpt lat="46.68504" lon="5.78783">
        <ele>525.7</ele>
        <time>2022-02-24T08:45:57Z</time>
      </trkpt>
      <trkpt lat="46.68502" lon="5.7879">
        <ele>525.5</ele>
        <time>2022-02-24T08:46:01Z</time>
      </trkpt>
      <trkpt lat="46.68502" lon="5.78797">
        <ele>525.4</ele>
        <time>2022-02-24T08:46:05Z</time>
      </trkpt>
      <trkpt lat="46.68501" lon="5.78803">
        <ele>525.4</ele>
        <time>2022-02-24T08:46:09Z</time>
      </trkpt>
      <trkpt lat="46.685" lon="5.7881">
        <ele>525.4</ele>
        <time>2022-02-24T08:46:13Z</time>
      </trkpt>
      <trkpt lat="46.68499" lon="5.78818">
        <ele>525.3</ele>
        <time>2022-02-24T08:46:18Z</time>
      </trkpt>
      <trkpt lat="46.68498" lon="5.78825">
        <ele>525.1</ele>
        <time>2022-02-24T08:46:23Z</time>
      </trkpt>
      <trkpt lat="46.68496" lon="5.78832">
        <ele>524.8</ele>
        <time>2022-02-24T08:46:27Z</time>
      </trkpt>
      <trkpt lat="46.68495" lon="5.78839">
        <ele>524.2</ele>
        <time>2022-02-24T08:46:31Z</time>
      </trkpt>
      <trkpt lat="46.68494" lon="5.78846">
        <ele>523.7</ele>
        <time>2022-02-24T08:46:36Z</time>
      </trkpt>
      <trkpt lat="46.68494" lon="5.78854">
        <ele>523.6</ele>
        <time>2022-02-24T08:46:41Z</time>
      </trkpt>
      <trkpt lat="46.68493" lon="5.78861">
        <ele>523.8</ele>
        <time>2022-02-24T08:46:45Z</time>
      </trkpt>
      <trkpt lat="46.68493" lon="5.78868">
        <ele>524.1</ele>
        <time>2022-02-24T08:46:49Z</time>
      </trkpt>
      <trkpt lat="46.68492" lon="5.78875">
        <ele>524.5</ele>
        <time>2022-02-24T08:46:53Z</time>
      </trkpt>
      <trkpt lat="46.68491" lon="5.78882">
        <ele>525</ele>
        <time>2022-02-24T08:46:57Z</time>
      </trkpt>
      <trkpt lat="46.6849" lon="5.78888">
        <ele>525.3</ele>
        <time>2022-02-24T08:47:01Z</time>
      </trkpt>
      <trkpt lat="46.68489" lon="5.78895">
        <ele>525.6</ele>
        <time>2022-02-24T08:47:05Z</time>
      </trkpt>
      <trkpt lat="46.68488" lon="5.78902">
        <ele>525.6</ele>
        <time>2022-02-24T08:47:09Z</time>
      </trkpt>
      <trkpt lat="46.68487" lon="5.78909">
        <ele>525.5</ele>
        <time>2022-02-24T08:47:13Z</time>
      </trkpt>
      <trkpt lat="46.68487" lon="5.78916">
        <ele>525</ele>
        <time>2022-02-24T08:47:17Z</time>
      </trkpt>
      <trkpt lat="46.68486" lon="5.78923">
        <ele>524.4</ele>
        <time>2022-02-24T08:47:21Z</time>
      </trkpt>
      <trkpt lat="46.68486" lon="5.7893">
        <ele>523.7</ele>
        <time>2022-02-24T08:47:26Z</time>
      </trkpt>
      <trkpt lat="46.68486" lon="5.78938">
        <ele>522.9</ele>
        <time>2022-02-24T08:47:31Z</time>
      </trkpt>
      <trkpt lat="46.68485" lon="5.78946">
        <ele>522.5</ele>
        <time>2022-02-24T08:47:35Z</time>
      </trkpt>
      <trkpt lat="46.68483" lon="5.78953">
        <ele>522.2</ele>
        <time>2022-02-24T08:47:39Z</time>
      </trkpt>
      <trkpt lat="46.68482" lon="5.7896">
        <ele>521.9</ele>
        <time>2022-02-24T08:47:44Z</time>
      </trkpt>
      <trkpt lat="46.68482" lon="5.78967">
        <ele>521.8</ele>
        <time>2022-02-24T08:47:48Z</time>
      </trkpt>
      <trkpt lat="46.6848" lon="5.78975">
        <ele>521.8</ele>
        <time>2022-02-24T08:47:53Z</time>
      </trkpt>
      <trkpt lat="46.68479" lon="5.78982">
        <ele>521.9</ele>
        <time>2022-02-24T08:47:57Z</time>
      </trkpt>
      <trkpt lat="46.68477" lon="5.78989">
        <ele>522</ele>
        <time>2022-02-24T08:48:02Z</time>
      </trkpt>
      <trkpt lat="46.68476" lon="5.78997">
        <ele>522.2</ele>
        <time>2022-02-24T08:48:07Z</time>
      </trkpt>
      <trkpt lat="46.68475" lon="5.79004">
        <ele>522.4</ele>
        <time>2022-02-24T08:48:11Z</time>
      </trkpt>
      <trkpt lat="46.68474" lon="5.79011">
        <ele>522.5</ele>
        <time>2022-02-24T08:48:16Z</time>
      </trkpt>
      <trkpt lat="46.68473" lon="5.79019">
        <ele>522.4</ele>
        <time>2022-02-24T08:48:21Z</time>
      </trkpt>
      <trkpt lat="46.68472" lon="5.79026">
        <ele>522.3</ele>
        <time>2022-02-24T08:48:25Z</time>
      </trkpt>
      <trkpt lat="46.68471" lon="5.79034">
        <ele>522.3</ele>
        <time>2022-02-24T08:48:29Z</time>
      </trkpt>
      <trkpt lat="46.6847" lon="5.79041">
        <ele>522.3</ele>
        <time>2022-02-24T08:48:33Z</time>
      </trkpt>
      <trkpt lat="46.68469" lon="5.79049">
        <ele>522.4</ele>
        <time>2022-02-24T08:48:37Z</time>
      </trkpt>
      <trkpt lat="46.68468" lon="5.79055">
        <ele>522.2</ele>
        <time>2022-02-24T08:48:41Z</time>
      </trkpt>
      <trkpt lat="46.68467" lon="5.79062">
        <ele>521.7</ele>
        <time>2022-02-24T08:48:46Z</time>
      </trkpt>
      <trkpt lat="46.68466" lon="5.79069">
        <ele>521.4</ele>
        <time>2022-02-24T08:48:50Z</time>
      </trkpt>
      <trkpt lat="46.68465" lon="5.79076">
        <ele>521.1</ele>
        <time>2022-02-24T08:48:54Z</time>
      </trkpt>
      <trkpt lat="46.68464" lon="5.79083">
        <ele>520.7</ele>
        <time>2022-02-24T08:48:59Z</time>
      </trkpt>
      <trkpt lat="46.68463" lon="5.79091">
        <ele>520.3</ele>
        <time>2022-02-24T08:49:04Z</time>
      </trkpt>
      <trkpt lat="46.68461" lon="5.79099">
        <ele>519.9</ele>
        <time>2022-02-24T08:49:09Z</time>
      </trkpt>
      <trkpt lat="46.68461" lon="5.79106">
        <ele>519.7</ele>
        <time>2022-02-24T08:49:13Z</time>
      </trkpt>
      <trkpt lat="46.6846" lon="5.79113">
        <ele>519.5</ele>
        <time>2022-02-24T08:49:17Z</time>
      </trkpt>
      <trkpt lat="46.68459" lon="5.79121">
        <ele>519.3</ele>
        <time>2022-02-24T08:49:22Z</time>
      </trkpt>
      <trkpt lat="46.68458" lon="5.79128">
        <ele>519.1</ele>
        <time>2022-02-24T08:49:26Z</time>
      </trkpt>
      <trkpt lat="46.68458" lon="5.79135">
        <ele>519.5</ele>
        <time>2022-02-24T08:49:31Z</time>
      </trkpt>
      <trkpt lat="46.68458" lon="5.79142">
        <ele>520.1</ele>
        <time>2022-02-24T08:49:35Z</time>
      </trkpt>
      <trkpt lat="46.68457" lon="5.79149">
        <ele>521.3</ele>
        <time>2022-02-24T08:49:40Z</time>
      </trkpt>
      <trkpt lat="46.68456" lon="5.79157">
        <ele>522.8</ele>
        <time>2022-02-24T08:49:46Z</time>
      </trkpt>
      <trkpt lat="46.68455" lon="5.79164">
        <ele>524.2</ele>
        <time>2022-02-24T08:49:51Z</time>
      </trkpt>
      <trkpt lat="46.68454" lon="5.7917">
        <ele>525.7</ele>
        <time>2022-02-24T08:49:57Z</time>
      </trkpt>
      <trkpt lat="46.68453" lon="5.79177">
        <ele>527.6</ele>
        <time>2022-02-24T08:50:03Z</time>
      </trkpt>
      <trkpt lat="46.6845" lon="5.79183">
        <ele>530.1</ele>
        <time>2022-02-24T08:50:11Z</time>
      </trkpt>
      <trkpt lat="46.68447" lon="5.79189">
        <ele>530.8</ele>
        <time>2022-02-24T08:50:16Z</time>
      </trkpt>
      <trkpt lat="46.68443" lon="5.79193">
        <ele>531.1</ele>
        <time>2022-02-24T08:50:20Z</time>
      </trkpt>
      <trkpt lat="46.68437" lon="5.79194">
        <ele>531.5</ele>
        <time>2022-02-24T08:50:24Z</time>
      </trkpt>
      <trkpt lat="46.68432" lon="5.79193">
        <ele>532</ele>
        <time>2022-02-24T08:50:28Z</time>
      </trkpt>
      <trkpt lat="46.68427" lon="5.79196">
        <ele>531.9</ele>
        <time>2022-02-24T08:50:33Z</time>
      </trkpt>
      <trkpt lat="46.68422" lon="5.79198">
        <ele>531.6</ele>
        <time>2022-02-24T08:50:38Z</time>
      </trkpt>
      <trkpt lat="46.68416" lon="5.79198">
        <ele>531.8</ele>
        <time>2022-02-24T08:50:42Z</time>
      </trkpt>
      <trkpt lat="46.68411" lon="5.79197">
        <ele>532.1</ele>
        <time>2022-02-24T08:50:45Z</time>
      </trkpt>
      <trkpt lat="46.68406" lon="5.79198">
        <ele>532.6</ele>
        <time>2022-02-24T08:50:49Z</time>
      </trkpt>
      <trkpt lat="46.68402" lon="5.79201">
        <ele>532.7</ele>
        <time>2022-02-24T08:50:53Z</time>
      </trkpt>
      <trkpt lat="46.68397" lon="5.792">
        <ele>532.8</ele>
        <time>2022-02-24T08:50:59Z</time>
      </trkpt>
      <trkpt lat="46.68392" lon="5.79201">
        <ele>533.6</ele>
        <time>2022-02-24T08:51:04Z</time>
      </trkpt>
      <trkpt lat="46.68387" lon="5.79202">
        <ele>534.2</ele>
        <time>2022-02-24T08:51:09Z</time>
      </trkpt>
      <trkpt lat="46.68382" lon="5.79202">
        <ele>534.6</ele>
        <time>2022-02-24T08:51:15Z</time>
      </trkpt>
      <trkpt lat="46.68377" lon="5.79204">
        <ele>535.1</ele>
        <time>2022-02-24T08:51:20Z</time>
      </trkpt>
      <trkpt lat="46.68371" lon="5.79206">
        <ele>535.4</ele>
        <time>2022-02-24T08:51:24Z</time>
      </trkpt>
      <trkpt lat="46.68366" lon="5.79209">
        <ele>535.4</ele>
        <time>2022-02-24T08:51:28Z</time>
      </trkpt>
      <trkpt lat="46.68361" lon="5.79211">
        <ele>535.4</ele>
        <time>2022-02-24T08:51:32Z</time>
      </trkpt>
      <trkpt lat="46.68357" lon="5.79214">
        <ele>535.2</ele>
        <time>2022-02-24T08:51:37Z</time>
      </trkpt>
      <trkpt lat="46.68352" lon="5.79218">
        <ele>534.8</ele>
        <time>2022-02-24T08:51:42Z</time>
      </trkpt>
      <trkpt lat="46.68347" lon="5.7922">
        <ele>534.2</ele>
        <time>2022-02-24T08:51:47Z</time>
      </trkpt>
      <trkpt lat="46.68343" lon="5.79224">
        <ele>533.3</ele>
        <time>2022-02-24T08:51:54Z</time>
      </trkpt>
      <trkpt lat="46.68339" lon="5.79229">
        <ele>531.9</ele>
        <time>2022-02-24T08:52:02Z</time>
      </trkpt>
      <trkpt lat="46.68335" lon="5.79232">
        <ele>531.4</ele>
        <time>2022-02-24T08:52:06Z</time>
      </trkpt>
      <trkpt lat="46.68331" lon="5.79235">
        <ele>531.3</ele>
        <time>2022-02-24T08:52:10Z</time>
      </trkpt>
      <trkpt lat="46.68327" lon="5.7924">
        <ele>531.2</ele>
        <time>2022-02-24T08:52:14Z</time>
      </trkpt>
      <trkpt lat="46.68323" lon="5.79244">
        <ele>531.2</ele>
        <time>2022-02-24T08:52:18Z</time>
      </trkpt>
      <trkpt lat="46.68319" lon="5.79249">
        <ele>531.4</ele>
        <time>2022-02-24T08:52:22Z</time>
      </trkpt>
      <trkpt lat="46.68315" lon="5.79254">
        <ele>531.3</ele>
        <time>2022-02-24T08:52:26Z</time>
      </trkpt>
      <trkpt lat="46.6831" lon="5.79257">
        <ele>531.3</ele>
        <time>2022-02-24T08:52:31Z</time>
      </trkpt>
      <trkpt lat="46.68306" lon="5.79262">
        <ele>531.2</ele>
        <time>2022-02-24T08:52:37Z</time>
      </trkpt>
      <trkpt lat="46.68302" lon="5.79267">
        <ele>531</ele>
        <time>2022-02-24T08:52:41Z</time>
      </trkpt>
      <trkpt lat="46.68298" lon="5.7927">
        <ele>531.1</ele>
        <time>2022-02-24T08:52:45Z</time>
      </trkpt>
      <trkpt lat="46.68294" lon="5.79274">
        <ele>531.5</ele>
        <time>2022-02-24T08:52:49Z</time>
      </trkpt>
      <trkpt lat="46.6829" lon="5.79278">
        <ele>531.7</ele>
        <time>2022-02-24T08:52:54Z</time>
      </trkpt>
      <trkpt lat="46.68285" lon="5.79281">
        <ele>531.5</ele>
        <time>2022-02-24T08:52:58Z</time>
      </trkpt>
      <trkpt lat="46.6828" lon="5.79283">
        <ele>531.1</ele>
        <time>2022-02-24T08:53:02Z</time>
      </trkpt>
      <trkpt lat="46.68275" lon="5.79286">
        <ele>530.9</ele>
        <time>2022-02-24T08:53:06Z</time>
      </trkpt>
      <trkpt lat="46.6827" lon="5.79289">
        <ele>530.4</ele>
        <time>2022-02-24T08:53:15Z</time>
      </trkpt>
      <trkpt lat="46.68265" lon="5.7929">
        <ele>530.1</ele>
        <time>2022-02-24T08:53:20Z</time>
      </trkpt>
      <trkpt lat="46.6826" lon="5.7929">
        <ele>529.8</ele>
        <time>2022-02-24T08:53:24Z</time>
      </trkpt>
      <trkpt lat="46.68256" lon="5.79291">
        <ele>529.3</ele>
        <time>2022-02-24T08:53:28Z</time>
      </trkpt>
      <trkpt lat="46.6825" lon="5.7929">
        <ele>528.6</ele>
        <time>2022-02-24T08:53:33Z</time>
      </trkpt>
      <trkpt lat="46.68246" lon="5.79287">
        <ele>528.1</ele>
        <time>2022-02-24T08:53:37Z</time>
      </trkpt>
      <trkpt lat="46.68241" lon="5.79285">
        <ele>527.2</ele>
        <time>2022-02-24T08:53:41Z</time>
      </trkpt>
      <trkpt lat="46.68236" lon="5.79283">
        <ele>526.4</ele>
        <time>2022-02-24T08:53:46Z</time>
      </trkpt>
      <trkpt lat="46.68232" lon="5.7928">
        <ele>525.8</ele>
        <time>2022-02-24T08:53:51Z</time>
      </trkpt>
      <trkpt lat="46.68227" lon="5.79278">
        <ele>525.1</ele>
        <time>2022-02-24T08:53:56Z</time>
      </trkpt>
      <trkpt lat="46.68223" lon="5.79275">
        <ele>524.7</ele>
        <time>2022-02-24T08:54:01Z</time>
      </trkpt>
      <trkpt lat="46.68218" lon="5.79272">
        <ele>524.5</ele>
        <time>2022-02-24T08:54:06Z</time>
      </trkpt>
      <trkpt lat="46.68213" lon="5.79269">
        <ele>524.6</ele>
        <time>2022-02-24T08:54:11Z</time>
      </trkpt>
      <trkpt lat="46.68209" lon="5.79266">
        <ele>524.7</ele>
        <time>2022-02-24T08:54:15Z</time>
      </trkpt>
      <trkpt lat="46.68204" lon="5.79263">
        <ele>525</ele>
        <time>2022-02-24T08:54:20Z</time>
      </trkpt>
      <trkpt lat="46.682" lon="5.79259">
        <ele>525.3</ele>
        <time>2022-02-24T08:54:25Z</time>
      </trkpt>
      <trkpt lat="46.68195" lon="5.79256">
        <ele>525.6</ele>
        <time>2022-02-24T08:54:30Z</time>
      </trkpt>
      <trkpt lat="46.6819" lon="5.79256">
        <ele>525.6</ele>
        <time>2022-02-24T08:54:34Z</time>
      </trkpt>
      <trkpt lat="46.68185" lon="5.79258">
        <ele>525.7</ele>
        <time>2022-02-24T08:54:39Z</time>
      </trkpt>
      <trkpt lat="46.68184" lon="5.79265">
        <ele>526.1</ele>
        <time>2022-02-24T08:54:44Z</time>
      </trkpt>
      <trkpt lat="46.68182" lon="5.79272">
        <ele>526.5</ele>
        <time>2022-02-24T08:54:48Z</time>
      </trkpt>
      <trkpt lat="46.68181" lon="5.79279">
        <ele>527</ele>
        <time>2022-02-24T08:54:53Z</time>
      </trkpt>
      <trkpt lat="46.6818" lon="5.79287">
        <ele>527.3</ele>
        <time>2022-02-24T08:54:58Z</time>
      </trkpt>
      <trkpt lat="46.68179" lon="5.79294">
        <ele>527.8</ele>
        <time>2022-02-24T08:55:03Z</time>
      </trkpt>
      <trkpt lat="46.68178" lon="5.79301">
        <ele>527.9</ele>
        <time>2022-02-24T08:55:07Z</time>
      </trkpt>
      <trkpt lat="46.68177" lon="5.79308">
        <ele>528</ele>
        <time>2022-02-24T08:55:11Z</time>
      </trkpt>
      <trkpt lat="46.68177" lon="5.79315">
        <ele>528.3</ele>
        <time>2022-02-24T08:55:15Z</time>
      </trkpt>
      <trkpt lat="46.68175" lon="5.79323">
        <ele>528.9</ele>
        <time>2022-02-24T08:55:20Z</time>
      </trkpt>
      <trkpt lat="46.68173" lon="5.7933">
        <ele>529.1</ele>
        <time>2022-02-24T08:55:25Z</time>
      </trkpt>
      <trkpt lat="46.6817" lon="5.79336">
        <ele>529.4</ele>
        <time>2022-02-24T08:55:30Z</time>
      </trkpt>
      <trkpt lat="46.68167" lon="5.79342">
        <ele>530</ele>
        <time>2022-02-24T08:55:37Z</time>
      </trkpt>
      <trkpt lat="46.68164" lon="5.79347">
        <ele>529</ele>
        <time>2022-02-24T08:55:42Z</time>
      </trkpt>
      <trkpt lat="46.68161" lon="5.79352">
        <ele>527.7</ele>
        <time>2022-02-24T08:55:46Z</time>
      </trkpt>
      <trkpt lat="46.68159" lon="5.79359">
        <ele>526.8</ele>
        <time>2022-02-24T08:55:50Z</time>
      </trkpt>
      <trkpt lat="46.68157" lon="5.79365">
        <ele>526.1</ele>
        <time>2022-02-24T08:55:55Z</time>
      </trkpt>
      <trkpt lat="46.68154" lon="5.79373">
        <ele>525.7</ele>
        <time>2022-02-24T08:56:00Z</time>
      </trkpt>
      <trkpt lat="46.68151" lon="5.79379">
        <ele>525.3</ele>
        <time>2022-02-24T08:56:05Z</time>
      </trkpt>
      <trkpt lat="46.68148" lon="5.79385">
        <ele>525</ele>
        <time>2022-02-24T08:56:09Z</time>
      </trkpt>
      <trkpt lat="46.68144" lon="5.79389">
        <ele>524.5</ele>
        <time>2022-02-24T08:56:13Z</time>
      </trkpt>
      <trkpt lat="46.68142" lon="5.79396">
        <ele>524</ele>
        <time>2022-02-24T08:56:19Z</time>
      </trkpt>
      <trkpt lat="46.6814" lon="5.79403">
        <ele>523.9</ele>
        <time>2022-02-24T08:56:24Z</time>
      </trkpt>
      <trkpt lat="46.68139" lon="5.79409">
        <ele>524.4</ele>
        <time>2022-02-24T08:56:28Z</time>
      </trkpt>
      <trkpt lat="46.68136" lon="5.79416">
        <ele>525.1</ele>
        <time>2022-02-24T08:56:32Z</time>
      </trkpt>
      <trkpt lat="46.68134" lon="5.79422">
        <ele>525.8</ele>
        <time>2022-02-24T08:56:36Z</time>
      </trkpt>
      <trkpt lat="46.68131" lon="5.79428">
        <ele>526.4</ele>
        <time>2022-02-24T08:56:40Z</time>
      </trkpt>
      <trkpt lat="46.68129" lon="5.79435">
        <ele>526.8</ele>
        <time>2022-02-24T08:56:45Z</time>
      </trkpt>
      <trkpt lat="46.68127" lon="5.79441">
        <ele>527</ele>
        <time>2022-02-24T08:56:49Z</time>
      </trkpt>
      <trkpt lat="46.68125" lon="5.79447">
        <ele>527.1</ele>
        <time>2022-02-24T08:56:54Z</time>
      </trkpt>
      <trkpt lat="46.68123" lon="5.79455">
        <ele>527.4</ele>
        <time>2022-02-24T08:56:59Z</time>
      </trkpt>
      <trkpt lat="46.68122" lon="5.79462">
        <ele>528.2</ele>
        <time>2022-02-24T08:57:04Z</time>
      </trkpt>
      <trkpt lat="46.68122" lon="5.7947">
        <ele>528.8</ele>
        <time>2022-02-24T08:57:08Z</time>
      </trkpt>
      <trkpt lat="46.6812" lon="5.79477">
        <ele>529.7</ele>
        <time>2022-02-24T08:57:13Z</time>
      </trkpt>
      <trkpt lat="46.68118" lon="5.79484">
        <ele>530.2</ele>
        <time>2022-02-24T08:57:19Z</time>
      </trkpt>
      <trkpt lat="46.68118" lon="5.79491">
        <ele>530.3</ele>
        <time>2022-02-24T08:57:24Z</time>
      </trkpt>
      <trkpt lat="46.68117" lon="5.79497">
        <ele>530.3</ele>
        <time>2022-02-24T08:57:29Z</time>
      </trkpt>
      <trkpt lat="46.68117" lon="5.79505">
        <ele>530</ele>
        <time>2022-02-24T08:57:34Z</time>
      </trkpt>
      <trkpt lat="46.68116" lon="5.79513">
        <ele>529.7</ele>
        <time>2022-02-24T08:57:39Z</time>
      </trkpt>
      <trkpt lat="46.68116" lon="5.7952">
        <ele>529.8</ele>
        <time>2022-02-24T08:57:43Z</time>
      </trkpt>
      <trkpt lat="46.68115" lon="5.79527">
        <ele>530</ele>
        <time>2022-02-24T08:57:47Z</time>
      </trkpt>
      <trkpt lat="46.68115" lon="5.79534">
        <ele>530.3</ele>
        <time>2022-02-24T08:57:51Z</time>
      </trkpt>
      <trkpt lat="46.68115" lon="5.79542">
        <ele>530.8</ele>
        <time>2022-02-24T08:57:55Z</time>
      </trkpt>
      <trkpt lat="46.68115" lon="5.79549">
        <ele>531.1</ele>
        <time>2022-02-24T08:57:59Z</time>
      </trkpt>
      <trkpt lat="46.68116" lon="5.79557">
        <ele>531</ele>
        <time>2022-02-24T08:58:04Z</time>
      </trkpt>
      <trkpt lat="46.68116" lon="5.79565">
        <ele>530.6</ele>
        <time>2022-02-24T08:58:09Z</time>
      </trkpt>
      <trkpt lat="46.68117" lon="5.79571">
        <ele>530.2</ele>
        <time>2022-02-24T08:58:13Z</time>
      </trkpt>
      <trkpt lat="46.68117" lon="5.79579">
        <ele>529.5</ele>
        <time>2022-02-24T08:58:18Z</time>
      </trkpt>
      <trkpt lat="46.68118" lon="5.79587">
        <ele>528.5</ele>
        <time>2022-02-24T08:58:23Z</time>
      </trkpt>
      <trkpt lat="46.68119" lon="5.79595">
        <ele>527.9</ele>
        <time>2022-02-24T08:58:28Z</time>
      </trkpt>
      <trkpt lat="46.68119" lon="5.79602">
        <ele>527.6</ele>
        <time>2022-02-24T08:58:33Z</time>
      </trkpt>
      <trkpt lat="46.68118" lon="5.7961">
        <ele>527.6</ele>
        <time>2022-02-24T08:58:38Z</time>
      </trkpt>
      <trkpt lat="46.68118" lon="5.79618">
        <ele>527.7</ele>
        <time>2022-02-24T08:58:43Z</time>
      </trkpt>
      <trkpt lat="46.68118" lon="5.79626">
        <ele>527.8</ele>
        <time>2022-02-24T08:58:48Z</time>
      </trkpt>
      <trkpt lat="46.68118" lon="5.79633">
        <ele>527.9</ele>
        <time>2022-02-24T08:58:53Z</time>
      </trkpt>
      <trkpt lat="46.68118" lon="5.79641">
        <ele>527.8</ele>
        <time>2022-02-24T08:58:57Z</time>
      </trkpt>
      <trkpt lat="46.68118" lon="5.79648">
        <ele>527.8</ele>
        <time>2022-02-24T08:59:02Z</time>
      </trkpt>
      <trkpt lat="46.68118" lon="5.79655">
        <ele>527.8</ele>
        <time>2022-02-24T08:59:06Z</time>
      </trkpt>
      <trkpt lat="46.68119" lon="5.79662">
        <ele>527.6</ele>
        <time>2022-02-24T08:59:10Z</time>
      </trkpt>
      <trkpt lat="46.68119" lon="5.79669">
        <ele>526.7</ele>
        <time>2022-02-24T08:59:15Z</time>
      </trkpt>
      <trkpt lat="46.6812" lon="5.79676">
        <ele>525.5</ele>
        <time>2022-02-24T08:59:21Z</time>
      </trkpt>
      <trkpt lat="46.68122" lon="5.79683">
        <ele>524.2</ele>
        <time>2022-02-24T08:59:28Z</time>
      </trkpt>
      <trkpt lat="46.68123" lon="5.7969">
        <ele>523.3</ele>
        <time>2022-02-24T08:59:33Z</time>
      </trkpt>
      <trkpt lat="46.68122" lon="5.79696">
        <ele>522.5</ele>
        <time>2022-02-24T08:59:37Z</time>
      </trkpt>
      <trkpt lat="46.68121" lon="5.79704">
        <ele>521.6</ele>
        <time>2022-02-24T08:59:41Z</time>
      </trkpt>
      <trkpt lat="46.68119" lon="5.79712">
        <ele>520.8</ele>
        <time>2022-02-24T08:59:45Z</time>
      </trkpt>
      <trkpt lat="46.68118" lon="5.7972">
        <ele>520</ele>
        <time>2022-02-24T08:59:49Z</time>
      </trkpt>
      <trkpt lat="46.68118" lon="5.79728">
        <ele>519</ele>
        <time>2022-02-24T08:59:54Z</time>
      </trkpt>
      <trkpt lat="46.68118" lon="5.79736">
        <ele>518.1</ele>
        <time>2022-02-24T08:59:59Z</time>
      </trkpt>
      <trkpt lat="46.68118" lon="5.79744">
        <ele>516.9</ele>
        <time>2022-02-24T09:00:04Z</time>
      </trkpt>
      <trkpt lat="46.68117" lon="5.7975">
        <ele>515.9</ele>
        <time>2022-02-24T09:00:09Z</time>
      </trkpt>
      <trkpt lat="46.68118" lon="5.79758">
        <ele>515.2</ele>
        <time>2022-02-24T09:00:14Z</time>
      </trkpt>
      <trkpt lat="46.68118" lon="5.79766">
        <ele>514.8</ele>
        <time>2022-02-24T09:00:19Z</time>
      </trkpt>
      <trkpt lat="46.68117" lon="5.79774">
        <ele>514.4</ele>
        <time>2022-02-24T09:00:24Z</time>
      </trkpt>
      <trkpt lat="46.68116" lon="5.79781">
        <ele>513.9</ele>
        <time>2022-02-24T09:00:29Z</time>
      </trkpt>
      <trkpt lat="46.68116" lon="5.79789">
        <ele>513.4</ele>
        <time>2022-02-24T09:00:33Z</time>
      </trkpt>
      <trkpt lat="46.68116" lon="5.79795">
        <ele>513.1</ele>
        <time>2022-02-24T09:00:37Z</time>
      </trkpt>
      <trkpt lat="46.68115" lon="5.79802">
        <ele>513.1</ele>
        <time>2022-02-24T09:00:41Z</time>
      </trkpt>
      <trkpt lat="46.68114" lon="5.79809">
        <ele>513.4</ele>
        <time>2022-02-24T09:00:45Z</time>
      </trkpt>
      <trkpt lat="46.68113" lon="5.79816">
        <ele>513.6</ele>
        <time>2022-02-24T09:00:49Z</time>
      </trkpt>
      <trkpt lat="46.68112" lon="5.79823">
        <ele>513.9</ele>
        <time>2022-02-24T09:00:53Z</time>
      </trkpt>
      <trkpt lat="46.68112" lon="5.7983">
        <ele>514.4</ele>
        <time>2022-02-24T09:00:57Z</time>
      </trkpt>
      <trkpt lat="46.68112" lon="5.79838">
        <ele>515.7</ele>
        <time>2022-02-24T09:01:02Z</time>
      </trkpt>
      <trkpt lat="46.68112" lon="5.79845">
        <ele>516.7</ele>
        <time>2022-02-24T09:01:07Z</time>
      </trkpt>
      <trkpt lat="46.68111" lon="5.79852">
        <ele>517.3</ele>
        <time>2022-02-24T09:01:13Z</time>
      </trkpt>
      <trkpt lat="46.68108" lon="5.79859">
        <ele>517.9</ele>
        <time>2022-02-24T09:01:18Z</time>
      </trkpt>
      <trkpt lat="46.68104" lon="5.79865">
        <ele>518.1</ele>
        <time>2022-02-24T09:01:22Z</time>
      </trkpt>
      <trkpt lat="46.68101" lon="5.7987">
        <ele>518.3</ele>
        <time>2022-02-24T09:01:26Z</time>
      </trkpt>
      <trkpt lat="46.68098" lon="5.79876">
        <ele>518.9</ele>
        <time>2022-02-24T09:01:31Z</time>
      </trkpt>
      <trkpt lat="46.68096" lon="5.79882">
        <ele>518.9</ele>
        <time>2022-02-24T09:01:36Z</time>
      </trkpt>
      <trkpt lat="46.68094" lon="5.79888">
        <ele>518.5</ele>
        <time>2022-02-24T09:01:44Z</time>
      </trkpt>
      <trkpt lat="46.68092" lon="5.79895">
        <ele>518.8</ele>
        <time>2022-02-24T09:01:56Z</time>
      </trkpt>
      <trkpt lat="46.6809" lon="5.79902">
        <ele>519.2</ele>
        <time>2022-02-24T09:02:01Z</time>
      </trkpt>
      <trkpt lat="46.68087" lon="5.79908">
        <ele>519.6</ele>
        <time>2022-02-24T09:02:05Z</time>
      </trkpt>
      <trkpt lat="46.68084" lon="5.79913">
        <ele>519.8</ele>
        <time>2022-02-24T09:02:09Z</time>
      </trkpt>
      <trkpt lat="46.68083" lon="5.7992">
        <ele>519.9</ele>
        <time>2022-02-24T09:02:14Z</time>
      </trkpt>
      <trkpt lat="46.6808" lon="5.79926">
        <ele>520.3</ele>
        <time>2022-02-24T09:02:19Z</time>
      </trkpt>
      <trkpt lat="46.68077" lon="5.79932">
        <ele>520.8</ele>
        <time>2022-02-24T09:02:23Z</time>
      </trkpt>
      <trkpt lat="46.68075" lon="5.79939">
        <ele>521.4</ele>
        <time>2022-02-24T09:02:27Z</time>
      </trkpt>
      <trkpt lat="46.68074" lon="5.79945">
        <ele>522.2</ele>
        <time>2022-02-24T09:02:31Z</time>
      </trkpt>
      <trkpt lat="46.68073" lon="5.79952">
        <ele>523</ele>
        <time>2022-02-24T09:02:35Z</time>
      </trkpt>
      <trkpt lat="46.68071" lon="5.79959">
        <ele>523.8</ele>
        <time>2022-02-24T09:02:40Z</time>
      </trkpt>
      <trkpt lat="46.68071" lon="5.79967">
        <ele>524.3</ele>
        <time>2022-02-24T09:02:45Z</time>
      </trkpt>
      <trkpt lat="46.68069" lon="5.79974">
        <ele>524.4</ele>
        <time>2022-02-24T09:02:50Z</time>
      </trkpt>
      <trkpt lat="46.68068" lon="5.79981">
        <ele>524.4</ele>
        <time>2022-02-24T09:02:56Z</time>
      </trkpt>
      <trkpt lat="46.68067" lon="5.79989">
        <ele>524.6</ele>
        <time>2022-02-24T09:03:02Z</time>
      </trkpt>
      <trkpt lat="46.68068" lon="5.79996">
        <ele>524.8</ele>
        <time>2022-02-24T09:03:07Z</time>
      </trkpt>
      <trkpt lat="46.68069" lon="5.80003">
        <ele>525</ele>
        <time>2022-02-24T09:03:12Z</time>
      </trkpt>
      <trkpt lat="46.68069" lon="5.8001">
        <ele>525.1</ele>
        <time>2022-02-24T09:03:17Z</time>
      </trkpt>
      <trkpt lat="46.68069" lon="5.80017">
        <ele>525.1</ele>
        <time>2022-02-24T09:03:22Z</time>
      </trkpt>
      <trkpt lat="46.68071" lon="5.80024">
        <ele>525</ele>
        <time>2022-02-24T09:03:27Z</time>
      </trkpt>
      <trkpt lat="46.68073" lon="5.80031">
        <ele>525</ele>
        <time>2022-02-24T09:03:31Z</time>
      </trkpt>
      <trkpt lat="46.68075" lon="5.80037">
        <ele>525</ele>
        <time>2022-02-24T09:03:35Z</time>
      </trkpt>
      <trkpt lat="46.68078" lon="5.80044">
        <ele>524.9</ele>
        <time>2022-02-24T09:03:40Z</time>
      </trkpt>
      <trkpt lat="46.68079" lon="5.80051">
        <ele>524.6</ele>
        <time>2022-02-24T09:03:44Z</time>
      </trkpt>
      <trkpt lat="46.6808" lon="5.80058">
        <ele>523.9</ele>
        <time>2022-02-24T09:03:49Z</time>
      </trkpt>
      <trkpt lat="46.68084" lon="5.80064">
        <ele>523.3</ele>
        <time>2022-02-24T09:03:54Z</time>
      </trkpt>
      <trkpt lat="46.68086" lon="5.8007">
        <ele>522.2</ele>
        <time>2022-02-24T09:03:59Z</time>
      </trkpt>
      <trkpt lat="46.68087" lon="5.80077">
        <ele>520.8</ele>
        <time>2022-02-24T09:04:05Z</time>
      </trkpt>
      <trkpt lat="46.68085" lon="5.80084">
        <ele>519.7</ele>
        <time>2022-02-24T09:04:10Z</time>
      </trkpt>
      <trkpt lat="46.68085" lon="5.80091">
        <ele>518.5</ele>
        <time>2022-02-24T09:04:16Z</time>
      </trkpt>
      <trkpt lat="46.68085" lon="5.80099">
        <ele>517.4</ele>
        <time>2022-02-24T09:04:21Z</time>
      </trkpt>
      <trkpt lat="46.68085" lon="5.80107">
        <ele>516.8</ele>
        <time>2022-02-24T09:04:25Z</time>
      </trkpt>
      <trkpt lat="46.68083" lon="5.80115">
        <ele>516.1</ele>
        <time>2022-02-24T09:04:29Z</time>
      </trkpt>
      <trkpt lat="46.68081" lon="5.80122">
        <ele>515.6</ele>
        <time>2022-02-24T09:04:33Z</time>
      </trkpt>
      <trkpt lat="46.68078" lon="5.80127">
        <ele>515.2</ele>
        <time>2022-02-24T09:04:37Z</time>
      </trkpt>
      <trkpt lat="46.68075" lon="5.80132">
        <ele>514.8</ele>
        <time>2022-02-24T09:04:41Z</time>
      </trkpt>
      <trkpt lat="46.6807" lon="5.80135">
        <ele>514.5</ele>
        <time>2022-02-24T09:04:45Z</time>
      </trkpt>
      <trkpt lat="46.68065" lon="5.80138">
        <ele>514.3</ele>
        <time>2022-02-24T09:04:49Z</time>
      </trkpt>
      <trkpt lat="46.6806" lon="5.80141">
        <ele>514.2</ele>
        <time>2022-02-24T09:04:55Z</time>
      </trkpt>
      <trkpt lat="46.68056" lon="5.80145">
        <ele>514</ele>
        <time>2022-02-24T09:05:00Z</time>
      </trkpt>
      <trkpt lat="46.68051" lon="5.80148">
        <ele>514</ele>
        <time>2022-02-24T09:05:05Z</time>
      </trkpt>
      <trkpt lat="46.68046" lon="5.8015">
        <ele>514.1</ele>
        <time>2022-02-24T09:05:09Z</time>
      </trkpt>
      <trkpt lat="46.68042" lon="5.80153">
        <ele>514.1</ele>
        <time>2022-02-24T09:05:13Z</time>
      </trkpt>
      <trkpt lat="46.6804" lon="5.80159">
        <ele>514.3</ele>
        <time>2022-02-24T09:05:19Z</time>
      </trkpt>
      <trkpt lat="46.68036" lon="5.80165">
        <ele>514.7</ele>
        <time>2022-02-24T09:05:24Z</time>
      </trkpt>
      <trkpt lat="46.68033" lon="5.8017">
        <ele>514.9</ele>
        <time>2022-02-24T09:05:28Z</time>
      </trkpt>
      <trkpt lat="46.6803" lon="5.80177">
        <ele>515</ele>
        <time>2022-02-24T09:05:33Z</time>
      </trkpt>
      <trkpt lat="46.68027" lon="5.80183">
        <ele>515.1</ele>
        <time>2022-02-24T09:05:39Z</time>
      </trkpt>
      <trkpt lat="46.68026" lon="5.80191">
        <ele>515.2</ele>
        <time>2022-02-24T09:05:44Z</time>
      </trkpt>
      <trkpt lat="46.68027" lon="5.80197">
        <ele>515.3</ele>
        <time>2022-02-24T09:05:48Z</time>
      </trkpt>
      <trkpt lat="46.68028" lon="5.80204">
        <ele>516</ele>
        <time>2022-02-24T09:05:54Z</time>
      </trkpt>
      <trkpt lat="46.68029" lon="5.80212">
        <ele>516.7</ele>
        <time>2022-02-24T09:05:58Z</time>
      </trkpt>
      <trkpt lat="46.68027" lon="5.80218">
        <ele>517.6</ele>
        <time>2022-02-24T09:06:02Z</time>
      </trkpt>
      <trkpt lat="46.68024" lon="5.80223">
        <ele>518.2</ele>
        <time>2022-02-24T09:06:05Z</time>
      </trkpt>
      <trkpt lat="46.6802" lon="5.80229">
        <ele>518.8</ele>
        <time>2022-02-24T09:06:09Z</time>
      </trkpt>
      <trkpt lat="46.68019" lon="5.80236">
        <ele>519.7</ele>
        <time>2022-02-24T09:06:15Z</time>
      </trkpt>
      <trkpt lat="46.68019" lon="5.80244">
        <ele>520.3</ele>
        <time>2022-02-24T09:06:20Z</time>
      </trkpt>
      <trkpt lat="46.68017" lon="5.80251">
        <ele>520.6</ele>
        <time>2022-02-24T09:06:25Z</time>
      </trkpt>
      <trkpt lat="46.68015" lon="5.80257">
        <ele>521.1</ele>
        <time>2022-02-24T09:06:30Z</time>
      </trkpt>
      <trkpt lat="46.68014" lon="5.80264">
        <ele>521.7</ele>
        <time>2022-02-24T09:06:35Z</time>
      </trkpt>
      <trkpt lat="46.68013" lon="5.80272">
        <ele>522.7</ele>
        <time>2022-02-24T09:06:40Z</time>
      </trkpt>
      <trkpt lat="46.68015" lon="5.80279">
        <ele>523.2</ele>
        <time>2022-02-24T09:06:44Z</time>
      </trkpt>
      <trkpt lat="46.68015" lon="5.80286">
        <ele>523.7</ele>
        <time>2022-02-24T09:06:49Z</time>
      </trkpt>
      <trkpt lat="46.6801" lon="5.80291">
        <ele>524.3</ele>
        <time>2022-02-24T09:06:53Z</time>
      </trkpt>
      <trkpt lat="46.68006" lon="5.80296">
        <ele>524.7</ele>
        <time>2022-02-24T09:06:57Z</time>
      </trkpt>
      <trkpt lat="46.68003" lon="5.80303">
        <ele>525</ele>
        <time>2022-02-24T09:07:01Z</time>
      </trkpt>
      <trkpt lat="46.68" lon="5.80309">
        <ele>525</ele>
        <time>2022-02-24T09:07:05Z</time>
      </trkpt>
      <trkpt lat="46.68001" lon="5.80318">
        <ele>525.1</ele>
        <time>2022-02-24T09:07:09Z</time>
      </trkpt>
      <trkpt lat="46.68002" lon="5.80325">
        <ele>525.2</ele>
        <time>2022-02-24T09:07:12Z</time>
      </trkpt>
      <trkpt lat="46.68001" lon="5.80332">
        <ele>525.3</ele>
        <time>2022-02-24T09:07:17Z</time>
      </trkpt>
      <trkpt lat="46.67998" lon="5.80339">
        <ele>525.4</ele>
        <time>2022-02-24T09:07:23Z</time>
      </trkpt>
      <trkpt lat="46.67994" lon="5.80344">
        <ele>525.1</ele>
        <time>2022-02-24T09:07:30Z</time>
      </trkpt>
      <trkpt lat="46.67991" lon="5.80349">
        <ele>525.1</ele>
        <time>2022-02-24T09:07:34Z</time>
      </trkpt>
      <trkpt lat="46.67989" lon="5.80355">
        <ele>525.2</ele>
        <time>2022-02-24T09:07:38Z</time>
      </trkpt>
      <trkpt lat="46.67988" lon="5.80363">
        <ele>525.4</ele>
        <time>2022-02-24T09:07:43Z</time>
      </trkpt>
      <trkpt lat="46.67988" lon="5.80369">
        <ele>525.6</ele>
        <time>2022-02-24T09:07:47Z</time>
      </trkpt>
      <trkpt lat="46.67985" lon="5.80376">
        <ele>525.6</ele>
        <time>2022-02-24T09:07:52Z</time>
      </trkpt>
      <trkpt lat="46.67981" lon="5.80379">
        <ele>525.3</ele>
        <time>2022-02-24T09:07:57Z</time>
      </trkpt>
      <trkpt lat="46.6798" lon="5.80387">
        <ele>524.3</ele>
        <time>2022-02-24T09:08:02Z</time>
      </trkpt>
      <trkpt lat="46.67977" lon="5.80394">
        <ele>523.5</ele>
        <time>2022-02-24T09:08:07Z</time>
      </trkpt>
      <trkpt lat="46.67973" lon="5.80399">
        <ele>523.2</ele>
        <time>2022-02-24T09:08:12Z</time>
      </trkpt>
      <trkpt lat="46.67972" lon="5.80406">
        <ele>523.5</ele>
        <time>2022-02-24T09:08:18Z</time>
      </trkpt>
      <trkpt lat="46.67971" lon="5.80414">
        <ele>524.1</ele>
        <time>2022-02-24T09:08:23Z</time>
      </trkpt>
      <trkpt lat="46.67969" lon="5.80421">
        <ele>524.6</ele>
        <time>2022-02-24T09:08:27Z</time>
      </trkpt>
      <trkpt lat="46.67966" lon="5.80427">
        <ele>525.2</ele>
        <time>2022-02-24T09:08:31Z</time>
      </trkpt>
      <trkpt lat="46.67966" lon="5.80434">
        <ele>526</ele>
        <time>2022-02-24T09:08:36Z</time>
      </trkpt>
      <trkpt lat="46.67961" lon="5.80438">
        <ele>526.5</ele>
        <time>2022-02-24T09:08:41Z</time>
      </trkpt>
      <trkpt lat="46.67957" lon="5.8044">
        <ele>527.1</ele>
        <time>2022-02-24T09:08:46Z</time>
      </trkpt>
      <trkpt lat="46.67952" lon="5.80444">
        <ele>527.5</ele>
        <time>2022-02-24T09:08:51Z</time>
      </trkpt>
      <trkpt lat="46.67948" lon="5.80446">
        <ele>528</ele>
        <time>2022-02-24T09:08:55Z</time>
      </trkpt>
      <trkpt lat="46.67943" lon="5.80446">
        <ele>528.8</ele>
        <time>2022-02-24T09:08:58Z</time>
      </trkpt>
      <trkpt lat="46.67939" lon="5.80442">
        <ele>530.4</ele>
        <time>2022-02-24T09:09:11Z</time>
      </trkpt>
      <trkpt lat="46.67939" lon="5.80435">
        <ele>530.7</ele>
        <time>2022-02-24T09:09:15Z</time>
      </trkpt>
      <trkpt lat="46.67938" lon="5.80426">
        <ele>530.9</ele>
        <time>2022-02-24T09:09:19Z</time>
      </trkpt>
      <trkpt lat="46.67936" lon="5.8042">
        <ele>531.1</ele>
        <time>2022-02-24T09:09:23Z</time>
      </trkpt>
      <trkpt lat="46.67935" lon="5.80413">
        <ele>531.3</ele>
        <time>2022-02-24T09:09:28Z</time>
      </trkpt>
      <trkpt lat="46.67935" lon="5.80406">
        <ele>531.5</ele>
        <time>2022-02-24T09:09:32Z</time>
      </trkpt>
      <trkpt lat="46.67935" lon="5.80399">
        <ele>531.8</ele>
        <time>2022-02-24T09:09:36Z</time>
      </trkpt>
      <trkpt lat="46.67937" lon="5.80393">
        <ele>532.2</ele>
        <time>2022-02-24T09:09:40Z</time>
      </trkpt>
      <trkpt lat="46.67937" lon="5.80385">
        <ele>532.6</ele>
        <time>2022-02-24T09:09:45Z</time>
      </trkpt>
      <trkpt lat="46.67936" lon="5.80378">
        <ele>532.7</ele>
        <time>2022-02-24T09:09:50Z</time>
      </trkpt>
      <trkpt lat="46.67934" lon="5.80372">
        <ele>532.7</ele>
        <time>2022-02-24T09:09:55Z</time>
      </trkpt>
      <trkpt lat="46.67933" lon="5.80365">
        <ele>532.6</ele>
        <time>2022-02-24T09:10:00Z</time>
      </trkpt>
      <trkpt lat="46.67934" lon="5.80358">
        <ele>532.3</ele>
        <time>2022-02-24T09:10:05Z</time>
      </trkpt>
      <trkpt lat="46.67933" lon="5.80351">
        <ele>531.6</ele>
        <time>2022-02-24T09:10:10Z</time>
      </trkpt>
      <trkpt lat="46.6793" lon="5.80345">
        <ele>530.9</ele>
        <time>2022-02-24T09:10:15Z</time>
      </trkpt>
      <trkpt lat="46.67928" lon="5.80338">
        <ele>530</ele>
        <time>2022-02-24T09:10:20Z</time>
      </trkpt>
      <trkpt lat="46.67926" lon="5.80332">
        <ele>529.3</ele>
        <time>2022-02-24T09:10:24Z</time>
      </trkpt>
      <trkpt lat="46.67925" lon="5.80326">
        <ele>528.3</ele>
        <time>2022-02-24T09:10:29Z</time>
      </trkpt>
      <trkpt lat="46.67923" lon="5.8032">
        <ele>527.3</ele>
        <time>2022-02-24T09:10:34Z</time>
      </trkpt>
      <trkpt lat="46.67919" lon="5.80314">
        <ele>526.7</ele>
        <time>2022-02-24T09:10:39Z</time>
      </trkpt>
      <trkpt lat="46.67917" lon="5.80308">
        <ele>526.5</ele>
        <time>2022-02-24T09:10:45Z</time>
      </trkpt>
      <trkpt lat="46.67915" lon="5.80301">
        <ele>526.1</ele>
        <time>2022-02-24T09:10:50Z</time>
      </trkpt>
      <trkpt lat="46.67913" lon="5.80296">
        <ele>525.5</ele>
        <time>2022-02-24T09:10:54Z</time>
      </trkpt>
      <trkpt lat="46.6791" lon="5.80289">
        <ele>524.5</ele>
        <time>2022-02-24T09:11:00Z</time>
      </trkpt>
      <trkpt lat="46.67909" lon="5.80281">
        <ele>523.7</ele>
        <time>2022-02-24T09:11:05Z</time>
      </trkpt>
      <trkpt lat="46.67907" lon="5.80275">
        <ele>522.3</ele>
        <time>2022-02-24T09:11:10Z</time>
      </trkpt>
      <trkpt lat="46.67905" lon="5.80269">
        <ele>519.9</ele>
        <time>2022-02-24T09:11:16Z</time>
      </trkpt>
      <trkpt lat="46.67904" lon="5.80262">
        <ele>517.4</ele>
        <time>2022-02-24T09:11:23Z</time>
      </trkpt>
      <trkpt lat="46.67902" lon="5.80256">
        <ele>516.2</ele>
        <time>2022-02-24T09:11:27Z</time>
      </trkpt>
      <trkpt lat="46.67901" lon="5.80249">
        <ele>514.7</ele>
        <time>2022-02-24T09:11:32Z</time>
      </trkpt>
      <trkpt lat="46.67898" lon="5.80243">
        <ele>513.6</ele>
        <time>2022-02-24T09:11:36Z</time>
      </trkpt>
      <trkpt lat="46.67896" lon="5.80235">
        <ele>512.7</ele>
        <time>2022-02-24T09:11:40Z</time>
      </trkpt>
      <trkpt lat="46.67892" lon="5.8023">
        <ele>512.2</ele>
        <time>2022-02-24T09:11:43Z</time>
      </trkpt>
      <trkpt lat="46.6789" lon="5.80224">
        <ele>511.9</ele>
        <time>2022-02-24T09:11:47Z</time>
      </trkpt>
      <trkpt lat="46.67889" lon="5.80218">
        <ele>511.6</ele>
        <time>2022-02-24T09:11:52Z</time>
      </trkpt>
      <trkpt lat="46.67887" lon="5.80211">
        <ele>510.7</ele>
        <time>2022-02-24T09:11:58Z</time>
      </trkpt>
      <trkpt lat="46.67887" lon="5.80204">
        <ele>509.7</ele>
        <time>2022-02-24T09:12:04Z</time>
      </trkpt>
      <trkpt lat="46.67886" lon="5.80198">
        <ele>508.6</ele>
        <time>2022-02-24T09:12:10Z</time>
      </trkpt>
      <trkpt lat="46.67884" lon="5.8019">
        <ele>508.1</ele>
        <time>2022-02-24T09:12:17Z</time>
      </trkpt>
      <trkpt lat="46.67886" lon="5.80183">
        <ele>508.2</ele>
        <time>2022-02-24T09:12:22Z</time>
      </trkpt>
      <trkpt lat="46.67886" lon="5.80175">
        <ele>508.4</ele>
        <time>2022-02-24T09:12:26Z</time>
      </trkpt>
      <trkpt lat="46.67888" lon="5.80168">
        <ele>507.8</ele>
        <time>2022-02-24T09:12:31Z</time>
      </trkpt>
      <trkpt lat="46.67887" lon="5.80162">
        <ele>507.3</ele>
        <time>2022-02-24T09:12:35Z</time>
      </trkpt>
      <trkpt lat="46.67886" lon="5.80155">
        <ele>506.9</ele>
        <time>2022-02-24T09:12:40Z</time>
      </trkpt>
      <trkpt lat="46.67884" lon="5.80149">
        <ele>506.8</ele>
        <time>2022-02-24T09:12:45Z</time>
      </trkpt>
      <trkpt lat="46.67884" lon="5.80142">
        <ele>506.9</ele>
        <time>2022-02-24T09:12:51Z</time>
      </trkpt>
      <trkpt lat="46.67883" lon="5.80135">
        <ele>507.1</ele>
        <time>2022-02-24T09:12:55Z</time>
      </trkpt>
      <trkpt lat="46.67881" lon="5.80129">
        <ele>506.8</ele>
        <time>2022-02-24T09:12:58Z</time>
      </trkpt>
      <trkpt lat="46.6788" lon="5.80122">
        <ele>506.7</ele>
        <time>2022-02-24T09:13:02Z</time>
      </trkpt>
      <trkpt lat="46.67879" lon="5.80115">
        <ele>506.6</ele>
        <time>2022-02-24T09:13:06Z</time>
      </trkpt>
      <trkpt lat="46.67879" lon="5.80107">
        <ele>506.7</ele>
        <time>2022-02-24T09:13:10Z</time>
      </trkpt>
      <trkpt lat="46.67878" lon="5.801">
        <ele>506.7</ele>
        <time>2022-02-24T09:13:14Z</time>
      </trkpt>
      <trkpt lat="46.67878" lon="5.80092">
        <ele>506.9</ele>
        <time>2022-02-24T09:13:17Z</time>
      </trkpt>
      <trkpt lat="46.67876" lon="5.80086">
        <ele>507.4</ele>
        <time>2022-02-24T09:13:20Z</time>
      </trkpt>
      <trkpt lat="46.67873" lon="5.8008">
        <ele>508.2</ele>
        <time>2022-02-24T09:13:24Z</time>
      </trkpt>
      <trkpt lat="46.67872" lon="5.80074">
        <ele>509</ele>
        <time>2022-02-24T09:13:27Z</time>
      </trkpt>
      <trkpt lat="46.67868" lon="5.80067">
        <ele>509.8</ele>
        <time>2022-02-24T09:13:31Z</time>
      </trkpt>
      <trkpt lat="46.67864" lon="5.80062">
        <ele>510.4</ele>
        <time>2022-02-24T09:13:35Z</time>
      </trkpt>
      <trkpt lat="46.67861" lon="5.80056">
        <ele>511.2</ele>
        <time>2022-02-24T09:13:40Z</time>
      </trkpt>
      <trkpt lat="46.67861" lon="5.80047">
        <ele>512.6</ele>
        <time>2022-02-24T09:13:43Z</time>
      </trkpt>
      <trkpt lat="46.67861" lon="5.80039">
        <ele>514.1</ele>
        <time>2022-02-24T09:13:46Z</time>
      </trkpt>
      <trkpt lat="46.6786" lon="5.80032">
        <ele>515.7</ele>
        <time>2022-02-24T09:13:51Z</time>
      </trkpt>
      <trkpt lat="46.67859" lon="5.80025">
        <ele>517</ele>
        <time>2022-02-24T09:13:56Z</time>
      </trkpt>
      <trkpt lat="46.67856" lon="5.80018">
        <ele>518.4</ele>
        <time>2022-02-24T09:14:01Z</time>
      </trkpt>
      <trkpt lat="46.67854" lon="5.80012">
        <ele>519.3</ele>
        <time>2022-02-24T09:14:06Z</time>
      </trkpt>
      <trkpt lat="46.6785" lon="5.80006">
        <ele>519.5</ele>
        <time>2022-02-24T09:14:12Z</time>
      </trkpt>
      <trkpt lat="46.67846" lon="5.80001">
        <ele>519.2</ele>
        <time>2022-02-24T09:14:17Z</time>
      </trkpt>
      <trkpt lat="46.67842" lon="5.79997">
        <ele>518.7</ele>
        <time>2022-02-24T09:14:22Z</time>
      </trkpt>
      <trkpt lat="46.67838" lon="5.79993">
        <ele>518.1</ele>
        <time>2022-02-24T09:14:26Z</time>
      </trkpt>
      <trkpt lat="46.67834" lon="5.79989">
        <ele>517.4</ele>
        <time>2022-02-24T09:14:30Z</time>
      </trkpt>
      <trkpt lat="46.6783" lon="5.79985">
        <ele>516.7</ele>
        <time>2022-02-24T09:14:34Z</time>
      </trkpt>
      <trkpt lat="46.67826" lon="5.79981">
        <ele>516.2</ele>
        <time>2022-02-24T09:14:37Z</time>
      </trkpt>
      <trkpt lat="46.67821" lon="5.79975">
        <ele>515.7</ele>
        <time>2022-02-24T09:14:40Z</time>
      </trkpt>
      <trkpt lat="46.67818" lon="5.79969">
        <ele>515.4</ele>
        <time>2022-02-24T09:14:43Z</time>
      </trkpt>
      <trkpt lat="46.67815" lon="5.79963">
        <ele>514.8</ele>
        <time>2022-02-24T09:14:49Z</time>
      </trkpt>
      <trkpt lat="46.6781" lon="5.79959">
        <ele>513.9</ele>
        <time>2022-02-24T09:14:55Z</time>
      </trkpt>
      <trkpt lat="46.67806" lon="5.79955">
        <ele>513.3</ele>
        <time>2022-02-24T09:14:59Z</time>
      </trkpt>
      <trkpt lat="46.67802" lon="5.7995">
        <ele>512.7</ele>
        <time>2022-02-24T09:15:03Z</time>
      </trkpt>
      <trkpt lat="46.67798" lon="5.79945">
        <ele>512.1</ele>
        <time>2022-02-24T09:15:07Z</time>
      </trkpt>
      <trkpt lat="46.67795" lon="5.79939">
        <ele>511.4</ele>
        <time>2022-02-24T09:15:11Z</time>
      </trkpt>
      <trkpt lat="46.67792" lon="5.79934">
        <ele>510.9</ele>
        <time>2022-02-24T09:15:15Z</time>
      </trkpt>
      <trkpt lat="46.67788" lon="5.7993">
        <ele>510.2</ele>
        <time>2022-02-24T09:15:19Z</time>
      </trkpt>
      <trkpt lat="46.67784" lon="5.79926">
        <ele>509.8</ele>
        <time>2022-02-24T09:15:23Z</time>
      </trkpt>
      <trkpt lat="46.67779" lon="5.79921">
        <ele>509.2</ele>
        <time>2022-02-24T09:15:28Z</time>
      </trkpt>
      <trkpt lat="46.67775" lon="5.79916">
        <ele>509</ele>
        <time>2022-02-24T09:15:32Z</time>
      </trkpt>
      <trkpt lat="46.67773" lon="5.7991">
        <ele>509.1</ele>
        <time>2022-02-24T09:15:36Z</time>
      </trkpt>
      <trkpt lat="46.6777" lon="5.79903">
        <ele>508.9</ele>
        <time>2022-02-24T09:15:41Z</time>
      </trkpt>
      <trkpt lat="46.67768" lon="5.79895">
        <ele>509.5</ele>
        <time>2022-02-24T09:15:47Z</time>
      </trkpt>
      <trkpt lat="46.67766" lon="5.79888">
        <ele>510.5</ele>
        <time>2022-02-24T09:15:51Z</time>
      </trkpt>
      <trkpt lat="46.67764" lon="5.79882">
        <ele>511</ele>
        <time>2022-02-24T09:15:55Z</time>
      </trkpt>
      <trkpt lat="46.67761" lon="5.79875">
        <ele>511</ele>
        <time>2022-02-24T09:16:00Z</time>
      </trkpt>
      <trkpt lat="46.67759" lon="5.79869">
        <ele>510.6</ele>
        <time>2022-02-24T09:16:06Z</time>
      </trkpt>
      <trkpt lat="46.67757" lon="5.79863">
        <ele>510</ele>
        <time>2022-02-24T09:16:11Z</time>
      </trkpt>
      <trkpt lat="46.67754" lon="5.79857">
        <ele>509.6</ele>
        <time>2022-02-24T09:16:16Z</time>
      </trkpt>
      <trkpt lat="46.67755" lon="5.7985">
        <ele>509</ele>
        <time>2022-02-24T09:16:22Z</time>
      </trkpt>
      <trkpt lat="46.67754" lon="5.79844">
        <ele>509.2</ele>
        <time>2022-02-24T09:16:26Z</time>
      </trkpt>
      <trkpt lat="46.67751" lon="5.79838">
        <ele>508.3</ele>
        <time>2022-02-24T09:16:34Z</time>
      </trkpt>
      <trkpt lat="46.67751" lon="5.79829">
        <ele>508</ele>
        <time>2022-02-24T09:16:39Z</time>
      </trkpt>
      <trkpt lat="46.6775" lon="5.79823">
        <ele>507.9</ele>
        <time>2022-02-24T09:16:43Z</time>
      </trkpt>
      <trkpt lat="46.67753" lon="5.79817">
        <ele>506.8</ele>
        <time>2022-02-24T09:16:49Z</time>
      </trkpt>
      <trkpt lat="46.67755" lon="5.79809">
        <ele>506.5</ele>
        <time>2022-02-24T09:16:53Z</time>
      </trkpt>
      <trkpt lat="46.67755" lon="5.79802">
        <ele>506.6</ele>
        <time>2022-02-24T09:16:56Z</time>
      </trkpt>
      <trkpt lat="46.67755" lon="5.79795">
        <ele>506.6</ele>
        <time>2022-02-24T09:17:01Z</time>
      </trkpt>
      <trkpt lat="46.67757" lon="5.79789">
        <ele>507</ele>
        <time>2022-02-24T09:17:07Z</time>
      </trkpt>
      <trkpt lat="46.67761" lon="5.79783">
        <ele>507.2</ele>
        <time>2022-02-24T09:17:12Z</time>
      </trkpt>
      <trkpt lat="46.67763" lon="5.79776">
        <ele>507.4</ele>
        <time>2022-02-24T09:17:17Z</time>
      </trkpt>
      <trkpt lat="46.67764" lon="5.79769">
        <ele>507.3</ele>
        <time>2022-02-24T09:17:21Z</time>
      </trkpt>
      <trkpt lat="46.67764" lon="5.79761">
        <ele>506.9</ele>
        <time>2022-02-24T09:17:25Z</time>
      </trkpt>
      <trkpt lat="46.67765" lon="5.79754">
        <ele>506.3</ele>
        <time>2022-02-24T09:17:30Z</time>
      </trkpt>
      <trkpt lat="46.67766" lon="5.79747">
        <ele>505.9</ele>
        <time>2022-02-24T09:17:35Z</time>
      </trkpt>
      <trkpt lat="46.67765" lon="5.7974">
        <ele>505.7</ele>
        <time>2022-02-24T09:17:39Z</time>
      </trkpt>
      <trkpt lat="46.67764" lon="5.79732">
        <ele>506.4</ele>
        <time>2022-02-24T09:17:42Z</time>
      </trkpt>
      <trkpt lat="46.67759" lon="5.79725">
        <ele>507.1</ele>
        <time>2022-02-24T09:17:45Z</time>
      </trkpt>
      <trkpt lat="46.67756" lon="5.79717">
        <ele>508.1</ele>
        <time>2022-02-24T09:17:48Z</time>
      </trkpt>
      <trkpt lat="46.67754" lon="5.79711">
        <ele>509</ele>
        <time>2022-02-24T09:17:51Z</time>
      </trkpt>
      <trkpt lat="46.67752" lon="5.79704">
        <ele>509.9</ele>
        <time>2022-02-24T09:17:55Z</time>
      </trkpt>
      <trkpt lat="46.67749" lon="5.79698">
        <ele>510.5</ele>
        <time>2022-02-24T09:18:01Z</time>
      </trkpt>
      <trkpt lat="46.67745" lon="5.79693">
        <ele>510.5</ele>
        <time>2022-02-24T09:18:07Z</time>
      </trkpt>
      <trkpt lat="46.67741" lon="5.79688">
        <ele>510.4</ele>
        <time>2022-02-24T09:18:12Z</time>
      </trkpt>
      <trkpt lat="46.67737" lon="5.79684">
        <ele>510.1</ele>
        <time>2022-02-24T09:18:19Z</time>
      </trkpt>
      <trkpt lat="46.67733" lon="5.7968">
        <ele>510.1</ele>
        <time>2022-02-24T09:18:23Z</time>
      </trkpt>
      <trkpt lat="46.67729" lon="5.79676">
        <ele>510.2</ele>
        <time>2022-02-24T09:18:28Z</time>
      </trkpt>
      <trkpt lat="46.67725" lon="5.79674">
        <ele>509.9</ele>
        <time>2022-02-24T09:18:31Z</time>
      </trkpt>
      <trkpt lat="46.6772" lon="5.79672">
        <ele>509.3</ele>
        <time>2022-02-24T09:18:35Z</time>
      </trkpt>
      <trkpt lat="46.67716" lon="5.79667">
        <ele>508.4</ele>
        <time>2022-02-24T09:18:41Z</time>
      </trkpt>
      <trkpt lat="46.67712" lon="5.79664">
        <ele>508.2</ele>
        <time>2022-02-24T09:18:46Z</time>
      </trkpt>
      <trkpt lat="46.67707" lon="5.79663">
        <ele>508.1</ele>
        <time>2022-02-24T09:18:49Z</time>
      </trkpt>
      <trkpt lat="46.67702" lon="5.79659">
        <ele>508.5</ele>
        <time>2022-02-24T09:18:54Z</time>
      </trkpt>
      <trkpt lat="46.67697" lon="5.79655">
        <ele>508.8</ele>
        <time>2022-02-24T09:18:58Z</time>
      </trkpt>
      <trkpt lat="46.67692" lon="5.79651">
        <ele>509.7</ele>
        <time>2022-02-24T09:19:01Z</time>
      </trkpt>
      <trkpt lat="46.67688" lon="5.79647">
        <ele>510.4</ele>
        <time>2022-02-24T09:19:05Z</time>
      </trkpt>
      <trkpt lat="46.67683" lon="5.79643">
        <ele>511.4</ele>
        <time>2022-02-24T09:19:09Z</time>
      </trkpt>
      <trkpt lat="46.67679" lon="5.79639">
        <ele>512.4</ele>
        <time>2022-02-24T09:19:12Z</time>
      </trkpt>
      <trkpt lat="46.67675" lon="5.79633">
        <ele>514.1</ele>
        <time>2022-02-24T09:19:15Z</time>
      </trkpt>
      <trkpt lat="46.67672" lon="5.79624">
        <ele>516.3</ele>
        <time>2022-02-24T09:19:18Z</time>
      </trkpt>
      <trkpt lat="46.67668" lon="5.79617">
        <ele>518.6</ele>
        <time>2022-02-24T09:19:21Z</time>
      </trkpt>
      <trkpt lat="46.67664" lon="5.79612">
        <ele>520.8</ele>
        <time>2022-02-24T09:19:25Z</time>
      </trkpt>
      <trkpt lat="46.67659" lon="5.79607">
        <ele>522.5</ele>
        <time>2022-02-24T09:19:29Z</time>
      </trkpt>
      <trkpt lat="46.67656" lon="5.79601">
        <ele>524.1</ele>
        <time>2022-02-24T09:19:33Z</time>
      </trkpt>
      <trkpt lat="46.67653" lon="5.79595">
        <ele>525.6</ele>
        <time>2022-02-24T09:19:37Z</time>
      </trkpt>
      <trkpt lat="46.67649" lon="5.79589">
        <ele>527.2</ele>
        <time>2022-02-24T09:19:41Z</time>
      </trkpt>
      <trkpt lat="46.67645" lon="5.79585">
        <ele>529</ele>
        <time>2022-02-24T09:19:46Z</time>
      </trkpt>
      <trkpt lat="46.67641" lon="5.79582">
        <ele>530.1</ele>
        <time>2022-02-24T09:19:51Z</time>
      </trkpt>
      <trkpt lat="46.67638" lon="5.79578">
        <ele>530.7</ele>
        <time>2022-02-24T09:19:55Z</time>
      </trkpt>
      <trkpt lat="46.67634" lon="5.79572">
        <ele>531</ele>
        <time>2022-02-24T09:19:59Z</time>
      </trkpt>
      <trkpt lat="46.67629" lon="5.79568">
        <ele>531.2</ele>
        <time>2022-02-24T09:20:03Z</time>
      </trkpt>
      <trkpt lat="46.67626" lon="5.79564">
        <ele>531.6</ele>
        <time>2022-02-24T09:20:08Z</time>
      </trkpt>
      <trkpt lat="46.67622" lon="5.79558">
        <ele>532.6</ele>
        <time>2022-02-24T09:20:13Z</time>
      </trkpt>
      <trkpt lat="46.67618" lon="5.79554">
        <ele>533.2</ele>
        <time>2022-02-24T09:20:17Z</time>
      </trkpt>
      <trkpt lat="46.67615" lon="5.79549">
        <ele>533.4</ele>
        <time>2022-02-24T09:20:25Z</time>
      </trkpt>
      <trkpt lat="46.6761" lon="5.79545">
        <ele>532.9</ele>
        <time>2022-02-24T09:20:30Z</time>
      </trkpt>
      <trkpt lat="46.67606" lon="5.79541">
        <ele>532.6</ele>
        <time>2022-02-24T09:20:34Z</time>
      </trkpt>
      <trkpt lat="46.67602" lon="5.79535">
        <ele>532.6</ele>
        <time>2022-02-24T09:20:38Z</time>
      </trkpt>
      <trkpt lat="46.67599" lon="5.7953">
        <ele>532.6</ele>
        <time>2022-02-24T09:20:42Z</time>
      </trkpt>
      <trkpt lat="46.67595" lon="5.79525">
        <ele>532.4</ele>
        <time>2022-02-24T09:20:46Z</time>
      </trkpt>
      <trkpt lat="46.67591" lon="5.79522">
        <ele>532.2</ele>
        <time>2022-02-24T09:20:52Z</time>
      </trkpt>
      <trkpt lat="46.67588" lon="5.79517">
        <ele>532.2</ele>
        <time>2022-02-24T09:20:56Z</time>
      </trkpt>
      <trkpt lat="46.67583" lon="5.79512">
        <ele>532.2</ele>
        <time>2022-02-24T09:21:01Z</time>
      </trkpt>
      <trkpt lat="46.67579" lon="5.79508">
        <ele>532.2</ele>
        <time>2022-02-24T09:21:05Z</time>
      </trkpt>
      <trkpt lat="46.67575" lon="5.79504">
        <ele>532.3</ele>
        <time>2022-02-24T09:21:09Z</time>
      </trkpt>
      <trkpt lat="46.6757" lon="5.79499">
        <ele>532.4</ele>
        <time>2022-02-24T09:21:14Z</time>
      </trkpt>
      <trkpt lat="46.67567" lon="5.79494">
        <ele>531.8</ele>
        <time>2022-02-24T09:21:18Z</time>
      </trkpt>
      <trkpt lat="46.67568" lon="5.79488">
        <ele>530.2</ele>
        <time>2022-02-24T09:21:24Z</time>
      </trkpt>
      <trkpt lat="46.67568" lon="5.79481">
        <ele>528.8</ele>
        <time>2022-02-24T09:21:31Z</time>
      </trkpt>
      <trkpt lat="46.67568" lon="5.79473">
        <ele>528</ele>
        <time>2022-02-24T09:21:36Z</time>
      </trkpt>
      <trkpt lat="46.67568" lon="5.79466">
        <ele>528</ele>
        <time>2022-02-24T09:21:40Z</time>
      </trkpt>
      <trkpt lat="46.67563" lon="5.79466">
        <ele>528.3</ele>
        <time>2022-02-24T09:21:50Z</time>
      </trkpt>
      <trkpt lat="46.67555" lon="5.79469">
        <ele>529.3</ele>
        <time>2022-02-24T09:22:38Z</time>
      </trkpt>
      <trkpt lat="46.67551" lon="5.79471">
        <ele>529.9</ele>
        <time>2022-02-24T09:22:43Z</time>
      </trkpt>
      <trkpt lat="46.67553" lon="5.79465">
        <ele>530.2</ele>
        <time>2022-02-24T09:22:50Z</time>
      </trkpt>
      <trkpt lat="46.67556" lon="5.79459">
        <ele>530.4</ele>
        <time>2022-02-24T09:23:05Z</time>
      </trkpt>
      <trkpt lat="46.67554" lon="5.79467">
        <ele>530.6</ele>
        <time>2022-02-24T09:24:43Z</time>
      </trkpt>
      <trkpt lat="46.67551" lon="5.79472">
        <ele>532.5</ele>
        <time>2022-02-24T09:27:21Z</time>
      </trkpt>
      <trkpt lat="46.67552" lon="5.79465">
        <ele>533.8</ele>
        <time>2022-02-24T09:27:40Z</time>
      </trkpt>
      <trkpt lat="46.67547" lon="5.79469">
        <ele>532.2</ele>
        <time>2022-02-24T09:29:26Z</time>
      </trkpt>
      <trkpt lat="46.67542" lon="5.7947">
        <ele>531.8</ele>
        <time>2022-02-24T09:29:37Z</time>
      </trkpt>
      <trkpt lat="46.67537" lon="5.7947">
        <ele>531.6</ele>
        <time>2022-02-24T09:29:44Z</time>
      </trkpt>
      <trkpt lat="46.67532" lon="5.79471">
        <ele>530.6</ele>
        <time>2022-02-24T09:29:52Z</time>
      </trkpt>
      <trkpt lat="46.67527" lon="5.7947">
        <ele>529</ele>
        <time>2022-02-24T09:30:01Z</time>
      </trkpt>
      <trkpt lat="46.6752" lon="5.79469">
        <ele>528.6</ele>
        <time>2022-02-24T09:30:20Z</time>
      </trkpt>
      <trkpt lat="46.67515" lon="5.79467">
        <ele>528.8</ele>
        <time>2022-02-24T09:30:26Z</time>
      </trkpt>
      <trkpt lat="46.67511" lon="5.79468">
        <ele>529.1</ele>
        <time>2022-02-24T09:30:33Z</time>
      </trkpt>
      <trkpt lat="46.67506" lon="5.79466">
        <ele>529.6</ele>
        <time>2022-02-24T09:30:39Z</time>
      </trkpt>
      <trkpt lat="46.67501" lon="5.79465">
        <ele>529.9</ele>
        <time>2022-02-24T09:30:44Z</time>
      </trkpt>
      <trkpt lat="46.67496" lon="5.79462">
        <ele>530.2</ele>
        <time>2022-02-24T09:30:48Z</time>
      </trkpt>
      <trkpt lat="46.67492" lon="5.79461">
        <ele>530.5</ele>
        <time>2022-02-24T09:30:54Z</time>
      </trkpt>
      <trkpt lat="46.67487" lon="5.79463">
        <ele>530.3</ele>
        <time>2022-02-24T09:31:01Z</time>
      </trkpt>
      <trkpt lat="46.67483" lon="5.79466">
        <ele>530.2</ele>
        <time>2022-02-24T09:31:06Z</time>
      </trkpt>
      <trkpt lat="46.67479" lon="5.79469">
        <ele>530.2</ele>
        <time>2022-02-24T09:31:11Z</time>
      </trkpt>
      <trkpt lat="46.67475" lon="5.79471">
        <ele>530</ele>
        <time>2022-02-24T09:31:18Z</time>
      </trkpt>
      <trkpt lat="46.6747" lon="5.79473">
        <ele>529.1</ele>
        <time>2022-02-24T09:31:23Z</time>
      </trkpt>
      <trkpt lat="46.67465" lon="5.79476">
        <ele>528.2</ele>
        <time>2022-02-24T09:31:27Z</time>
      </trkpt>
      <trkpt lat="46.6746" lon="5.7948">
        <ele>527.3</ele>
        <time>2022-02-24T09:31:31Z</time>
      </trkpt>
      <trkpt lat="46.67456" lon="5.79483">
        <ele>526.7</ele>
        <time>2022-02-24T09:31:36Z</time>
      </trkpt>
      <trkpt lat="46.67451" lon="5.79486">
        <ele>527.4</ele>
        <time>2022-02-24T09:31:41Z</time>
      </trkpt>
      <trkpt lat="46.67446" lon="5.79488">
        <ele>528.4</ele>
        <time>2022-02-24T09:31:46Z</time>
      </trkpt>
      <trkpt lat="46.67442" lon="5.7949">
        <ele>529.3</ele>
        <time>2022-02-24T09:31:51Z</time>
      </trkpt>
      <trkpt lat="46.67438" lon="5.79495">
        <ele>529.6</ele>
        <time>2022-02-24T09:31:58Z</time>
      </trkpt>
      <trkpt lat="46.67434" lon="5.79497">
        <ele>529.3</ele>
        <time>2022-02-24T09:32:05Z</time>
      </trkpt>
      <trkpt lat="46.67429" lon="5.79496">
        <ele>529.1</ele>
        <time>2022-02-24T09:32:09Z</time>
      </trkpt>
      <trkpt lat="46.67425" lon="5.795">
        <ele>529</ele>
        <time>2022-02-24T09:32:13Z</time>
      </trkpt>
      <trkpt lat="46.67422" lon="5.79505">
        <ele>529.2</ele>
        <time>2022-02-24T09:32:19Z</time>
      </trkpt>
      <trkpt lat="46.67419" lon="5.7951">
        <ele>529</ele>
        <time>2022-02-24T09:32:25Z</time>
      </trkpt>
      <trkpt lat="46.67417" lon="5.79516">
        <ele>528.9</ele>
        <time>2022-02-24T09:32:32Z</time>
      </trkpt>
      <trkpt lat="46.67414" lon="5.79522">
        <ele>528.6</ele>
        <time>2022-02-24T09:32:39Z</time>
      </trkpt>
      <trkpt lat="46.67411" lon="5.79527">
        <ele>528.2</ele>
        <time>2022-02-24T09:32:45Z</time>
      </trkpt>
      <trkpt lat="46.67407" lon="5.79533">
        <ele>527.3</ele>
        <time>2022-02-24T09:32:51Z</time>
      </trkpt>
      <trkpt lat="46.67404" lon="5.79538">
        <ele>526.2</ele>
        <time>2022-02-24T09:32:57Z</time>
      </trkpt>
      <trkpt lat="46.67401" lon="5.79543">
        <ele>525.5</ele>
        <time>2022-02-24T09:33:02Z</time>
      </trkpt>
      <trkpt lat="46.67398" lon="5.7955">
        <ele>524.3</ele>
        <time>2022-02-24T09:33:07Z</time>
      </trkpt>
      <trkpt lat="46.67395" lon="5.79556">
        <ele>523</ele>
        <time>2022-02-24T09:33:12Z</time>
      </trkpt>
      <trkpt lat="46.67391" lon="5.79559">
        <ele>522.4</ele>
        <time>2022-02-24T09:33:58Z</time>
      </trkpt>
      <trkpt lat="46.67389" lon="5.79565">
        <ele>522</ele>
        <time>2022-02-24T09:34:02Z</time>
      </trkpt>
      <trkpt lat="46.67385" lon="5.79571">
        <ele>521.4</ele>
        <time>2022-02-24T09:34:07Z</time>
      </trkpt>
      <trkpt lat="46.67382" lon="5.79577">
        <ele>520.8</ele>
        <time>2022-02-24T09:34:11Z</time>
      </trkpt>
      <trkpt lat="46.6738" lon="5.79584">
        <ele>520</ele>
        <time>2022-02-24T09:34:14Z</time>
      </trkpt>
      <trkpt lat="46.67377" lon="5.79592">
        <ele>519.4</ele>
        <time>2022-02-24T09:34:17Z</time>
      </trkpt>
      <trkpt lat="46.67374" lon="5.79601">
        <ele>519</ele>
        <time>2022-02-24T09:34:20Z</time>
      </trkpt>
      <trkpt lat="46.67372" lon="5.79608">
        <ele>519</ele>
        <time>2022-02-24T09:34:23Z</time>
      </trkpt>
      <trkpt lat="46.6737" lon="5.79614">
        <ele>519</ele>
        <time>2022-02-24T09:34:26Z</time>
      </trkpt>
      <trkpt lat="46.67367" lon="5.7962">
        <ele>519.2</ele>
        <time>2022-02-24T09:34:29Z</time>
      </trkpt>
      <trkpt lat="46.67365" lon="5.79627">
        <ele>519.1</ele>
        <time>2022-02-24T09:34:33Z</time>
      </trkpt>
      <trkpt lat="46.67365" lon="5.79633">
        <ele>518.9</ele>
        <time>2022-02-24T09:34:37Z</time>
      </trkpt>
      <trkpt lat="46.67364" lon="5.79642">
        <ele>518.7</ele>
        <time>2022-02-24T09:34:41Z</time>
      </trkpt>
      <trkpt lat="46.67363" lon="5.79648">
        <ele>518.7</ele>
        <time>2022-02-24T09:34:44Z</time>
      </trkpt>
      <trkpt lat="46.67362" lon="5.79655">
        <ele>518.9</ele>
        <time>2022-02-24T09:34:47Z</time>
      </trkpt>
      <trkpt lat="46.67362" lon="5.79663">
        <ele>519.3</ele>
        <time>2022-02-24T09:34:51Z</time>
      </trkpt>
      <trkpt lat="46.67361" lon="5.79671">
        <ele>520.2</ele>
        <time>2022-02-24T09:34:55Z</time>
      </trkpt>
      <trkpt lat="46.67358" lon="5.79678">
        <ele>520.7</ele>
        <time>2022-02-24T09:34:59Z</time>
      </trkpt>
      <trkpt lat="46.67356" lon="5.79685">
        <ele>520.8</ele>
        <time>2022-02-24T09:35:03Z</time>
      </trkpt>
      <trkpt lat="46.67356" lon="5.79692">
        <ele>520.4</ele>
        <time>2022-02-24T09:35:07Z</time>
      </trkpt>
      <trkpt lat="46.67356" lon="5.79698">
        <ele>519.1</ele>
        <time>2022-02-24T09:35:11Z</time>
      </trkpt>
      <trkpt lat="46.67354" lon="5.79705">
        <ele>517.3</ele>
        <time>2022-02-24T09:35:15Z</time>
      </trkpt>
      <trkpt lat="46.67353" lon="5.79712">
        <ele>515.1</ele>
        <time>2022-02-24T09:35:20Z</time>
      </trkpt>
      <trkpt lat="46.67352" lon="5.79719">
        <ele>513.4</ele>
        <time>2022-02-24T09:35:24Z</time>
      </trkpt>
      <trkpt lat="46.67352" lon="5.79727">
        <ele>512.1</ele>
        <time>2022-02-24T09:35:28Z</time>
      </trkpt>
      <trkpt lat="46.67352" lon="5.79734">
        <ele>511.4</ele>
        <time>2022-02-24T09:35:32Z</time>
      </trkpt>
      <trkpt lat="46.6735" lon="5.79741">
        <ele>510.6</ele>
        <time>2022-02-24T09:35:36Z</time>
      </trkpt>
      <trkpt lat="46.6735" lon="5.79748">
        <ele>510</ele>
        <time>2022-02-24T09:35:40Z</time>
      </trkpt>
      <trkpt lat="46.67351" lon="5.79755">
        <ele>509.4</ele>
        <time>2022-02-24T09:35:45Z</time>
      </trkpt>
      <trkpt lat="46.67349" lon="5.79763">
        <ele>508.8</ele>
        <time>2022-02-24T09:35:50Z</time>
      </trkpt>
      <trkpt lat="46.67347" lon="5.7977">
        <ele>508.6</ele>
        <time>2022-02-24T09:35:54Z</time>
      </trkpt>
      <trkpt lat="46.67346" lon="5.79776">
        <ele>508.5</ele>
        <time>2022-02-24T09:35:58Z</time>
      </trkpt>
      <trkpt lat="46.67345" lon="5.79783">
        <ele>508.3</ele>
        <time>2022-02-24T09:36:02Z</time>
      </trkpt>
      <trkpt lat="46.67345" lon="5.7979">
        <ele>508.3</ele>
        <time>2022-02-24T09:36:06Z</time>
      </trkpt>
      <trkpt lat="46.67344" lon="5.79797">
        <ele>508.2</ele>
        <time>2022-02-24T09:36:10Z</time>
      </trkpt>
      <trkpt lat="46.67343" lon="5.79804">
        <ele>508</ele>
        <time>2022-02-24T09:36:14Z</time>
      </trkpt>
      <trkpt lat="46.67341" lon="5.79811">
        <ele>507.8</ele>
        <time>2022-02-24T09:36:19Z</time>
      </trkpt>
      <trkpt lat="46.67341" lon="5.79818">
        <ele>507.5</ele>
        <time>2022-02-24T09:36:26Z</time>
      </trkpt>
      <trkpt lat="46.67338" lon="5.79825">
        <ele>507.6</ele>
        <time>2022-02-24T09:36:31Z</time>
      </trkpt>
      <trkpt lat="46.67336" lon="5.79831">
        <ele>507.1</ele>
        <time>2022-02-24T09:36:36Z</time>
      </trkpt>
      <trkpt lat="46.67336" lon="5.79838">
        <ele>506.5</ele>
        <time>2022-02-24T09:36:40Z</time>
      </trkpt>
      <trkpt lat="46.67335" lon="5.79844">
        <ele>506.5</ele>
        <time>2022-02-24T09:36:44Z</time>
      </trkpt>
      <trkpt lat="46.67334" lon="5.79851">
        <ele>506.7</ele>
        <time>2022-02-24T09:36:48Z</time>
      </trkpt>
      <trkpt lat="46.67333" lon="5.79858">
        <ele>506.5</ele>
        <time>2022-02-24T09:36:52Z</time>
      </trkpt>
      <trkpt lat="46.67333" lon="5.79865">
        <ele>506.2</ele>
        <time>2022-02-24T09:36:57Z</time>
      </trkpt>
      <trkpt lat="46.67333" lon="5.79872">
        <ele>505.8</ele>
        <time>2022-02-24T09:37:03Z</time>
      </trkpt>
      <trkpt lat="46.67331" lon="5.79878">
        <ele>505.8</ele>
        <time>2022-02-24T09:37:07Z</time>
      </trkpt>
      <trkpt lat="46.6733" lon="5.79885">
        <ele>505.7</ele>
        <time>2022-02-24T09:37:11Z</time>
      </trkpt>
      <trkpt lat="46.6733" lon="5.79892">
        <ele>505.6</ele>
        <time>2022-02-24T09:37:17Z</time>
      </trkpt>
      <trkpt lat="46.6733" lon="5.79899">
        <ele>505.4</ele>
        <time>2022-02-24T09:37:24Z</time>
      </trkpt>
      <trkpt lat="46.67331" lon="5.79907">
        <ele>505</ele>
        <time>2022-02-24T09:37:30Z</time>
      </trkpt>
      <trkpt lat="46.67328" lon="5.79914">
        <ele>504.9</ele>
        <time>2022-02-24T09:37:35Z</time>
      </trkpt>
      <trkpt lat="46.67326" lon="5.79921">
        <ele>504.8</ele>
        <time>2022-02-24T09:37:39Z</time>
      </trkpt>
      <trkpt lat="46.67324" lon="5.79928">
        <ele>504.9</ele>
        <time>2022-02-24T09:37:43Z</time>
      </trkpt>
      <trkpt lat="46.67322" lon="5.79936">
        <ele>505.2</ele>
        <time>2022-02-24T09:37:47Z</time>
      </trkpt>
      <trkpt lat="46.67319" lon="5.79942">
        <ele>505.6</ele>
        <time>2022-02-24T09:37:51Z</time>
      </trkpt>
      <trkpt lat="46.67319" lon="5.7995">
        <ele>506.1</ele>
        <time>2022-02-24T09:37:56Z</time>
      </trkpt>
      <trkpt lat="46.67318" lon="5.79958">
        <ele>506.8</ele>
        <time>2022-02-24T09:38:02Z</time>
      </trkpt>
      <trkpt lat="46.67318" lon="5.79965">
        <ele>506.7</ele>
        <time>2022-02-24T09:38:07Z</time>
      </trkpt>
      <trkpt lat="46.67318" lon="5.79973">
        <ele>506.4</ele>
        <time>2022-02-24T09:38:13Z</time>
      </trkpt>
      <trkpt lat="46.67319" lon="5.7998">
        <ele>505.7</ele>
        <time>2022-02-24T09:38:18Z</time>
      </trkpt>
      <trkpt lat="46.67317" lon="5.79987">
        <ele>505</ele>
        <time>2022-02-24T09:38:23Z</time>
      </trkpt>
      <trkpt lat="46.67318" lon="5.79994">
        <ele>504.1</ele>
        <time>2022-02-24T09:38:28Z</time>
      </trkpt>
      <trkpt lat="46.67317" lon="5.80002">
        <ele>503.2</ele>
        <time>2022-02-24T09:38:32Z</time>
      </trkpt>
      <trkpt lat="46.67317" lon="5.80009">
        <ele>502.5</ele>
        <time>2022-02-24T09:38:36Z</time>
      </trkpt>
      <trkpt lat="46.67318" lon="5.80016">
        <ele>501.9</ele>
        <time>2022-02-24T09:38:40Z</time>
      </trkpt>
      <trkpt lat="46.67318" lon="5.80023">
        <ele>501.6</ele>
        <time>2022-02-24T09:38:44Z</time>
      </trkpt>
      <trkpt lat="46.67316" lon="5.8003">
        <ele>501.4</ele>
        <time>2022-02-24T09:38:49Z</time>
      </trkpt>
      <trkpt lat="46.67317" lon="5.80038">
        <ele>501.6</ele>
        <time>2022-02-24T09:38:54Z</time>
      </trkpt>
      <trkpt lat="46.67317" lon="5.80044">
        <ele>501.8</ele>
        <time>2022-02-24T09:38:59Z</time>
      </trkpt>
      <trkpt lat="46.67315" lon="5.80052">
        <ele>502</ele>
        <time>2022-02-24T09:39:03Z</time>
      </trkpt>
      <trkpt lat="46.67314" lon="5.80059">
        <ele>502.1</ele>
        <time>2022-02-24T09:39:08Z</time>
      </trkpt>
      <trkpt lat="46.67315" lon="5.80066">
        <ele>502.2</ele>
        <time>2022-02-24T09:39:12Z</time>
      </trkpt>
      <trkpt lat="46.67315" lon="5.80072">
        <ele>502.5</ele>
        <time>2022-02-24T09:39:16Z</time>
      </trkpt>
      <trkpt lat="46.67314" lon="5.80081">
        <ele>503.3</ele>
        <time>2022-02-24T09:39:21Z</time>
      </trkpt>
      <trkpt lat="46.67315" lon="5.80088">
        <ele>503.7</ele>
        <time>2022-02-24T09:39:25Z</time>
      </trkpt>
      <trkpt lat="46.67315" lon="5.80095">
        <ele>503.6</ele>
        <time>2022-02-24T09:39:30Z</time>
      </trkpt>
      <trkpt lat="46.67313" lon="5.80103">
        <ele>503.5</ele>
        <time>2022-02-24T09:39:35Z</time>
      </trkpt>
      <trkpt lat="46.67312" lon="5.8011">
        <ele>503.3</ele>
        <time>2022-02-24T09:39:41Z</time>
      </trkpt>
      <trkpt lat="46.67313" lon="5.80117">
        <ele>503</ele>
        <time>2022-02-24T09:39:45Z</time>
      </trkpt>
      <trkpt lat="46.67311" lon="5.80124">
        <ele>503.1</ele>
        <time>2022-02-24T09:39:49Z</time>
      </trkpt>
      <trkpt lat="46.6731" lon="5.80131">
        <ele>503.3</ele>
        <time>2022-02-24T09:39:52Z</time>
      </trkpt>
      <trkpt lat="46.67309" lon="5.80139">
        <ele>503.6</ele>
        <time>2022-02-24T09:39:56Z</time>
      </trkpt>
      <trkpt lat="46.67307" lon="5.80146">
        <ele>504.3</ele>
        <time>2022-02-24T09:40:00Z</time>
      </trkpt>
      <trkpt lat="46.67308" lon="5.80153">
        <ele>504.8</ele>
        <time>2022-02-24T09:40:05Z</time>
      </trkpt>
      <trkpt lat="46.67307" lon="5.80161">
        <ele>505.2</ele>
        <time>2022-02-24T09:40:10Z</time>
      </trkpt>
      <trkpt lat="46.67305" lon="5.80167">
        <ele>505.4</ele>
        <time>2022-02-24T09:40:15Z</time>
      </trkpt>
      <trkpt lat="46.67304" lon="5.80174">
        <ele>505</ele>
        <time>2022-02-24T09:40:20Z</time>
      </trkpt>
      <trkpt lat="46.67304" lon="5.80181">
        <ele>504.3</ele>
        <time>2022-02-24T09:40:24Z</time>
      </trkpt>
      <trkpt lat="46.67303" lon="5.80188">
        <ele>503.6</ele>
        <time>2022-02-24T09:40:29Z</time>
      </trkpt>
      <trkpt lat="46.67301" lon="5.80194">
        <ele>503.4</ele>
        <time>2022-02-24T09:40:33Z</time>
      </trkpt>
      <trkpt lat="46.67299" lon="5.80201">
        <ele>503.1</ele>
        <time>2022-02-24T09:40:38Z</time>
      </trkpt>
      <trkpt lat="46.67298" lon="5.80208">
        <ele>502.5</ele>
        <time>2022-02-24T09:40:43Z</time>
      </trkpt>
      <trkpt lat="46.67296" lon="5.80215">
        <ele>502.1</ele>
        <time>2022-02-24T09:40:49Z</time>
      </trkpt>
      <trkpt lat="46.67294" lon="5.80221">
        <ele>502.2</ele>
        <time>2022-02-24T09:40:53Z</time>
      </trkpt>
      <trkpt lat="46.67292" lon="5.80228">
        <ele>502.7</ele>
        <time>2022-02-24T09:40:58Z</time>
      </trkpt>
      <trkpt lat="46.67291" lon="5.80235">
        <ele>502.8</ele>
        <time>2022-02-24T09:41:05Z</time>
      </trkpt>
      <trkpt lat="46.67291" lon="5.80242">
        <ele>502.5</ele>
        <time>2022-02-24T09:41:12Z</time>
      </trkpt>
      <trkpt lat="46.6729" lon="5.80249">
        <ele>501.9</ele>
        <time>2022-02-24T09:41:17Z</time>
      </trkpt>
      <trkpt lat="46.67288" lon="5.80255">
        <ele>501.3</ele>
        <time>2022-02-24T09:41:21Z</time>
      </trkpt>
      <trkpt lat="46.67287" lon="5.80262">
        <ele>500.5</ele>
        <time>2022-02-24T09:41:25Z</time>
      </trkpt>
      <trkpt lat="46.67285" lon="5.80269">
        <ele>499.5</ele>
        <time>2022-02-24T09:41:30Z</time>
      </trkpt>
      <trkpt lat="46.67282" lon="5.80275">
        <ele>498.8</ele>
        <time>2022-02-24T09:41:34Z</time>
      </trkpt>
      <trkpt lat="46.67279" lon="5.80282">
        <ele>498</ele>
        <time>2022-02-24T09:41:39Z</time>
      </trkpt>
      <trkpt lat="46.67277" lon="5.80288">
        <ele>497.3</ele>
        <time>2022-02-24T09:41:43Z</time>
      </trkpt>
      <trkpt lat="46.67275" lon="5.80294">
        <ele>496.9</ele>
        <time>2022-02-24T09:41:48Z</time>
      </trkpt>
      <trkpt lat="46.67273" lon="5.80301">
        <ele>496.7</ele>
        <time>2022-02-24T09:41:53Z</time>
      </trkpt>
      <trkpt lat="46.67272" lon="5.80308">
        <ele>496.7</ele>
        <time>2022-02-24T09:41:58Z</time>
      </trkpt>
      <trkpt lat="46.6727" lon="5.80316">
        <ele>496.5</ele>
        <time>2022-02-24T09:42:03Z</time>
      </trkpt>
      <trkpt lat="46.6727" lon="5.80323">
        <ele>496.3</ele>
        <time>2022-02-24T09:42:08Z</time>
      </trkpt>
      <trkpt lat="46.67269" lon="5.80331">
        <ele>496.6</ele>
        <time>2022-02-24T09:42:12Z</time>
      </trkpt>
      <trkpt lat="46.67268" lon="5.80338">
        <ele>496.9</ele>
        <time>2022-02-24T09:42:16Z</time>
      </trkpt>
      <trkpt lat="46.67265" lon="5.80345">
        <ele>497.6</ele>
        <time>2022-02-24T09:42:21Z</time>
      </trkpt>
      <trkpt lat="46.67262" lon="5.8035">
        <ele>497.5</ele>
        <time>2022-02-24T09:42:25Z</time>
      </trkpt>
      <trkpt lat="46.67261" lon="5.80357">
        <ele>497</ele>
        <time>2022-02-24T09:42:30Z</time>
      </trkpt>
      <trkpt lat="46.67258" lon="5.80362">
        <ele>496.2</ele>
        <time>2022-02-24T09:42:34Z</time>
      </trkpt>
      <trkpt lat="46.67255" lon="5.80367">
        <ele>495.3</ele>
        <time>2022-02-24T09:42:38Z</time>
      </trkpt>
      <trkpt lat="46.67252" lon="5.80373">
        <ele>494.5</ele>
        <time>2022-02-24T09:42:42Z</time>
      </trkpt>
      <trkpt lat="46.67251" lon="5.8038">
        <ele>493.4</ele>
        <time>2022-02-24T09:42:47Z</time>
      </trkpt>
      <trkpt lat="46.67251" lon="5.80387">
        <ele>492.9</ele>
        <time>2022-02-24T09:42:52Z</time>
      </trkpt>
      <trkpt lat="46.6725" lon="5.80394">
        <ele>492.7</ele>
        <time>2022-02-24T09:42:57Z</time>
      </trkpt>
      <trkpt lat="46.67247" lon="5.80401">
        <ele>492.2</ele>
        <time>2022-02-24T09:43:03Z</time>
      </trkpt>
      <trkpt lat="46.67246" lon="5.80407">
        <ele>491.9</ele>
        <time>2022-02-24T09:43:07Z</time>
      </trkpt>
      <trkpt lat="46.67243" lon="5.80412">
        <ele>491.9</ele>
        <time>2022-02-24T09:43:11Z</time>
      </trkpt>
      <trkpt lat="46.67242" lon="5.80419">
        <ele>492.3</ele>
        <time>2022-02-24T09:43:16Z</time>
      </trkpt>
      <trkpt lat="46.67241" lon="5.80427">
        <ele>493.5</ele>
        <time>2022-02-24T09:43:22Z</time>
      </trkpt>
      <trkpt lat="46.6724" lon="5.80434">
        <ele>494.9</ele>
        <time>2022-02-24T09:43:26Z</time>
      </trkpt>
      <trkpt lat="46.67239" lon="5.80442">
        <ele>495.7</ele>
        <time>2022-02-24T09:43:31Z</time>
      </trkpt>
      <trkpt lat="46.67237" lon="5.80449">
        <ele>496.2</ele>
        <time>2022-02-24T09:43:35Z</time>
      </trkpt>
      <trkpt lat="46.67234" lon="5.80455">
        <ele>496.4</ele>
        <time>2022-02-24T09:43:39Z</time>
      </trkpt>
      <trkpt lat="46.67231" lon="5.80461">
        <ele>497</ele>
        <time>2022-02-24T09:43:43Z</time>
      </trkpt>
      <trkpt lat="46.6723" lon="5.80468">
        <ele>497.7</ele>
        <time>2022-02-24T09:43:48Z</time>
      </trkpt>
      <trkpt lat="46.67228" lon="5.80475">
        <ele>498.2</ele>
        <time>2022-02-24T09:43:53Z</time>
      </trkpt>
      <trkpt lat="46.67228" lon="5.80482">
        <ele>498.9</ele>
        <time>2022-02-24T09:43:58Z</time>
      </trkpt>
      <trkpt lat="46.67226" lon="5.8049">
        <ele>499.6</ele>
        <time>2022-02-24T09:44:03Z</time>
      </trkpt>
      <trkpt lat="46.67225" lon="5.80496">
        <ele>500</ele>
        <time>2022-02-24T09:44:07Z</time>
      </trkpt>
      <trkpt lat="46.67225" lon="5.80504">
        <ele>500.1</ele>
        <time>2022-02-24T09:44:12Z</time>
      </trkpt>
      <trkpt lat="46.67224" lon="5.80511">
        <ele>500</ele>
        <time>2022-02-24T09:44:17Z</time>
      </trkpt>
      <trkpt lat="46.67223" lon="5.80518">
        <ele>500.1</ele>
        <time>2022-02-24T09:44:22Z</time>
      </trkpt>
      <trkpt lat="46.6722" lon="5.80525">
        <ele>500.1</ele>
        <time>2022-02-24T09:44:27Z</time>
      </trkpt>
      <trkpt lat="46.67218" lon="5.80531">
        <ele>499.7</ele>
        <time>2022-02-24T09:44:31Z</time>
      </trkpt>
      <trkpt lat="46.67217" lon="5.80538">
        <ele>499.9</ele>
        <time>2022-02-24T09:44:36Z</time>
      </trkpt>
      <trkpt lat="46.67217" lon="5.80545">
        <ele>499.7</ele>
        <time>2022-02-24T09:44:41Z</time>
      </trkpt>
      <trkpt lat="46.67218" lon="5.80552">
        <ele>499.4</ele>
        <time>2022-02-24T09:44:45Z</time>
      </trkpt>
      <trkpt lat="46.67218" lon="5.80559">
        <ele>498.9</ele>
        <time>2022-02-24T09:44:50Z</time>
      </trkpt>
      <trkpt lat="46.67217" lon="5.80567">
        <ele>498.4</ele>
        <time>2022-02-24T09:44:56Z</time>
      </trkpt>
      <trkpt lat="46.67216" lon="5.80573">
        <ele>498.3</ele>
        <time>2022-02-24T09:45:01Z</time>
      </trkpt>
      <trkpt lat="46.67214" lon="5.80579">
        <ele>498.4</ele>
        <time>2022-02-24T09:45:05Z</time>
      </trkpt>
      <trkpt lat="46.6721" lon="5.80585">
        <ele>499</ele>
        <time>2022-02-24T09:45:09Z</time>
      </trkpt>
      <trkpt lat="46.67208" lon="5.80592">
        <ele>499.5</ele>
        <time>2022-02-24T09:45:13Z</time>
      </trkpt>
      <trkpt lat="46.6721" lon="5.80599">
        <ele>500.1</ele>
        <time>2022-02-24T09:45:18Z</time>
      </trkpt>
      <trkpt lat="46.6721" lon="5.80606">
        <ele>500.3</ele>
        <time>2022-02-24T09:45:22Z</time>
      </trkpt>
      <trkpt lat="46.67209" lon="5.80612">
        <ele>500.5</ele>
        <time>2022-02-24T09:45:27Z</time>
      </trkpt>
      <trkpt lat="46.6721" lon="5.80619">
        <ele>500.9</ele>
        <time>2022-02-24T09:45:32Z</time>
      </trkpt>
      <trkpt lat="46.6721" lon="5.80626">
        <ele>501.2</ele>
        <time>2022-02-24T09:45:37Z</time>
      </trkpt>
      <trkpt lat="46.67209" lon="5.80633">
        <ele>501.4</ele>
        <time>2022-02-24T09:45:41Z</time>
      </trkpt>
      <trkpt lat="46.67208" lon="5.80641">
        <ele>501.6</ele>
        <time>2022-02-24T09:45:46Z</time>
      </trkpt>
      <trkpt lat="46.67208" lon="5.80648">
        <ele>501.7</ele>
        <time>2022-02-24T09:45:51Z</time>
      </trkpt>
      <trkpt lat="46.67206" lon="5.80655">
        <ele>501.2</ele>
        <time>2022-02-24T09:45:56Z</time>
      </trkpt>
      <trkpt lat="46.67204" lon="5.80661">
        <ele>500.9</ele>
        <time>2022-02-24T09:46:01Z</time>
      </trkpt>
      <trkpt lat="46.67203" lon="5.80667">
        <ele>500.7</ele>
        <time>2022-02-24T09:46:06Z</time>
      </trkpt>
      <trkpt lat="46.67203" lon="5.80674">
        <ele>500.5</ele>
        <time>2022-02-24T09:46:10Z</time>
      </trkpt>
      <trkpt lat="46.67202" lon="5.80681">
        <ele>500.5</ele>
        <time>2022-02-24T09:46:14Z</time>
      </trkpt>
      <trkpt lat="46.67199" lon="5.80687">
        <ele>500.4</ele>
        <time>2022-02-24T09:46:18Z</time>
      </trkpt>
      <trkpt lat="46.67198" lon="5.80694">
        <ele>500.9</ele>
        <time>2022-02-24T09:46:23Z</time>
      </trkpt>
      <trkpt lat="46.67195" lon="5.807">
        <ele>501.8</ele>
        <time>2022-02-24T09:46:28Z</time>
      </trkpt>
      <trkpt lat="46.67195" lon="5.80709">
        <ele>502.5</ele>
        <time>2022-02-24T09:46:34Z</time>
      </trkpt>
      <trkpt lat="46.67194" lon="5.80716">
        <ele>502.4</ele>
        <time>2022-02-24T09:46:38Z</time>
      </trkpt>
      <trkpt lat="46.67193" lon="5.80723">
        <ele>502.4</ele>
        <time>2022-02-24T09:46:43Z</time>
      </trkpt>
      <trkpt lat="46.6719" lon="5.80728">
        <ele>502.8</ele>
        <time>2022-02-24T09:46:48Z</time>
      </trkpt>
      <trkpt lat="46.67188" lon="5.80736">
        <ele>503.2</ele>
        <time>2022-02-24T09:46:54Z</time>
      </trkpt>
      <trkpt lat="46.67187" lon="5.80742">
        <ele>503.1</ele>
        <time>2022-02-24T09:46:58Z</time>
      </trkpt>
      <trkpt lat="46.67185" lon="5.80749">
        <ele>503.1</ele>
        <time>2022-02-24T09:47:03Z</time>
      </trkpt>
      <trkpt lat="46.67182" lon="5.80755">
        <ele>503.3</ele>
        <time>2022-02-24T09:47:09Z</time>
      </trkpt>
      <trkpt lat="46.67181" lon="5.80762">
        <ele>503.6</ele>
        <time>2022-02-24T09:47:13Z</time>
      </trkpt>
      <trkpt lat="46.67179" lon="5.80769">
        <ele>503.9</ele>
        <time>2022-02-24T09:47:18Z</time>
      </trkpt>
      <trkpt lat="46.67181" lon="5.80776">
        <ele>504</ele>
        <time>2022-02-24T09:47:22Z</time>
      </trkpt>
      <trkpt lat="46.67178" lon="5.80782">
        <ele>503.7</ele>
        <time>2022-02-24T09:47:27Z</time>
      </trkpt>
      <trkpt lat="46.67175" lon="5.80788">
        <ele>503.6</ele>
        <time>2022-02-24T09:47:31Z</time>
      </trkpt>
      <trkpt lat="46.67174" lon="5.80795">
        <ele>503.4</ele>
        <time>2022-02-24T09:47:36Z</time>
      </trkpt>
      <trkpt lat="46.67173" lon="5.80802">
        <ele>502.9</ele>
        <time>2022-02-24T09:47:41Z</time>
      </trkpt>
      <trkpt lat="46.6717" lon="5.80808">
        <ele>502.3</ele>
        <time>2022-02-24T09:47:45Z</time>
      </trkpt>
      <trkpt lat="46.67167" lon="5.80815">
        <ele>501.6</ele>
        <time>2022-02-24T09:47:50Z</time>
      </trkpt>
      <trkpt lat="46.67165" lon="5.80821">
        <ele>501</ele>
        <time>2022-02-24T09:47:54Z</time>
      </trkpt>
      <trkpt lat="46.67163" lon="5.80827">
        <ele>500.5</ele>
        <time>2022-02-24T09:47:58Z</time>
      </trkpt>
      <trkpt lat="46.67163" lon="5.80834">
        <ele>499.5</ele>
        <time>2022-02-24T09:48:05Z</time>
      </trkpt>
      <trkpt lat="46.67161" lon="5.80841">
        <ele>498.6</ele>
        <time>2022-02-24T09:48:10Z</time>
      </trkpt>
      <trkpt lat="46.67159" lon="5.80847">
        <ele>498</ele>
        <time>2022-02-24T09:48:14Z</time>
      </trkpt>
      <trkpt lat="46.67159" lon="5.80854">
        <ele>497.1</ele>
        <time>2022-02-24T09:48:19Z</time>
      </trkpt>
      <trkpt lat="46.67158" lon="5.80861">
        <ele>496.1</ele>
        <time>2022-02-24T09:48:24Z</time>
      </trkpt>
      <trkpt lat="46.67156" lon="5.80868">
        <ele>495.7</ele>
        <time>2022-02-24T09:48:28Z</time>
      </trkpt>
      <trkpt lat="46.67155" lon="5.80875">
        <ele>495.6</ele>
        <time>2022-02-24T09:48:32Z</time>
      </trkpt>
      <trkpt lat="46.67153" lon="5.80882">
        <ele>495.5</ele>
        <time>2022-02-24T09:48:38Z</time>
      </trkpt>
      <trkpt lat="46.67152" lon="5.80888">
        <ele>495.6</ele>
        <time>2022-02-24T09:48:44Z</time>
      </trkpt>
      <trkpt lat="46.67149" lon="5.80894">
        <ele>494.9</ele>
        <time>2022-02-24T09:48:49Z</time>
      </trkpt>
      <trkpt lat="46.67147" lon="5.80901">
        <ele>493.9</ele>
        <time>2022-02-24T09:48:53Z</time>
      </trkpt>
      <trkpt lat="46.67148" lon="5.80907">
        <ele>492.6</ele>
        <time>2022-02-24T09:49:01Z</time>
      </trkpt>
      <trkpt lat="46.67145" lon="5.80912">
        <ele>501.1</ele>
        <time>2022-02-24T09:50:14Z</time>
      </trkpt>
      <trkpt lat="46.67142" lon="5.80918">
        <ele>501.3</ele>
        <time>2022-02-24T09:50:20Z</time>
      </trkpt>
      <trkpt lat="46.6714" lon="5.80924">
        <ele>500.4</ele>
        <time>2022-02-24T09:50:23Z</time>
      </trkpt>
      <trkpt lat="46.67137" lon="5.8093">
        <ele>499.2</ele>
        <time>2022-02-24T09:50:26Z</time>
      </trkpt>
      <trkpt lat="46.67134" lon="5.80937">
        <ele>498</ele>
        <time>2022-02-24T09:50:29Z</time>
      </trkpt>
      <trkpt lat="46.67131" lon="5.80943">
        <ele>497.1</ele>
        <time>2022-02-24T09:50:32Z</time>
      </trkpt>
      <trkpt lat="46.67127" lon="5.80947">
        <ele>496.4</ele>
        <time>2022-02-24T09:50:35Z</time>
      </trkpt>
      <trkpt lat="46.67123" lon="5.80953">
        <ele>495.7</ele>
        <time>2022-02-24T09:50:38Z</time>
      </trkpt>
      <trkpt lat="46.6712" lon="5.80958">
        <ele>495.1</ele>
        <time>2022-02-24T09:50:41Z</time>
      </trkpt>
      <trkpt lat="46.67117" lon="5.80962">
        <ele>494.7</ele>
        <time>2022-02-24T09:50:44Z</time>
      </trkpt>
      <trkpt lat="46.67113" lon="5.80966">
        <ele>494.5</ele>
        <time>2022-02-24T09:50:48Z</time>
      </trkpt>
      <trkpt lat="46.67112" lon="5.80973">
        <ele>494.5</ele>
        <time>2022-02-24T09:50:54Z</time>
      </trkpt>
      <trkpt lat="46.67109" lon="5.80979">
        <ele>494.7</ele>
        <time>2022-02-24T09:50:59Z</time>
      </trkpt>
      <trkpt lat="46.67106" lon="5.80984">
        <ele>495.1</ele>
        <time>2022-02-24T09:51:04Z</time>
      </trkpt>
      <trkpt lat="46.67101" lon="5.80988">
        <ele>495.3</ele>
        <time>2022-02-24T09:51:07Z</time>
      </trkpt>
      <trkpt lat="46.67097" lon="5.80994">
        <ele>495.7</ele>
        <time>2022-02-24T09:51:10Z</time>
      </trkpt>
      <trkpt lat="46.67092" lon="5.80999">
        <ele>496.1</ele>
        <time>2022-02-24T09:51:13Z</time>
      </trkpt>
      <trkpt lat="46.67088" lon="5.81004">
        <ele>496.4</ele>
        <time>2022-02-24T09:51:16Z</time>
      </trkpt>
      <trkpt lat="46.67084" lon="5.8101">
        <ele>496.6</ele>
        <time>2022-02-24T09:51:20Z</time>
      </trkpt>
      <trkpt lat="46.67081" lon="5.81016">
        <ele>496.6</ele>
        <time>2022-02-24T09:51:24Z</time>
      </trkpt>
      <trkpt lat="46.67078" lon="5.81022">
        <ele>496.6</ele>
        <time>2022-02-24T09:51:28Z</time>
      </trkpt>
      <trkpt lat="46.67074" lon="5.81028">
        <ele>496.5</ele>
        <time>2022-02-24T09:51:32Z</time>
      </trkpt>
      <trkpt lat="46.6707" lon="5.81033">
        <ele>496.1</ele>
        <time>2022-02-24T09:51:36Z</time>
      </trkpt>
      <trkpt lat="46.67067" lon="5.81038">
        <ele>495.6</ele>
        <time>2022-02-24T09:51:40Z</time>
      </trkpt>
      <trkpt lat="46.67064" lon="5.81043">
        <ele>494.9</ele>
        <time>2022-02-24T09:51:46Z</time>
      </trkpt>
      <trkpt lat="46.6706" lon="5.81049">
        <ele>494</ele>
        <time>2022-02-24T09:51:52Z</time>
      </trkpt>
      <trkpt lat="46.67055" lon="5.81052">
        <ele>493.9</ele>
        <time>2022-02-24T09:51:55Z</time>
      </trkpt>
      <trkpt lat="46.67051" lon="5.81056">
        <ele>494</ele>
        <time>2022-02-24T09:51:58Z</time>
      </trkpt>
      <trkpt lat="46.67046" lon="5.81061">
        <ele>494</ele>
        <time>2022-02-24T09:52:01Z</time>
      </trkpt>
      <trkpt lat="46.67041" lon="5.81065">
        <ele>494</ele>
        <time>2022-02-24T09:52:04Z</time>
      </trkpt>
      <trkpt lat="46.67036" lon="5.8107">
        <ele>494</ele>
        <time>2022-02-24T09:52:07Z</time>
      </trkpt>
      <trkpt lat="46.67032" lon="5.81074">
        <ele>493.8</ele>
        <time>2022-02-24T09:52:10Z</time>
      </trkpt>
      <trkpt lat="46.67027" lon="5.81078">
        <ele>493.5</ele>
        <time>2022-02-24T09:52:14Z</time>
      </trkpt>
      <trkpt lat="46.67023" lon="5.81083">
        <ele>493</ele>
        <time>2022-02-24T09:52:19Z</time>
      </trkpt>
      <trkpt lat="46.67019" lon="5.81087">
        <ele>492.9</ele>
        <time>2022-02-24T09:52:23Z</time>
      </trkpt>
      <trkpt lat="46.67015" lon="5.81092">
        <ele>492.9</ele>
        <time>2022-02-24T09:52:28Z</time>
      </trkpt>
      <trkpt lat="46.67011" lon="5.81098">
        <ele>492.9</ele>
        <time>2022-02-24T09:52:33Z</time>
      </trkpt>
      <trkpt lat="46.67007" lon="5.81103">
        <ele>492.7</ele>
        <time>2022-02-24T09:52:38Z</time>
      </trkpt>
      <trkpt lat="46.67004" lon="5.81109">
        <ele>492.4</ele>
        <time>2022-02-24T09:52:43Z</time>
      </trkpt>
      <trkpt lat="46.67001" lon="5.81115">
        <ele>492</ele>
        <time>2022-02-24T09:52:47Z</time>
      </trkpt>
      <trkpt lat="46.66996" lon="5.81121">
        <ele>491.4</ele>
        <time>2022-02-24T09:52:51Z</time>
      </trkpt>
      <trkpt lat="46.66993" lon="5.81126">
        <ele>490.7</ele>
        <time>2022-02-24T09:52:55Z</time>
      </trkpt>
      <trkpt lat="46.66989" lon="5.81132">
        <ele>489.6</ele>
        <time>2022-02-24T09:53:00Z</time>
      </trkpt>
      <trkpt lat="46.66988" lon="5.81139">
        <ele>488.4</ele>
        <time>2022-02-24T09:53:05Z</time>
      </trkpt>
      <trkpt lat="46.66987" lon="5.81146">
        <ele>486.7</ele>
        <time>2022-02-24T09:53:12Z</time>
      </trkpt>
      <trkpt lat="46.66983" lon="5.81147">
        <ele>486.8</ele>
        <time>2022-02-24T09:53:22Z</time>
      </trkpt>
      <trkpt lat="46.66982" lon="5.81154">
        <ele>487.3</ele>
        <time>2022-02-24T09:53:29Z</time>
      </trkpt>
      <trkpt lat="46.66979" lon="5.8116">
        <ele>487.9</ele>
        <time>2022-02-24T09:53:35Z</time>
      </trkpt>
      <trkpt lat="46.66978" lon="5.81167">
        <ele>488.5</ele>
        <time>2022-02-24T09:53:41Z</time>
      </trkpt>
      <trkpt lat="46.66975" lon="5.81173">
        <ele>489.2</ele>
        <time>2022-02-24T09:53:45Z</time>
      </trkpt>
      <trkpt lat="46.66972" lon="5.81178">
        <ele>490.3</ele>
        <time>2022-02-24T09:53:49Z</time>
      </trkpt>
      <trkpt lat="46.66968" lon="5.81182">
        <ele>492</ele>
        <time>2022-02-24T09:53:54Z</time>
      </trkpt>
      <trkpt lat="46.66964" lon="5.81187">
        <ele>493.5</ele>
        <time>2022-02-24T09:53:59Z</time>
      </trkpt>
      <trkpt lat="46.66959" lon="5.81192">
        <ele>495.4</ele>
        <time>2022-02-24T09:54:05Z</time>
      </trkpt>
      <trkpt lat="46.66955" lon="5.81197">
        <ele>497</ele>
        <time>2022-02-24T09:54:10Z</time>
      </trkpt>
      <trkpt lat="46.66951" lon="5.81201">
        <ele>498</ele>
        <time>2022-02-24T09:54:14Z</time>
      </trkpt>
      <trkpt lat="46.66947" lon="5.81204">
        <ele>498.9</ele>
        <time>2022-02-24T09:54:18Z</time>
      </trkpt>
      <trkpt lat="46.66943" lon="5.81208">
        <ele>500.2</ele>
        <time>2022-02-24T09:54:23Z</time>
      </trkpt>
      <trkpt lat="46.66939" lon="5.81214">
        <ele>501.1</ele>
        <time>2022-02-24T09:54:27Z</time>
      </trkpt>
      <trkpt lat="46.66936" lon="5.81218">
        <ele>502</ele>
        <time>2022-02-24T09:54:31Z</time>
      </trkpt>
      <trkpt lat="46.66932" lon="5.81222">
        <ele>503.1</ele>
        <time>2022-02-24T09:54:36Z</time>
      </trkpt>
      <trkpt lat="46.66927" lon="5.81224">
        <ele>504.8</ele>
        <time>2022-02-24T09:54:42Z</time>
      </trkpt>
      <trkpt lat="46.66924" lon="5.8123">
        <ele>505.6</ele>
        <time>2022-02-24T09:54:47Z</time>
      </trkpt>
      <trkpt lat="46.66921" lon="5.81235">
        <ele>506.3</ele>
        <time>2022-02-24T09:54:52Z</time>
      </trkpt>
      <trkpt lat="46.66918" lon="5.81241">
        <ele>506.5</ele>
        <time>2022-02-24T09:54:56Z</time>
      </trkpt>
      <trkpt lat="46.66914" lon="5.81247">
        <ele>506.3</ele>
        <time>2022-02-24T09:55:01Z</time>
      </trkpt>
      <trkpt lat="46.66911" lon="5.81251">
        <ele>505.9</ele>
        <time>2022-02-24T09:55:05Z</time>
      </trkpt>
      <trkpt lat="46.66909" lon="5.81257">
        <ele>505.7</ele>
        <time>2022-02-24T09:55:08Z</time>
      </trkpt>
      <trkpt lat="46.66906" lon="5.81265">
        <ele>505.2</ele>
        <time>2022-02-24T09:55:12Z</time>
      </trkpt>
      <trkpt lat="46.66902" lon="5.81269">
        <ele>504.7</ele>
        <time>2022-02-24T09:55:17Z</time>
      </trkpt>
      <trkpt lat="46.66897" lon="5.81268">
        <ele>503.5</ele>
        <time>2022-02-24T09:55:22Z</time>
      </trkpt>
      <trkpt lat="46.66893" lon="5.81263">
        <ele>502</ele>
        <time>2022-02-24T09:55:27Z</time>
      </trkpt>
      <trkpt lat="46.66891" lon="5.81257">
        <ele>500.4</ele>
        <time>2022-02-24T09:55:32Z</time>
      </trkpt>
      <trkpt lat="46.66887" lon="5.81252">
        <ele>497.5</ele>
        <time>2022-02-24T09:55:40Z</time>
      </trkpt>
      <trkpt lat="46.66883" lon="5.81247">
        <ele>495.3</ele>
        <time>2022-02-24T09:55:45Z</time>
      </trkpt>
      <trkpt lat="46.66879" lon="5.81243">
        <ele>493.8</ele>
        <time>2022-02-24T09:55:49Z</time>
      </trkpt>
      <trkpt lat="46.66874" lon="5.81241">
        <ele>492.8</ele>
        <time>2022-02-24T09:55:53Z</time>
      </trkpt>
      <trkpt lat="46.66869" lon="5.81238">
        <ele>491.4</ele>
        <time>2022-02-24T09:55:58Z</time>
      </trkpt>
      <trkpt lat="46.66864" lon="5.81237">
        <ele>490.3</ele>
        <time>2022-02-24T09:56:04Z</time>
      </trkpt>
      <trkpt lat="46.66859" lon="5.81237">
        <ele>489.5</ele>
        <time>2022-02-24T09:56:09Z</time>
      </trkpt>
      <trkpt lat="46.66854" lon="5.81237">
        <ele>488.8</ele>
        <time>2022-02-24T09:56:17Z</time>
      </trkpt>
      <trkpt lat="46.66849" lon="5.81238">
        <ele>488.8</ele>
        <time>2022-02-24T09:56:22Z</time>
      </trkpt>
      <trkpt lat="46.66845" lon="5.81239">
        <ele>488.6</ele>
        <time>2022-02-24T09:56:27Z</time>
      </trkpt>
      <trkpt lat="46.6684" lon="5.81243">
        <ele>488</ele>
        <time>2022-02-24T09:56:33Z</time>
      </trkpt>
      <trkpt lat="46.66835" lon="5.81244">
        <ele>487.7</ele>
        <time>2022-02-24T09:56:38Z</time>
      </trkpt>
      <trkpt lat="46.66831" lon="5.81242">
        <ele>487.3</ele>
        <time>2022-02-24T09:56:42Z</time>
      </trkpt>
      <trkpt lat="46.66825" lon="5.81239">
        <ele>486.5</ele>
        <time>2022-02-24T09:56:47Z</time>
      </trkpt>
      <trkpt lat="46.66821" lon="5.81235">
        <ele>485.4</ele>
        <time>2022-02-24T09:56:53Z</time>
      </trkpt>
      <trkpt lat="46.66818" lon="5.8123">
        <ele>485.8</ele>
        <time>2022-02-24T09:56:57Z</time>
      </trkpt>
      <trkpt lat="46.66813" lon="5.81229">
        <ele>486.7</ele>
        <time>2022-02-24T09:57:03Z</time>
      </trkpt>
      <trkpt lat="46.66807" lon="5.81226">
        <ele>487.6</ele>
        <time>2022-02-24T09:57:08Z</time>
      </trkpt>
      <trkpt lat="46.66803" lon="5.81224">
        <ele>487.5</ele>
        <time>2022-02-24T09:57:13Z</time>
      </trkpt>
      <trkpt lat="46.66798" lon="5.81224">
        <ele>487.2</ele>
        <time>2022-02-24T09:57:17Z</time>
      </trkpt>
      <trkpt lat="46.66794" lon="5.81224">
        <ele>486.6</ele>
        <time>2022-02-24T09:57:20Z</time>
      </trkpt>
      <trkpt lat="46.66788" lon="5.81223">
        <ele>486.1</ele>
        <time>2022-02-24T09:57:24Z</time>
      </trkpt>
      <trkpt lat="46.66784" lon="5.8122">
        <ele>485.3</ele>
        <time>2022-02-24T09:57:29Z</time>
      </trkpt>
      <trkpt lat="46.66779" lon="5.81219">
        <ele>485.1</ele>
        <time>2022-02-24T09:57:34Z</time>
      </trkpt>
      <trkpt lat="46.66774" lon="5.81217">
        <ele>485.2</ele>
        <time>2022-02-24T09:57:39Z</time>
      </trkpt>
      <trkpt lat="46.66769" lon="5.81217">
        <ele>485.3</ele>
        <time>2022-02-24T09:57:45Z</time>
      </trkpt>
      <trkpt lat="46.66764" lon="5.81218">
        <ele>485.9</ele>
        <time>2022-02-24T09:57:50Z</time>
      </trkpt>
      <trkpt lat="46.66759" lon="5.81219">
        <ele>486.4</ele>
        <time>2022-02-24T09:57:54Z</time>
      </trkpt>
      <trkpt lat="46.66754" lon="5.81216">
        <ele>487.2</ele>
        <time>2022-02-24T09:58:01Z</time>
      </trkpt>
      <trkpt lat="46.6675" lon="5.81211">
        <ele>487.9</ele>
        <time>2022-02-24T09:58:06Z</time>
      </trkpt>
      <trkpt lat="46.66746" lon="5.81207">
        <ele>488.5</ele>
        <time>2022-02-24T09:58:10Z</time>
      </trkpt>
      <trkpt lat="46.66742" lon="5.81204">
        <ele>488.8</ele>
        <time>2022-02-24T09:58:14Z</time>
      </trkpt>
      <trkpt lat="46.66737" lon="5.81199">
        <ele>489.2</ele>
        <time>2022-02-24T09:58:19Z</time>
      </trkpt>
      <trkpt lat="46.66733" lon="5.81196">
        <ele>489.3</ele>
        <time>2022-02-24T09:58:23Z</time>
      </trkpt>
      <trkpt lat="46.66731" lon="5.8119">
        <ele>489.4</ele>
        <time>2022-02-24T09:58:28Z</time>
      </trkpt>
      <trkpt lat="46.66728" lon="5.81184">
        <ele>489.7</ele>
        <time>2022-02-24T09:58:34Z</time>
      </trkpt>
      <trkpt lat="46.66724" lon="5.8118">
        <ele>490.1</ele>
        <time>2022-02-24T09:58:40Z</time>
      </trkpt>
      <trkpt lat="46.66719" lon="5.81178">
        <ele>490.7</ele>
        <time>2022-02-24T09:58:45Z</time>
      </trkpt>
      <trkpt lat="46.66714" lon="5.81175">
        <ele>491.1</ele>
        <time>2022-02-24T09:58:50Z</time>
      </trkpt>
      <trkpt lat="46.6671" lon="5.81174">
        <ele>491.2</ele>
        <time>2022-02-24T09:58:54Z</time>
      </trkpt>
      <trkpt lat="46.66705" lon="5.81172">
        <ele>491.2</ele>
        <time>2022-02-24T09:58:58Z</time>
      </trkpt>
      <trkpt lat="46.667" lon="5.81169">
        <ele>491</ele>
        <time>2022-02-24T09:59:02Z</time>
      </trkpt>
      <trkpt lat="46.66696" lon="5.81167">
        <ele>490.7</ele>
        <time>2022-02-24T09:59:06Z</time>
      </trkpt>
      <trkpt lat="46.6669" lon="5.81165">
        <ele>490.5</ele>
        <time>2022-02-24T09:59:11Z</time>
      </trkpt>
      <trkpt lat="46.66685" lon="5.81162">
        <ele>489.7</ele>
        <time>2022-02-24T09:59:16Z</time>
      </trkpt>
      <trkpt lat="46.6668" lon="5.81159">
        <ele>489.2</ele>
        <time>2022-02-24T09:59:21Z</time>
      </trkpt>
      <trkpt lat="46.66675" lon="5.81158">
        <ele>488.7</ele>
        <time>2022-02-24T09:59:26Z</time>
      </trkpt>
      <trkpt lat="46.6667" lon="5.81156">
        <ele>489</ele>
        <time>2022-02-24T09:59:31Z</time>
      </trkpt>
      <trkpt lat="46.66665" lon="5.81155">
        <ele>489.7</ele>
        <time>2022-02-24T09:59:36Z</time>
      </trkpt>
      <trkpt lat="46.6666" lon="5.81153">
        <ele>490.9</ele>
        <time>2022-02-24T09:59:42Z</time>
      </trkpt>
      <trkpt lat="46.66656" lon="5.8115">
        <ele>491.8</ele>
        <time>2022-02-24T09:59:47Z</time>
      </trkpt>
      <trkpt lat="46.66651" lon="5.81148">
        <ele>491.9</ele>
        <time>2022-02-24T09:59:52Z</time>
      </trkpt>
      <trkpt lat="46.66647" lon="5.81144">
        <ele>491.5</ele>
        <time>2022-02-24T09:59:57Z</time>
      </trkpt>
      <trkpt lat="46.66642" lon="5.8114">
        <ele>490.9</ele>
        <time>2022-02-24T10:00:02Z</time>
      </trkpt>
      <trkpt lat="46.66638" lon="5.81138">
        <ele>490.4</ele>
        <time>2022-02-24T10:00:06Z</time>
      </trkpt>
      <trkpt lat="46.66633" lon="5.81136">
        <ele>490.1</ele>
        <time>2022-02-24T10:00:10Z</time>
      </trkpt>
      <trkpt lat="46.66628" lon="5.81133">
        <ele>489.6</ele>
        <time>2022-02-24T10:00:15Z</time>
      </trkpt>
      <trkpt lat="46.66622" lon="5.81133">
        <ele>489.6</ele>
        <time>2022-02-24T10:00:20Z</time>
      </trkpt>
      <trkpt lat="46.66617" lon="5.81133">
        <ele>490.3</ele>
        <time>2022-02-24T10:00:26Z</time>
      </trkpt>
      <trkpt lat="46.66613" lon="5.81136">
        <ele>490.2</ele>
        <time>2022-02-24T10:00:32Z</time>
      </trkpt>
      <trkpt lat="46.6661" lon="5.81142">
        <ele>489.5</ele>
        <time>2022-02-24T10:00:37Z</time>
      </trkpt>
      <trkpt lat="46.66607" lon="5.81148">
        <ele>488.8</ele>
        <time>2022-02-24T10:00:41Z</time>
      </trkpt>
      <trkpt lat="46.66604" lon="5.81154">
        <ele>488.1</ele>
        <time>2022-02-24T10:00:45Z</time>
      </trkpt>
      <trkpt lat="46.66602" lon="5.8116">
        <ele>487.7</ele>
        <time>2022-02-24T10:00:50Z</time>
      </trkpt>
      <trkpt lat="46.66599" lon="5.81166">
        <ele>487.6</ele>
        <time>2022-02-24T10:00:57Z</time>
      </trkpt>
      <trkpt lat="46.66597" lon="5.81172">
        <ele>487.9</ele>
        <time>2022-02-24T10:01:02Z</time>
      </trkpt>
      <trkpt lat="46.66594" lon="5.81178">
        <ele>488.1</ele>
        <time>2022-02-24T10:01:06Z</time>
      </trkpt>
      <trkpt lat="46.6659" lon="5.81183">
        <ele>488.2</ele>
        <time>2022-02-24T10:01:11Z</time>
      </trkpt>
      <trkpt lat="46.66586" lon="5.81187">
        <ele>488.9</ele>
        <time>2022-02-24T10:01:15Z</time>
      </trkpt>
      <trkpt lat="46.66582" lon="5.8119">
        <ele>489.6</ele>
        <time>2022-02-24T10:01:19Z</time>
      </trkpt>
      <trkpt lat="46.66577" lon="5.81191">
        <ele>490</ele>
        <time>2022-02-24T10:01:24Z</time>
      </trkpt>
      <trkpt lat="46.66572" lon="5.81191">
        <ele>490.3</ele>
        <time>2022-02-24T10:01:29Z</time>
      </trkpt>
      <trkpt lat="46.66567" lon="5.8119">
        <ele>490.3</ele>
        <time>2022-02-24T10:01:35Z</time>
      </trkpt>
      <trkpt lat="46.66562" lon="5.81188">
        <ele>489.9</ele>
        <time>2022-02-24T10:01:41Z</time>
      </trkpt>
      <trkpt lat="46.66557" lon="5.81186">
        <ele>489.4</ele>
        <time>2022-02-24T10:01:46Z</time>
      </trkpt>
      <trkpt lat="46.66552" lon="5.81184">
        <ele>488.9</ele>
        <time>2022-02-24T10:01:50Z</time>
      </trkpt>
      <trkpt lat="46.66548" lon="5.81183">
        <ele>488.5</ele>
        <time>2022-02-24T10:01:55Z</time>
      </trkpt>
      <trkpt lat="46.66543" lon="5.8118">
        <ele>488.5</ele>
        <time>2022-02-24T10:02:01Z</time>
      </trkpt>
      <trkpt lat="46.66538" lon="5.81178">
        <ele>487.7</ele>
        <time>2022-02-24T10:02:07Z</time>
      </trkpt>
      <trkpt lat="46.66533" lon="5.81176">
        <ele>486.4</ele>
        <time>2022-02-24T10:02:13Z</time>
      </trkpt>
      <trkpt lat="46.66528" lon="5.81173">
        <ele>484.7</ele>
        <time>2022-02-24T10:02:17Z</time>
      </trkpt>
      <trkpt lat="46.66524" lon="5.81172">
        <ele>483.3</ele>
        <time>2022-02-24T10:02:21Z</time>
      </trkpt>
      <trkpt lat="46.66519" lon="5.81171">
        <ele>481.3</ele>
        <time>2022-02-24T10:02:26Z</time>
      </trkpt>
      <trkpt lat="46.66514" lon="5.8117">
        <ele>479.9</ele>
        <time>2022-02-24T10:02:30Z</time>
      </trkpt>
      <trkpt lat="46.6651" lon="5.8117">
        <ele>479.1</ele>
        <time>2022-02-24T10:02:34Z</time>
      </trkpt>
      <trkpt lat="46.66505" lon="5.81169">
        <ele>478.7</ele>
        <time>2022-02-24T10:02:38Z</time>
      </trkpt>
      <trkpt lat="46.66499" lon="5.81168">
        <ele>478</ele>
        <time>2022-02-24T10:02:43Z</time>
      </trkpt>
      <trkpt lat="46.66494" lon="5.81166">
        <ele>477.4</ele>
        <time>2022-02-24T10:02:48Z</time>
      </trkpt>
      <trkpt lat="46.6649" lon="5.81163">
        <ele>477</ele>
        <time>2022-02-24T10:02:54Z</time>
      </trkpt>
      <trkpt lat="46.66485" lon="5.81161">
        <ele>476.7</ele>
        <time>2022-02-24T10:02:58Z</time>
      </trkpt>
      <trkpt lat="46.6648" lon="5.81159">
        <ele>476.5</ele>
        <time>2022-02-24T10:03:02Z</time>
      </trkpt>
      <trkpt lat="46.66475" lon="5.81158">
        <ele>476.4</ele>
        <time>2022-02-24T10:03:06Z</time>
      </trkpt>
      <trkpt lat="46.66471" lon="5.81156">
        <ele>476.6</ele>
        <time>2022-02-24T10:03:10Z</time>
      </trkpt>
      <trkpt lat="46.66466" lon="5.81154">
        <ele>476.8</ele>
        <time>2022-02-24T10:03:15Z</time>
      </trkpt>
      <trkpt lat="46.66461" lon="5.81152">
        <ele>476.7</ele>
        <time>2022-02-24T10:03:20Z</time>
      </trkpt>
      <trkpt lat="46.66457" lon="5.8115">
        <ele>476</ele>
        <time>2022-02-24T10:03:25Z</time>
      </trkpt>
      <trkpt lat="46.66452" lon="5.81147">
        <ele>475.1</ele>
        <time>2022-02-24T10:03:30Z</time>
      </trkpt>
      <trkpt lat="46.66447" lon="5.81144">
        <ele>474.4</ele>
        <time>2022-02-24T10:03:35Z</time>
      </trkpt>
      <trkpt lat="46.66442" lon="5.81143">
        <ele>474</ele>
        <time>2022-02-24T10:03:40Z</time>
      </trkpt>
      <trkpt lat="46.66437" lon="5.81142">
        <ele>473.7</ele>
        <time>2022-02-24T10:03:45Z</time>
      </trkpt>
      <trkpt lat="46.66432" lon="5.81143">
        <ele>473.5</ele>
        <time>2022-02-24T10:03:49Z</time>
      </trkpt>
      <trkpt lat="46.66427" lon="5.81144">
        <ele>473.4</ele>
        <time>2022-02-24T10:03:53Z</time>
      </trkpt>
      <trkpt lat="46.66423" lon="5.81141">
        <ele>473</ele>
        <time>2022-02-24T10:03:59Z</time>
      </trkpt>
      <trkpt lat="46.66419" lon="5.81136">
        <ele>472.8</ele>
        <time>2022-02-24T10:04:05Z</time>
      </trkpt>
      <trkpt lat="46.66414" lon="5.81135">
        <ele>473</ele>
        <time>2022-02-24T10:04:10Z</time>
      </trkpt>
      <trkpt lat="46.66409" lon="5.81134">
        <ele>473</ele>
        <time>2022-02-24T10:04:15Z</time>
      </trkpt>
      <trkpt lat="46.66404" lon="5.81131">
        <ele>473</ele>
        <time>2022-02-24T10:04:20Z</time>
      </trkpt>
      <trkpt lat="46.66401" lon="5.81125">
        <ele>472.6</ele>
        <time>2022-02-24T10:04:24Z</time>
      </trkpt>
      <trkpt lat="46.66399" lon="5.81118">
        <ele>472</ele>
        <time>2022-02-24T10:04:28Z</time>
      </trkpt>
      <trkpt lat="46.66397" lon="5.81112">
        <ele>471.6</ele>
        <time>2022-02-24T10:04:33Z</time>
      </trkpt>
      <trkpt lat="46.66393" lon="5.81106">
        <ele>471.8</ele>
        <time>2022-02-24T10:04:38Z</time>
      </trkpt>
      <trkpt lat="46.6639" lon="5.811">
        <ele>472.9</ele>
        <time>2022-02-24T10:04:43Z</time>
      </trkpt>
      <trkpt lat="46.66389" lon="5.81093">
        <ele>474.6</ele>
        <time>2022-02-24T10:04:49Z</time>
      </trkpt>
      <trkpt lat="46.66391" lon="5.81087">
        <ele>475.5</ele>
        <time>2022-02-24T10:04:53Z</time>
      </trkpt>
      <trkpt lat="46.66392" lon="5.8108">
        <ele>476.2</ele>
        <time>2022-02-24T10:04:57Z</time>
      </trkpt>
      <trkpt lat="46.66394" lon="5.81073">
        <ele>477.5</ele>
        <time>2022-02-24T10:05:03Z</time>
      </trkpt>
      <trkpt lat="46.66397" lon="5.81067">
        <ele>478.3</ele>
        <time>2022-02-24T10:05:09Z</time>
      </trkpt>
      <trkpt lat="46.664" lon="5.8106">
        <ele>478.5</ele>
        <time>2022-02-24T10:05:15Z</time>
      </trkpt>
      <trkpt lat="46.66402" lon="5.81052">
        <ele>479.2</ele>
        <time>2022-02-24T10:05:20Z</time>
      </trkpt>
      <trkpt lat="46.66403" lon="5.81045">
        <ele>479.8</ele>
        <time>2022-02-24T10:05:24Z</time>
      </trkpt>
      <trkpt lat="46.66406" lon="5.81039">
        <ele>480.5</ele>
        <time>2022-02-24T10:05:29Z</time>
      </trkpt>
      <trkpt lat="46.6641" lon="5.81034">
        <ele>480.6</ele>
        <time>2022-02-24T10:05:33Z</time>
      </trkpt>
      <trkpt lat="46.66414" lon="5.81031">
        <ele>480.6</ele>
        <time>2022-02-24T10:05:37Z</time>
      </trkpt>
      <trkpt lat="46.66419" lon="5.81029">
        <ele>480.6</ele>
        <time>2022-02-24T10:05:41Z</time>
      </trkpt>
      <trkpt lat="46.66419" lon="5.81021">
        <ele>480.9</ele>
        <time>2022-02-24T10:05:48Z</time>
      </trkpt>
      <trkpt lat="46.66422" lon="5.81015">
        <ele>481.3</ele>
        <time>2022-02-24T10:05:54Z</time>
      </trkpt>
      <trkpt lat="46.66425" lon="5.81009">
        <ele>481.4</ele>
        <time>2022-02-24T10:05:59Z</time>
      </trkpt>
      <trkpt lat="46.6643" lon="5.81005">
        <ele>481.4</ele>
        <time>2022-02-24T10:06:03Z</time>
      </trkpt>
      <trkpt lat="46.66434" lon="5.81">
        <ele>481.6</ele>
        <time>2022-02-24T10:06:07Z</time>
      </trkpt>
      <trkpt lat="46.66438" lon="5.80995">
        <ele>481.9</ele>
        <time>2022-02-24T10:06:11Z</time>
      </trkpt>
      <trkpt lat="46.6644" lon="5.80988">
        <ele>481.9</ele>
        <time>2022-02-24T10:06:16Z</time>
      </trkpt>
      <trkpt lat="46.66444" lon="5.80982">
        <ele>482.1</ele>
        <time>2022-02-24T10:06:21Z</time>
      </trkpt>
      <trkpt lat="46.66446" lon="5.80976">
        <ele>482.2</ele>
        <time>2022-02-24T10:06:25Z</time>
      </trkpt>
      <trkpt lat="46.66448" lon="5.80968">
        <ele>481.9</ele>
        <time>2022-02-24T10:06:29Z</time>
      </trkpt>
      <trkpt lat="46.66448" lon="5.80961">
        <ele>481.3</ele>
        <time>2022-02-24T10:06:34Z</time>
      </trkpt>
      <trkpt lat="46.6645" lon="5.80955">
        <ele>480.9</ele>
        <time>2022-02-24T10:06:39Z</time>
      </trkpt>
      <trkpt lat="46.66454" lon="5.8095">
        <ele>481</ele>
        <time>2022-02-24T10:06:44Z</time>
      </trkpt>
      <trkpt lat="46.66456" lon="5.80942">
        <ele>481.2</ele>
        <time>2022-02-24T10:06:49Z</time>
      </trkpt>
      <trkpt lat="46.66459" lon="5.80936">
        <ele>481.7</ele>
        <time>2022-02-24T10:06:54Z</time>
      </trkpt>
      <trkpt lat="46.66461" lon="5.8093">
        <ele>482.7</ele>
        <time>2022-02-24T10:06:58Z</time>
      </trkpt>
      <trkpt lat="46.66463" lon="5.80923">
        <ele>484.3</ele>
        <time>2022-02-24T10:07:04Z</time>
      </trkpt>
      <trkpt lat="46.66467" lon="5.80916">
        <ele>485.1</ele>
        <time>2022-02-24T10:07:09Z</time>
      </trkpt>
      <trkpt lat="46.66467" lon="5.80909">
        <ele>485.2</ele>
        <time>2022-02-24T10:07:14Z</time>
      </trkpt>
      <trkpt lat="46.6647" lon="5.80904">
        <ele>484.2</ele>
        <time>2022-02-24T10:07:21Z</time>
      </trkpt>
      <trkpt lat="46.66474" lon="5.80899">
        <ele>483.7</ele>
        <time>2022-02-24T10:07:25Z</time>
      </trkpt>
      <trkpt lat="46.66478" lon="5.80894">
        <ele>483.2</ele>
        <time>2022-02-24T10:07:29Z</time>
      </trkpt>
      <trkpt lat="46.66483" lon="5.80889">
        <ele>483</ele>
        <time>2022-02-24T10:07:33Z</time>
      </trkpt>
      <trkpt lat="46.66488" lon="5.80886">
        <ele>482.8</ele>
        <time>2022-02-24T10:07:36Z</time>
      </trkpt>
      <trkpt lat="46.66491" lon="5.80881">
        <ele>482.2</ele>
        <time>2022-02-24T10:07:40Z</time>
      </trkpt>
      <trkpt lat="46.66493" lon="5.80875">
        <ele>481</ele>
        <time>2022-02-24T10:07:46Z</time>
      </trkpt>
      <trkpt lat="46.66495" lon="5.80867">
        <ele>480.1</ele>
        <time>2022-02-24T10:07:52Z</time>
      </trkpt>
      <trkpt lat="46.66496" lon="5.80861">
        <ele>480.4</ele>
        <time>2022-02-24T10:07:57Z</time>
      </trkpt>
      <trkpt lat="46.66498" lon="5.80854">
        <ele>480.7</ele>
        <time>2022-02-24T10:08:01Z</time>
      </trkpt>
      <trkpt lat="46.66496" lon="5.80846">
        <ele>480.7</ele>
        <time>2022-02-24T10:08:06Z</time>
      </trkpt>
      <trkpt lat="46.66496" lon="5.80839">
        <ele>480.7</ele>
        <time>2022-02-24T10:08:10Z</time>
      </trkpt>
      <trkpt lat="46.66494" lon="5.80831">
        <ele>481</ele>
        <time>2022-02-24T10:08:14Z</time>
      </trkpt>
      <trkpt lat="46.66496" lon="5.80825">
        <ele>481</ele>
        <time>2022-02-24T10:08:20Z</time>
      </trkpt>
      <trkpt lat="46.665" lon="5.8082">
        <ele>481.2</ele>
        <time>2022-02-24T10:08:24Z</time>
      </trkpt>
      <trkpt lat="46.66505" lon="5.80816">
        <ele>481.8</ele>
        <time>2022-02-24T10:08:28Z</time>
      </trkpt>
      <trkpt lat="46.66508" lon="5.8081">
        <ele>482.1</ele>
        <time>2022-02-24T10:08:32Z</time>
      </trkpt>
      <trkpt lat="46.66511" lon="5.80805">
        <ele>482.3</ele>
        <time>2022-02-24T10:08:36Z</time>
      </trkpt>
      <trkpt lat="46.66516" lon="5.808">
        <ele>482.6</ele>
        <time>2022-02-24T10:08:40Z</time>
      </trkpt>
      <trkpt lat="46.66521" lon="5.80796">
        <ele>482.8</ele>
        <time>2022-02-24T10:08:44Z</time>
      </trkpt>
      <trkpt lat="46.66525" lon="5.80791">
        <ele>482.8</ele>
        <time>2022-02-24T10:08:49Z</time>
      </trkpt>
      <trkpt lat="46.66525" lon="5.80785">
        <ele>482.7</ele>
        <time>2022-02-24T10:08:54Z</time>
      </trkpt>
      <trkpt lat="46.66526" lon="5.80777">
        <ele>482.2</ele>
        <time>2022-02-24T10:08:59Z</time>
      </trkpt>
      <trkpt lat="46.66527" lon="5.8077">
        <ele>482</ele>
        <time>2022-02-24T10:09:03Z</time>
      </trkpt>
      <trkpt lat="46.6653" lon="5.80762">
        <ele>481.8</ele>
        <time>2022-02-24T10:09:07Z</time>
      </trkpt>
      <trkpt lat="46.66532" lon="5.80756">
        <ele>481.7</ele>
        <time>2022-02-24T10:09:11Z</time>
      </trkpt>
      <trkpt lat="46.66534" lon="5.8075">
        <ele>481.6</ele>
        <time>2022-02-24T10:09:15Z</time>
      </trkpt>
      <trkpt lat="46.66535" lon="5.80743">
        <ele>481.7</ele>
        <time>2022-02-24T10:09:20Z</time>
      </trkpt>
      <trkpt lat="46.66536" lon="5.80736">
        <ele>481.9</ele>
        <time>2022-02-24T10:09:24Z</time>
      </trkpt>
      <trkpt lat="46.66538" lon="5.80729">
        <ele>482.2</ele>
        <time>2022-02-24T10:09:29Z</time>
      </trkpt>
      <trkpt lat="46.66539" lon="5.80723">
        <ele>482.5</ele>
        <time>2022-02-24T10:09:34Z</time>
      </trkpt>
      <trkpt lat="46.66542" lon="5.80718">
        <ele>482.8</ele>
        <time>2022-02-24T10:09:39Z</time>
      </trkpt>
      <trkpt lat="46.66544" lon="5.80711">
        <ele>483.1</ele>
        <time>2022-02-24T10:09:43Z</time>
      </trkpt>
      <trkpt lat="46.66545" lon="5.80705">
        <ele>483.4</ele>
        <time>2022-02-24T10:09:48Z</time>
      </trkpt>
      <trkpt lat="46.66547" lon="5.80698">
        <ele>483.6</ele>
        <time>2022-02-24T10:09:53Z</time>
      </trkpt>
      <trkpt lat="46.66548" lon="5.8069">
        <ele>483.8</ele>
        <time>2022-02-24T10:09:58Z</time>
      </trkpt>
      <trkpt lat="46.66549" lon="5.80683">
        <ele>483.8</ele>
        <time>2022-02-24T10:10:02Z</time>
      </trkpt>
      <trkpt lat="46.6655" lon="5.80677">
        <ele>483.5</ele>
        <time>2022-02-24T10:10:06Z</time>
      </trkpt>
      <trkpt lat="46.66552" lon="5.8067">
        <ele>483.1</ele>
        <time>2022-02-24T10:10:10Z</time>
      </trkpt>
      <trkpt lat="46.66554" lon="5.80663">
        <ele>482.1</ele>
        <time>2022-02-24T10:10:15Z</time>
      </trkpt>
      <trkpt lat="46.66553" lon="5.80657">
        <ele>480.7</ele>
        <time>2022-02-24T10:10:21Z</time>
      </trkpt>
      <trkpt lat="46.66557" lon="5.80651">
        <ele>479.7</ele>
        <time>2022-02-24T10:10:26Z</time>
      </trkpt>
      <trkpt lat="46.6656" lon="5.80645">
        <ele>479.5</ele>
        <time>2022-02-24T10:10:31Z</time>
      </trkpt>
      <trkpt lat="46.66563" lon="5.8064">
        <ele>479.5</ele>
        <time>2022-02-24T10:10:36Z</time>
      </trkpt>
      <trkpt lat="46.66565" lon="5.80633">
        <ele>479.8</ele>
        <time>2022-02-24T10:10:42Z</time>
      </trkpt>
      <trkpt lat="46.66568" lon="5.80627">
        <ele>480.2</ele>
        <time>2022-02-24T10:10:47Z</time>
      </trkpt>
      <trkpt lat="46.66569" lon="5.8062">
        <ele>480.3</ele>
        <time>2022-02-24T10:10:52Z</time>
      </trkpt>
      <trkpt lat="46.66567" lon="5.80614">
        <ele>480</ele>
        <time>2022-02-24T10:11:02Z</time>
      </trkpt>
      <trkpt lat="46.66573" lon="5.80611">
        <ele>479</ele>
        <time>2022-02-24T10:11:28Z</time>
      </trkpt>
      <trkpt lat="46.66578" lon="5.80611">
        <ele>478.3</ele>
        <time>2022-02-24T10:13:21Z</time>
      </trkpt>
      <trkpt lat="46.66582" lon="5.8061">
        <ele>477.1</ele>
        <time>2022-02-24T10:13:58Z</time>
      </trkpt>
      <trkpt lat="46.66577" lon="5.8061">
        <ele>478.1</ele>
        <time>2022-02-24T10:14:19Z</time>
      </trkpt>
      <trkpt lat="46.66573" lon="5.80608">
        <ele>479.5</ele>
        <time>2022-02-24T10:14:24Z</time>
      </trkpt>
      <trkpt lat="46.66578" lon="5.80611">
        <ele>480.7</ele>
        <time>2022-02-24T10:14:32Z</time>
      </trkpt>
      <trkpt lat="46.66581" lon="5.80616">
        <ele>481.3</ele>
        <time>2022-02-24T10:14:38Z</time>
      </trkpt>
      <trkpt lat="46.66579" lon="5.80623">
        <ele>482.1</ele>
        <time>2022-02-24T10:14:49Z</time>
      </trkpt>
      <trkpt lat="46.66576" lon="5.80628">
        <ele>482.1</ele>
        <time>2022-02-24T10:14:53Z</time>
      </trkpt>
      <trkpt lat="46.66572" lon="5.80631">
        <ele>482</ele>
        <time>2022-02-24T10:14:57Z</time>
      </trkpt>
      <trkpt lat="46.66567" lon="5.80634">
        <ele>481.3</ele>
        <time>2022-02-24T10:15:01Z</time>
      </trkpt>
      <trkpt lat="46.66564" lon="5.8064">
        <ele>480.5</ele>
        <time>2022-02-24T10:15:06Z</time>
      </trkpt>
      <trkpt lat="46.66563" lon="5.80647">
        <ele>479.8</ele>
        <time>2022-02-24T10:15:11Z</time>
      </trkpt>
      <trkpt lat="46.66565" lon="5.80654">
        <ele>479</ele>
        <time>2022-02-24T10:15:16Z</time>
      </trkpt>
      <trkpt lat="46.66564" lon="5.80661">
        <ele>479.1</ele>
        <time>2022-02-24T10:15:21Z</time>
      </trkpt>
      <trkpt lat="46.66561" lon="5.80667">
        <ele>479</ele>
        <time>2022-02-24T10:15:26Z</time>
      </trkpt>
      <trkpt lat="46.66557" lon="5.80673">
        <ele>478.8</ele>
        <time>2022-02-24T10:15:32Z</time>
      </trkpt>
      <trkpt lat="46.66554" lon="5.80678">
        <ele>478.5</ele>
        <time>2022-02-24T10:15:36Z</time>
      </trkpt>
      <trkpt lat="46.66552" lon="5.80685">
        <ele>478.5</ele>
        <time>2022-02-24T10:15:40Z</time>
      </trkpt>
      <trkpt lat="46.66549" lon="5.80691">
        <ele>478.5</ele>
        <time>2022-02-24T10:15:44Z</time>
      </trkpt>
      <trkpt lat="46.66549" lon="5.80698">
        <ele>478.7</ele>
        <time>2022-02-24T10:15:50Z</time>
      </trkpt>
      <trkpt lat="46.66547" lon="5.80705">
        <ele>479.1</ele>
        <time>2022-02-24T10:15:56Z</time>
      </trkpt>
      <trkpt lat="46.66545" lon="5.80712">
        <ele>479.6</ele>
        <time>2022-02-24T10:16:01Z</time>
      </trkpt>
      <trkpt lat="46.66546" lon="5.80719">
        <ele>480.1</ele>
        <time>2022-02-24T10:16:05Z</time>
      </trkpt>
      <trkpt lat="46.66548" lon="5.80725">
        <ele>481.1</ele>
        <time>2022-02-24T10:16:10Z</time>
      </trkpt>
      <trkpt lat="46.66549" lon="5.80732">
        <ele>482</ele>
        <time>2022-02-24T10:16:17Z</time>
      </trkpt>
      <trkpt lat="46.6655" lon="5.80739">
        <ele>482.4</ele>
        <time>2022-02-24T10:16:23Z</time>
      </trkpt>
      <trkpt lat="46.66548" lon="5.80746">
        <ele>482.6</ele>
        <time>2022-02-24T10:16:29Z</time>
      </trkpt>
      <trkpt lat="46.66543" lon="5.80752">
        <ele>482.6</ele>
        <time>2022-02-24T10:16:33Z</time>
      </trkpt>
      <trkpt lat="46.66538" lon="5.80758">
        <ele>482.6</ele>
        <time>2022-02-24T10:16:36Z</time>
      </trkpt>
      <trkpt lat="46.66533" lon="5.80762">
        <ele>482.4</ele>
        <time>2022-02-24T10:16:39Z</time>
      </trkpt>
      <trkpt lat="46.66529" lon="5.80766">
        <ele>482.2</ele>
        <time>2022-02-24T10:16:42Z</time>
      </trkpt>
      <trkpt lat="46.66529" lon="5.80772">
        <ele>481.7</ele>
        <time>2022-02-24T10:16:48Z</time>
      </trkpt>
      <trkpt lat="46.66525" lon="5.80778">
        <ele>481.3</ele>
        <time>2022-02-24T10:16:54Z</time>
      </trkpt>
      <trkpt lat="46.66521" lon="5.80781">
        <ele>480.4</ele>
        <time>2022-02-24T10:16:58Z</time>
      </trkpt>
      <trkpt lat="46.66517" lon="5.80785">
        <ele>479.8</ele>
        <time>2022-02-24T10:17:01Z</time>
      </trkpt>
      <trkpt lat="46.66512" lon="5.80789">
        <ele>479.1</ele>
        <time>2022-02-24T10:17:05Z</time>
      </trkpt>
      <trkpt lat="46.66508" lon="5.80794">
        <ele>478.5</ele>
        <time>2022-02-24T10:17:09Z</time>
      </trkpt>
      <trkpt lat="46.66505" lon="5.80801">
        <ele>478.1</ele>
        <time>2022-02-24T10:17:12Z</time>
      </trkpt>
      <trkpt lat="46.66503" lon="5.80808">
        <ele>477.7</ele>
        <time>2022-02-24T10:17:15Z</time>
      </trkpt>
      <trkpt lat="46.66501" lon="5.80815">
        <ele>477.5</ele>
        <time>2022-02-24T10:17:19Z</time>
      </trkpt>
      <trkpt lat="46.66501" lon="5.80822">
        <ele>477.4</ele>
        <time>2022-02-24T10:17:23Z</time>
      </trkpt>
      <trkpt lat="46.66498" lon="5.80827">
        <ele>477.1</ele>
        <time>2022-02-24T10:17:26Z</time>
      </trkpt>
      <trkpt lat="46.66496" lon="5.80833">
        <ele>476.6</ele>
        <time>2022-02-24T10:17:30Z</time>
      </trkpt>
      <trkpt lat="46.66493" lon="5.80839">
        <ele>476.3</ele>
        <time>2022-02-24T10:17:34Z</time>
      </trkpt>
      <trkpt lat="46.66491" lon="5.80845">
        <ele>476.4</ele>
        <time>2022-02-24T10:17:38Z</time>
      </trkpt>
      <trkpt lat="46.6649" lon="5.80852">
        <ele>476.6</ele>
        <time>2022-02-24T10:17:44Z</time>
      </trkpt>
      <trkpt lat="46.66487" lon="5.80858">
        <ele>476.6</ele>
        <time>2022-02-24T10:17:49Z</time>
      </trkpt>
      <trkpt lat="46.66483" lon="5.80862">
        <ele>476.3</ele>
        <time>2022-02-24T10:17:52Z</time>
      </trkpt>
      <trkpt lat="46.6648" lon="5.80868">
        <ele>475.9</ele>
        <time>2022-02-24T10:17:56Z</time>
      </trkpt>
      <trkpt lat="46.66481" lon="5.80875">
        <ele>475.7</ele>
        <time>2022-02-24T10:18:00Z</time>
      </trkpt>
      <trkpt lat="46.6648" lon="5.80882">
        <ele>475.6</ele>
        <time>2022-02-24T10:18:05Z</time>
      </trkpt>
      <trkpt lat="46.66476" lon="5.80887">
        <ele>475.5</ele>
        <time>2022-02-24T10:18:10Z</time>
      </trkpt>
      <trkpt lat="46.66472" lon="5.80891">
        <ele>475.2</ele>
        <time>2022-02-24T10:18:15Z</time>
      </trkpt>
      <trkpt lat="46.66471" lon="5.80899">
        <ele>475.3</ele>
        <time>2022-02-24T10:18:22Z</time>
      </trkpt>
      <trkpt lat="46.66471" lon="5.80906">
        <ele>476.2</ele>
        <time>2022-02-24T10:18:28Z</time>
      </trkpt>
      <trkpt lat="46.66468" lon="5.80911">
        <ele>477.8</ele>
        <time>2022-02-24T10:18:38Z</time>
      </trkpt>
      <trkpt lat="46.66466" lon="5.80919">
        <ele>478.4</ele>
        <time>2022-02-24T10:18:45Z</time>
      </trkpt>
      <trkpt lat="46.66463" lon="5.80925">
        <ele>478.6</ele>
        <time>2022-02-24T10:18:50Z</time>
      </trkpt>
      <trkpt lat="46.66459" lon="5.80931">
        <ele>478.8</ele>
        <time>2022-02-24T10:18:54Z</time>
      </trkpt>
      <trkpt lat="46.66456" lon="5.80937">
        <ele>478.9</ele>
        <time>2022-02-24T10:18:57Z</time>
      </trkpt>
      <trkpt lat="46.66453" lon="5.80942">
        <ele>478.9</ele>
        <time>2022-02-24T10:19:01Z</time>
      </trkpt>
      <trkpt lat="46.66449" lon="5.80946">
        <ele>478.7</ele>
        <time>2022-02-24T10:19:04Z</time>
      </trkpt>
      <trkpt lat="46.66446" lon="5.80949">
        <ele>478.5</ele>
        <time>2022-02-24T10:19:08Z</time>
      </trkpt>
      <trkpt lat="46.66446" lon="5.80956">
        <ele>478</ele>
        <time>2022-02-24T10:19:13Z</time>
      </trkpt>
      <trkpt lat="46.66444" lon="5.80963">
        <ele>477.6</ele>
        <time>2022-02-24T10:19:18Z</time>
      </trkpt>
      <trkpt lat="46.66445" lon="5.80971">
        <ele>477.9</ele>
        <time>2022-02-24T10:19:24Z</time>
      </trkpt>
      <trkpt lat="46.66445" lon="5.80979">
        <ele>478.7</ele>
        <time>2022-02-24T10:19:28Z</time>
      </trkpt>
      <trkpt lat="46.66444" lon="5.80987">
        <ele>479.4</ele>
        <time>2022-02-24T10:19:32Z</time>
      </trkpt>
      <trkpt lat="46.66443" lon="5.80994">
        <ele>480.3</ele>
        <time>2022-02-24T10:19:37Z</time>
      </trkpt>
      <trkpt lat="46.66441" lon="5.81">
        <ele>481.1</ele>
        <time>2022-02-24T10:19:41Z</time>
      </trkpt>
      <trkpt lat="46.66438" lon="5.81006">
        <ele>482.4</ele>
        <time>2022-02-24T10:19:46Z</time>
      </trkpt>
      <trkpt lat="46.66434" lon="5.81011">
        <ele>483.9</ele>
        <time>2022-02-24T10:19:52Z</time>
      </trkpt>
      <trkpt lat="46.66431" lon="5.81016">
        <ele>484.9</ele>
        <time>2022-02-24T10:19:56Z</time>
      </trkpt>
      <trkpt lat="46.66427" lon="5.8102">
        <ele>485.8</ele>
        <time>2022-02-24T10:19:59Z</time>
      </trkpt>
      <trkpt lat="46.66424" lon="5.81025">
        <ele>486.8</ele>
        <time>2022-02-24T10:20:03Z</time>
      </trkpt>
      <trkpt lat="46.6642" lon="5.81031">
        <ele>487.7</ele>
        <time>2022-02-24T10:20:07Z</time>
      </trkpt>
      <trkpt lat="46.66418" lon="5.81037">
        <ele>488.3</ele>
        <time>2022-02-24T10:20:11Z</time>
      </trkpt>
      <trkpt lat="46.66415" lon="5.81043">
        <ele>488.6</ele>
        <time>2022-02-24T10:20:16Z</time>
      </trkpt>
      <trkpt lat="46.66412" lon="5.81048">
        <ele>488.7</ele>
        <time>2022-02-24T10:20:20Z</time>
      </trkpt>
      <trkpt lat="46.66409" lon="5.81053">
        <ele>488.3</ele>
        <time>2022-02-24T10:20:26Z</time>
      </trkpt>
      <trkpt lat="46.66406" lon="5.8106">
        <ele>487.7</ele>
        <time>2022-02-24T10:20:33Z</time>
      </trkpt>
      <trkpt lat="46.66403" lon="5.81066">
        <ele>487.4</ele>
        <time>2022-02-24T10:20:37Z</time>
      </trkpt>
      <trkpt lat="46.664" lon="5.81074">
        <ele>487.2</ele>
        <time>2022-02-24T10:20:42Z</time>
      </trkpt>
      <trkpt lat="46.66399" lon="5.8108">
        <ele>486.8</ele>
        <time>2022-02-24T10:20:46Z</time>
      </trkpt>
      <trkpt lat="46.66398" lon="5.81087">
        <ele>486.3</ele>
        <time>2022-02-24T10:20:50Z</time>
      </trkpt>
      <trkpt lat="46.66397" lon="5.81096">
        <ele>485.9</ele>
        <time>2022-02-24T10:20:54Z</time>
      </trkpt>
      <trkpt lat="46.66397" lon="5.81103">
        <ele>485.5</ele>
        <time>2022-02-24T10:20:58Z</time>
      </trkpt>
      <trkpt lat="46.66397" lon="5.8111">
        <ele>485.6</ele>
        <time>2022-02-24T10:21:03Z</time>
      </trkpt>
      <trkpt lat="46.66396" lon="5.81119">
        <ele>485.8</ele>
        <time>2022-02-24T10:21:07Z</time>
      </trkpt>
      <trkpt lat="46.66395" lon="5.81125">
        <ele>485.9</ele>
        <time>2022-02-24T10:21:10Z</time>
      </trkpt>
      <trkpt lat="46.66395" lon="5.81133">
        <ele>485.7</ele>
        <time>2022-02-24T10:21:14Z</time>
      </trkpt>
      <trkpt lat="46.66395" lon="5.81141">
        <ele>485.6</ele>
        <time>2022-02-24T10:21:19Z</time>
      </trkpt>
      <trkpt lat="46.66397" lon="5.81147">
        <ele>485.3</ele>
        <time>2022-02-24T10:21:24Z</time>
      </trkpt>
      <trkpt lat="46.664" lon="5.81153">
        <ele>485.1</ele>
        <time>2022-02-24T10:21:29Z</time>
      </trkpt>
      <trkpt lat="46.66402" lon="5.8116">
        <ele>484.9</ele>
        <time>2022-02-24T10:21:34Z</time>
      </trkpt>
      <trkpt lat="46.66403" lon="5.81167">
        <ele>485.1</ele>
        <time>2022-02-24T10:21:38Z</time>
      </trkpt>
      <trkpt lat="46.66407" lon="5.81173">
        <ele>485.6</ele>
        <time>2022-02-24T10:21:42Z</time>
      </trkpt>
      <trkpt lat="46.6641" lon="5.81177">
        <ele>486.1</ele>
        <time>2022-02-24T10:21:46Z</time>
      </trkpt>
      <trkpt lat="46.66412" lon="5.81184">
        <ele>486.4</ele>
        <time>2022-02-24T10:21:51Z</time>
      </trkpt>
      <trkpt lat="46.66415" lon="5.81191">
        <ele>486.1</ele>
        <time>2022-02-24T10:21:56Z</time>
      </trkpt>
      <trkpt lat="46.66417" lon="5.81197">
        <ele>485.9</ele>
        <time>2022-02-24T10:22:01Z</time>
      </trkpt>
      <trkpt lat="46.6642" lon="5.81204">
        <ele>485.4</ele>
        <time>2022-02-24T10:22:07Z</time>
      </trkpt>
      <trkpt lat="46.66422" lon="5.8121">
        <ele>485.2</ele>
        <time>2022-02-24T10:22:13Z</time>
      </trkpt>
      <trkpt lat="46.66424" lon="5.81217">
        <ele>485.5</ele>
        <time>2022-02-24T10:22:17Z</time>
      </trkpt>
      <trkpt lat="46.66427" lon="5.81224">
        <ele>486.1</ele>
        <time>2022-02-24T10:22:22Z</time>
      </trkpt>
      <trkpt lat="46.6643" lon="5.8123">
        <ele>486.9</ele>
        <time>2022-02-24T10:22:27Z</time>
      </trkpt>
      <trkpt lat="46.66433" lon="5.81236">
        <ele>487.3</ele>
        <time>2022-02-24T10:22:31Z</time>
      </trkpt>
      <trkpt lat="46.66436" lon="5.81243">
        <ele>486.9</ele>
        <time>2022-02-24T10:22:35Z</time>
      </trkpt>
      <trkpt lat="46.66439" lon="5.81249">
        <ele>486.5</ele>
        <time>2022-02-24T10:22:39Z</time>
      </trkpt>
      <trkpt lat="46.66441" lon="5.81255">
        <ele>485.6</ele>
        <time>2022-02-24T10:22:43Z</time>
      </trkpt>
      <trkpt lat="46.66444" lon="5.81261">
        <ele>484.7</ele>
        <time>2022-02-24T10:22:47Z</time>
      </trkpt>
      <trkpt lat="46.66447" lon="5.81267">
        <ele>484.1</ele>
        <time>2022-02-24T10:22:51Z</time>
      </trkpt>
      <trkpt lat="46.66449" lon="5.81273">
        <ele>483.6</ele>
        <time>2022-02-24T10:22:56Z</time>
      </trkpt>
      <trkpt lat="46.66451" lon="5.8128">
        <ele>482.7</ele>
        <time>2022-02-24T10:23:01Z</time>
      </trkpt>
      <trkpt lat="46.66453" lon="5.81288">
        <ele>481.8</ele>
        <time>2022-02-24T10:23:06Z</time>
      </trkpt>
      <trkpt lat="46.66455" lon="5.81294">
        <ele>481.4</ele>
        <time>2022-02-24T10:23:11Z</time>
      </trkpt>
      <trkpt lat="46.66457" lon="5.81301">
        <ele>481.3</ele>
        <time>2022-02-24T10:23:16Z</time>
      </trkpt>
      <trkpt lat="46.66456" lon="5.81309">
        <ele>481.7</ele>
        <time>2022-02-24T10:23:21Z</time>
      </trkpt>
      <trkpt lat="46.66457" lon="5.81316">
        <ele>482.4</ele>
        <time>2022-02-24T10:23:25Z</time>
      </trkpt>
      <trkpt lat="46.66457" lon="5.81323">
        <ele>483.7</ele>
        <time>2022-02-24T10:23:31Z</time>
      </trkpt>
      <trkpt lat="46.66459" lon="5.81329">
        <ele>485.2</ele>
        <time>2022-02-24T10:23:36Z</time>
      </trkpt>
      <trkpt lat="46.6646" lon="5.81336">
        <ele>486.2</ele>
        <time>2022-02-24T10:23:40Z</time>
      </trkpt>
      <trkpt lat="46.66462" lon="5.81342">
        <ele>487.2</ele>
        <time>2022-02-24T10:23:45Z</time>
      </trkpt>
      <trkpt lat="46.66465" lon="5.81348">
        <ele>488.2</ele>
        <time>2022-02-24T10:23:49Z</time>
      </trkpt>
      <trkpt lat="46.66469" lon="5.81352">
        <ele>488.9</ele>
        <time>2022-02-24T10:23:54Z</time>
      </trkpt>
      <trkpt lat="46.66471" lon="5.8136">
        <ele>489.2</ele>
        <time>2022-02-24T10:23:59Z</time>
      </trkpt>
      <trkpt lat="46.66473" lon="5.81366">
        <ele>489.3</ele>
        <time>2022-02-24T10:24:03Z</time>
      </trkpt>
      <trkpt lat="46.66474" lon="5.81373">
        <ele>489.5</ele>
        <time>2022-02-24T10:24:07Z</time>
      </trkpt>
      <trkpt lat="46.66476" lon="5.8138">
        <ele>490.3</ele>
        <time>2022-02-24T10:24:12Z</time>
      </trkpt>
      <trkpt lat="46.66478" lon="5.81385">
        <ele>491.4</ele>
        <time>2022-02-24T10:24:17Z</time>
      </trkpt>
      <trkpt lat="46.6648" lon="5.81392">
        <ele>492.7</ele>
        <time>2022-02-24T10:24:22Z</time>
      </trkpt>
      <trkpt lat="46.66484" lon="5.81398">
        <ele>493.6</ele>
        <time>2022-02-24T10:24:27Z</time>
      </trkpt>
      <trkpt lat="46.66487" lon="5.81404">
        <ele>493.9</ele>
        <time>2022-02-24T10:24:32Z</time>
      </trkpt>
      <trkpt lat="46.66492" lon="5.81405">
        <ele>493.6</ele>
        <time>2022-02-24T10:24:41Z</time>
      </trkpt>
      <trkpt lat="46.66497" lon="5.81409">
        <ele>493.2</ele>
        <time>2022-02-24T10:24:48Z</time>
      </trkpt>
      <trkpt lat="46.665" lon="5.81414">
        <ele>493.1</ele>
        <time>2022-02-24T10:24:52Z</time>
      </trkpt>
      <trkpt lat="46.66503" lon="5.81419">
        <ele>493.2</ele>
        <time>2022-02-24T10:24:56Z</time>
      </trkpt>
      <trkpt lat="46.66505" lon="5.81426">
        <ele>493</ele>
        <time>2022-02-24T10:25:01Z</time>
      </trkpt>
      <trkpt lat="46.66507" lon="5.81432">
        <ele>491.9</ele>
        <time>2022-02-24T10:25:06Z</time>
      </trkpt>
      <trkpt lat="46.6651" lon="5.81439">
        <ele>490.9</ele>
        <time>2022-02-24T10:25:11Z</time>
      </trkpt>
      <trkpt lat="46.66512" lon="5.81444">
        <ele>490.5</ele>
        <time>2022-02-24T10:25:15Z</time>
      </trkpt>
      <trkpt lat="46.66515" lon="5.8145">
        <ele>490.6</ele>
        <time>2022-02-24T10:25:19Z</time>
      </trkpt>
      <trkpt lat="46.66519" lon="5.81455">
        <ele>490.9</ele>
        <time>2022-02-24T10:25:23Z</time>
      </trkpt>
      <trkpt lat="46.6652" lon="5.81461">
        <ele>491.4</ele>
        <time>2022-02-24T10:25:27Z</time>
      </trkpt>
      <trkpt lat="46.66521" lon="5.81469">
        <ele>492.7</ele>
        <time>2022-02-24T10:25:32Z</time>
      </trkpt>
      <trkpt lat="46.66523" lon="5.81476">
        <ele>494.1</ele>
        <time>2022-02-24T10:25:36Z</time>
      </trkpt>
      <trkpt lat="46.66525" lon="5.81481">
        <ele>495.4</ele>
        <time>2022-02-24T10:25:40Z</time>
      </trkpt>
      <trkpt lat="46.66527" lon="5.81488">
        <ele>497</ele>
        <time>2022-02-24T10:25:45Z</time>
      </trkpt>
      <trkpt lat="46.6653" lon="5.81494">
        <ele>497.5</ele>
        <time>2022-02-24T10:25:50Z</time>
      </trkpt>
      <trkpt lat="46.66534" lon="5.815">
        <ele>497.5</ele>
        <time>2022-02-24T10:25:55Z</time>
      </trkpt>
      <trkpt lat="46.66537" lon="5.81506">
        <ele>497.6</ele>
        <time>2022-02-24T10:26:00Z</time>
      </trkpt>
      <trkpt lat="46.66541" lon="5.81501">
        <ele>497.8</ele>
        <time>2022-02-24T10:26:08Z</time>
      </trkpt>
      <trkpt lat="46.66543" lon="5.81495">
        <ele>497.8</ele>
        <time>2022-02-24T10:26:13Z</time>
      </trkpt>
      <trkpt lat="46.66545" lon="5.81489">
        <ele>497.5</ele>
        <time>2022-02-24T10:26:19Z</time>
      </trkpt>
      <trkpt lat="46.66548" lon="5.81484">
        <ele>497.7</ele>
        <time>2022-02-24T10:26:29Z</time>
      </trkpt>
      <trkpt lat="46.66552" lon="5.8148">
        <ele>497.8</ele>
        <time>2022-02-24T10:26:34Z</time>
      </trkpt>
      <trkpt lat="46.66557" lon="5.8148">
        <ele>498.1</ele>
        <time>2022-02-24T10:26:39Z</time>
      </trkpt>
      <trkpt lat="46.66562" lon="5.81482">
        <ele>498.4</ele>
        <time>2022-02-24T10:26:44Z</time>
      </trkpt>
      <trkpt lat="46.66565" lon="5.81486">
        <ele>497.9</ele>
        <time>2022-02-24T10:26:51Z</time>
      </trkpt>
      <trkpt lat="46.66569" lon="5.81491">
        <ele>496.8</ele>
        <time>2022-02-24T10:27:05Z</time>
      </trkpt>
      <trkpt lat="46.66571" lon="5.81498">
        <ele>496.7</ele>
        <time>2022-02-24T10:27:12Z</time>
      </trkpt>
      <trkpt lat="46.66572" lon="5.81504">
        <ele>497.2</ele>
        <time>2022-02-24T10:27:17Z</time>
      </trkpt>
      <trkpt lat="46.66573" lon="5.81511">
        <ele>497.1</ele>
        <time>2022-02-24T10:27:21Z</time>
      </trkpt>
      <trkpt lat="46.66575" lon="5.81516">
        <ele>496.3</ele>
        <time>2022-02-24T10:27:26Z</time>
      </trkpt>
      <trkpt lat="46.6658" lon="5.81518">
        <ele>494.7</ele>
        <time>2022-02-24T10:27:31Z</time>
      </trkpt>
      <trkpt lat="46.66585" lon="5.81519">
        <ele>493.6</ele>
        <time>2022-02-24T10:27:37Z</time>
      </trkpt>
      <trkpt lat="46.6659" lon="5.8152">
        <ele>493.5</ele>
        <time>2022-02-24T10:27:42Z</time>
      </trkpt>
      <trkpt lat="46.66595" lon="5.81521">
        <ele>493.5</ele>
        <time>2022-02-24T10:27:47Z</time>
      </trkpt>
      <trkpt lat="46.66599" lon="5.81522">
        <ele>493</ele>
        <time>2022-02-24T10:27:51Z</time>
      </trkpt>
      <trkpt lat="46.66605" lon="5.81525">
        <ele>492.4</ele>
        <time>2022-02-24T10:27:56Z</time>
      </trkpt>
      <trkpt lat="46.6661" lon="5.81526">
        <ele>491.8</ele>
        <time>2022-02-24T10:28:00Z</time>
      </trkpt>
      <trkpt lat="46.66616" lon="5.81527">
        <ele>490.4</ele>
        <time>2022-02-24T10:28:05Z</time>
      </trkpt>
      <trkpt lat="46.6662" lon="5.81528">
        <ele>487.7</ele>
        <time>2022-02-24T10:28:12Z</time>
      </trkpt>
      <trkpt lat="46.66625" lon="5.81531">
        <ele>486.7</ele>
        <time>2022-02-24T10:28:17Z</time>
      </trkpt>
      <trkpt lat="46.6663" lon="5.81533">
        <ele>486.6</ele>
        <time>2022-02-24T10:28:21Z</time>
      </trkpt>
      <trkpt lat="46.66635" lon="5.81535">
        <ele>486.9</ele>
        <time>2022-02-24T10:28:26Z</time>
      </trkpt>
      <trkpt lat="46.6664" lon="5.81536">
        <ele>487.2</ele>
        <time>2022-02-24T10:28:30Z</time>
      </trkpt>
      <trkpt lat="46.66645" lon="5.81536">
        <ele>487.8</ele>
        <time>2022-02-24T10:28:35Z</time>
      </trkpt>
      <trkpt lat="46.6665" lon="5.81538">
        <ele>488.2</ele>
        <time>2022-02-24T10:28:39Z</time>
      </trkpt>
      <trkpt lat="46.66655" lon="5.8154">
        <ele>488.6</ele>
        <time>2022-02-24T10:28:45Z</time>
      </trkpt>
      <trkpt lat="46.66659" lon="5.81543">
        <ele>488.5</ele>
        <time>2022-02-24T10:28:50Z</time>
      </trkpt>
      <trkpt lat="46.66664" lon="5.81547">
        <ele>488.5</ele>
        <time>2022-02-24T10:28:54Z</time>
      </trkpt>
      <trkpt lat="46.66667" lon="5.81554">
        <ele>488.8</ele>
        <time>2022-02-24T10:28:59Z</time>
      </trkpt>
      <trkpt lat="46.66671" lon="5.81558">
        <ele>488.9</ele>
        <time>2022-02-24T10:29:04Z</time>
      </trkpt>
      <trkpt lat="46.66675" lon="5.81561">
        <ele>488.9</ele>
        <time>2022-02-24T10:29:09Z</time>
      </trkpt>
      <trkpt lat="46.6668" lon="5.81564">
        <ele>488.7</ele>
        <time>2022-02-24T10:29:14Z</time>
      </trkpt>
      <trkpt lat="46.66682" lon="5.8157">
        <ele>488.3</ele>
        <time>2022-02-24T10:29:20Z</time>
      </trkpt>
      <trkpt lat="46.66679" lon="5.81576">
        <ele>488.1</ele>
        <time>2022-02-24T10:29:24Z</time>
      </trkpt>
      <trkpt lat="46.66677" lon="5.81582">
        <ele>487.9</ele>
        <time>2022-02-24T10:29:28Z</time>
      </trkpt>
      <trkpt lat="46.66675" lon="5.81588">
        <ele>487.8</ele>
        <time>2022-02-24T10:29:32Z</time>
      </trkpt>
      <trkpt lat="46.66674" lon="5.81595">
        <ele>487.2</ele>
        <time>2022-02-24T10:29:37Z</time>
      </trkpt>
      <trkpt lat="46.66672" lon="5.81601">
        <ele>486.5</ele>
        <time>2022-02-24T10:29:42Z</time>
      </trkpt>
      <trkpt lat="46.6667" lon="5.81608">
        <ele>485.9</ele>
        <time>2022-02-24T10:29:46Z</time>
      </trkpt>
      <trkpt lat="46.66668" lon="5.81615">
        <ele>486</ele>
        <time>2022-02-24T10:29:51Z</time>
      </trkpt>
      <trkpt lat="46.66666" lon="5.81622">
        <ele>486.5</ele>
        <time>2022-02-24T10:29:55Z</time>
      </trkpt>
      <trkpt lat="46.66665" lon="5.81629">
        <ele>487.4</ele>
        <time>2022-02-24T10:29:59Z</time>
      </trkpt>
      <trkpt lat="46.66662" lon="5.81635">
        <ele>489.5</ele>
        <time>2022-02-24T10:30:04Z</time>
      </trkpt>
      <trkpt lat="46.6666" lon="5.81641">
        <ele>491.9</ele>
        <time>2022-02-24T10:30:09Z</time>
      </trkpt>
      <trkpt lat="46.66658" lon="5.81648">
        <ele>493.5</ele>
        <time>2022-02-24T10:30:14Z</time>
      </trkpt>
      <trkpt lat="46.66657" lon="5.81654">
        <ele>494.5</ele>
        <time>2022-02-24T10:30:19Z</time>
      </trkpt>
      <trkpt lat="46.66656" lon="5.81661">
        <ele>495.1</ele>
        <time>2022-02-24T10:30:23Z</time>
      </trkpt>
      <trkpt lat="46.66655" lon="5.81669">
        <ele>495.4</ele>
        <time>2022-02-24T10:30:28Z</time>
      </trkpt>
      <trkpt lat="46.66652" lon="5.81675">
        <ele>495.3</ele>
        <time>2022-02-24T10:30:32Z</time>
      </trkpt>
      <trkpt lat="46.66649" lon="5.81682">
        <ele>495.5</ele>
        <time>2022-02-24T10:30:36Z</time>
      </trkpt>
      <trkpt lat="46.66648" lon="5.81689">
        <ele>495.8</ele>
        <time>2022-02-24T10:30:41Z</time>
      </trkpt>
      <trkpt lat="46.66646" lon="5.81695">
        <ele>496.7</ele>
        <time>2022-02-24T10:30:47Z</time>
      </trkpt>
      <trkpt lat="46.66643" lon="5.81702">
        <ele>497.5</ele>
        <time>2022-02-24T10:30:51Z</time>
      </trkpt>
      <trkpt lat="46.66642" lon="5.81708">
        <ele>498.1</ele>
        <time>2022-02-24T10:30:55Z</time>
      </trkpt>
      <trkpt lat="46.66641" lon="5.81715">
        <ele>498.7</ele>
        <time>2022-02-24T10:30:59Z</time>
      </trkpt>
      <trkpt lat="46.6664" lon="5.81722">
        <ele>499</ele>
        <time>2022-02-24T10:31:04Z</time>
      </trkpt>
      <trkpt lat="46.66638" lon="5.81729">
        <ele>499.4</ele>
        <time>2022-02-24T10:31:09Z</time>
      </trkpt>
      <trkpt lat="46.66635" lon="5.81736">
        <ele>499.2</ele>
        <time>2022-02-24T10:31:14Z</time>
      </trkpt>
      <trkpt lat="46.66633" lon="5.81742">
        <ele>498.4</ele>
        <time>2022-02-24T10:31:20Z</time>
      </trkpt>
      <trkpt lat="46.66631" lon="5.81749">
        <ele>497.4</ele>
        <time>2022-02-24T10:31:26Z</time>
      </trkpt>
      <trkpt lat="46.66629" lon="5.81756">
        <ele>496.6</ele>
        <time>2022-02-24T10:31:31Z</time>
      </trkpt>
      <trkpt lat="46.66627" lon="5.81762">
        <ele>496.1</ele>
        <time>2022-02-24T10:31:36Z</time>
      </trkpt>
      <trkpt lat="46.66626" lon="5.81769">
        <ele>496</ele>
        <time>2022-02-24T10:31:40Z</time>
      </trkpt>
      <trkpt lat="46.66625" lon="5.81777">
        <ele>496.3</ele>
        <time>2022-02-24T10:31:44Z</time>
      </trkpt>
      <trkpt lat="46.66629" lon="5.81782">
        <ele>496.8</ele>
        <time>2022-02-24T10:31:48Z</time>
      </trkpt>
      <trkpt lat="46.66634" lon="5.81784">
        <ele>497</ele>
        <time>2022-02-24T10:31:52Z</time>
      </trkpt>
      <trkpt lat="46.66639" lon="5.81784">
        <ele>497.3</ele>
        <time>2022-02-24T10:31:56Z</time>
      </trkpt>
      <trkpt lat="46.66644" lon="5.81785">
        <ele>497.4</ele>
        <time>2022-02-24T10:32:01Z</time>
      </trkpt>
      <trkpt lat="46.66649" lon="5.81786">
        <ele>497.4</ele>
        <time>2022-02-24T10:32:07Z</time>
      </trkpt>
      <trkpt lat="46.66655" lon="5.81787">
        <ele>497.5</ele>
        <time>2022-02-24T10:32:11Z</time>
      </trkpt>
      <trkpt lat="46.6666" lon="5.81789">
        <ele>497</ele>
        <time>2022-02-24T10:32:15Z</time>
      </trkpt>
      <trkpt lat="46.66664" lon="5.81792">
        <ele>496</ele>
        <time>2022-02-24T10:32:20Z</time>
      </trkpt>
      <trkpt lat="46.66668" lon="5.81796">
        <ele>495.3</ele>
        <time>2022-02-24T10:32:25Z</time>
      </trkpt>
      <trkpt lat="46.6667" lon="5.81803">
        <ele>494.8</ele>
        <time>2022-02-24T10:32:31Z</time>
      </trkpt>
      <trkpt lat="46.66673" lon="5.81809">
        <ele>494.4</ele>
        <time>2022-02-24T10:32:37Z</time>
      </trkpt>
      <trkpt lat="46.66671" lon="5.81816">
        <ele>493.5</ele>
        <time>2022-02-24T10:32:42Z</time>
      </trkpt>
      <trkpt lat="46.6667" lon="5.81822">
        <ele>492.7</ele>
        <time>2022-02-24T10:32:47Z</time>
      </trkpt>
      <trkpt lat="46.66667" lon="5.81828">
        <ele>492.3</ele>
        <time>2022-02-24T10:32:51Z</time>
      </trkpt>
      <trkpt lat="46.66665" lon="5.81835">
        <ele>492.4</ele>
        <time>2022-02-24T10:32:56Z</time>
      </trkpt>
      <trkpt lat="46.66664" lon="5.81842">
        <ele>493.3</ele>
        <time>2022-02-24T10:33:03Z</time>
      </trkpt>
      <trkpt lat="46.66662" lon="5.81848">
        <ele>494.5</ele>
        <time>2022-02-24T10:33:07Z</time>
      </trkpt>
      <trkpt lat="46.66659" lon="5.81854">
        <ele>495.8</ele>
        <time>2022-02-24T10:33:11Z</time>
      </trkpt>
      <trkpt lat="46.66658" lon="5.81862">
        <ele>496.8</ele>
        <time>2022-02-24T10:33:16Z</time>
      </trkpt>
      <trkpt lat="46.66656" lon="5.81869">
        <ele>497.7</ele>
        <time>2022-02-24T10:33:20Z</time>
      </trkpt>
      <trkpt lat="46.66658" lon="5.81875">
        <ele>498.3</ele>
        <time>2022-02-24T10:33:24Z</time>
      </trkpt>
      <trkpt lat="46.6666" lon="5.81882">
        <ele>498.9</ele>
        <time>2022-02-24T10:33:28Z</time>
      </trkpt>
      <trkpt lat="46.66663" lon="5.81886">
        <ele>499.1</ele>
        <time>2022-02-24T10:33:33Z</time>
      </trkpt>
      <trkpt lat="46.66666" lon="5.81892">
        <ele>499.2</ele>
        <time>2022-02-24T10:33:38Z</time>
      </trkpt>
      <trkpt lat="46.66668" lon="5.81899">
        <ele>499.7</ele>
        <time>2022-02-24T10:33:45Z</time>
      </trkpt>
      <trkpt lat="46.66667" lon="5.81906">
        <ele>499.5</ele>
        <time>2022-02-24T10:33:50Z</time>
      </trkpt>
      <trkpt lat="46.66666" lon="5.81913">
        <ele>499.4</ele>
        <time>2022-02-24T10:33:54Z</time>
      </trkpt>
      <trkpt lat="46.66666" lon="5.8192">
        <ele>499.7</ele>
        <time>2022-02-24T10:33:58Z</time>
      </trkpt>
      <trkpt lat="46.66667" lon="5.81927">
        <ele>500</ele>
        <time>2022-02-24T10:34:03Z</time>
      </trkpt>
      <trkpt lat="46.66668" lon="5.81934">
        <ele>500.5</ele>
        <time>2022-02-24T10:34:08Z</time>
      </trkpt>
      <trkpt lat="46.66668" lon="5.81941">
        <ele>500.3</ele>
        <time>2022-02-24T10:34:14Z</time>
      </trkpt>
      <trkpt lat="46.66668" lon="5.81948">
        <ele>500</ele>
        <time>2022-02-24T10:34:20Z</time>
      </trkpt>
      <trkpt lat="46.66665" lon="5.81954">
        <ele>499.8</ele>
        <time>2022-02-24T10:34:25Z</time>
      </trkpt>
      <trkpt lat="46.66663" lon="5.81961">
        <ele>499.3</ele>
        <time>2022-02-24T10:34:31Z</time>
      </trkpt>
      <trkpt lat="46.66664" lon="5.81968">
        <ele>499</ele>
        <time>2022-02-24T10:34:35Z</time>
      </trkpt>
      <trkpt lat="46.66668" lon="5.81973">
        <ele>498.8</ele>
        <time>2022-02-24T10:34:41Z</time>
      </trkpt>
      <trkpt lat="46.66672" lon="5.81975">
        <ele>499.1</ele>
        <time>2022-02-24T10:34:46Z</time>
      </trkpt>
      <trkpt lat="46.66677" lon="5.81972">
        <ele>500</ele>
        <time>2022-02-24T10:34:51Z</time>
      </trkpt>
      <trkpt lat="46.66681" lon="5.81969">
        <ele>501.9</ele>
        <time>2022-02-24T10:34:57Z</time>
      </trkpt>
      <trkpt lat="46.66678" lon="5.81974">
        <ele>506.1</ele>
        <time>2022-02-24T10:35:16Z</time>
      </trkpt>
      <trkpt lat="46.66671" lon="5.81975">
        <ele>508.4</ele>
        <time>2022-02-24T10:35:30Z</time>
      </trkpt>
      <trkpt lat="46.66667" lon="5.8197">
        <ele>510.2</ele>
        <time>2022-02-24T10:35:34Z</time>
      </trkpt>
      <trkpt lat="46.66662" lon="5.81967">
        <ele>511.5</ele>
        <time>2022-02-24T10:35:38Z</time>
      </trkpt>
      <trkpt lat="46.66657" lon="5.8197">
        <ele>512.2</ele>
        <time>2022-02-24T10:35:43Z</time>
      </trkpt>
      <trkpt lat="46.66656" lon="5.81976">
        <ele>512.3</ele>
        <time>2022-02-24T10:35:49Z</time>
      </trkpt>
      <trkpt lat="46.66656" lon="5.81983">
        <ele>512.7</ele>
        <time>2022-02-24T10:35:55Z</time>
      </trkpt>
      <trkpt lat="46.66657" lon="5.81989">
        <ele>512.3</ele>
        <time>2022-02-24T10:36:01Z</time>
      </trkpt>
      <trkpt lat="46.66659" lon="5.81996">
        <ele>512</ele>
        <time>2022-02-24T10:36:05Z</time>
      </trkpt>
      <trkpt lat="46.66659" lon="5.82003">
        <ele>511.2</ele>
        <time>2022-02-24T10:36:12Z</time>
      </trkpt>
      <trkpt lat="46.66656" lon="5.82009">
        <ele>511.6</ele>
        <time>2022-02-24T10:36:19Z</time>
      </trkpt>
      <trkpt lat="46.66656" lon="5.82016">
        <ele>516.8</ele>
        <time>2022-02-24T10:36:46Z</time>
      </trkpt>
      <trkpt lat="46.66658" lon="5.82023">
        <ele>518</ele>
        <time>2022-02-24T10:36:51Z</time>
      </trkpt>
      <trkpt lat="46.66659" lon="5.82031">
        <ele>518.4</ele>
        <time>2022-02-24T10:36:57Z</time>
      </trkpt>
      <trkpt lat="46.66658" lon="5.82037">
        <ele>519.3</ele>
        <time>2022-02-24T10:37:10Z</time>
      </trkpt>
      <trkpt lat="46.66662" lon="5.8204">
        <ele>520.1</ele>
        <time>2022-02-24T10:37:24Z</time>
      </trkpt>
      <trkpt lat="46.66665" lon="5.82034">
        <ele>522.3</ele>
        <time>2022-02-24T10:37:30Z</time>
      </trkpt>
      <trkpt lat="46.66665" lon="5.82028">
        <ele>525.8</ele>
        <time>2022-02-24T10:37:40Z</time>
      </trkpt>
      <trkpt lat="46.6667" lon="5.82025">
        <ele>528.6</ele>
        <time>2022-02-24T10:37:54Z</time>
      </trkpt>
      <trkpt lat="46.66674" lon="5.82022">
        <ele>528.8</ele>
        <time>2022-02-24T10:37:58Z</time>
      </trkpt>
      <trkpt lat="46.66677" lon="5.82017">
        <ele>530.4</ele>
        <time>2022-02-24T10:38:05Z</time>
      </trkpt>
      <trkpt lat="46.66681" lon="5.82012">
        <ele>532.4</ele>
        <time>2022-02-24T10:38:15Z</time>
      </trkpt>
      <trkpt lat="46.66683" lon="5.82006">
        <ele>532.5</ele>
        <time>2022-02-24T10:38:21Z</time>
      </trkpt>
      <trkpt lat="46.66688" lon="5.82006">
        <ele>532.8</ele>
        <time>2022-02-24T10:38:28Z</time>
      </trkpt>
      <trkpt lat="46.6669" lon="5.82">
        <ele>534.8</ele>
        <time>2022-02-24T10:38:35Z</time>
      </trkpt>
      <trkpt lat="46.66695" lon="5.81999">
        <ele>537.1</ele>
        <time>2022-02-24T10:38:43Z</time>
      </trkpt>
      <trkpt lat="46.66694" lon="5.82005">
        <ele>538.2</ele>
        <time>2022-02-24T10:38:52Z</time>
      </trkpt>
      <trkpt lat="46.66692" lon="5.82013">
        <ele>538.8</ele>
        <time>2022-02-24T10:38:56Z</time>
      </trkpt>
      <trkpt lat="46.6669" lon="5.82019">
        <ele>539.3</ele>
        <time>2022-02-24T10:39:01Z</time>
      </trkpt>
      <trkpt lat="46.66688" lon="5.82025">
        <ele>540.2</ele>
        <time>2022-02-24T10:39:09Z</time>
      </trkpt>
      <trkpt lat="46.66685" lon="5.8203">
        <ele>542.2</ele>
        <time>2022-02-24T10:39:19Z</time>
      </trkpt>
      <trkpt lat="46.66682" lon="5.82036">
        <ele>544.4</ele>
        <time>2022-02-24T10:39:28Z</time>
      </trkpt>
      <trkpt lat="46.66682" lon="5.82043">
        <ele>545.1</ele>
        <time>2022-02-24T10:39:36Z</time>
      </trkpt>
      <trkpt lat="46.6668" lon="5.82052">
        <ele>547</ele>
        <time>2022-02-24T10:39:48Z</time>
      </trkpt>
      <trkpt lat="46.66677" lon="5.82057">
        <ele>548.1</ele>
        <time>2022-02-24T10:39:56Z</time>
      </trkpt>
      <trkpt lat="46.66677" lon="5.82064">
        <ele>548</ele>
        <time>2022-02-24T10:40:02Z</time>
      </trkpt>
      <trkpt lat="46.66679" lon="5.82071">
        <ele>548</ele>
        <time>2022-02-24T10:40:06Z</time>
      </trkpt>
      <trkpt lat="46.66682" lon="5.82078">
        <ele>547.8</ele>
        <time>2022-02-24T10:40:10Z</time>
      </trkpt>
      <trkpt lat="46.66682" lon="5.82085">
        <ele>547.3</ele>
        <time>2022-02-24T10:40:16Z</time>
      </trkpt>
      <trkpt lat="46.6668" lon="5.82091">
        <ele>547.8</ele>
        <time>2022-02-24T10:40:23Z</time>
      </trkpt>
      <trkpt lat="46.66676" lon="5.82092">
        <ele>549.1</ele>
        <time>2022-02-24T10:40:31Z</time>
      </trkpt>
      <trkpt lat="46.66672" lon="5.82097">
        <ele>550.1</ele>
        <time>2022-02-24T10:40:40Z</time>
      </trkpt>
      <trkpt lat="46.66669" lon="5.82105">
        <ele>551.5</ele>
        <time>2022-02-24T10:40:57Z</time>
      </trkpt>
      <trkpt lat="46.66667" lon="5.82112">
        <ele>552.2</ele>
        <time>2022-02-24T10:41:00Z</time>
      </trkpt>
      <trkpt lat="46.66664" lon="5.82117">
        <ele>553.3</ele>
        <time>2022-02-24T10:41:04Z</time>
      </trkpt>
      <trkpt lat="46.66661" lon="5.82122">
        <ele>554.4</ele>
        <time>2022-02-24T10:41:11Z</time>
      </trkpt>
      <trkpt lat="46.66661" lon="5.8213">
        <ele>555.6</ele>
        <time>2022-02-24T10:41:26Z</time>
      </trkpt>
      <trkpt lat="46.66662" lon="5.82138">
        <ele>556.3</ele>
        <time>2022-02-24T10:41:29Z</time>
      </trkpt>
      <trkpt lat="46.66661" lon="5.82147">
        <ele>557.2</ele>
        <time>2022-02-24T10:41:33Z</time>
      </trkpt>
      <trkpt lat="46.6666" lon="5.82154">
        <ele>558</ele>
        <time>2022-02-24T10:41:37Z</time>
      </trkpt>
      <trkpt lat="46.66659" lon="5.82161">
        <ele>558.5</ele>
        <time>2022-02-24T10:41:42Z</time>
      </trkpt>
      <trkpt lat="46.66658" lon="5.82167">
        <ele>559.5</ele>
        <time>2022-02-24T10:41:48Z</time>
      </trkpt>
      <trkpt lat="46.66656" lon="5.82174">
        <ele>560.6</ele>
        <time>2022-02-24T10:41:56Z</time>
      </trkpt>
      <trkpt lat="46.66652" lon="5.82183">
        <ele>561</ele>
        <time>2022-02-24T10:42:09Z</time>
      </trkpt>
      <trkpt lat="46.66649" lon="5.82189">
        <ele>561.3</ele>
        <time>2022-02-24T10:42:12Z</time>
      </trkpt>
      <trkpt lat="46.66644" lon="5.82195">
        <ele>562.5</ele>
        <time>2022-02-24T10:42:17Z</time>
      </trkpt>
      <trkpt lat="46.66641" lon="5.822">
        <ele>563.7</ele>
        <time>2022-02-24T10:42:21Z</time>
      </trkpt>
      <trkpt lat="46.66637" lon="5.82204">
        <ele>565.3</ele>
        <time>2022-02-24T10:42:26Z</time>
      </trkpt>
      <trkpt lat="46.66634" lon="5.8221">
        <ele>566.8</ele>
        <time>2022-02-24T10:42:33Z</time>
      </trkpt>
      <trkpt lat="46.66632" lon="5.82216">
        <ele>567.7</ele>
        <time>2022-02-24T10:42:39Z</time>
      </trkpt>
      <trkpt lat="46.66631" lon="5.82222">
        <ele>568.8</ele>
        <time>2022-02-24T10:42:46Z</time>
      </trkpt>
      <trkpt lat="46.66627" lon="5.82227">
        <ele>570.4</ele>
        <time>2022-02-24T10:42:54Z</time>
      </trkpt>
      <trkpt lat="46.66623" lon="5.82232">
        <ele>571.7</ele>
        <time>2022-02-24T10:43:05Z</time>
      </trkpt>
      <trkpt lat="46.66619" lon="5.82236">
        <ele>572.3</ele>
        <time>2022-02-24T10:43:11Z</time>
      </trkpt>
      <trkpt lat="46.66619" lon="5.82242">
        <ele>573</ele>
        <time>2022-02-24T10:43:22Z</time>
      </trkpt>
      <trkpt lat="46.66623" lon="5.82247">
        <ele>573.1</ele>
        <time>2022-02-24T10:43:28Z</time>
      </trkpt>
      <trkpt lat="46.66627" lon="5.82251">
        <ele>573.7</ele>
        <time>2022-02-24T10:43:41Z</time>
      </trkpt>
      <trkpt lat="46.66628" lon="5.82259">
        <ele>575.8</ele>
        <time>2022-02-24T10:44:01Z</time>
      </trkpt>
      <trkpt lat="46.66628" lon="5.82265">
        <ele>577.4</ele>
        <time>2022-02-24T10:44:11Z</time>
      </trkpt>
      <trkpt lat="46.66625" lon="5.82271">
        <ele>578.4</ele>
        <time>2022-02-24T10:44:25Z</time>
      </trkpt>
      <trkpt lat="46.66628" lon="5.82277">
        <ele>579.2</ele>
        <time>2022-02-24T10:44:42Z</time>
      </trkpt>
      <trkpt lat="46.6663" lon="5.82283">
        <ele>579.5</ele>
        <time>2022-02-24T10:44:48Z</time>
      </trkpt>
      <trkpt lat="46.66633" lon="5.82279">
        <ele>579.8</ele>
        <time>2022-02-24T10:45:08Z</time>
      </trkpt>
      <trkpt lat="46.66636" lon="5.82272">
        <ele>583.2</ele>
        <time>2022-02-24T10:46:10Z</time>
      </trkpt>
      <trkpt lat="46.66635" lon="5.82265">
        <ele>587.7</ele>
        <time>2022-02-24T10:48:35Z</time>
      </trkpt>
      <trkpt lat="46.66639" lon="5.8226">
        <ele>589.9</ele>
        <time>2022-02-24T10:48:41Z</time>
      </trkpt>
      <trkpt lat="46.66642" lon="5.82255">
        <ele>590.5</ele>
        <time>2022-02-24T10:48:56Z</time>
      </trkpt>
      <trkpt lat="46.66646" lon="5.8225">
        <ele>589.9</ele>
        <time>2022-02-24T10:49:01Z</time>
      </trkpt>
      <trkpt lat="46.66649" lon="5.82245">
        <ele>589.2</ele>
        <time>2022-02-24T10:49:07Z</time>
      </trkpt>
      <trkpt lat="46.66653" lon="5.8224">
        <ele>588</ele>
        <time>2022-02-24T10:49:14Z</time>
      </trkpt>
      <trkpt lat="46.66657" lon="5.82236">
        <ele>587.4</ele>
        <time>2022-02-24T10:49:19Z</time>
      </trkpt>
      <trkpt lat="46.6666" lon="5.82231">
        <ele>586.8</ele>
        <time>2022-02-24T10:49:24Z</time>
      </trkpt>
      <trkpt lat="46.66663" lon="5.82226">
        <ele>585.8</ele>
        <time>2022-02-24T10:49:30Z</time>
      </trkpt>
      <trkpt lat="46.66666" lon="5.82219">
        <ele>584.6</ele>
        <time>2022-02-24T10:49:35Z</time>
      </trkpt>
      <trkpt lat="46.66667" lon="5.82213">
        <ele>583.7</ele>
        <time>2022-02-24T10:49:42Z</time>
      </trkpt>
      <trkpt lat="46.66668" lon="5.82206">
        <ele>583.6</ele>
        <time>2022-02-24T10:49:48Z</time>
      </trkpt>
      <trkpt lat="46.6667" lon="5.822">
        <ele>583.2</ele>
        <time>2022-02-24T10:49:53Z</time>
      </trkpt>
      <trkpt lat="46.66673" lon="5.82193">
        <ele>582.9</ele>
        <time>2022-02-24T10:49:58Z</time>
      </trkpt>
      <trkpt lat="46.66676" lon="5.82187">
        <ele>582</ele>
        <time>2022-02-24T10:50:04Z</time>
      </trkpt>
      <trkpt lat="46.6668" lon="5.82183">
        <ele>581.4</ele>
        <time>2022-02-24T10:50:10Z</time>
      </trkpt>
      <trkpt lat="46.66685" lon="5.82181">
        <ele>581</ele>
        <time>2022-02-24T10:50:15Z</time>
      </trkpt>
      <trkpt lat="46.6669" lon="5.82179">
        <ele>580.9</ele>
        <time>2022-02-24T10:50:20Z</time>
      </trkpt>
      <trkpt lat="46.66694" lon="5.82178">
        <ele>581.1</ele>
        <time>2022-02-24T10:50:26Z</time>
      </trkpt>
      <trkpt lat="46.667" lon="5.82178">
        <ele>581.1</ele>
        <time>2022-02-24T10:50:33Z</time>
      </trkpt>
      <trkpt lat="46.66705" lon="5.82178">
        <ele>581.1</ele>
        <time>2022-02-24T10:50:38Z</time>
      </trkpt>
      <trkpt lat="46.6671" lon="5.8218">
        <ele>581.5</ele>
        <time>2022-02-24T10:50:44Z</time>
      </trkpt>
      <trkpt lat="46.66714" lon="5.82182">
        <ele>581.6</ele>
        <time>2022-02-24T10:50:51Z</time>
      </trkpt>
      <trkpt lat="46.66718" lon="5.82186">
        <ele>581.5</ele>
        <time>2022-02-24T10:50:59Z</time>
      </trkpt>
      <trkpt lat="46.66722" lon="5.82189">
        <ele>581.2</ele>
        <time>2022-02-24T10:51:08Z</time>
      </trkpt>
      <trkpt lat="46.66727" lon="5.8219">
        <ele>581.3</ele>
        <time>2022-02-24T10:51:13Z</time>
      </trkpt>
      <trkpt lat="46.66732" lon="5.82191">
        <ele>581.3</ele>
        <time>2022-02-24T10:51:18Z</time>
      </trkpt>
      <trkpt lat="46.66738" lon="5.82193">
        <ele>581.4</ele>
        <time>2022-02-24T10:51:23Z</time>
      </trkpt>
      <trkpt lat="46.66742" lon="5.82196">
        <ele>581.6</ele>
        <time>2022-02-24T10:51:27Z</time>
      </trkpt>
      <trkpt lat="46.66746" lon="5.822">
        <ele>582.2</ele>
        <time>2022-02-24T10:51:32Z</time>
      </trkpt>
      <trkpt lat="46.66749" lon="5.82206">
        <ele>584.4</ele>
        <time>2022-02-24T10:51:41Z</time>
      </trkpt>
      <trkpt lat="46.66753" lon="5.82209">
        <ele>586.9</ele>
        <time>2022-02-24T10:51:49Z</time>
      </trkpt>
      <trkpt lat="46.66757" lon="5.82204">
        <ele>589.6</ele>
        <time>2022-02-24T10:51:57Z</time>
      </trkpt>
      <trkpt lat="46.66759" lon="5.82197">
        <ele>590.9</ele>
        <time>2022-02-24T10:52:03Z</time>
      </trkpt>
      <trkpt lat="46.66761" lon="5.82192">
        <ele>591.7</ele>
        <time>2022-02-24T10:52:10Z</time>
      </trkpt>
      <trkpt lat="46.66766" lon="5.82189">
        <ele>591.7</ele>
        <time>2022-02-24T10:52:16Z</time>
      </trkpt>
      <trkpt lat="46.66769" lon="5.82184">
        <ele>591.9</ele>
        <time>2022-02-24T10:52:23Z</time>
      </trkpt>
      <trkpt lat="46.66767" lon="5.82179">
        <ele>591.5</ele>
        <time>2022-02-24T10:52:34Z</time>
      </trkpt>
      <trkpt lat="46.66769" lon="5.82173">
        <ele>589.7</ele>
        <time>2022-02-24T10:52:46Z</time>
      </trkpt>
      <trkpt lat="46.66771" lon="5.82167">
        <ele>588.2</ele>
        <time>2022-02-24T10:52:54Z</time>
      </trkpt>
      <trkpt lat="46.66772" lon="5.8216">
        <ele>587.5</ele>
        <time>2022-02-24T10:52:59Z</time>
      </trkpt>
      <trkpt lat="46.66774" lon="5.82153">
        <ele>586.6</ele>
        <time>2022-02-24T10:53:06Z</time>
      </trkpt>
      <trkpt lat="46.66778" lon="5.8215">
        <ele>585.3</ele>
        <time>2022-02-24T10:53:17Z</time>
      </trkpt>
      <trkpt lat="46.66781" lon="5.82144">
        <ele>584.9</ele>
        <time>2022-02-24T10:53:30Z</time>
      </trkpt>
      <trkpt lat="46.66782" lon="5.82137">
        <ele>584.8</ele>
        <time>2022-02-24T10:53:35Z</time>
      </trkpt>
      <trkpt lat="46.66784" lon="5.8213">
        <ele>584.8</ele>
        <time>2022-02-24T10:53:40Z</time>
      </trkpt>
      <trkpt lat="46.66785" lon="5.82123">
        <ele>585.2</ele>
        <time>2022-02-24T10:53:45Z</time>
      </trkpt>
      <trkpt lat="46.66788" lon="5.82117">
        <ele>585.1</ele>
        <time>2022-02-24T10:53:50Z</time>
      </trkpt>
      <trkpt lat="46.6679" lon="5.82111">
        <ele>584.7</ele>
        <time>2022-02-24T10:53:56Z</time>
      </trkpt>
      <trkpt lat="46.66793" lon="5.82104">
        <ele>584.4</ele>
        <time>2022-02-24T10:54:01Z</time>
      </trkpt>
      <trkpt lat="46.66795" lon="5.82098">
        <ele>583.8</ele>
        <time>2022-02-24T10:54:05Z</time>
      </trkpt>
      <trkpt lat="46.66799" lon="5.82092">
        <ele>583.1</ele>
        <time>2022-02-24T10:54:10Z</time>
      </trkpt>
      <trkpt lat="46.66801" lon="5.82086">
        <ele>582.5</ele>
        <time>2022-02-24T10:54:16Z</time>
      </trkpt>
      <trkpt lat="46.66804" lon="5.82079">
        <ele>582.4</ele>
        <time>2022-02-24T10:54:21Z</time>
      </trkpt>
      <trkpt lat="46.66805" lon="5.82072">
        <ele>582.1</ele>
        <time>2022-02-24T10:54:25Z</time>
      </trkpt>
      <trkpt lat="46.66805" lon="5.82065">
        <ele>581.9</ele>
        <time>2022-02-24T10:54:29Z</time>
      </trkpt>
      <trkpt lat="46.66806" lon="5.82058">
        <ele>582.1</ele>
        <time>2022-02-24T10:54:32Z</time>
      </trkpt>
      <trkpt lat="46.66805" lon="5.8205">
        <ele>582.5</ele>
        <time>2022-02-24T10:54:36Z</time>
      </trkpt>
      <trkpt lat="46.66805" lon="5.82043">
        <ele>582.6</ele>
        <time>2022-02-24T10:54:40Z</time>
      </trkpt>
      <trkpt lat="46.66805" lon="5.82036">
        <ele>582.5</ele>
        <time>2022-02-24T10:54:45Z</time>
      </trkpt>
      <trkpt lat="46.66803" lon="5.82029">
        <ele>582.6</ele>
        <time>2022-02-24T10:54:51Z</time>
      </trkpt>
      <trkpt lat="46.668" lon="5.82023">
        <ele>583.3</ele>
        <time>2022-02-24T10:54:57Z</time>
      </trkpt>
      <trkpt lat="46.66798" lon="5.82017">
        <ele>584.6</ele>
        <time>2022-02-24T10:55:02Z</time>
      </trkpt>
      <trkpt lat="46.66794" lon="5.82013">
        <ele>585.5</ele>
        <time>2022-02-24T10:55:07Z</time>
      </trkpt>
      <trkpt lat="46.66792" lon="5.82007">
        <ele>586.5</ele>
        <time>2022-02-24T10:55:12Z</time>
      </trkpt>
      <trkpt lat="46.6679" lon="5.82">
        <ele>587.4</ele>
        <time>2022-02-24T10:55:17Z</time>
      </trkpt>
      <trkpt lat="46.66788" lon="5.81994">
        <ele>588.5</ele>
        <time>2022-02-24T10:55:22Z</time>
      </trkpt>
      <trkpt lat="46.66786" lon="5.81987">
        <ele>589.1</ele>
        <time>2022-02-24T10:55:27Z</time>
      </trkpt>
      <trkpt lat="46.66786" lon="5.81979">
        <ele>589</ele>
        <time>2022-02-24T10:55:32Z</time>
      </trkpt>
      <trkpt lat="46.66785" lon="5.81972">
        <ele>588.6</ele>
        <time>2022-02-24T10:55:37Z</time>
      </trkpt>
      <trkpt lat="46.66783" lon="5.81966">
        <ele>589.2</ele>
        <time>2022-02-24T10:55:42Z</time>
      </trkpt>
      <trkpt lat="46.66782" lon="5.81959">
        <ele>589.7</ele>
        <time>2022-02-24T10:55:47Z</time>
      </trkpt>
      <trkpt lat="46.66782" lon="5.81952">
        <ele>590.2</ele>
        <time>2022-02-24T10:55:53Z</time>
      </trkpt>
      <trkpt lat="46.66782" lon="5.81945">
        <ele>590.8</ele>
        <time>2022-02-24T10:55:57Z</time>
      </trkpt>
      <trkpt lat="46.66781" lon="5.81938">
        <ele>591.4</ele>
        <time>2022-02-24T10:56:01Z</time>
      </trkpt>
      <trkpt lat="46.66782" lon="5.81931">
        <ele>591.6</ele>
        <time>2022-02-24T10:56:05Z</time>
      </trkpt>
      <trkpt lat="46.66783" lon="5.81924">
        <ele>592</ele>
        <time>2022-02-24T10:56:10Z</time>
      </trkpt>
      <trkpt lat="46.66783" lon="5.81917">
        <ele>591.8</ele>
        <time>2022-02-24T10:56:15Z</time>
      </trkpt>
      <trkpt lat="46.66783" lon="5.81909">
        <ele>591.6</ele>
        <time>2022-02-24T10:56:19Z</time>
      </trkpt>
      <trkpt lat="46.66783" lon="5.81902">
        <ele>591.5</ele>
        <time>2022-02-24T10:56:23Z</time>
      </trkpt>
      <trkpt lat="46.66785" lon="5.81895">
        <ele>591.6</ele>
        <time>2022-02-24T10:56:28Z</time>
      </trkpt>
      <trkpt lat="46.66787" lon="5.81889">
        <ele>591.7</ele>
        <time>2022-02-24T10:56:32Z</time>
      </trkpt>
      <trkpt lat="46.66789" lon="5.81882">
        <ele>591.9</ele>
        <time>2022-02-24T10:56:36Z</time>
      </trkpt>
      <trkpt lat="46.6679" lon="5.81875">
        <ele>592.1</ele>
        <time>2022-02-24T10:56:40Z</time>
      </trkpt>
      <trkpt lat="46.66791" lon="5.81868">
        <ele>592.2</ele>
        <time>2022-02-24T10:56:45Z</time>
      </trkpt>
      <trkpt lat="46.66793" lon="5.81862">
        <ele>592.8</ele>
        <time>2022-02-24T10:56:50Z</time>
      </trkpt>
      <trkpt lat="46.66794" lon="5.81855">
        <ele>593.9</ele>
        <time>2022-02-24T10:56:57Z</time>
      </trkpt>
      <trkpt lat="46.66797" lon="5.81849">
        <ele>595</ele>
        <time>2022-02-24T10:57:02Z</time>
      </trkpt>
      <trkpt lat="46.66799" lon="5.81842">
        <ele>595.7</ele>
        <time>2022-02-24T10:57:07Z</time>
      </trkpt>
      <trkpt lat="46.66801" lon="5.81835">
        <ele>596.4</ele>
        <time>2022-02-24T10:57:13Z</time>
      </trkpt>
      <trkpt lat="46.66802" lon="5.81828">
        <ele>596.9</ele>
        <time>2022-02-24T10:57:19Z</time>
      </trkpt>
      <trkpt lat="46.66803" lon="5.81821">
        <ele>597.5</ele>
        <time>2022-02-24T10:57:24Z</time>
      </trkpt>
      <trkpt lat="46.66805" lon="5.81813">
        <ele>598.6</ele>
        <time>2022-02-24T10:57:30Z</time>
      </trkpt>
      <trkpt lat="46.66806" lon="5.81807">
        <ele>599.9</ele>
        <time>2022-02-24T10:57:35Z</time>
      </trkpt>
      <trkpt lat="46.66808" lon="5.81801">
        <ele>601.2</ele>
        <time>2022-02-24T10:57:40Z</time>
      </trkpt>
      <trkpt lat="46.66809" lon="5.81793">
        <ele>602.1</ele>
        <time>2022-02-24T10:57:45Z</time>
      </trkpt>
      <trkpt lat="46.66809" lon="5.81786">
        <ele>602.8</ele>
        <time>2022-02-24T10:57:50Z</time>
      </trkpt>
      <trkpt lat="46.66809" lon="5.81779">
        <ele>603.6</ele>
        <time>2022-02-24T10:57:55Z</time>
      </trkpt>
      <trkpt lat="46.66808" lon="5.81772">
        <ele>604.3</ele>
        <time>2022-02-24T10:58:00Z</time>
      </trkpt>
      <trkpt lat="46.66809" lon="5.81765">
        <ele>604.6</ele>
        <time>2022-02-24T10:58:05Z</time>
      </trkpt>
      <trkpt lat="46.6681" lon="5.81757">
        <ele>604.1</ele>
        <time>2022-02-24T10:58:10Z</time>
      </trkpt>
      <trkpt lat="46.66809" lon="5.81749">
        <ele>603.4</ele>
        <time>2022-02-24T10:58:15Z</time>
      </trkpt>
      <trkpt lat="46.6681" lon="5.81741">
        <ele>603.1</ele>
        <time>2022-02-24T10:58:19Z</time>
      </trkpt>
      <trkpt lat="46.66811" lon="5.81734">
        <ele>603.1</ele>
        <time>2022-02-24T10:58:24Z</time>
      </trkpt>
      <trkpt lat="46.66813" lon="5.81727">
        <ele>603.1</ele>
        <time>2022-02-24T10:58:29Z</time>
      </trkpt>
      <trkpt lat="46.66815" lon="5.81721">
        <ele>602.5</ele>
        <time>2022-02-24T10:58:34Z</time>
      </trkpt>
      <trkpt lat="46.66817" lon="5.81715">
        <ele>601.9</ele>
        <time>2022-02-24T10:58:38Z</time>
      </trkpt>
      <trkpt lat="46.66821" lon="5.81708">
        <ele>600.9</ele>
        <time>2022-02-24T10:58:43Z</time>
      </trkpt>
      <trkpt lat="46.66824" lon="5.81703">
        <ele>600.6</ele>
        <time>2022-02-24T10:58:48Z</time>
      </trkpt>
      <trkpt lat="46.66827" lon="5.81696">
        <ele>600.5</ele>
        <time>2022-02-24T10:58:54Z</time>
      </trkpt>
      <trkpt lat="46.6683" lon="5.81691">
        <ele>600.6</ele>
        <time>2022-02-24T10:58:58Z</time>
      </trkpt>
      <trkpt lat="46.66832" lon="5.81685">
        <ele>600.6</ele>
        <time>2022-02-24T10:59:02Z</time>
      </trkpt>
      <trkpt lat="46.66836" lon="5.81679">
        <ele>601.3</ele>
        <time>2022-02-24T10:59:07Z</time>
      </trkpt>
      <trkpt lat="46.6684" lon="5.81674">
        <ele>602</ele>
        <time>2022-02-24T10:59:12Z</time>
      </trkpt>
      <trkpt lat="46.66843" lon="5.81669">
        <ele>602.3</ele>
        <time>2022-02-24T10:59:16Z</time>
      </trkpt>
      <trkpt lat="46.66846" lon="5.81664">
        <ele>602.5</ele>
        <time>2022-02-24T10:59:20Z</time>
      </trkpt>
      <trkpt lat="46.66849" lon="5.81658">
        <ele>602.4</ele>
        <time>2022-02-24T10:59:24Z</time>
      </trkpt>
      <trkpt lat="46.66852" lon="5.81652">
        <ele>602.3</ele>
        <time>2022-02-24T10:59:29Z</time>
      </trkpt>
      <trkpt lat="46.66856" lon="5.81646">
        <ele>602.3</ele>
        <time>2022-02-24T10:59:34Z</time>
      </trkpt>
      <trkpt lat="46.6686" lon="5.8164">
        <ele>602.2</ele>
        <time>2022-02-24T10:59:39Z</time>
      </trkpt>
      <trkpt lat="46.66863" lon="5.81635">
        <ele>602.3</ele>
        <time>2022-02-24T10:59:43Z</time>
      </trkpt>
      <trkpt lat="46.66866" lon="5.81628">
        <ele>602.3</ele>
        <time>2022-02-24T10:59:48Z</time>
      </trkpt>
      <trkpt lat="46.6687" lon="5.81624">
        <ele>602</ele>
        <time>2022-02-24T10:59:53Z</time>
      </trkpt>
      <trkpt lat="46.66875" lon="5.8162">
        <ele>601.7</ele>
        <time>2022-02-24T10:59:58Z</time>
      </trkpt>
      <trkpt lat="46.66878" lon="5.81614">
        <ele>600.8</ele>
        <time>2022-02-24T11:00:04Z</time>
      </trkpt>
      <trkpt lat="46.66881" lon="5.81607">
        <ele>599.7</ele>
        <time>2022-02-24T11:00:10Z</time>
      </trkpt>
      <trkpt lat="46.66884" lon="5.81602">
        <ele>599.1</ele>
        <time>2022-02-24T11:00:16Z</time>
      </trkpt>
      <trkpt lat="46.66888" lon="5.81598">
        <ele>599.1</ele>
        <time>2022-02-24T11:00:21Z</time>
      </trkpt>
      <trkpt lat="46.66892" lon="5.81593">
        <ele>598.8</ele>
        <time>2022-02-24T11:00:26Z</time>
      </trkpt>
      <trkpt lat="46.66895" lon="5.81587">
        <ele>598.6</ele>
        <time>2022-02-24T11:00:31Z</time>
      </trkpt>
      <trkpt lat="46.66898" lon="5.81582">
        <ele>598.5</ele>
        <time>2022-02-24T11:00:36Z</time>
      </trkpt>
      <trkpt lat="46.66902" lon="5.81576">
        <ele>598.6</ele>
        <time>2022-02-24T11:00:40Z</time>
      </trkpt>
      <trkpt lat="46.66906" lon="5.8157">
        <ele>598.8</ele>
        <time>2022-02-24T11:00:44Z</time>
      </trkpt>
      <trkpt lat="46.66909" lon="5.81564">
        <ele>599.1</ele>
        <time>2022-02-24T11:00:49Z</time>
      </trkpt>
      <trkpt lat="46.66912" lon="5.81558">
        <ele>599.5</ele>
        <time>2022-02-24T11:00:53Z</time>
      </trkpt>
      <trkpt lat="46.66915" lon="5.81551">
        <ele>599.6</ele>
        <time>2022-02-24T11:00:58Z</time>
      </trkpt>
      <trkpt lat="46.66918" lon="5.81546">
        <ele>599.5</ele>
        <time>2022-02-24T11:01:03Z</time>
      </trkpt>
      <trkpt lat="46.66923" lon="5.81542">
        <ele>599.3</ele>
        <time>2022-02-24T11:01:08Z</time>
      </trkpt>
      <trkpt lat="46.66927" lon="5.81536">
        <ele>599.2</ele>
        <time>2022-02-24T11:01:13Z</time>
      </trkpt>
      <trkpt lat="46.6693" lon="5.81529">
        <ele>599.5</ele>
        <time>2022-02-24T11:01:17Z</time>
      </trkpt>
      <trkpt lat="46.66932" lon="5.81523">
        <ele>599.9</ele>
        <time>2022-02-24T11:01:21Z</time>
      </trkpt>
      <trkpt lat="46.66935" lon="5.81517">
        <ele>600.7</ele>
        <time>2022-02-24T11:01:26Z</time>
      </trkpt>
      <trkpt lat="46.66939" lon="5.81512">
        <ele>601.6</ele>
        <time>2022-02-24T11:01:31Z</time>
      </trkpt>
      <trkpt lat="46.66941" lon="5.81506">
        <ele>602.4</ele>
        <time>2022-02-24T11:01:35Z</time>
      </trkpt>
      <trkpt lat="46.66944" lon="5.815">
        <ele>603.4</ele>
        <time>2022-02-24T11:01:40Z</time>
      </trkpt>
      <trkpt lat="46.66948" lon="5.81495">
        <ele>603.7</ele>
        <time>2022-02-24T11:01:45Z</time>
      </trkpt>
      <trkpt lat="46.66952" lon="5.81491">
        <ele>603.8</ele>
        <time>2022-02-24T11:01:49Z</time>
      </trkpt>
      <trkpt lat="46.66957" lon="5.81489">
        <ele>603.9</ele>
        <time>2022-02-24T11:01:54Z</time>
      </trkpt>
      <trkpt lat="46.66963" lon="5.8149">
        <ele>604.1</ele>
        <time>2022-02-24T11:01:58Z</time>
      </trkpt>
      <trkpt lat="46.66968" lon="5.81492">
        <ele>604.1</ele>
        <time>2022-02-24T11:02:03Z</time>
      </trkpt>
      <trkpt lat="46.66973" lon="5.81493">
        <ele>603.9</ele>
        <time>2022-02-24T11:02:08Z</time>
      </trkpt>
      <trkpt lat="46.66978" lon="5.81493">
        <ele>603.3</ele>
        <time>2022-02-24T11:02:13Z</time>
      </trkpt>
      <trkpt lat="46.66983" lon="5.81494">
        <ele>602.9</ele>
        <time>2022-02-24T11:02:18Z</time>
      </trkpt>
      <trkpt lat="46.66987" lon="5.81497">
        <ele>602.4</ele>
        <time>2022-02-24T11:02:25Z</time>
      </trkpt>
      <trkpt lat="46.66991" lon="5.81501">
        <ele>601.6</ele>
        <time>2022-02-24T11:03:02Z</time>
      </trkpt>
      <trkpt lat="46.66986" lon="5.81502">
        <ele>604.4</ele>
        <time>2022-02-24T11:06:20Z</time>
      </trkpt>
      <trkpt lat="46.66978" lon="5.81486">
        <ele>626.5</ele>
        <time>2022-02-24T11:21:06Z</time>
      </trkpt>
      <trkpt lat="46.66982" lon="5.81494">
        <ele>620.2</ele>
        <time>2022-02-24T11:21:08Z</time>
      </trkpt>
      <trkpt lat="46.66984" lon="5.81501">
        <ele>615.4</ele>
        <time>2022-02-24T11:21:13Z</time>
      </trkpt>
      <trkpt lat="46.66992" lon="5.81509">
        <ele>605.5</ele>
        <time>2022-02-24T11:25:53Z</time>
      </trkpt>
      <trkpt lat="46.66977" lon="5.81516">
        <ele>602</ele>
        <time>2022-02-24T11:30:22Z</time>
      </trkpt>
      <trkpt lat="46.66972" lon="5.81511">
        <ele>602.2</ele>
        <time>2022-02-24T11:30:25Z</time>
      </trkpt>
      <trkpt lat="46.66977" lon="5.81509">
        <ele>602.4</ele>
        <time>2022-02-24T11:30:27Z</time>
      </trkpt>
      <trkpt lat="46.66982" lon="5.81508">
        <ele>602.7</ele>
        <time>2022-02-24T11:30:33Z</time>
      </trkpt>
      <trkpt lat="46.66986" lon="5.81505">
        <ele>603.4</ele>
        <time>2022-02-24T11:30:51Z</time>
      </trkpt>
      <trkpt lat="46.66982" lon="5.81498">
        <ele>600.6</ele>
        <time>2022-02-24T11:36:11Z</time>
      </trkpt>
      <trkpt lat="46.66984" lon="5.81504">
        <ele>600.4</ele>
        <time>2022-02-24T11:36:29Z</time>
      </trkpt>
      <trkpt lat="46.66989" lon="5.81501">
        <ele>600</ele>
        <time>2022-02-24T11:38:12Z</time>
      </trkpt>
      <trkpt lat="46.66992" lon="5.81495">
        <ele>599.6</ele>
        <time>2022-02-24T11:38:20Z</time>
      </trkpt>
      <trkpt lat="46.66992" lon="5.81489">
        <ele>599.4</ele>
        <time>2022-02-24T11:38:25Z</time>
      </trkpt>
      <trkpt lat="46.66991" lon="5.81482">
        <ele>599.1</ele>
        <time>2022-02-24T11:38:30Z</time>
      </trkpt>
      <trkpt lat="46.6699" lon="5.81475">
        <ele>598.5</ele>
        <time>2022-02-24T11:38:37Z</time>
      </trkpt>
      <trkpt lat="46.6699" lon="5.81468">
        <ele>597.9</ele>
        <time>2022-02-24T11:38:43Z</time>
      </trkpt>
      <trkpt lat="46.66991" lon="5.8146">
        <ele>597.3</ele>
        <time>2022-02-24T11:38:48Z</time>
      </trkpt>
      <trkpt lat="46.66992" lon="5.81454">
        <ele>596.7</ele>
        <time>2022-02-24T11:38:53Z</time>
      </trkpt>
      <trkpt lat="46.66994" lon="5.81447">
        <ele>596</ele>
        <time>2022-02-24T11:38:58Z</time>
      </trkpt>
      <trkpt lat="46.66993" lon="5.8144">
        <ele>594.9</ele>
        <time>2022-02-24T11:39:02Z</time>
      </trkpt>
      <trkpt lat="46.66991" lon="5.81434">
        <ele>593.6</ele>
        <time>2022-02-24T11:39:05Z</time>
      </trkpt>
      <trkpt lat="46.66989" lon="5.81428">
        <ele>592.4</ele>
        <time>2022-02-24T11:39:08Z</time>
      </trkpt>
      <trkpt lat="46.66986" lon="5.81421">
        <ele>591.1</ele>
        <time>2022-02-24T11:39:11Z</time>
      </trkpt>
      <trkpt lat="46.66983" lon="5.81415">
        <ele>589.5</ele>
        <time>2022-02-24T11:39:14Z</time>
      </trkpt>
      <trkpt lat="46.66979" lon="5.81409">
        <ele>587.7</ele>
        <time>2022-02-24T11:39:18Z</time>
      </trkpt>
      <trkpt lat="46.66978" lon="5.81402">
        <ele>586</ele>
        <time>2022-02-24T11:39:23Z</time>
      </trkpt>
      <trkpt lat="46.66979" lon="5.81395">
        <ele>585.1</ele>
        <time>2022-02-24T11:39:28Z</time>
      </trkpt>
      <trkpt lat="46.66977" lon="5.81389">
        <ele>584.7</ele>
        <time>2022-02-24T11:39:38Z</time>
      </trkpt>
      <trkpt lat="46.6698" lon="5.81384">
        <ele>585.3</ele>
        <time>2022-02-24T11:39:44Z</time>
      </trkpt>
      <trkpt lat="46.66984" lon="5.81378">
        <ele>585.6</ele>
        <time>2022-02-24T11:39:49Z</time>
      </trkpt>
      <trkpt lat="46.66987" lon="5.81372">
        <ele>586.2</ele>
        <time>2022-02-24T11:39:55Z</time>
      </trkpt>
      <trkpt lat="46.66989" lon="5.81366">
        <ele>586.7</ele>
        <time>2022-02-24T11:40:00Z</time>
      </trkpt>
      <trkpt lat="46.66992" lon="5.8136">
        <ele>587.5</ele>
        <time>2022-02-24T11:40:05Z</time>
      </trkpt>
      <trkpt lat="46.66996" lon="5.81357">
        <ele>587.9</ele>
        <time>2022-02-24T11:40:09Z</time>
      </trkpt>
      <trkpt lat="46.67001" lon="5.81357">
        <ele>588.2</ele>
        <time>2022-02-24T11:40:13Z</time>
      </trkpt>
      <trkpt lat="46.67005" lon="5.81359">
        <ele>588.5</ele>
        <time>2022-02-24T11:40:17Z</time>
      </trkpt>
      <trkpt lat="46.6701" lon="5.81361">
        <ele>588.9</ele>
        <time>2022-02-24T11:40:21Z</time>
      </trkpt>
      <trkpt lat="46.67015" lon="5.81363">
        <ele>589.7</ele>
        <time>2022-02-24T11:40:26Z</time>
      </trkpt>
      <trkpt lat="46.6702" lon="5.81364">
        <ele>590.1</ele>
        <time>2022-02-24T11:40:30Z</time>
      </trkpt>
      <trkpt lat="46.67024" lon="5.81364">
        <ele>590.4</ele>
        <time>2022-02-24T11:40:34Z</time>
      </trkpt>
      <trkpt lat="46.67029" lon="5.81366">
        <ele>590.5</ele>
        <time>2022-02-24T11:40:39Z</time>
      </trkpt>
      <trkpt lat="46.67034" lon="5.81367">
        <ele>590.5</ele>
        <time>2022-02-24T11:40:44Z</time>
      </trkpt>
      <trkpt lat="46.67039" lon="5.81366">
        <ele>590.4</ele>
        <time>2022-02-24T11:40:48Z</time>
      </trkpt>
      <trkpt lat="46.67044" lon="5.81364">
        <ele>590.4</ele>
        <time>2022-02-24T11:40:52Z</time>
      </trkpt>
      <trkpt lat="46.67048" lon="5.81361">
        <ele>590.9</ele>
        <time>2022-02-24T11:40:57Z</time>
      </trkpt>
      <trkpt lat="46.67051" lon="5.81356">
        <ele>591</ele>
        <time>2022-02-24T11:41:04Z</time>
      </trkpt>
      <trkpt lat="46.67055" lon="5.81352">
        <ele>590.5</ele>
        <time>2022-02-24T11:41:11Z</time>
      </trkpt>
      <trkpt lat="46.67059" lon="5.81348">
        <ele>590.2</ele>
        <time>2022-02-24T11:41:16Z</time>
      </trkpt>
      <trkpt lat="46.67063" lon="5.81343">
        <ele>590</ele>
        <time>2022-02-24T11:41:21Z</time>
      </trkpt>
      <trkpt lat="46.67067" lon="5.81337">
        <ele>589.8</ele>
        <time>2022-02-24T11:41:25Z</time>
      </trkpt>
      <trkpt lat="46.67071" lon="5.81331">
        <ele>589.7</ele>
        <time>2022-02-24T11:41:28Z</time>
      </trkpt>
      <trkpt lat="46.67074" lon="5.81325">
        <ele>589.5</ele>
        <time>2022-02-24T11:41:31Z</time>
      </trkpt>
      <trkpt lat="46.67078" lon="5.8132">
        <ele>589.1</ele>
        <time>2022-02-24T11:41:35Z</time>
      </trkpt>
      <trkpt lat="46.67082" lon="5.81314">
        <ele>589</ele>
        <time>2022-02-24T11:41:39Z</time>
      </trkpt>
      <trkpt lat="46.67086" lon="5.8131">
        <ele>588.9</ele>
        <time>2022-02-24T11:41:43Z</time>
      </trkpt>
      <trkpt lat="46.6709" lon="5.81305">
        <ele>588.9</ele>
        <time>2022-02-24T11:41:46Z</time>
      </trkpt>
      <trkpt lat="46.67093" lon="5.81301">
        <ele>588.8</ele>
        <time>2022-02-24T11:41:49Z</time>
      </trkpt>
      <trkpt lat="46.67097" lon="5.81296">
        <ele>588.6</ele>
        <time>2022-02-24T11:41:52Z</time>
      </trkpt>
      <trkpt lat="46.67101" lon="5.8129">
        <ele>588.4</ele>
        <time>2022-02-24T11:41:56Z</time>
      </trkpt>
      <trkpt lat="46.67104" lon="5.81284">
        <ele>588.1</ele>
        <time>2022-02-24T11:42:00Z</time>
      </trkpt>
      <trkpt lat="46.67107" lon="5.81279">
        <ele>587.8</ele>
        <time>2022-02-24T11:42:04Z</time>
      </trkpt>
      <trkpt lat="46.6711" lon="5.81274">
        <ele>587.5</ele>
        <time>2022-02-24T11:42:09Z</time>
      </trkpt>
      <trkpt lat="46.67115" lon="5.81269">
        <ele>587.1</ele>
        <time>2022-02-24T11:42:16Z</time>
      </trkpt>
      <trkpt lat="46.67119" lon="5.81269">
        <ele>586.9</ele>
        <time>2022-02-24T11:42:20Z</time>
      </trkpt>
      <trkpt lat="46.67124" lon="5.81265">
        <ele>586.7</ele>
        <time>2022-02-24T11:42:25Z</time>
      </trkpt>
      <trkpt lat="46.67128" lon="5.8126">
        <ele>586.6</ele>
        <time>2022-02-24T11:42:29Z</time>
      </trkpt>
      <trkpt lat="46.67132" lon="5.81255">
        <ele>586.4</ele>
        <time>2022-02-24T11:42:34Z</time>
      </trkpt>
      <trkpt lat="46.67136" lon="5.81251">
        <ele>586.2</ele>
        <time>2022-02-24T11:42:38Z</time>
      </trkpt>
      <trkpt lat="46.6714" lon="5.81246">
        <ele>586.1</ele>
        <time>2022-02-24T11:42:42Z</time>
      </trkpt>
      <trkpt lat="46.67144" lon="5.81242">
        <ele>586</ele>
        <time>2022-02-24T11:42:45Z</time>
      </trkpt>
      <trkpt lat="46.67148" lon="5.81239">
        <ele>585.9</ele>
        <time>2022-02-24T11:42:49Z</time>
      </trkpt>
      <trkpt lat="46.67153" lon="5.81237">
        <ele>585.8</ele>
        <time>2022-02-24T11:42:52Z</time>
      </trkpt>
      <trkpt lat="46.6716" lon="5.81232">
        <ele>585.8</ele>
        <time>2022-02-24T11:42:55Z</time>
      </trkpt>
      <trkpt lat="46.67164" lon="5.8123">
        <ele>585.8</ele>
        <time>2022-02-24T11:42:58Z</time>
      </trkpt>
      <trkpt lat="46.6717" lon="5.81227">
        <ele>585.8</ele>
        <time>2022-02-24T11:43:02Z</time>
      </trkpt>
      <trkpt lat="46.67175" lon="5.81224">
        <ele>585.9</ele>
        <time>2022-02-24T11:43:06Z</time>
      </trkpt>
      <trkpt lat="46.6718" lon="5.81221">
        <ele>585.8</ele>
        <time>2022-02-24T11:43:10Z</time>
      </trkpt>
      <trkpt lat="46.67184" lon="5.81217">
        <ele>585.8</ele>
        <time>2022-02-24T11:43:15Z</time>
      </trkpt>
      <trkpt lat="46.67187" lon="5.81211">
        <ele>585.6</ele>
        <time>2022-02-24T11:43:20Z</time>
      </trkpt>
      <trkpt lat="46.6719" lon="5.81204">
        <ele>585.6</ele>
        <time>2022-02-24T11:43:24Z</time>
      </trkpt>
      <trkpt lat="46.67193" lon="5.81199">
        <ele>585.6</ele>
        <time>2022-02-24T11:43:29Z</time>
      </trkpt>
      <trkpt lat="46.67195" lon="5.81192">
        <ele>585.9</ele>
        <time>2022-02-24T11:43:35Z</time>
      </trkpt>
      <trkpt lat="46.67198" lon="5.81185">
        <ele>586</ele>
        <time>2022-02-24T11:43:39Z</time>
      </trkpt>
      <trkpt lat="46.672" lon="5.81178">
        <ele>585.8</ele>
        <time>2022-02-24T11:43:42Z</time>
      </trkpt>
      <trkpt lat="46.67202" lon="5.81172">
        <ele>585.5</ele>
        <time>2022-02-24T11:43:45Z</time>
      </trkpt>
      <trkpt lat="46.67205" lon="5.81165">
        <ele>585.1</ele>
        <time>2022-02-24T11:43:49Z</time>
      </trkpt>
      <trkpt lat="46.67209" lon="5.81159">
        <ele>584.9</ele>
        <time>2022-02-24T11:43:54Z</time>
      </trkpt>
      <trkpt lat="46.67212" lon="5.81154">
        <ele>584.7</ele>
        <time>2022-02-24T11:43:58Z</time>
      </trkpt>
      <trkpt lat="46.67214" lon="5.81148">
        <ele>584.1</ele>
        <time>2022-02-24T11:44:03Z</time>
      </trkpt>
      <trkpt lat="46.67216" lon="5.8114">
        <ele>583.8</ele>
        <time>2022-02-24T11:44:07Z</time>
      </trkpt>
      <trkpt lat="46.67217" lon="5.81132">
        <ele>583.5</ele>
        <time>2022-02-24T11:44:11Z</time>
      </trkpt>
      <trkpt lat="46.67219" lon="5.81126">
        <ele>583.1</ele>
        <time>2022-02-24T11:44:15Z</time>
      </trkpt>
      <trkpt lat="46.67222" lon="5.81121">
        <ele>582.5</ele>
        <time>2022-02-24T11:44:19Z</time>
      </trkpt>
      <trkpt lat="46.67225" lon="5.81115">
        <ele>581.9</ele>
        <time>2022-02-24T11:44:24Z</time>
      </trkpt>
      <trkpt lat="46.67229" lon="5.81109">
        <ele>581.2</ele>
        <time>2022-02-24T11:44:30Z</time>
      </trkpt>
      <trkpt lat="46.67232" lon="5.81103">
        <ele>580.6</ele>
        <time>2022-02-24T11:44:34Z</time>
      </trkpt>
      <trkpt lat="46.67234" lon="5.81096">
        <ele>579.7</ele>
        <time>2022-02-24T11:44:38Z</time>
      </trkpt>
      <trkpt lat="46.67237" lon="5.8109">
        <ele>578.5</ele>
        <time>2022-02-24T11:44:44Z</time>
      </trkpt>
      <trkpt lat="46.67239" lon="5.81083">
        <ele>577.6</ele>
        <time>2022-02-24T11:44:48Z</time>
      </trkpt>
      <trkpt lat="46.6724" lon="5.81076">
        <ele>576.8</ele>
        <time>2022-02-24T11:44:52Z</time>
      </trkpt>
      <trkpt lat="46.67241" lon="5.81068">
        <ele>576.3</ele>
        <time>2022-02-24T11:44:56Z</time>
      </trkpt>
      <trkpt lat="46.67244" lon="5.81062">
        <ele>576.1</ele>
        <time>2022-02-24T11:45:02Z</time>
      </trkpt>
      <trkpt lat="46.67245" lon="5.81056">
        <ele>576</ele>
        <time>2022-02-24T11:45:07Z</time>
      </trkpt>
      <trkpt lat="46.67245" lon="5.81049">
        <ele>576.1</ele>
        <time>2022-02-24T11:45:11Z</time>
      </trkpt>
      <trkpt lat="46.67246" lon="5.81041">
        <ele>576.5</ele>
        <time>2022-02-24T11:45:16Z</time>
      </trkpt>
      <trkpt lat="46.67247" lon="5.81035">
        <ele>576.9</ele>
        <time>2022-02-24T11:45:19Z</time>
      </trkpt>
      <trkpt lat="46.6725" lon="5.81028">
        <ele>577</ele>
        <time>2022-02-24T11:45:23Z</time>
      </trkpt>
      <trkpt lat="46.67252" lon="5.81021">
        <ele>577.3</ele>
        <time>2022-02-24T11:45:27Z</time>
      </trkpt>
      <trkpt lat="46.67254" lon="5.81015">
        <ele>577.5</ele>
        <time>2022-02-24T11:45:31Z</time>
      </trkpt>
      <trkpt lat="46.67255" lon="5.81008">
        <ele>578.4</ele>
        <time>2022-02-24T11:45:36Z</time>
      </trkpt>
      <trkpt lat="46.67257" lon="5.81001">
        <ele>579.8</ele>
        <time>2022-02-24T11:45:41Z</time>
      </trkpt>
      <trkpt lat="46.67259" lon="5.80995">
        <ele>580.8</ele>
        <time>2022-02-24T11:45:46Z</time>
      </trkpt>
      <trkpt lat="46.67262" lon="5.80988">
        <ele>581.2</ele>
        <time>2022-02-24T11:45:50Z</time>
      </trkpt>
      <trkpt lat="46.67265" lon="5.80982">
        <ele>581.3</ele>
        <time>2022-02-24T11:45:54Z</time>
      </trkpt>
      <trkpt lat="46.67266" lon="5.80975">
        <ele>581.4</ele>
        <time>2022-02-24T11:45:58Z</time>
      </trkpt>
      <trkpt lat="46.67268" lon="5.80968">
        <ele>580.9</ele>
        <time>2022-02-24T11:46:02Z</time>
      </trkpt>
      <trkpt lat="46.6727" lon="5.80962">
        <ele>580.1</ele>
        <time>2022-02-24T11:46:07Z</time>
      </trkpt>
      <trkpt lat="46.67272" lon="5.80955">
        <ele>579.8</ele>
        <time>2022-02-24T11:46:11Z</time>
      </trkpt>
      <trkpt lat="46.67274" lon="5.80949">
        <ele>580</ele>
        <time>2022-02-24T11:46:15Z</time>
      </trkpt>
      <trkpt lat="46.67276" lon="5.80942">
        <ele>580.3</ele>
        <time>2022-02-24T11:46:20Z</time>
      </trkpt>
      <trkpt lat="46.67278" lon="5.80934">
        <ele>580.5</ele>
        <time>2022-02-24T11:46:24Z</time>
      </trkpt>
      <trkpt lat="46.67279" lon="5.80927">
        <ele>580.4</ele>
        <time>2022-02-24T11:46:28Z</time>
      </trkpt>
      <trkpt lat="46.67281" lon="5.8092">
        <ele>580.7</ele>
        <time>2022-02-24T11:46:32Z</time>
      </trkpt>
      <trkpt lat="46.67281" lon="5.80912">
        <ele>581.4</ele>
        <time>2022-02-24T11:46:37Z</time>
      </trkpt>
      <trkpt lat="46.6728" lon="5.80905">
        <ele>582.5</ele>
        <time>2022-02-24T11:46:42Z</time>
      </trkpt>
      <trkpt lat="46.6728" lon="5.80897">
        <ele>583.3</ele>
        <time>2022-02-24T11:46:46Z</time>
      </trkpt>
      <trkpt lat="46.67278" lon="5.8089">
        <ele>583.9</ele>
        <time>2022-02-24T11:46:50Z</time>
      </trkpt>
      <trkpt lat="46.67278" lon="5.80883">
        <ele>584.8</ele>
        <time>2022-02-24T11:46:55Z</time>
      </trkpt>
      <trkpt lat="46.67278" lon="5.80875">
        <ele>585.1</ele>
        <time>2022-02-24T11:47:00Z</time>
      </trkpt>
      <trkpt lat="46.67278" lon="5.80868">
        <ele>584.7</ele>
        <time>2022-02-24T11:47:05Z</time>
      </trkpt>
      <trkpt lat="46.6728" lon="5.80862">
        <ele>583.9</ele>
        <time>2022-02-24T11:47:09Z</time>
      </trkpt>
      <trkpt lat="46.67281" lon="5.80854">
        <ele>582.8</ele>
        <time>2022-02-24T11:47:14Z</time>
      </trkpt>
      <trkpt lat="46.67282" lon="5.80848">
        <ele>582.2</ele>
        <time>2022-02-24T11:47:18Z</time>
      </trkpt>
      <trkpt lat="46.67284" lon="5.8084">
        <ele>581.6</ele>
        <time>2022-02-24T11:47:23Z</time>
      </trkpt>
      <trkpt lat="46.67285" lon="5.80832">
        <ele>581.2</ele>
        <time>2022-02-24T11:47:28Z</time>
      </trkpt>
      <trkpt lat="46.67287" lon="5.80826">
        <ele>580.8</ele>
        <time>2022-02-24T11:47:32Z</time>
      </trkpt>
      <trkpt lat="46.67289" lon="5.80819">
        <ele>580.8</ele>
        <time>2022-02-24T11:47:38Z</time>
      </trkpt>
      <trkpt lat="46.67291" lon="5.80812">
        <ele>580.6</ele>
        <time>2022-02-24T11:47:44Z</time>
      </trkpt>
      <trkpt lat="46.67293" lon="5.80805">
        <ele>581</ele>
        <time>2022-02-24T11:47:49Z</time>
      </trkpt>
      <trkpt lat="46.67297" lon="5.808">
        <ele>581</ele>
        <time>2022-02-24T11:47:54Z</time>
      </trkpt>
      <trkpt lat="46.67299" lon="5.80793">
        <ele>581.2</ele>
        <time>2022-02-24T11:47:59Z</time>
      </trkpt>
      <trkpt lat="46.67301" lon="5.80786">
        <ele>581.6</ele>
        <time>2022-02-24T11:48:03Z</time>
      </trkpt>
      <trkpt lat="46.67304" lon="5.80779">
        <ele>582.1</ele>
        <time>2022-02-24T11:48:08Z</time>
      </trkpt>
      <trkpt lat="46.67307" lon="5.80775">
        <ele>582.8</ele>
        <time>2022-02-24T11:48:12Z</time>
      </trkpt>
      <trkpt lat="46.67311" lon="5.8077">
        <ele>583.7</ele>
        <time>2022-02-24T11:48:16Z</time>
      </trkpt>
      <trkpt lat="46.67313" lon="5.80763">
        <ele>584.2</ele>
        <time>2022-02-24T11:48:21Z</time>
      </trkpt>
      <trkpt lat="46.67315" lon="5.80756">
        <ele>584.1</ele>
        <time>2022-02-24T11:48:26Z</time>
      </trkpt>
      <trkpt lat="46.67317" lon="5.8075">
        <ele>583.7</ele>
        <time>2022-02-24T11:48:31Z</time>
      </trkpt>
      <trkpt lat="46.6732" lon="5.80744">
        <ele>583.5</ele>
        <time>2022-02-24T11:48:35Z</time>
      </trkpt>
      <trkpt lat="46.67322" lon="5.80738">
        <ele>583.4</ele>
        <time>2022-02-24T11:48:39Z</time>
      </trkpt>
      <trkpt lat="46.67324" lon="5.8073">
        <ele>583.4</ele>
        <time>2022-02-24T11:48:44Z</time>
      </trkpt>
      <trkpt lat="46.67326" lon="5.80723">
        <ele>583.2</ele>
        <time>2022-02-24T11:48:48Z</time>
      </trkpt>
      <trkpt lat="46.67328" lon="5.80716">
        <ele>583</ele>
        <time>2022-02-24T11:48:52Z</time>
      </trkpt>
      <trkpt lat="46.6733" lon="5.80709">
        <ele>582.8</ele>
        <time>2022-02-24T11:48:57Z</time>
      </trkpt>
      <trkpt lat="46.67333" lon="5.80702">
        <ele>582.8</ele>
        <time>2022-02-24T11:49:02Z</time>
      </trkpt>
      <trkpt lat="46.67336" lon="5.80697">
        <ele>582.7</ele>
        <time>2022-02-24T11:49:06Z</time>
      </trkpt>
      <trkpt lat="46.6734" lon="5.80692">
        <ele>582.6</ele>
        <time>2022-02-24T11:49:10Z</time>
      </trkpt>
      <trkpt lat="46.67343" lon="5.80686">
        <ele>582.6</ele>
        <time>2022-02-24T11:49:15Z</time>
      </trkpt>
      <trkpt lat="46.67347" lon="5.80681">
        <ele>582.5</ele>
        <time>2022-02-24T11:49:20Z</time>
      </trkpt>
      <trkpt lat="46.6735" lon="5.80675">
        <ele>582.1</ele>
        <time>2022-02-24T11:49:25Z</time>
      </trkpt>
      <trkpt lat="46.67352" lon="5.80668">
        <ele>581.7</ele>
        <time>2022-02-24T11:49:29Z</time>
      </trkpt>
      <trkpt lat="46.67354" lon="5.80661">
        <ele>581.7</ele>
        <time>2022-02-24T11:49:33Z</time>
      </trkpt>
      <trkpt lat="46.67355" lon="5.80654">
        <ele>581.9</ele>
        <time>2022-02-24T11:49:38Z</time>
      </trkpt>
      <trkpt lat="46.67357" lon="5.80647">
        <ele>582.2</ele>
        <time>2022-02-24T11:49:42Z</time>
      </trkpt>
      <trkpt lat="46.67359" lon="5.80641">
        <ele>582.6</ele>
        <time>2022-02-24T11:49:46Z</time>
      </trkpt>
      <trkpt lat="46.67361" lon="5.80634">
        <ele>583.1</ele>
        <time>2022-02-24T11:49:50Z</time>
      </trkpt>
      <trkpt lat="46.67362" lon="5.80627">
        <ele>583.5</ele>
        <time>2022-02-24T11:49:55Z</time>
      </trkpt>
      <trkpt lat="46.67365" lon="5.80621">
        <ele>584.8</ele>
        <time>2022-02-24T11:50:01Z</time>
      </trkpt>
      <trkpt lat="46.67369" lon="5.80618">
        <ele>587.4</ele>
        <time>2022-02-24T11:50:13Z</time>
      </trkpt>
      <trkpt lat="46.67374" lon="5.80619">
        <ele>587.8</ele>
        <time>2022-02-24T11:50:20Z</time>
      </trkpt>
      <trkpt lat="46.67378" lon="5.80623">
        <ele>587.7</ele>
        <time>2022-02-24T11:50:26Z</time>
      </trkpt>
      <trkpt lat="46.67381" lon="5.80628">
        <ele>586.9</ele>
        <time>2022-02-24T11:50:32Z</time>
      </trkpt>
      <trkpt lat="46.67386" lon="5.80632">
        <ele>585.7</ele>
        <time>2022-02-24T11:50:38Z</time>
      </trkpt>
      <trkpt lat="46.6739" lon="5.80635">
        <ele>584.5</ele>
        <time>2022-02-24T11:50:43Z</time>
      </trkpt>
      <trkpt lat="46.67396" lon="5.80637">
        <ele>584</ele>
        <time>2022-02-24T11:50:48Z</time>
      </trkpt>
      <trkpt lat="46.67401" lon="5.80639">
        <ele>584</ele>
        <time>2022-02-24T11:50:53Z</time>
      </trkpt>
      <trkpt lat="46.67406" lon="5.8064">
        <ele>583.9</ele>
        <time>2022-02-24T11:50:56Z</time>
      </trkpt>
      <trkpt lat="46.67411" lon="5.80643">
        <ele>584.2</ele>
        <time>2022-02-24T11:51:01Z</time>
      </trkpt>
      <trkpt lat="46.67416" lon="5.80645">
        <ele>585.4</ele>
        <time>2022-02-24T11:51:08Z</time>
      </trkpt>
      <trkpt lat="46.67421" lon="5.80646">
        <ele>585.9</ele>
        <time>2022-02-24T11:51:13Z</time>
      </trkpt>
      <trkpt lat="46.67426" lon="5.80644">
        <ele>585.8</ele>
        <time>2022-02-24T11:51:20Z</time>
      </trkpt>
      <trkpt lat="46.6743" lon="5.8064">
        <ele>585.5</ele>
        <time>2022-02-24T11:51:25Z</time>
      </trkpt>
      <trkpt lat="46.67434" lon="5.80635">
        <ele>584.9</ele>
        <time>2022-02-24T11:51:29Z</time>
      </trkpt>
      <trkpt lat="46.67437" lon="5.8063">
        <ele>584.8</ele>
        <time>2022-02-24T11:51:33Z</time>
      </trkpt>
      <trkpt lat="46.67442" lon="5.80628">
        <ele>584.6</ele>
        <time>2022-02-24T11:51:38Z</time>
      </trkpt>
      <trkpt lat="46.67447" lon="5.80629">
        <ele>584.6</ele>
        <time>2022-02-24T11:51:43Z</time>
      </trkpt>
      <trkpt lat="46.67451" lon="5.80628">
        <ele>584.5</ele>
        <time>2022-02-24T11:51:48Z</time>
      </trkpt>
      <trkpt lat="46.67456" lon="5.80626">
        <ele>584.2</ele>
        <time>2022-02-24T11:51:52Z</time>
      </trkpt>
      <trkpt lat="46.67461" lon="5.80625">
        <ele>584</ele>
        <time>2022-02-24T11:51:56Z</time>
      </trkpt>
      <trkpt lat="46.67466" lon="5.80621">
        <ele>583.7</ele>
        <time>2022-02-24T11:52:02Z</time>
      </trkpt>
      <trkpt lat="46.67471" lon="5.8062">
        <ele>583.2</ele>
        <time>2022-02-24T11:52:06Z</time>
      </trkpt>
      <trkpt lat="46.67475" lon="5.80616">
        <ele>583</ele>
        <time>2022-02-24T11:52:10Z</time>
      </trkpt>
      <trkpt lat="46.6748" lon="5.80612">
        <ele>583.4</ele>
        <time>2022-02-24T11:52:14Z</time>
      </trkpt>
      <trkpt lat="46.67484" lon="5.80609">
        <ele>584</ele>
        <time>2022-02-24T11:52:18Z</time>
      </trkpt>
      <trkpt lat="46.67488" lon="5.80605">
        <ele>584.7</ele>
        <time>2022-02-24T11:52:22Z</time>
      </trkpt>
      <trkpt lat="46.67492" lon="5.80602">
        <ele>585.1</ele>
        <time>2022-02-24T11:52:27Z</time>
      </trkpt>
      <trkpt lat="46.67498" lon="5.80599">
        <ele>585.8</ele>
        <time>2022-02-24T11:52:32Z</time>
      </trkpt>
      <trkpt lat="46.67502" lon="5.80595">
        <ele>586.8</ele>
        <time>2022-02-24T11:52:36Z</time>
      </trkpt>
      <trkpt lat="46.67506" lon="5.80591">
        <ele>587.6</ele>
        <time>2022-02-24T11:52:40Z</time>
      </trkpt>
      <trkpt lat="46.67511" lon="5.80588">
        <ele>588.2</ele>
        <time>2022-02-24T11:52:44Z</time>
      </trkpt>
      <trkpt lat="46.67515" lon="5.80584">
        <ele>588.4</ele>
        <time>2022-02-24T11:52:48Z</time>
      </trkpt>
      <trkpt lat="46.67519" lon="5.8058">
        <ele>588.6</ele>
        <time>2022-02-24T11:52:55Z</time>
      </trkpt>
      <trkpt lat="46.67523" lon="5.80577">
        <ele>588.8</ele>
        <time>2022-02-24T11:52:59Z</time>
      </trkpt>
      <trkpt lat="46.67528" lon="5.80573">
        <ele>589.2</ele>
        <time>2022-02-24T11:53:03Z</time>
      </trkpt>
      <trkpt lat="46.67532" lon="5.80569">
        <ele>590.9</ele>
        <time>2022-02-24T11:53:09Z</time>
      </trkpt>
      <trkpt lat="46.67537" lon="5.80565">
        <ele>593.4</ele>
        <time>2022-02-24T11:53:16Z</time>
      </trkpt>
      <trkpt lat="46.67541" lon="5.80561">
        <ele>594.5</ele>
        <time>2022-02-24T11:53:20Z</time>
      </trkpt>
      <trkpt lat="46.67546" lon="5.80559">
        <ele>595.5</ele>
        <time>2022-02-24T11:53:25Z</time>
      </trkpt>
      <trkpt lat="46.6755" lon="5.80556">
        <ele>596.3</ele>
        <time>2022-02-24T11:53:30Z</time>
      </trkpt>
      <trkpt lat="46.67554" lon="5.80552">
        <ele>596.6</ele>
        <time>2022-02-24T11:53:34Z</time>
      </trkpt>
      <trkpt lat="46.67558" lon="5.80548">
        <ele>596.9</ele>
        <time>2022-02-24T11:53:42Z</time>
      </trkpt>
      <trkpt lat="46.67563" lon="5.80545">
        <ele>597.4</ele>
        <time>2022-02-24T11:53:47Z</time>
      </trkpt>
      <trkpt lat="46.67567" lon="5.80543">
        <ele>597</ele>
        <time>2022-02-24T11:53:54Z</time>
      </trkpt>
      <trkpt lat="46.67572" lon="5.80542">
        <ele>597.1</ele>
        <time>2022-02-24T11:53:59Z</time>
      </trkpt>
      <trkpt lat="46.67578" lon="5.80541">
        <ele>597.6</ele>
        <time>2022-02-24T11:54:03Z</time>
      </trkpt>
      <trkpt lat="46.67583" lon="5.8054">
        <ele>597.3</ele>
        <time>2022-02-24T11:54:10Z</time>
      </trkpt>
      <trkpt lat="46.67588" lon="5.80539">
        <ele>597.1</ele>
        <time>2022-02-24T11:54:14Z</time>
      </trkpt>
      <trkpt lat="46.67594" lon="5.80539">
        <ele>597</ele>
        <time>2022-02-24T11:54:18Z</time>
      </trkpt>
      <trkpt lat="46.67599" lon="5.8054">
        <ele>597.3</ele>
        <time>2022-02-24T11:54:21Z</time>
      </trkpt>
      <trkpt lat="46.67604" lon="5.8054">
        <ele>597.7</ele>
        <time>2022-02-24T11:54:24Z</time>
      </trkpt>
      <trkpt lat="46.67609" lon="5.80541">
        <ele>598.3</ele>
        <time>2022-02-24T11:54:28Z</time>
      </trkpt>
      <trkpt lat="46.67614" lon="5.80544">
        <ele>598.6</ele>
        <time>2022-02-24T11:54:34Z</time>
      </trkpt>
      <trkpt lat="46.67619" lon="5.80544">
        <ele>599.2</ele>
        <time>2022-02-24T11:54:40Z</time>
      </trkpt>
      <trkpt lat="46.67623" lon="5.80544">
        <ele>600</ele>
        <time>2022-02-24T11:54:44Z</time>
      </trkpt>
      <trkpt lat="46.67629" lon="5.80545">
        <ele>600.5</ele>
        <time>2022-02-24T11:54:50Z</time>
      </trkpt>
      <trkpt lat="46.67634" lon="5.80546">
        <ele>598</ele>
        <time>2022-02-24T11:54:59Z</time>
      </trkpt>
      <trkpt lat="46.67638" lon="5.80542">
        <ele>595.8</ele>
        <time>2022-02-24T11:55:04Z</time>
      </trkpt>
      <trkpt lat="46.67643" lon="5.80541">
        <ele>594.6</ele>
        <time>2022-02-24T11:55:08Z</time>
      </trkpt>
      <trkpt lat="46.67648" lon="5.8054">
        <ele>593.5</ele>
        <time>2022-02-24T11:55:13Z</time>
      </trkpt>
      <trkpt lat="46.67652" lon="5.80537">
        <ele>592.1</ele>
        <time>2022-02-24T11:55:18Z</time>
      </trkpt>
      <trkpt lat="46.67657" lon="5.80532">
        <ele>591.8</ele>
        <time>2022-02-24T11:55:24Z</time>
      </trkpt>
      <trkpt lat="46.67661" lon="5.80531">
        <ele>592.5</ele>
        <time>2022-02-24T11:55:28Z</time>
      </trkpt>
      <trkpt lat="46.67667" lon="5.80528">
        <ele>594</ele>
        <time>2022-02-24T11:55:32Z</time>
      </trkpt>
      <trkpt lat="46.67672" lon="5.80526">
        <ele>596</ele>
        <time>2022-02-24T11:55:36Z</time>
      </trkpt>
      <trkpt lat="46.67677" lon="5.80524">
        <ele>599.4</ele>
        <time>2022-02-24T11:55:43Z</time>
      </trkpt>
      <trkpt lat="46.67682" lon="5.80523">
        <ele>600.9</ele>
        <time>2022-02-24T11:55:46Z</time>
      </trkpt>
      <trkpt lat="46.67688" lon="5.80523">
        <ele>602.4</ele>
        <time>2022-02-24T11:55:49Z</time>
      </trkpt>
      <trkpt lat="46.67693" lon="5.80523">
        <ele>604.6</ele>
        <time>2022-02-24T11:55:54Z</time>
      </trkpt>
      <trkpt lat="46.67698" lon="5.80525">
        <ele>607</ele>
        <time>2022-02-24T11:56:04Z</time>
      </trkpt>
      <trkpt lat="46.67702" lon="5.80523">
        <ele>608.3</ele>
        <time>2022-02-24T11:56:12Z</time>
      </trkpt>
      <trkpt lat="46.67707" lon="5.80521">
        <ele>607.3</ele>
        <time>2022-02-24T11:56:18Z</time>
      </trkpt>
      <trkpt lat="46.67711" lon="5.80518">
        <ele>605.7</ele>
        <time>2022-02-24T11:56:25Z</time>
      </trkpt>
      <trkpt lat="46.67716" lon="5.80515">
        <ele>604.2</ele>
        <time>2022-02-24T11:56:30Z</time>
      </trkpt>
      <trkpt lat="46.67721" lon="5.80512">
        <ele>602.4</ele>
        <time>2022-02-24T11:56:36Z</time>
      </trkpt>
      <trkpt lat="46.67726" lon="5.80512">
        <ele>601.3</ele>
        <time>2022-02-24T11:56:40Z</time>
      </trkpt>
      <trkpt lat="46.67731" lon="5.80512">
        <ele>600.4</ele>
        <time>2022-02-24T11:56:44Z</time>
      </trkpt>
      <trkpt lat="46.67736" lon="5.80511">
        <ele>600</ele>
        <time>2022-02-24T11:56:47Z</time>
      </trkpt>
      <trkpt lat="46.67742" lon="5.8051">
        <ele>599.8</ele>
        <time>2022-02-24T11:56:50Z</time>
      </trkpt>
      <trkpt lat="46.67746" lon="5.80507">
        <ele>599.7</ele>
        <time>2022-02-24T11:56:53Z</time>
      </trkpt>
      <trkpt lat="46.67751" lon="5.80504">
        <ele>599.7</ele>
        <time>2022-02-24T11:56:59Z</time>
      </trkpt>
      <trkpt lat="46.67756" lon="5.80501">
        <ele>599.7</ele>
        <time>2022-02-24T11:57:12Z</time>
      </trkpt>
      <trkpt lat="46.6776" lon="5.80498">
        <ele>600.2</ele>
        <time>2022-02-24T11:57:17Z</time>
      </trkpt>
      <trkpt lat="46.67765" lon="5.80497">
        <ele>600.9</ele>
        <time>2022-02-24T11:57:22Z</time>
      </trkpt>
      <trkpt lat="46.67769" lon="5.80494">
        <ele>601.4</ele>
        <time>2022-02-24T11:57:27Z</time>
      </trkpt>
      <trkpt lat="46.67774" lon="5.80493">
        <ele>601.7</ele>
        <time>2022-02-24T11:57:36Z</time>
      </trkpt>
      <trkpt lat="46.6778" lon="5.80493">
        <ele>601.9</ele>
        <time>2022-02-24T11:57:41Z</time>
      </trkpt>
      <trkpt lat="46.67786" lon="5.80491">
        <ele>601.9</ele>
        <time>2022-02-24T11:57:45Z</time>
      </trkpt>
      <trkpt lat="46.67791" lon="5.8049">
        <ele>601.9</ele>
        <time>2022-02-24T11:57:48Z</time>
      </trkpt>
      <trkpt lat="46.67796" lon="5.80492">
        <ele>601.8</ele>
        <time>2022-02-24T11:57:51Z</time>
      </trkpt>
      <trkpt lat="46.678" lon="5.80492">
        <ele>601.7</ele>
        <time>2022-02-24T11:57:54Z</time>
      </trkpt>
      <trkpt lat="46.67805" lon="5.80493">
        <ele>601.5</ele>
        <time>2022-02-24T11:57:58Z</time>
      </trkpt>
      <trkpt lat="46.67809" lon="5.80494">
        <ele>600.9</ele>
        <time>2022-02-24T11:58:03Z</time>
      </trkpt>
      <trkpt lat="46.67814" lon="5.80496">
        <ele>600</ele>
        <time>2022-02-24T11:58:09Z</time>
      </trkpt>
      <trkpt lat="46.67819" lon="5.80497">
        <ele>598.4</ele>
        <time>2022-02-24T11:58:15Z</time>
      </trkpt>
      <trkpt lat="46.67824" lon="5.80496">
        <ele>597</ele>
        <time>2022-02-24T11:58:20Z</time>
      </trkpt>
      <trkpt lat="46.67829" lon="5.80495">
        <ele>595.3</ele>
        <time>2022-02-24T11:58:26Z</time>
      </trkpt>
      <trkpt lat="46.67832" lon="5.80491">
        <ele>593.5</ele>
        <time>2022-02-24T11:58:32Z</time>
      </trkpt>
      <trkpt lat="46.67836" lon="5.80487">
        <ele>592.4</ele>
        <time>2022-02-24T11:58:38Z</time>
      </trkpt>
      <trkpt lat="46.67842" lon="5.80487">
        <ele>592.1</ele>
        <time>2022-02-24T11:58:44Z</time>
      </trkpt>
      <trkpt lat="46.67847" lon="5.80488">
        <ele>592</ele>
        <time>2022-02-24T11:58:48Z</time>
      </trkpt>
      <trkpt lat="46.67852" lon="5.8049">
        <ele>591.8</ele>
        <time>2022-02-24T11:58:52Z</time>
      </trkpt>
      <trkpt lat="46.67856" lon="5.80495">
        <ele>591.8</ele>
        <time>2022-02-24T11:58:56Z</time>
      </trkpt>
      <trkpt lat="46.67858" lon="5.80502">
        <ele>591.1</ele>
        <time>2022-02-24T11:59:01Z</time>
      </trkpt>
      <trkpt lat="46.67858" lon="5.80509">
        <ele>590</ele>
        <time>2022-02-24T11:59:06Z</time>
      </trkpt>
      <trkpt lat="46.67857" lon="5.80515">
        <ele>589</ele>
        <time>2022-02-24T11:59:11Z</time>
      </trkpt>
      <trkpt lat="46.67855" lon="5.80522">
        <ele>588.1</ele>
        <time>2022-02-24T11:59:16Z</time>
      </trkpt>
      <trkpt lat="46.67855" lon="5.8053">
        <ele>587.5</ele>
        <time>2022-02-24T11:59:21Z</time>
      </trkpt>
      <trkpt lat="46.67854" lon="5.80536">
        <ele>587.1</ele>
        <time>2022-02-24T11:59:25Z</time>
      </trkpt>
      <trkpt lat="46.67851" lon="5.80542">
        <ele>586.3</ele>
        <time>2022-02-24T11:59:30Z</time>
      </trkpt>
      <trkpt lat="46.67851" lon="5.80549">
        <ele>585.9</ele>
        <time>2022-02-24T11:59:36Z</time>
      </trkpt>
      <trkpt lat="46.67851" lon="5.80557">
        <ele>585.4</ele>
        <time>2022-02-24T11:59:41Z</time>
      </trkpt>
      <trkpt lat="46.67851" lon="5.80565">
        <ele>585.1</ele>
        <time>2022-02-24T11:59:46Z</time>
      </trkpt>
      <trkpt lat="46.67851" lon="5.80572">
        <ele>584.9</ele>
        <time>2022-02-24T11:59:52Z</time>
      </trkpt>
      <trkpt lat="46.67849" lon="5.80579">
        <ele>585.3</ele>
        <time>2022-02-24T11:59:57Z</time>
      </trkpt>
      <trkpt lat="46.67849" lon="5.80586">
        <ele>585.8</ele>
        <time>2022-02-24T12:00:01Z</time>
      </trkpt>
      <trkpt lat="46.67848" lon="5.80594">
        <ele>586.4</ele>
        <time>2022-02-24T12:00:06Z</time>
      </trkpt>
      <trkpt lat="46.67846" lon="5.80601">
        <ele>587.1</ele>
        <time>2022-02-24T12:00:11Z</time>
      </trkpt>
      <trkpt lat="46.67846" lon="5.80608">
        <ele>587.6</ele>
        <time>2022-02-24T12:00:15Z</time>
      </trkpt>
      <trkpt lat="46.67846" lon="5.80615">
        <ele>587.6</ele>
        <time>2022-02-24T12:00:21Z</time>
      </trkpt>
      <trkpt lat="46.67844" lon="5.80622">
        <ele>587.2</ele>
        <time>2022-02-24T12:00:26Z</time>
      </trkpt>
      <trkpt lat="46.67844" lon="5.8063">
        <ele>586.7</ele>
        <time>2022-02-24T12:00:31Z</time>
      </trkpt>
      <trkpt lat="46.67842" lon="5.80639">
        <ele>586.5</ele>
        <time>2022-02-24T12:00:35Z</time>
      </trkpt>
      <trkpt lat="46.67841" lon="5.80647">
        <ele>586.2</ele>
        <time>2022-02-24T12:00:39Z</time>
      </trkpt>
      <trkpt lat="46.67839" lon="5.80655">
        <ele>586.5</ele>
        <time>2022-02-24T12:00:44Z</time>
      </trkpt>
      <trkpt lat="46.67838" lon="5.80661">
        <ele>587.1</ele>
        <time>2022-02-24T12:00:48Z</time>
      </trkpt>
      <trkpt lat="46.67837" lon="5.80669">
        <ele>587.6</ele>
        <time>2022-02-24T12:00:53Z</time>
      </trkpt>
      <trkpt lat="46.67837" lon="5.80677">
        <ele>588.2</ele>
        <time>2022-02-24T12:00:58Z</time>
      </trkpt>
      <trkpt lat="46.67835" lon="5.80683">
        <ele>588.7</ele>
        <time>2022-02-24T12:01:02Z</time>
      </trkpt>
      <trkpt lat="46.67833" lon="5.8069">
        <ele>589.4</ele>
        <time>2022-02-24T12:01:07Z</time>
      </trkpt>
      <trkpt lat="46.67833" lon="5.80698">
        <ele>589.9</ele>
        <time>2022-02-24T12:01:12Z</time>
      </trkpt>
      <trkpt lat="46.67833" lon="5.80706">
        <ele>589.8</ele>
        <time>2022-02-24T12:01:17Z</time>
      </trkpt>
      <trkpt lat="46.67832" lon="5.80713">
        <ele>589.7</ele>
        <time>2022-02-24T12:01:22Z</time>
      </trkpt>
      <trkpt lat="46.67833" lon="5.8072">
        <ele>589.7</ele>
        <time>2022-02-24T12:01:26Z</time>
      </trkpt>
      <trkpt lat="46.67834" lon="5.80726">
        <ele>589.8</ele>
        <time>2022-02-24T12:01:30Z</time>
      </trkpt>
      <trkpt lat="46.67834" lon="5.80734">
        <ele>590.3</ele>
        <time>2022-02-24T12:01:36Z</time>
      </trkpt>
      <trkpt lat="46.67834" lon="5.80742">
        <ele>590.5</ele>
        <time>2022-02-24T12:01:41Z</time>
      </trkpt>
      <trkpt lat="46.67834" lon="5.80749">
        <ele>590.8</ele>
        <time>2022-02-24T12:01:46Z</time>
      </trkpt>
      <trkpt lat="46.67835" lon="5.80756">
        <ele>591</ele>
        <time>2022-02-24T12:01:51Z</time>
      </trkpt>
      <trkpt lat="46.67835" lon="5.80763">
        <ele>591.4</ele>
        <time>2022-02-24T12:01:55Z</time>
      </trkpt>
      <trkpt lat="46.67835" lon="5.80771">
        <ele>591.8</ele>
        <time>2022-02-24T12:02:00Z</time>
      </trkpt>
      <trkpt lat="46.67836" lon="5.80779">
        <ele>591.9</ele>
        <time>2022-02-24T12:02:05Z</time>
      </trkpt>
      <trkpt lat="46.67837" lon="5.80786">
        <ele>591.9</ele>
        <time>2022-02-24T12:02:10Z</time>
      </trkpt>
      <trkpt lat="46.67838" lon="5.80793">
        <ele>592.1</ele>
        <time>2022-02-24T12:02:15Z</time>
      </trkpt>
      <trkpt lat="46.67838" lon="5.808">
        <ele>592.4</ele>
        <time>2022-02-24T12:02:21Z</time>
      </trkpt>
      <trkpt lat="46.67839" lon="5.80807">
        <ele>592.7</ele>
        <time>2022-02-24T12:02:26Z</time>
      </trkpt>
      <trkpt lat="46.67841" lon="5.80813">
        <ele>593</ele>
        <time>2022-02-24T12:02:31Z</time>
      </trkpt>
      <trkpt lat="46.67841" lon="5.8082">
        <ele>592.7</ele>
        <time>2022-02-24T12:02:36Z</time>
      </trkpt>
      <trkpt lat="46.67839" lon="5.80828">
        <ele>592</ele>
        <time>2022-02-24T12:02:40Z</time>
      </trkpt>
      <trkpt lat="46.67838" lon="5.80835">
        <ele>591.3</ele>
        <time>2022-02-24T12:02:44Z</time>
      </trkpt>
      <trkpt lat="46.67839" lon="5.80842">
        <ele>590.8</ele>
        <time>2022-02-24T12:02:49Z</time>
      </trkpt>
      <trkpt lat="46.67841" lon="5.80848">
        <ele>590.5</ele>
        <time>2022-02-24T12:02:54Z</time>
      </trkpt>
      <trkpt lat="46.67842" lon="5.80855">
        <ele>590.1</ele>
        <time>2022-02-24T12:02:58Z</time>
      </trkpt>
      <trkpt lat="46.67844" lon="5.80862">
        <ele>589.7</ele>
        <time>2022-02-24T12:03:02Z</time>
      </trkpt>
      <trkpt lat="46.67846" lon="5.80868">
        <ele>588.9</ele>
        <time>2022-02-24T12:03:07Z</time>
      </trkpt>
      <trkpt lat="46.6785" lon="5.80873">
        <ele>588.3</ele>
        <time>2022-02-24T12:03:11Z</time>
      </trkpt>
      <trkpt lat="46.67853" lon="5.80878">
        <ele>588</ele>
        <time>2022-02-24T12:03:15Z</time>
      </trkpt>
      <trkpt lat="46.67853" lon="5.80886">
        <ele>587.6</ele>
        <time>2022-02-24T12:03:20Z</time>
      </trkpt>
      <trkpt lat="46.67854" lon="5.80892">
        <ele>585.8</ele>
        <time>2022-02-24T12:03:27Z</time>
      </trkpt>
      <trkpt lat="46.67855" lon="5.809">
        <ele>584</ele>
        <time>2022-02-24T12:03:32Z</time>
      </trkpt>
      <trkpt lat="46.67855" lon="5.80907">
        <ele>581.8</ele>
        <time>2022-02-24T12:03:37Z</time>
      </trkpt>
      <trkpt lat="46.67857" lon="5.80913">
        <ele>579.8</ele>
        <time>2022-02-24T12:03:43Z</time>
      </trkpt>
      <trkpt lat="46.6786" lon="5.80919">
        <ele>578.6</ele>
        <time>2022-02-24T12:03:48Z</time>
      </trkpt>
      <trkpt lat="46.67863" lon="5.80925">
        <ele>577.5</ele>
        <time>2022-02-24T12:03:54Z</time>
      </trkpt>
      <trkpt lat="46.67865" lon="5.80931">
        <ele>577.5</ele>
        <time>2022-02-24T12:04:00Z</time>
      </trkpt>
      <trkpt lat="46.6787" lon="5.80931">
        <ele>577.6</ele>
        <time>2022-02-24T12:04:04Z</time>
      </trkpt>
      <trkpt lat="46.67875" lon="5.8093">
        <ele>577.9</ele>
        <time>2022-02-24T12:04:08Z</time>
      </trkpt>
      <trkpt lat="46.6788" lon="5.80927">
        <ele>578.8</ele>
        <time>2022-02-24T12:04:19Z</time>
      </trkpt>
      <trkpt lat="46.67884" lon="5.80923">
        <ele>578.5</ele>
        <time>2022-02-24T12:04:26Z</time>
      </trkpt>
      <trkpt lat="46.67887" lon="5.80917">
        <ele>578.6</ele>
        <time>2022-02-24T12:04:30Z</time>
      </trkpt>
      <trkpt lat="46.6789" lon="5.8091">
        <ele>578.8</ele>
        <time>2022-02-24T12:04:34Z</time>
      </trkpt>
      <trkpt lat="46.67893" lon="5.80905">
        <ele>579.3</ele>
        <time>2022-02-24T12:04:38Z</time>
      </trkpt>
      <trkpt lat="46.67896" lon="5.80899">
        <ele>580</ele>
        <time>2022-02-24T12:04:42Z</time>
      </trkpt>
      <trkpt lat="46.67899" lon="5.80894">
        <ele>581</ele>
        <time>2022-02-24T12:04:46Z</time>
      </trkpt>
      <trkpt lat="46.67901" lon="5.80887">
        <ele>581.9</ele>
        <time>2022-02-24T12:04:51Z</time>
      </trkpt>
      <trkpt lat="46.67903" lon="5.80881">
        <ele>583.3</ele>
        <time>2022-02-24T12:04:57Z</time>
      </trkpt>
      <trkpt lat="46.67907" lon="5.80877">
        <ele>585.2</ele>
        <time>2022-02-24T12:05:03Z</time>
      </trkpt>
      <trkpt lat="46.67911" lon="5.80876">
        <ele>587.1</ele>
        <time>2022-02-24T12:05:10Z</time>
      </trkpt>
      <trkpt lat="46.67916" lon="5.80878">
        <ele>587.5</ele>
        <time>2022-02-24T12:05:14Z</time>
      </trkpt>
      <trkpt lat="46.6792" lon="5.80881">
        <ele>587.3</ele>
        <time>2022-02-24T12:05:17Z</time>
      </trkpt>
      <trkpt lat="46.67927" lon="5.8088">
        <ele>586.9</ele>
        <time>2022-02-24T12:05:20Z</time>
      </trkpt>
      <trkpt lat="46.67933" lon="5.80878">
        <ele>586.5</ele>
        <time>2022-02-24T12:05:23Z</time>
      </trkpt>
      <trkpt lat="46.67938" lon="5.80882">
        <ele>585.5</ele>
        <time>2022-02-24T12:05:29Z</time>
      </trkpt>
      <trkpt lat="46.67943" lon="5.80885">
        <ele>584.4</ele>
        <time>2022-02-24T12:05:34Z</time>
      </trkpt>
      <trkpt lat="46.67946" lon="5.80889">
        <ele>583.5</ele>
        <time>2022-02-24T12:05:39Z</time>
      </trkpt>
      <trkpt lat="46.67951" lon="5.80893">
        <ele>583</ele>
        <time>2022-02-24T12:05:43Z</time>
      </trkpt>
      <trkpt lat="46.67955" lon="5.80896">
        <ele>582.9</ele>
        <time>2022-02-24T12:05:46Z</time>
      </trkpt>
      <trkpt lat="46.67958" lon="5.80901">
        <ele>582.5</ele>
        <time>2022-02-24T12:05:50Z</time>
      </trkpt>
      <trkpt lat="46.6796" lon="5.80907">
        <ele>581.3</ele>
        <time>2022-02-24T12:05:57Z</time>
      </trkpt>
      <trkpt lat="46.67961" lon="5.80914">
        <ele>580</ele>
        <time>2022-02-24T12:06:02Z</time>
      </trkpt>
      <trkpt lat="46.67963" lon="5.80922">
        <ele>579.1</ele>
        <time>2022-02-24T12:06:07Z</time>
      </trkpt>
      <trkpt lat="46.67965" lon="5.80928">
        <ele>579.1</ele>
        <time>2022-02-24T12:06:12Z</time>
      </trkpt>
      <trkpt lat="46.67968" lon="5.80934">
        <ele>579.9</ele>
        <time>2022-02-24T12:06:19Z</time>
      </trkpt>
      <trkpt lat="46.67971" lon="5.80938">
        <ele>580.3</ele>
        <time>2022-02-24T12:06:24Z</time>
      </trkpt>
      <trkpt lat="46.67976" lon="5.80943">
        <ele>580.4</ele>
        <time>2022-02-24T12:06:29Z</time>
      </trkpt>
      <trkpt lat="46.6798" lon="5.80947">
        <ele>580.7</ele>
        <time>2022-02-24T12:06:33Z</time>
      </trkpt>
      <trkpt lat="46.67984" lon="5.80951">
        <ele>580.9</ele>
        <time>2022-02-24T12:06:37Z</time>
      </trkpt>
      <trkpt lat="46.67988" lon="5.80956">
        <ele>581.5</ele>
        <time>2022-02-24T12:06:42Z</time>
      </trkpt>
      <trkpt lat="46.67991" lon="5.80961">
        <ele>582.6</ele>
        <time>2022-02-24T12:06:48Z</time>
      </trkpt>
      <trkpt lat="46.67994" lon="5.80966">
        <ele>583.5</ele>
        <time>2022-02-24T12:06:51Z</time>
      </trkpt>
      <trkpt lat="46.67997" lon="5.80972">
        <ele>584.3</ele>
        <time>2022-02-24T12:06:54Z</time>
      </trkpt>
      <trkpt lat="46.68" lon="5.80978">
        <ele>585</ele>
        <time>2022-02-24T12:06:57Z</time>
      </trkpt>
      <trkpt lat="46.68002" lon="5.80984">
        <ele>586.1</ele>
        <time>2022-02-24T12:07:02Z</time>
      </trkpt>
      <trkpt lat="46.68002" lon="5.80992">
        <ele>587.8</ele>
        <time>2022-02-24T12:07:08Z</time>
      </trkpt>
      <trkpt lat="46.68003" lon="5.80998">
        <ele>588.8</ele>
        <time>2022-02-24T12:07:12Z</time>
      </trkpt>
      <trkpt lat="46.68006" lon="5.81005">
        <ele>589.7</ele>
        <time>2022-02-24T12:07:16Z</time>
      </trkpt>
      <trkpt lat="46.68008" lon="5.81011">
        <ele>590.4</ele>
        <time>2022-02-24T12:07:20Z</time>
      </trkpt>
      <trkpt lat="46.68011" lon="5.81018">
        <ele>591.1</ele>
        <time>2022-02-24T12:07:25Z</time>
      </trkpt>
      <trkpt lat="46.68015" lon="5.81023">
        <ele>591.6</ele>
        <time>2022-02-24T12:07:29Z</time>
      </trkpt>
      <trkpt lat="46.68018" lon="5.81028">
        <ele>592.4</ele>
        <time>2022-02-24T12:07:34Z</time>
      </trkpt>
      <trkpt lat="46.68022" lon="5.81032">
        <ele>592.6</ele>
        <time>2022-02-24T12:07:39Z</time>
      </trkpt>
      <trkpt lat="46.68026" lon="5.81036">
        <ele>591.9</ele>
        <time>2022-02-24T12:07:44Z</time>
      </trkpt>
      <trkpt lat="46.68029" lon="5.8104">
        <ele>591.5</ele>
        <time>2022-02-24T12:07:50Z</time>
      </trkpt>
      <trkpt lat="46.68034" lon="5.81043">
        <ele>590.9</ele>
        <time>2022-02-24T12:07:56Z</time>
      </trkpt>
      <trkpt lat="46.68038" lon="5.81045">
        <ele>590.7</ele>
        <time>2022-02-24T12:08:02Z</time>
      </trkpt>
      <trkpt lat="46.68044" lon="5.81045">
        <ele>591</ele>
        <time>2022-02-24T12:08:05Z</time>
      </trkpt>
      <trkpt lat="46.68049" lon="5.81044">
        <ele>591.6</ele>
        <time>2022-02-24T12:08:08Z</time>
      </trkpt>
      <trkpt lat="46.68054" lon="5.81047">
        <ele>592.4</ele>
        <time>2022-02-24T12:08:14Z</time>
      </trkpt>
      <trkpt lat="46.68058" lon="5.81049">
        <ele>593</ele>
        <time>2022-02-24T12:08:19Z</time>
      </trkpt>
      <trkpt lat="46.68063" lon="5.81046">
        <ele>594.3</ele>
        <time>2022-02-24T12:08:25Z</time>
      </trkpt>
      <trkpt lat="46.68068" lon="5.81045">
        <ele>595.5</ele>
        <time>2022-02-24T12:08:31Z</time>
      </trkpt>
      <trkpt lat="46.68073" lon="5.81044">
        <ele>597.1</ele>
        <time>2022-02-24T12:08:38Z</time>
      </trkpt>
      <trkpt lat="46.68077" lon="5.81041">
        <ele>598.7</ele>
        <time>2022-02-24T12:08:43Z</time>
      </trkpt>
      <trkpt lat="46.68082" lon="5.81041">
        <ele>600</ele>
        <time>2022-02-24T12:08:47Z</time>
      </trkpt>
      <trkpt lat="46.68087" lon="5.81043">
        <ele>601</ele>
        <time>2022-02-24T12:08:51Z</time>
      </trkpt>
      <trkpt lat="46.68091" lon="5.81045">
        <ele>602</ele>
        <time>2022-02-24T12:08:57Z</time>
      </trkpt>
      <trkpt lat="46.68097" lon="5.81047">
        <ele>602.1</ele>
        <time>2022-02-24T12:09:02Z</time>
      </trkpt>
      <trkpt lat="46.68101" lon="5.81049">
        <ele>601.7</ele>
        <time>2022-02-24T12:09:10Z</time>
      </trkpt>
      <trkpt lat="46.68105" lon="5.81052">
        <ele>601.5</ele>
        <time>2022-02-24T12:09:14Z</time>
      </trkpt>
      <trkpt lat="46.68111" lon="5.81055">
        <ele>601.4</ele>
        <time>2022-02-24T12:09:18Z</time>
      </trkpt>
      <trkpt lat="46.68116" lon="5.81058">
        <ele>601.3</ele>
        <time>2022-02-24T12:09:22Z</time>
      </trkpt>
      <trkpt lat="46.68121" lon="5.81059">
        <ele>601.3</ele>
        <time>2022-02-24T12:09:26Z</time>
      </trkpt>
      <trkpt lat="46.68125" lon="5.81061">
        <ele>600.2</ele>
        <time>2022-02-24T12:09:34Z</time>
      </trkpt>
      <trkpt lat="46.6813" lon="5.81064">
        <ele>600.1</ele>
        <time>2022-02-24T12:09:41Z</time>
      </trkpt>
      <trkpt lat="46.68136" lon="5.81066">
        <ele>602</ele>
        <time>2022-02-24T12:09:54Z</time>
      </trkpt>
      <trkpt lat="46.68142" lon="5.81068">
        <ele>602.8</ele>
        <time>2022-02-24T12:09:59Z</time>
      </trkpt>
      <trkpt lat="46.68145" lon="5.81071">
        <ele>602.9</ele>
        <time>2022-02-24T12:10:05Z</time>
      </trkpt>
      <trkpt lat="46.6815" lon="5.81072">
        <ele>602.8</ele>
        <time>2022-02-24T12:10:10Z</time>
      </trkpt>
      <trkpt lat="46.68155" lon="5.81073">
        <ele>602.5</ele>
        <time>2022-02-24T12:10:17Z</time>
      </trkpt>
      <trkpt lat="46.6816" lon="5.81076">
        <ele>602.6</ele>
        <time>2022-02-24T12:10:23Z</time>
      </trkpt>
      <trkpt lat="46.68165" lon="5.81077">
        <ele>602.9</ele>
        <time>2022-02-24T12:10:28Z</time>
      </trkpt>
      <trkpt lat="46.6817" lon="5.81078">
        <ele>603.1</ele>
        <time>2022-02-24T12:10:32Z</time>
      </trkpt>
      <trkpt lat="46.68175" lon="5.8108">
        <ele>603.6</ele>
        <time>2022-02-24T12:10:36Z</time>
      </trkpt>
      <trkpt lat="46.6818" lon="5.81082">
        <ele>604.1</ele>
        <time>2022-02-24T12:10:41Z</time>
      </trkpt>
      <trkpt lat="46.68185" lon="5.81082">
        <ele>604.3</ele>
        <time>2022-02-24T12:10:45Z</time>
      </trkpt>
      <trkpt lat="46.68191" lon="5.81082">
        <ele>604</ele>
        <time>2022-02-24T12:10:49Z</time>
      </trkpt>
      <trkpt lat="46.68196" lon="5.81083">
        <ele>603.7</ele>
        <time>2022-02-24T12:10:52Z</time>
      </trkpt>
      <trkpt lat="46.68202" lon="5.81084">
        <ele>603.3</ele>
        <time>2022-02-24T12:10:56Z</time>
      </trkpt>
      <trkpt lat="46.68207" lon="5.81086">
        <ele>602.8</ele>
        <time>2022-02-24T12:11:01Z</time>
      </trkpt>
      <trkpt lat="46.68212" lon="5.81089">
        <ele>602.5</ele>
        <time>2022-02-24T12:11:05Z</time>
      </trkpt>
      <trkpt lat="46.68216" lon="5.81092">
        <ele>601.8</ele>
        <time>2022-02-24T12:11:10Z</time>
      </trkpt>
      <trkpt lat="46.6822" lon="5.81099">
        <ele>600.7</ele>
        <time>2022-02-24T12:11:15Z</time>
      </trkpt>
      <trkpt lat="46.68224" lon="5.81104">
        <ele>599.4</ele>
        <time>2022-02-24T12:11:20Z</time>
      </trkpt>
      <trkpt lat="46.68228" lon="5.8111">
        <ele>598.7</ele>
        <time>2022-02-24T12:11:25Z</time>
      </trkpt>
      <trkpt lat="46.68231" lon="5.81117">
        <ele>598.6</ele>
        <time>2022-02-24T12:11:30Z</time>
      </trkpt>
      <trkpt lat="46.68234" lon="5.81123">
        <ele>599.2</ele>
        <time>2022-02-24T12:11:35Z</time>
      </trkpt>
      <trkpt lat="46.68237" lon="5.81129">
        <ele>599.5</ele>
        <time>2022-02-24T12:11:40Z</time>
      </trkpt>
      <trkpt lat="46.68239" lon="5.81135">
        <ele>599.6</ele>
        <time>2022-02-24T12:11:45Z</time>
      </trkpt>
      <trkpt lat="46.68242" lon="5.81141">
        <ele>599.9</ele>
        <time>2022-02-24T12:11:51Z</time>
      </trkpt>
      <trkpt lat="46.68245" lon="5.81148">
        <ele>600.3</ele>
        <time>2022-02-24T12:11:56Z</time>
      </trkpt>
      <trkpt lat="46.68249" lon="5.81152">
        <ele>600.8</ele>
        <time>2022-02-24T12:12:00Z</time>
      </trkpt>
      <trkpt lat="46.68252" lon="5.81157">
        <ele>600.6</ele>
        <time>2022-02-24T12:12:05Z</time>
      </trkpt>
      <trkpt lat="46.68256" lon="5.81161">
        <ele>600.3</ele>
        <time>2022-02-24T12:12:09Z</time>
      </trkpt>
      <trkpt lat="46.6826" lon="5.81166">
        <ele>599.9</ele>
        <time>2022-02-24T12:12:13Z</time>
      </trkpt>
      <trkpt lat="46.68264" lon="5.81171">
        <ele>599.3</ele>
        <time>2022-02-24T12:12:19Z</time>
      </trkpt>
      <trkpt lat="46.68268" lon="5.81176">
        <ele>599.1</ele>
        <time>2022-02-24T12:12:24Z</time>
      </trkpt>
      <trkpt lat="46.68271" lon="5.81181">
        <ele>599.1</ele>
        <time>2022-02-24T12:12:29Z</time>
      </trkpt>
      <trkpt lat="46.68273" lon="5.81188">
        <ele>598.8</ele>
        <time>2022-02-24T12:12:35Z</time>
      </trkpt>
      <trkpt lat="46.68276" lon="5.81194">
        <ele>597.9</ele>
        <time>2022-02-24T12:12:42Z</time>
      </trkpt>
      <trkpt lat="46.6828" lon="5.81199">
        <ele>596.8</ele>
        <time>2022-02-24T12:12:48Z</time>
      </trkpt>
      <trkpt lat="46.68284" lon="5.81203">
        <ele>596</ele>
        <time>2022-02-24T12:12:53Z</time>
      </trkpt>
      <trkpt lat="46.68287" lon="5.81207">
        <ele>595.4</ele>
        <time>2022-02-24T12:12:57Z</time>
      </trkpt>
      <trkpt lat="46.68291" lon="5.81212">
        <ele>594.4</ele>
        <time>2022-02-24T12:13:02Z</time>
      </trkpt>
      <trkpt lat="46.68294" lon="5.81217">
        <ele>593.7</ele>
        <time>2022-02-24T12:13:06Z</time>
      </trkpt>
      <trkpt lat="46.68298" lon="5.81222">
        <ele>593</ele>
        <time>2022-02-24T12:13:11Z</time>
      </trkpt>
      <trkpt lat="46.68302" lon="5.81227">
        <ele>592.1</ele>
        <time>2022-02-24T12:13:17Z</time>
      </trkpt>
      <trkpt lat="46.68305" lon="5.81232">
        <ele>592</ele>
        <time>2022-02-24T12:13:21Z</time>
      </trkpt>
      <trkpt lat="46.68309" lon="5.81238">
        <ele>592.1</ele>
        <time>2022-02-24T12:13:26Z</time>
      </trkpt>
      <trkpt lat="46.68312" lon="5.81244">
        <ele>592.5</ele>
        <time>2022-02-24T12:13:32Z</time>
      </trkpt>
      <trkpt lat="46.68316" lon="5.81248">
        <ele>593.2</ele>
        <time>2022-02-24T12:13:38Z</time>
      </trkpt>
      <trkpt lat="46.68321" lon="5.8125">
        <ele>595.1</ele>
        <time>2022-02-24T12:13:46Z</time>
      </trkpt>
      <trkpt lat="46.68325" lon="5.81251">
        <ele>595.9</ele>
        <time>2022-02-24T12:13:50Z</time>
      </trkpt>
      <trkpt lat="46.6833" lon="5.81252">
        <ele>597.2</ele>
        <time>2022-02-24T12:13:54Z</time>
      </trkpt>
      <trkpt lat="46.68335" lon="5.81251">
        <ele>598.8</ele>
        <time>2022-02-24T12:13:58Z</time>
      </trkpt>
      <trkpt lat="46.6834" lon="5.81251">
        <ele>598.5</ele>
        <time>2022-02-24T12:14:01Z</time>
      </trkpt>
      <trkpt lat="46.68345" lon="5.8125">
        <ele>597.8</ele>
        <time>2022-02-24T12:14:05Z</time>
      </trkpt>
      <trkpt lat="46.6835" lon="5.81249">
        <ele>596.1</ele>
        <time>2022-02-24T12:14:10Z</time>
      </trkpt>
      <trkpt lat="46.6835" lon="5.81242">
        <ele>593.2</ele>
        <time>2022-02-24T12:14:16Z</time>
      </trkpt>
      <trkpt lat="46.68352" lon="5.81235">
        <ele>591.6</ele>
        <time>2022-02-24T12:14:21Z</time>
      </trkpt>
      <trkpt lat="46.68354" lon="5.81228">
        <ele>591</ele>
        <time>2022-02-24T12:14:27Z</time>
      </trkpt>
      <trkpt lat="46.68355" lon="5.81221">
        <ele>591.2</ele>
        <time>2022-02-24T12:14:32Z</time>
      </trkpt>
      <trkpt lat="46.68356" lon="5.81214">
        <ele>590.9</ele>
        <time>2022-02-24T12:14:45Z</time>
      </trkpt>
      <trkpt lat="46.68359" lon="5.81209">
        <ele>590.8</ele>
        <time>2022-02-24T12:14:51Z</time>
      </trkpt>
      <trkpt lat="46.68362" lon="5.81203">
        <ele>588.8</ele>
        <time>2022-02-24T12:15:12Z</time>
      </trkpt>
      <trkpt lat="46.68367" lon="5.81202">
        <ele>587.9</ele>
        <time>2022-02-24T12:15:18Z</time>
      </trkpt>
      <trkpt lat="46.68362" lon="5.81199">
        <ele>586.6</ele>
        <time>2022-02-24T12:15:31Z</time>
      </trkpt>
      <trkpt lat="46.68357" lon="5.81194">
        <ele>586.2</ele>
        <time>2022-02-24T12:15:35Z</time>
      </trkpt>
      <trkpt lat="46.68354" lon="5.81188">
        <ele>586</ele>
        <time>2022-02-24T12:15:39Z</time>
      </trkpt>
      <trkpt lat="46.68354" lon="5.81181">
        <ele>585.5</ele>
        <time>2022-02-24T12:15:44Z</time>
      </trkpt>
      <trkpt lat="46.68355" lon="5.81173">
        <ele>585.1</ele>
        <time>2022-02-24T12:15:49Z</time>
      </trkpt>
      <trkpt lat="46.68355" lon="5.81165">
        <ele>584.4</ele>
        <time>2022-02-24T12:15:53Z</time>
      </trkpt>
      <trkpt lat="46.68355" lon="5.81158">
        <ele>583.9</ele>
        <time>2022-02-24T12:15:56Z</time>
      </trkpt>
      <trkpt lat="46.68355" lon="5.8115">
        <ele>583.9</ele>
        <time>2022-02-24T12:15:59Z</time>
      </trkpt>
      <trkpt lat="46.68357" lon="5.81144">
        <ele>584.6</ele>
        <time>2022-02-24T12:16:02Z</time>
      </trkpt>
      <trkpt lat="46.6836" lon="5.81137">
        <ele>585.4</ele>
        <time>2022-02-24T12:16:06Z</time>
      </trkpt>
      <trkpt lat="46.68361" lon="5.81129">
        <ele>586.2</ele>
        <time>2022-02-24T12:16:10Z</time>
      </trkpt>
      <trkpt lat="46.68363" lon="5.81123">
        <ele>586.4</ele>
        <time>2022-02-24T12:16:14Z</time>
      </trkpt>
      <trkpt lat="46.68365" lon="5.81116">
        <ele>586.7</ele>
        <time>2022-02-24T12:16:18Z</time>
      </trkpt>
      <trkpt lat="46.68366" lon="5.81108">
        <ele>586.9</ele>
        <time>2022-02-24T12:16:22Z</time>
      </trkpt>
      <trkpt lat="46.68369" lon="5.81101">
        <ele>587.2</ele>
        <time>2022-02-24T12:16:26Z</time>
      </trkpt>
      <trkpt lat="46.6837" lon="5.81092">
        <ele>587.1</ele>
        <time>2022-02-24T12:16:30Z</time>
      </trkpt>
      <trkpt lat="46.68371" lon="5.81085">
        <ele>586.9</ele>
        <time>2022-02-24T12:16:34Z</time>
      </trkpt>
      <trkpt lat="46.68373" lon="5.81078">
        <ele>586.5</ele>
        <time>2022-02-24T12:16:38Z</time>
      </trkpt>
      <trkpt lat="46.68374" lon="5.81071">
        <ele>585.9</ele>
        <time>2022-02-24T12:16:42Z</time>
      </trkpt>
      <trkpt lat="46.68375" lon="5.81064">
        <ele>585.6</ele>
        <time>2022-02-24T12:16:46Z</time>
      </trkpt>
      <trkpt lat="46.68377" lon="5.81058">
        <ele>585.4</ele>
        <time>2022-02-24T12:16:49Z</time>
      </trkpt>
      <trkpt lat="46.68379" lon="5.81051">
        <ele>585.3</ele>
        <time>2022-02-24T12:16:52Z</time>
      </trkpt>
      <trkpt lat="46.68381" lon="5.81044">
        <ele>585.2</ele>
        <time>2022-02-24T12:16:56Z</time>
      </trkpt>
      <trkpt lat="46.68383" lon="5.81037">
        <ele>585.2</ele>
        <time>2022-02-24T12:17:00Z</time>
      </trkpt>
      <trkpt lat="46.68386" lon="5.8103">
        <ele>584.9</ele>
        <time>2022-02-24T12:17:04Z</time>
      </trkpt>
      <trkpt lat="46.68388" lon="5.81025">
        <ele>584.7</ele>
        <time>2022-02-24T12:17:08Z</time>
      </trkpt>
      <trkpt lat="46.6839" lon="5.81019">
        <ele>584.5</ele>
        <time>2022-02-24T12:17:12Z</time>
      </trkpt>
      <trkpt lat="46.68393" lon="5.81012">
        <ele>584.6</ele>
        <time>2022-02-24T12:17:16Z</time>
      </trkpt>
      <trkpt lat="46.68396" lon="5.81006">
        <ele>584.9</ele>
        <time>2022-02-24T12:17:20Z</time>
      </trkpt>
      <trkpt lat="46.68398" lon="5.80999">
        <ele>585.4</ele>
        <time>2022-02-24T12:17:25Z</time>
      </trkpt>
      <trkpt lat="46.68401" lon="5.80992">
        <ele>585.7</ele>
        <time>2022-02-24T12:17:29Z</time>
      </trkpt>
      <trkpt lat="46.68403" lon="5.80985">
        <ele>586</ele>
        <time>2022-02-24T12:17:33Z</time>
      </trkpt>
      <trkpt lat="46.68406" lon="5.80979">
        <ele>586.2</ele>
        <time>2022-02-24T12:17:37Z</time>
      </trkpt>
      <trkpt lat="46.68409" lon="5.80973">
        <ele>586.4</ele>
        <time>2022-02-24T12:17:41Z</time>
      </trkpt>
      <trkpt lat="46.68411" lon="5.80967">
        <ele>586.8</ele>
        <time>2022-02-24T12:17:45Z</time>
      </trkpt>
      <trkpt lat="46.68414" lon="5.80961">
        <ele>586.9</ele>
        <time>2022-02-24T12:17:49Z</time>
      </trkpt>
      <trkpt lat="46.68417" lon="5.80953">
        <ele>587</ele>
        <time>2022-02-24T12:17:53Z</time>
      </trkpt>
      <trkpt lat="46.68419" lon="5.80946">
        <ele>586.9</ele>
        <time>2022-02-24T12:17:57Z</time>
      </trkpt>
      <trkpt lat="46.68422" lon="5.8094">
        <ele>586.9</ele>
        <time>2022-02-24T12:18:01Z</time>
      </trkpt>
      <trkpt lat="46.68425" lon="5.80934">
        <ele>586.8</ele>
        <time>2022-02-24T12:18:05Z</time>
      </trkpt>
      <trkpt lat="46.68427" lon="5.80928">
        <ele>586.8</ele>
        <time>2022-02-24T12:18:09Z</time>
      </trkpt>
      <trkpt lat="46.6843" lon="5.80921">
        <ele>586.9</ele>
        <time>2022-02-24T12:18:13Z</time>
      </trkpt>
      <trkpt lat="46.68433" lon="5.80914">
        <ele>587.1</ele>
        <time>2022-02-24T12:18:17Z</time>
      </trkpt>
      <trkpt lat="46.68435" lon="5.80907">
        <ele>587.2</ele>
        <time>2022-02-24T12:18:21Z</time>
      </trkpt>
      <trkpt lat="46.68436" lon="5.80899">
        <ele>587.2</ele>
        <time>2022-02-24T12:18:25Z</time>
      </trkpt>
      <trkpt lat="46.68438" lon="5.80893">
        <ele>586.9</ele>
        <time>2022-02-24T12:18:29Z</time>
      </trkpt>
      <trkpt lat="46.68442" lon="5.80887">
        <ele>586.6</ele>
        <time>2022-02-24T12:18:34Z</time>
      </trkpt>
      <trkpt lat="46.68444" lon="5.80881">
        <ele>586.6</ele>
        <time>2022-02-24T12:18:38Z</time>
      </trkpt>
      <trkpt lat="46.68445" lon="5.80874">
        <ele>586.9</ele>
        <time>2022-02-24T12:18:41Z</time>
      </trkpt>
      <trkpt lat="46.68446" lon="5.80867">
        <ele>587.3</ele>
        <time>2022-02-24T12:18:44Z</time>
      </trkpt>
      <trkpt lat="46.6845" lon="5.8086">
        <ele>587.7</ele>
        <time>2022-02-24T12:18:48Z</time>
      </trkpt>
      <trkpt lat="46.68453" lon="5.80854">
        <ele>588.1</ele>
        <time>2022-02-24T12:18:52Z</time>
      </trkpt>
      <trkpt lat="46.68457" lon="5.80848">
        <ele>588.2</ele>
        <time>2022-02-24T12:18:56Z</time>
      </trkpt>
      <trkpt lat="46.68459" lon="5.80842">
        <ele>588</ele>
        <time>2022-02-24T12:19:00Z</time>
      </trkpt>
      <trkpt lat="46.68461" lon="5.80835">
        <ele>587.8</ele>
        <time>2022-02-24T12:19:05Z</time>
      </trkpt>
      <trkpt lat="46.68463" lon="5.80828">
        <ele>587.8</ele>
        <time>2022-02-24T12:19:09Z</time>
      </trkpt>
      <trkpt lat="46.68463" lon="5.8082">
        <ele>587.9</ele>
        <time>2022-02-24T12:19:13Z</time>
      </trkpt>
      <trkpt lat="46.68464" lon="5.80814">
        <ele>588.1</ele>
        <time>2022-02-24T12:19:17Z</time>
      </trkpt>
      <trkpt lat="46.68464" lon="5.80807">
        <ele>588.6</ele>
        <time>2022-02-24T12:19:21Z</time>
      </trkpt>
      <trkpt lat="46.68467" lon="5.80801">
        <ele>589.1</ele>
        <time>2022-02-24T12:19:26Z</time>
      </trkpt>
      <trkpt lat="46.6847" lon="5.80796">
        <ele>589.3</ele>
        <time>2022-02-24T12:19:30Z</time>
      </trkpt>
      <trkpt lat="46.68473" lon="5.80791">
        <ele>589.7</ele>
        <time>2022-02-24T12:19:33Z</time>
      </trkpt>
      <trkpt lat="46.68477" lon="5.80787">
        <ele>589.8</ele>
        <time>2022-02-24T12:19:36Z</time>
      </trkpt>
      <trkpt lat="46.6848" lon="5.8078">
        <ele>589.7</ele>
        <time>2022-02-24T12:19:40Z</time>
      </trkpt>
      <trkpt lat="46.6848" lon="5.80771">
        <ele>589.8</ele>
        <time>2022-02-24T12:19:44Z</time>
      </trkpt>
      <trkpt lat="46.6848" lon="5.80764">
        <ele>590.1</ele>
        <time>2022-02-24T12:19:47Z</time>
      </trkpt>
      <trkpt lat="46.6848" lon="5.80758">
        <ele>590.5</ele>
        <time>2022-02-24T12:19:50Z</time>
      </trkpt>
      <trkpt lat="46.68481" lon="5.80751">
        <ele>590.8</ele>
        <time>2022-02-24T12:19:54Z</time>
      </trkpt>
      <trkpt lat="46.68482" lon="5.80743">
        <ele>591.5</ele>
        <time>2022-02-24T12:19:59Z</time>
      </trkpt>
      <trkpt lat="46.68483" lon="5.80735">
        <ele>591.8</ele>
        <time>2022-02-24T12:20:04Z</time>
      </trkpt>
      <trkpt lat="46.68484" lon="5.80728">
        <ele>592.5</ele>
        <time>2022-02-24T12:20:09Z</time>
      </trkpt>
      <trkpt lat="46.68484" lon="5.8072">
        <ele>593.4</ele>
        <time>2022-02-24T12:20:15Z</time>
      </trkpt>
      <trkpt lat="46.68482" lon="5.80712">
        <ele>594.4</ele>
        <time>2022-02-24T12:20:20Z</time>
      </trkpt>
      <trkpt lat="46.68481" lon="5.80706">
        <ele>594.9</ele>
        <time>2022-02-24T12:20:24Z</time>
      </trkpt>
      <trkpt lat="46.68479" lon="5.80698">
        <ele>595.2</ele>
        <time>2022-02-24T12:20:28Z</time>
      </trkpt>
      <trkpt lat="46.68479" lon="5.80692">
        <ele>595.3</ele>
        <time>2022-02-24T12:20:32Z</time>
      </trkpt>
      <trkpt lat="46.6848" lon="5.80684">
        <ele>595.5</ele>
        <time>2022-02-24T12:20:37Z</time>
      </trkpt>
      <trkpt lat="46.68482" lon="5.80678">
        <ele>595.7</ele>
        <time>2022-02-24T12:20:41Z</time>
      </trkpt>
      <trkpt lat="46.68483" lon="5.8067">
        <ele>595.6</ele>
        <time>2022-02-24T12:20:46Z</time>
      </trkpt>
      <trkpt lat="46.68483" lon="5.80663">
        <ele>595.5</ele>
        <time>2022-02-24T12:20:50Z</time>
      </trkpt>
      <trkpt lat="46.68482" lon="5.80656">
        <ele>595.2</ele>
        <time>2022-02-24T12:20:54Z</time>
      </trkpt>
      <trkpt lat="46.68484" lon="5.8065">
        <ele>593.9</ele>
        <time>2022-02-24T12:20:59Z</time>
      </trkpt>
      <trkpt lat="46.68485" lon="5.80643">
        <ele>592.5</ele>
        <time>2022-02-24T12:21:04Z</time>
      </trkpt>
      <trkpt lat="46.68487" lon="5.80637">
        <ele>591.3</ele>
        <time>2022-02-24T12:21:09Z</time>
      </trkpt>
      <trkpt lat="46.68492" lon="5.80633">
        <ele>590.9</ele>
        <time>2022-02-24T12:21:14Z</time>
      </trkpt>
      <trkpt lat="46.68495" lon="5.80627">
        <ele>590.5</ele>
        <time>2022-02-24T12:21:20Z</time>
      </trkpt>
      <trkpt lat="46.68497" lon="5.80621">
        <ele>590.1</ele>
        <time>2022-02-24T12:21:24Z</time>
      </trkpt>
      <trkpt lat="46.68499" lon="5.80615">
        <ele>589.6</ele>
        <time>2022-02-24T12:21:29Z</time>
      </trkpt>
      <trkpt lat="46.68503" lon="5.80611">
        <ele>589.5</ele>
        <time>2022-02-24T12:21:34Z</time>
      </trkpt>
      <trkpt lat="46.68508" lon="5.8061">
        <ele>590.1</ele>
        <time>2022-02-24T12:21:40Z</time>
      </trkpt>
      <trkpt lat="46.68513" lon="5.8061">
        <ele>590.7</ele>
        <time>2022-02-24T12:21:45Z</time>
      </trkpt>
      <trkpt lat="46.68518" lon="5.8061">
        <ele>591.1</ele>
        <time>2022-02-24T12:21:50Z</time>
      </trkpt>
      <trkpt lat="46.68523" lon="5.8061">
        <ele>591.4</ele>
        <time>2022-02-24T12:21:55Z</time>
      </trkpt>
      <trkpt lat="46.68528" lon="5.80611">
        <ele>592.1</ele>
        <time>2022-02-24T12:22:02Z</time>
      </trkpt>
      <trkpt lat="46.68533" lon="5.80613">
        <ele>592.8</ele>
        <time>2022-02-24T12:22:07Z</time>
      </trkpt>
      <trkpt lat="46.68537" lon="5.80616">
        <ele>593.5</ele>
        <time>2022-02-24T12:22:12Z</time>
      </trkpt>
      <trkpt lat="46.68542" lon="5.80618">
        <ele>593.9</ele>
        <time>2022-02-24T12:22:17Z</time>
      </trkpt>
      <trkpt lat="46.68547" lon="5.80618">
        <ele>594.5</ele>
        <time>2022-02-24T12:22:22Z</time>
      </trkpt>
      <trkpt lat="46.68552" lon="5.8062">
        <ele>595.3</ele>
        <time>2022-02-24T12:22:28Z</time>
      </trkpt>
      <trkpt lat="46.68556" lon="5.80623">
        <ele>595.8</ele>
        <time>2022-02-24T12:22:32Z</time>
      </trkpt>
      <trkpt lat="46.6856" lon="5.80626">
        <ele>595.9</ele>
        <time>2022-02-24T12:22:36Z</time>
      </trkpt>
      <trkpt lat="46.68565" lon="5.80629">
        <ele>595.8</ele>
        <time>2022-02-24T12:22:40Z</time>
      </trkpt>
      <trkpt lat="46.6857" lon="5.80632">
        <ele>595.6</ele>
        <time>2022-02-24T12:22:45Z</time>
      </trkpt>
      <trkpt lat="46.68574" lon="5.80634">
        <ele>595.3</ele>
        <time>2022-02-24T12:22:51Z</time>
      </trkpt>
      <trkpt lat="46.68579" lon="5.80636">
        <ele>595.3</ele>
        <time>2022-02-24T12:22:56Z</time>
      </trkpt>
      <trkpt lat="46.68584" lon="5.80637">
        <ele>595.5</ele>
        <time>2022-02-24T12:23:03Z</time>
      </trkpt>
      <trkpt lat="46.68588" lon="5.80641">
        <ele>595.9</ele>
        <time>2022-02-24T12:23:10Z</time>
      </trkpt>
      <trkpt lat="46.68592" lon="5.80645">
        <ele>596.8</ele>
        <time>2022-02-24T12:23:15Z</time>
      </trkpt>
      <trkpt lat="46.68595" lon="5.8065">
        <ele>597.3</ele>
        <time>2022-02-24T12:23:19Z</time>
      </trkpt>
      <trkpt lat="46.686" lon="5.80655">
        <ele>597.8</ele>
        <time>2022-02-24T12:23:23Z</time>
      </trkpt>
      <trkpt lat="46.68605" lon="5.80658">
        <ele>598.5</ele>
        <time>2022-02-24T12:23:27Z</time>
      </trkpt>
      <trkpt lat="46.68609" lon="5.8066">
        <ele>599.2</ele>
        <time>2022-02-24T12:23:31Z</time>
      </trkpt>
      <trkpt lat="46.68614" lon="5.80661">
        <ele>600</ele>
        <time>2022-02-24T12:23:35Z</time>
      </trkpt>
      <trkpt lat="46.68619" lon="5.80663">
        <ele>600.8</ele>
        <time>2022-02-24T12:23:39Z</time>
      </trkpt>
      <trkpt lat="46.68623" lon="5.80666">
        <ele>601.9</ele>
        <time>2022-02-24T12:23:43Z</time>
      </trkpt>
      <trkpt lat="46.68628" lon="5.8067">
        <ele>603.6</ele>
        <time>2022-02-24T12:23:48Z</time>
      </trkpt>
      <trkpt lat="46.68632" lon="5.80671">
        <ele>605.2</ele>
        <time>2022-02-24T12:23:53Z</time>
      </trkpt>
      <trkpt lat="46.68637" lon="5.80672">
        <ele>606.5</ele>
        <time>2022-02-24T12:23:59Z</time>
      </trkpt>
      <trkpt lat="46.68642" lon="5.80674">
        <ele>607.6</ele>
        <time>2022-02-24T12:24:05Z</time>
      </trkpt>
      <trkpt lat="46.68647" lon="5.80676">
        <ele>608.7</ele>
        <time>2022-02-24T12:24:10Z</time>
      </trkpt>
      <trkpt lat="46.68652" lon="5.80677">
        <ele>609.6</ele>
        <time>2022-02-24T12:24:15Z</time>
      </trkpt>
      <trkpt lat="46.68657" lon="5.80677">
        <ele>610.1</ele>
        <time>2022-02-24T12:24:19Z</time>
      </trkpt>
      <trkpt lat="46.68662" lon="5.80676">
        <ele>611.1</ele>
        <time>2022-02-24T12:24:24Z</time>
      </trkpt>
      <trkpt lat="46.68667" lon="5.80677">
        <ele>612.6</ele>
        <time>2022-02-24T12:24:29Z</time>
      </trkpt>
      <trkpt lat="46.68671" lon="5.80679">
        <ele>614.5</ele>
        <time>2022-02-24T12:24:35Z</time>
      </trkpt>
      <trkpt lat="46.68676" lon="5.80682">
        <ele>615.9</ele>
        <time>2022-02-24T12:24:42Z</time>
      </trkpt>
      <trkpt lat="46.68681" lon="5.80682">
        <ele>616.4</ele>
        <time>2022-02-24T12:24:48Z</time>
      </trkpt>
      <trkpt lat="46.68686" lon="5.80685">
        <ele>617.2</ele>
        <time>2022-02-24T12:24:54Z</time>
      </trkpt>
      <trkpt lat="46.68691" lon="5.80686">
        <ele>617.9</ele>
        <time>2022-02-24T12:24:59Z</time>
      </trkpt>
      <trkpt lat="46.68696" lon="5.80687">
        <ele>616.6</ele>
        <time>2022-02-24T12:25:04Z</time>
      </trkpt>
      <trkpt lat="46.687" lon="5.80688">
        <ele>615.4</ele>
        <time>2022-02-24T12:25:08Z</time>
      </trkpt>
      <trkpt lat="46.68705" lon="5.8069">
        <ele>614.5</ele>
        <time>2022-02-24T12:25:13Z</time>
      </trkpt>
      <trkpt lat="46.6871" lon="5.80694">
        <ele>613.3</ele>
        <time>2022-02-24T12:25:17Z</time>
      </trkpt>
      <trkpt lat="46.68715" lon="5.80698">
        <ele>612.2</ele>
        <time>2022-02-24T12:25:21Z</time>
      </trkpt>
      <trkpt lat="46.68719" lon="5.80701">
        <ele>611.4</ele>
        <time>2022-02-24T12:25:25Z</time>
      </trkpt>
      <trkpt lat="46.68723" lon="5.80704">
        <ele>610.9</ele>
        <time>2022-02-24T12:25:29Z</time>
      </trkpt>
      <trkpt lat="46.68728" lon="5.80705">
        <ele>610.6</ele>
        <time>2022-02-24T12:25:34Z</time>
      </trkpt>
      <trkpt lat="46.68733" lon="5.80705">
        <ele>610.8</ele>
        <time>2022-02-24T12:25:39Z</time>
      </trkpt>
      <trkpt lat="46.68737" lon="5.80709">
        <ele>611.8</ele>
        <time>2022-02-24T12:25:47Z</time>
      </trkpt>
      <trkpt lat="46.68741" lon="5.80714">
        <ele>612.3</ele>
        <time>2022-02-24T12:25:53Z</time>
      </trkpt>
      <trkpt lat="46.68743" lon="5.80722">
        <ele>613</ele>
        <time>2022-02-24T12:25:58Z</time>
      </trkpt>
      <trkpt lat="46.68743" lon="5.8073">
        <ele>613.7</ele>
        <time>2022-02-24T12:26:02Z</time>
      </trkpt>
      <trkpt lat="46.68744" lon="5.80737">
        <ele>613.6</ele>
        <time>2022-02-24T12:26:07Z</time>
      </trkpt>
      <trkpt lat="46.68746" lon="5.80744">
        <ele>613.5</ele>
        <time>2022-02-24T12:26:11Z</time>
      </trkpt>
      <trkpt lat="46.6875" lon="5.8075">
        <ele>613.6</ele>
        <time>2022-02-24T12:26:15Z</time>
      </trkpt>
      <trkpt lat="46.68754" lon="5.80753">
        <ele>613.7</ele>
        <time>2022-02-24T12:26:19Z</time>
      </trkpt>
      <trkpt lat="46.68756" lon="5.80759">
        <ele>613.8</ele>
        <time>2022-02-24T12:26:25Z</time>
      </trkpt>
      <trkpt lat="46.68759" lon="5.80766">
        <ele>614</ele>
        <time>2022-02-24T12:26:30Z</time>
      </trkpt>
      <trkpt lat="46.68762" lon="5.80771">
        <ele>614.5</ele>
        <time>2022-02-24T12:26:34Z</time>
      </trkpt>
      <trkpt lat="46.68765" lon="5.80777">
        <ele>614.9</ele>
        <time>2022-02-24T12:26:38Z</time>
      </trkpt>
      <trkpt lat="46.68769" lon="5.80782">
        <ele>615.3</ele>
        <time>2022-02-24T12:26:42Z</time>
      </trkpt>
      <trkpt lat="46.68773" lon="5.80787">
        <ele>615.8</ele>
        <time>2022-02-24T12:26:47Z</time>
      </trkpt>
      <trkpt lat="46.68775" lon="5.80793">
        <ele>617.1</ele>
        <time>2022-02-24T12:26:53Z</time>
      </trkpt>
      <trkpt lat="46.68779" lon="5.80798">
        <ele>618.3</ele>
        <time>2022-02-24T12:26:58Z</time>
      </trkpt>
      <trkpt lat="46.68784" lon="5.80802">
        <ele>619.4</ele>
        <time>2022-02-24T12:27:03Z</time>
      </trkpt>
      <trkpt lat="46.68788" lon="5.80807">
        <ele>620.5</ele>
        <time>2022-02-24T12:27:10Z</time>
      </trkpt>
      <trkpt lat="46.68791" lon="5.80812">
        <ele>620.9</ele>
        <time>2022-02-24T12:27:17Z</time>
      </trkpt>
      <trkpt lat="46.68795" lon="5.80817">
        <ele>620.9</ele>
        <time>2022-02-24T12:27:23Z</time>
      </trkpt>
      <trkpt lat="46.68798" lon="5.80821">
        <ele>620.7</ele>
        <time>2022-02-24T12:27:27Z</time>
      </trkpt>
      <trkpt lat="46.68802" lon="5.80827">
        <ele>620.8</ele>
        <time>2022-02-24T12:27:32Z</time>
      </trkpt>
      <trkpt lat="46.68806" lon="5.80831">
        <ele>621.1</ele>
        <time>2022-02-24T12:27:37Z</time>
      </trkpt>
      <trkpt lat="46.68809" lon="5.80836">
        <ele>621.4</ele>
        <time>2022-02-24T12:27:41Z</time>
      </trkpt>
      <trkpt lat="46.68813" lon="5.80841">
        <ele>622</ele>
        <time>2022-02-24T12:27:46Z</time>
      </trkpt>
      <trkpt lat="46.68817" lon="5.80845">
        <ele>623.2</ele>
        <time>2022-02-24T12:27:51Z</time>
      </trkpt>
      <trkpt lat="46.68822" lon="5.80849">
        <ele>624</ele>
        <time>2022-02-24T12:27:55Z</time>
      </trkpt>
      <trkpt lat="46.68826" lon="5.80853">
        <ele>624.8</ele>
        <time>2022-02-24T12:27:59Z</time>
      </trkpt>
      <trkpt lat="46.6883" lon="5.80857">
        <ele>625.5</ele>
        <time>2022-02-24T12:28:02Z</time>
      </trkpt>
      <trkpt lat="46.68835" lon="5.80861">
        <ele>626.7</ele>
        <time>2022-02-24T12:28:07Z</time>
      </trkpt>
      <trkpt lat="46.68839" lon="5.80864">
        <ele>627.7</ele>
        <time>2022-02-24T12:28:12Z</time>
      </trkpt>
      <trkpt lat="46.68843" lon="5.80868">
        <ele>628.5</ele>
        <time>2022-02-24T12:28:17Z</time>
      </trkpt>
      <trkpt lat="46.68847" lon="5.80873">
        <ele>628.5</ele>
        <time>2022-02-24T12:28:21Z</time>
      </trkpt>
      <trkpt lat="46.68851" lon="5.80877">
        <ele>628.3</ele>
        <time>2022-02-24T12:28:25Z</time>
      </trkpt>
      <trkpt lat="46.68856" lon="5.80881">
        <ele>628.1</ele>
        <time>2022-02-24T12:28:29Z</time>
      </trkpt>
      <trkpt lat="46.6886" lon="5.80885">
        <ele>627.6</ele>
        <time>2022-02-24T12:28:34Z</time>
      </trkpt>
      <trkpt lat="46.68864" lon="5.8089">
        <ele>627.1</ele>
        <time>2022-02-24T12:28:40Z</time>
      </trkpt>
      <trkpt lat="46.68868" lon="5.80893">
        <ele>626.6</ele>
        <time>2022-02-24T12:28:44Z</time>
      </trkpt>
      <trkpt lat="46.68872" lon="5.80896">
        <ele>625.9</ele>
        <time>2022-02-24T12:28:48Z</time>
      </trkpt>
      <trkpt lat="46.68876" lon="5.80901">
        <ele>625.3</ele>
        <time>2022-02-24T12:28:53Z</time>
      </trkpt>
      <trkpt lat="46.68881" lon="5.80904">
        <ele>624.9</ele>
        <time>2022-02-24T12:28:58Z</time>
      </trkpt>
      <trkpt lat="46.68886" lon="5.80907">
        <ele>624.9</ele>
        <time>2022-02-24T12:29:02Z</time>
      </trkpt>
      <trkpt lat="46.68891" lon="5.80909">
        <ele>624.3</ele>
        <time>2022-02-24T12:29:07Z</time>
      </trkpt>
      <trkpt lat="46.68895" lon="5.8091">
        <ele>623.2</ele>
        <time>2022-02-24T12:29:12Z</time>
      </trkpt>
      <trkpt lat="46.689" lon="5.80913">
        <ele>621.6</ele>
        <time>2022-02-24T12:29:18Z</time>
      </trkpt>
      <trkpt lat="46.68903" lon="5.80918">
        <ele>620.7</ele>
        <time>2022-02-24T12:29:22Z</time>
      </trkpt>
      <trkpt lat="46.68907" lon="5.80925">
        <ele>620.1</ele>
        <time>2022-02-24T12:29:26Z</time>
      </trkpt>
      <trkpt lat="46.68911" lon="5.80931">
        <ele>620</ele>
        <time>2022-02-24T12:29:29Z</time>
      </trkpt>
      <trkpt lat="46.68914" lon="5.80937">
        <ele>620.1</ele>
        <time>2022-02-24T12:29:32Z</time>
      </trkpt>
      <trkpt lat="46.68918" lon="5.80942">
        <ele>620.2</ele>
        <time>2022-02-24T12:29:37Z</time>
      </trkpt>
      <trkpt lat="46.68923" lon="5.80942">
        <ele>619.7</ele>
        <time>2022-02-24T12:29:43Z</time>
      </trkpt>
      <trkpt lat="46.68927" lon="5.80947">
        <ele>619.1</ele>
        <time>2022-02-24T12:29:49Z</time>
      </trkpt>
      <trkpt lat="46.68931" lon="5.80953">
        <ele>619.5</ele>
        <time>2022-02-24T12:29:52Z</time>
      </trkpt>
      <trkpt lat="46.68935" lon="5.80958">
        <ele>620</ele>
        <time>2022-02-24T12:29:56Z</time>
      </trkpt>
      <trkpt lat="46.6894" lon="5.80962">
        <ele>620.5</ele>
        <time>2022-02-24T12:30:02Z</time>
      </trkpt>
      <trkpt lat="46.68945" lon="5.80965">
        <ele>620.6</ele>
        <time>2022-02-24T12:30:07Z</time>
      </trkpt>
      <trkpt lat="46.68949" lon="5.80967">
        <ele>620.4</ele>
        <time>2022-02-24T12:30:11Z</time>
      </trkpt>
      <trkpt lat="46.68954" lon="5.80969">
        <ele>620.4</ele>
        <time>2022-02-24T12:30:15Z</time>
      </trkpt>
      <trkpt lat="46.68959" lon="5.80972">
        <ele>620.5</ele>
        <time>2022-02-24T12:30:19Z</time>
      </trkpt>
      <trkpt lat="46.68964" lon="5.80975">
        <ele>620.7</ele>
        <time>2022-02-24T12:30:23Z</time>
      </trkpt>
      <trkpt lat="46.68968" lon="5.80977">
        <ele>621.3</ele>
        <time>2022-02-24T12:30:28Z</time>
      </trkpt>
      <trkpt lat="46.68973" lon="5.80978">
        <ele>622.2</ele>
        <time>2022-02-24T12:30:35Z</time>
      </trkpt>
      <trkpt lat="46.68977" lon="5.80982">
        <ele>622.9</ele>
        <time>2022-02-24T12:30:40Z</time>
      </trkpt>
      <trkpt lat="46.68982" lon="5.80985">
        <ele>622.7</ele>
        <time>2022-02-24T12:30:44Z</time>
      </trkpt>
      <trkpt lat="46.68986" lon="5.80986">
        <ele>622.6</ele>
        <time>2022-02-24T12:30:49Z</time>
      </trkpt>
      <trkpt lat="46.68992" lon="5.8099">
        <ele>622.4</ele>
        <time>2022-02-24T12:30:56Z</time>
      </trkpt>
      <trkpt lat="46.68998" lon="5.80994">
        <ele>622.4</ele>
        <time>2022-02-24T12:30:59Z</time>
      </trkpt>
      <trkpt lat="46.69003" lon="5.80995">
        <ele>622.2</ele>
        <time>2022-02-24T12:31:02Z</time>
      </trkpt>
      <trkpt lat="46.69007" lon="5.80997">
        <ele>621.4</ele>
        <time>2022-02-24T12:31:06Z</time>
      </trkpt>
      <trkpt lat="46.69012" lon="5.81">
        <ele>620.4</ele>
        <time>2022-02-24T12:31:12Z</time>
      </trkpt>
      <trkpt lat="46.69016" lon="5.81002">
        <ele>619.9</ele>
        <time>2022-02-24T12:31:16Z</time>
      </trkpt>
      <trkpt lat="46.69021" lon="5.81003">
        <ele>619.2</ele>
        <time>2022-02-24T12:31:20Z</time>
      </trkpt>
      <trkpt lat="46.69026" lon="5.81004">
        <ele>618.7</ele>
        <time>2022-02-24T12:31:24Z</time>
      </trkpt>
      <trkpt lat="46.69031" lon="5.81004">
        <ele>618.2</ele>
        <time>2022-02-24T12:31:28Z</time>
      </trkpt>
      <trkpt lat="46.69036" lon="5.81004">
        <ele>618</ele>
        <time>2022-02-24T12:31:32Z</time>
      </trkpt>
      <trkpt lat="46.69042" lon="5.81004">
        <ele>618</ele>
        <time>2022-02-24T12:31:35Z</time>
      </trkpt>
      <trkpt lat="46.69047" lon="5.81005">
        <ele>617.8</ele>
        <time>2022-02-24T12:31:39Z</time>
      </trkpt>
      <trkpt lat="46.69052" lon="5.81005">
        <ele>617.5</ele>
        <time>2022-02-24T12:31:43Z</time>
      </trkpt>
      <trkpt lat="46.69057" lon="5.81004">
        <ele>617.6</ele>
        <time>2022-02-24T12:31:48Z</time>
      </trkpt>
      <trkpt lat="46.69062" lon="5.81003">
        <ele>617.6</ele>
        <time>2022-02-24T12:31:52Z</time>
      </trkpt>
      <trkpt lat="46.69067" lon="5.81002">
        <ele>617.5</ele>
        <time>2022-02-24T12:31:56Z</time>
      </trkpt>
      <trkpt lat="46.69072" lon="5.81001">
        <ele>617.4</ele>
        <time>2022-02-24T12:32:01Z</time>
      </trkpt>
      <trkpt lat="46.69077" lon="5.81001">
        <ele>617.2</ele>
        <time>2022-02-24T12:32:06Z</time>
      </trkpt>
      <trkpt lat="46.69081" lon="5.81">
        <ele>617.1</ele>
        <time>2022-02-24T12:32:10Z</time>
      </trkpt>
      <trkpt lat="46.69085" lon="5.80997">
        <ele>617.1</ele>
        <time>2022-02-24T12:32:17Z</time>
      </trkpt>
      <trkpt lat="46.6909" lon="5.80994">
        <ele>617.2</ele>
        <time>2022-02-24T12:32:20Z</time>
      </trkpt>
      <trkpt lat="46.69095" lon="5.80991">
        <ele>617.4</ele>
        <time>2022-02-24T12:32:23Z</time>
      </trkpt>
      <trkpt lat="46.691" lon="5.80988">
        <ele>617.9</ele>
        <time>2022-02-24T12:32:27Z</time>
      </trkpt>
      <trkpt lat="46.69105" lon="5.80986">
        <ele>618.4</ele>
        <time>2022-02-24T12:32:31Z</time>
      </trkpt>
      <trkpt lat="46.6911" lon="5.80984">
        <ele>619</ele>
        <time>2022-02-24T12:32:37Z</time>
      </trkpt>
      <trkpt lat="46.69115" lon="5.80981">
        <ele>619.3</ele>
        <time>2022-02-24T12:32:42Z</time>
      </trkpt>
      <trkpt lat="46.69119" lon="5.80978">
        <ele>619.6</ele>
        <time>2022-02-24T12:32:46Z</time>
      </trkpt>
      <trkpt lat="46.69124" lon="5.80976">
        <ele>620.2</ele>
        <time>2022-02-24T12:32:50Z</time>
      </trkpt>
      <trkpt lat="46.69129" lon="5.80973">
        <ele>621</ele>
        <time>2022-02-24T12:32:55Z</time>
      </trkpt>
      <trkpt lat="46.69133" lon="5.80971">
        <ele>621.9</ele>
        <time>2022-02-24T12:33:01Z</time>
      </trkpt>
      <trkpt lat="46.69137" lon="5.80968">
        <ele>622.3</ele>
        <time>2022-02-24T12:33:06Z</time>
      </trkpt>
      <trkpt lat="46.69142" lon="5.80966">
        <ele>622.7</ele>
        <time>2022-02-24T12:33:10Z</time>
      </trkpt>
      <trkpt lat="46.69147" lon="5.80964">
        <ele>623.1</ele>
        <time>2022-02-24T12:33:14Z</time>
      </trkpt>
      <trkpt lat="46.69152" lon="5.80963">
        <ele>623.6</ele>
        <time>2022-02-24T12:33:18Z</time>
      </trkpt>
      <trkpt lat="46.69157" lon="5.80963">
        <ele>624.2</ele>
        <time>2022-02-24T12:33:22Z</time>
      </trkpt>
      <trkpt lat="46.69162" lon="5.80964">
        <ele>623.8</ele>
        <time>2022-02-24T12:33:28Z</time>
      </trkpt>
      <trkpt lat="46.69167" lon="5.80967">
        <ele>621.4</ele>
        <time>2022-02-24T12:33:36Z</time>
      </trkpt>
      <trkpt lat="46.69172" lon="5.80965">
        <ele>619</ele>
        <time>2022-02-24T12:33:43Z</time>
      </trkpt>
      <trkpt lat="46.69178" lon="5.80962">
        <ele>617.6</ele>
        <time>2022-02-24T12:33:47Z</time>
      </trkpt>
      <trkpt lat="46.69183" lon="5.80963">
        <ele>617</ele>
        <time>2022-02-24T12:33:50Z</time>
      </trkpt>
      <trkpt lat="46.69188" lon="5.80962">
        <ele>616.6</ele>
        <time>2022-02-24T12:33:54Z</time>
      </trkpt>
      <trkpt lat="46.69194" lon="5.8096">
        <ele>617.1</ele>
        <time>2022-02-24T12:33:58Z</time>
      </trkpt>
      <trkpt lat="46.69198" lon="5.80957">
        <ele>618.2</ele>
        <time>2022-02-24T12:34:01Z</time>
      </trkpt>
      <trkpt lat="46.69203" lon="5.80955">
        <ele>619.1</ele>
        <time>2022-02-24T12:34:05Z</time>
      </trkpt>
      <trkpt lat="46.69208" lon="5.80953">
        <ele>619.7</ele>
        <time>2022-02-24T12:34:09Z</time>
      </trkpt>
      <trkpt lat="46.69212" lon="5.80949">
        <ele>621.1</ele>
        <time>2022-02-24T12:34:18Z</time>
      </trkpt>
      <trkpt lat="46.69215" lon="5.80942">
        <ele>623.4</ele>
        <time>2022-02-24T12:34:27Z</time>
      </trkpt>
      <trkpt lat="46.6922" lon="5.80942">
        <ele>624.3</ele>
        <time>2022-02-24T12:34:31Z</time>
      </trkpt>
      <trkpt lat="46.69226" lon="5.80943">
        <ele>625</ele>
        <time>2022-02-24T12:34:34Z</time>
      </trkpt>
      <trkpt lat="46.69233" lon="5.80945">
        <ele>625.5</ele>
        <time>2022-02-24T12:34:37Z</time>
      </trkpt>
      <trkpt lat="46.69238" lon="5.80947">
        <ele>626</ele>
        <time>2022-02-24T12:34:40Z</time>
      </trkpt>
      <trkpt lat="46.69244" lon="5.80947">
        <ele>627</ele>
        <time>2022-02-24T12:34:45Z</time>
      </trkpt>
      <trkpt lat="46.69248" lon="5.80945">
        <ele>628.6</ele>
        <time>2022-02-24T12:34:49Z</time>
      </trkpt>
      <trkpt lat="46.69253" lon="5.80943">
        <ele>630</ele>
        <time>2022-02-24T12:34:53Z</time>
      </trkpt>
      <trkpt lat="46.69257" lon="5.80944">
        <ele>631.7</ele>
        <time>2022-02-24T12:34:59Z</time>
      </trkpt>
      <trkpt lat="46.69263" lon="5.80945">
        <ele>632.6</ele>
        <time>2022-02-24T12:35:03Z</time>
      </trkpt>
      <trkpt lat="46.69269" lon="5.80944">
        <ele>633.7</ele>
        <time>2022-02-24T12:35:07Z</time>
      </trkpt>
      <trkpt lat="46.69273" lon="5.80945">
        <ele>635</ele>
        <time>2022-02-24T12:35:11Z</time>
      </trkpt>
      <trkpt lat="46.69277" lon="5.8095">
        <ele>635.3</ele>
        <time>2022-02-24T12:35:16Z</time>
      </trkpt>
      <trkpt lat="46.69281" lon="5.80953">
        <ele>635</ele>
        <time>2022-02-24T12:35:22Z</time>
      </trkpt>
      <trkpt lat="46.69286" lon="5.80956">
        <ele>634.6</ele>
        <time>2022-02-24T12:35:27Z</time>
      </trkpt>
      <trkpt lat="46.69291" lon="5.80955">
        <ele>633.7</ele>
        <time>2022-02-24T12:35:33Z</time>
      </trkpt>
      <trkpt lat="46.69296" lon="5.80953">
        <ele>633.2</ele>
        <time>2022-02-24T12:35:37Z</time>
      </trkpt>
      <trkpt lat="46.693" lon="5.80952">
        <ele>633.2</ele>
        <time>2022-02-24T12:35:40Z</time>
      </trkpt>
      <trkpt lat="46.69305" lon="5.80953">
        <ele>633.2</ele>
        <time>2022-02-24T12:35:43Z</time>
      </trkpt>
      <trkpt lat="46.69309" lon="5.80956">
        <ele>633.1</ele>
        <time>2022-02-24T12:35:46Z</time>
      </trkpt>
      <trkpt lat="46.69314" lon="5.80957">
        <ele>632.7</ele>
        <time>2022-02-24T12:35:50Z</time>
      </trkpt>
      <trkpt lat="46.69319" lon="5.80957">
        <ele>632.1</ele>
        <time>2022-02-24T12:35:55Z</time>
      </trkpt>
      <trkpt lat="46.69323" lon="5.80958">
        <ele>631.7</ele>
        <time>2022-02-24T12:35:59Z</time>
      </trkpt>
      <trkpt lat="46.69328" lon="5.8096">
        <ele>631</ele>
        <time>2022-02-24T12:36:05Z</time>
      </trkpt>
      <trkpt lat="46.69333" lon="5.80961">
        <ele>630.6</ele>
        <time>2022-02-24T12:36:11Z</time>
      </trkpt>
      <trkpt lat="46.69338" lon="5.80961">
        <ele>631</ele>
        <time>2022-02-24T12:36:16Z</time>
      </trkpt>
      <trkpt lat="46.69344" lon="5.80961">
        <ele>631.4</ele>
        <time>2022-02-24T12:36:21Z</time>
      </trkpt>
      <trkpt lat="46.69348" lon="5.80962">
        <ele>631.5</ele>
        <time>2022-02-24T12:36:24Z</time>
      </trkpt>
      <trkpt lat="46.69353" lon="5.80965">
        <ele>631.4</ele>
        <time>2022-02-24T12:36:29Z</time>
      </trkpt>
      <trkpt lat="46.69357" lon="5.80966">
        <ele>631.6</ele>
        <time>2022-02-24T12:36:33Z</time>
      </trkpt>
      <trkpt lat="46.69362" lon="5.80967">
        <ele>632.5</ele>
        <time>2022-02-24T12:36:38Z</time>
      </trkpt>
      <trkpt lat="46.69367" lon="5.80969">
        <ele>633.2</ele>
        <time>2022-02-24T12:36:42Z</time>
      </trkpt>
      <trkpt lat="46.69371" lon="5.8097">
        <ele>633.7</ele>
        <time>2022-02-24T12:36:45Z</time>
      </trkpt>
      <trkpt lat="46.69376" lon="5.8097">
        <ele>633.9</ele>
        <time>2022-02-24T12:36:48Z</time>
      </trkpt>
      <trkpt lat="46.69381" lon="5.80969">
        <ele>634.1</ele>
        <time>2022-02-24T12:36:52Z</time>
      </trkpt>
      <trkpt lat="46.69386" lon="5.80969">
        <ele>634.1</ele>
        <time>2022-02-24T12:36:56Z</time>
      </trkpt>
      <trkpt lat="46.6939" lon="5.8097">
        <ele>633.9</ele>
        <time>2022-02-24T12:37:00Z</time>
      </trkpt>
      <trkpt lat="46.69395" lon="5.80973">
        <ele>633.5</ele>
        <time>2022-02-24T12:37:05Z</time>
      </trkpt>
      <trkpt lat="46.694" lon="5.80975">
        <ele>632.7</ele>
        <time>2022-02-24T12:37:10Z</time>
      </trkpt>
      <trkpt lat="46.69405" lon="5.80975">
        <ele>632.5</ele>
        <time>2022-02-24T12:37:14Z</time>
      </trkpt>
      <trkpt lat="46.69409" lon="5.80976">
        <ele>632.6</ele>
        <time>2022-02-24T12:37:18Z</time>
      </trkpt>
      <trkpt lat="46.69415" lon="5.80977">
        <ele>633</ele>
        <time>2022-02-24T12:37:23Z</time>
      </trkpt>
      <trkpt lat="46.69419" lon="5.80978">
        <ele>633.3</ele>
        <time>2022-02-24T12:37:28Z</time>
      </trkpt>
      <trkpt lat="46.69424" lon="5.80981">
        <ele>633.3</ele>
        <time>2022-02-24T12:37:33Z</time>
      </trkpt>
      <trkpt lat="46.69429" lon="5.80983">
        <ele>633.2</ele>
        <time>2022-02-24T12:37:37Z</time>
      </trkpt>
      <trkpt lat="46.69434" lon="5.80984">
        <ele>632.6</ele>
        <time>2022-02-24T12:37:42Z</time>
      </trkpt>
      <trkpt lat="46.69439" lon="5.80985">
        <ele>630.7</ele>
        <time>2022-02-24T12:37:47Z</time>
      </trkpt>
      <trkpt lat="46.69445" lon="5.80987">
        <ele>628</ele>
        <time>2022-02-24T12:37:52Z</time>
      </trkpt>
      <trkpt lat="46.69449" lon="5.80989">
        <ele>626</ele>
        <time>2022-02-24T12:37:56Z</time>
      </trkpt>
      <trkpt lat="46.69455" lon="5.8099">
        <ele>624.2</ele>
        <time>2022-02-24T12:38:01Z</time>
      </trkpt>
      <trkpt lat="46.69459" lon="5.80991">
        <ele>622.6</ele>
        <time>2022-02-24T12:38:07Z</time>
      </trkpt>
      <trkpt lat="46.69464" lon="5.80993">
        <ele>621.2</ele>
        <time>2022-02-24T12:38:13Z</time>
      </trkpt>
      <trkpt lat="46.6947" lon="5.80994">
        <ele>620.3</ele>
        <time>2022-02-24T12:38:18Z</time>
      </trkpt>
      <trkpt lat="46.69475" lon="5.80995">
        <ele>619.7</ele>
        <time>2022-02-24T12:38:22Z</time>
      </trkpt>
      <trkpt lat="46.6948" lon="5.80996">
        <ele>619</ele>
        <time>2022-02-24T12:38:26Z</time>
      </trkpt>
      <trkpt lat="46.69484" lon="5.80999">
        <ele>617.9</ele>
        <time>2022-02-24T12:38:31Z</time>
      </trkpt>
      <trkpt lat="46.69488" lon="5.81001">
        <ele>617</ele>
        <time>2022-02-24T12:38:35Z</time>
      </trkpt>
      <trkpt lat="46.69493" lon="5.81003">
        <ele>616.7</ele>
        <time>2022-02-24T12:38:39Z</time>
      </trkpt>
      <trkpt lat="46.69498" lon="5.81002">
        <ele>616.8</ele>
        <time>2022-02-24T12:38:43Z</time>
      </trkpt>
      <trkpt lat="46.69503" lon="5.81003">
        <ele>617.4</ele>
        <time>2022-02-24T12:38:47Z</time>
      </trkpt>
      <trkpt lat="46.69508" lon="5.81004">
        <ele>618.3</ele>
        <time>2022-02-24T12:38:51Z</time>
      </trkpt>
      <trkpt lat="46.69513" lon="5.81006">
        <ele>619.5</ele>
        <time>2022-02-24T12:38:56Z</time>
      </trkpt>
      <trkpt lat="46.69518" lon="5.81007">
        <ele>620.7</ele>
        <time>2022-02-24T12:39:00Z</time>
      </trkpt>
      <trkpt lat="46.69522" lon="5.81009">
        <ele>621.8</ele>
        <time>2022-02-24T12:39:04Z</time>
      </trkpt>
      <trkpt lat="46.69527" lon="5.81011">
        <ele>622.4</ele>
        <time>2022-02-24T12:39:07Z</time>
      </trkpt>
      <trkpt lat="46.69532" lon="5.81012">
        <ele>623.3</ele>
        <time>2022-02-24T12:39:11Z</time>
      </trkpt>
      <trkpt lat="46.69537" lon="5.81015">
        <ele>624.2</ele>
        <time>2022-02-24T12:39:15Z</time>
      </trkpt>
      <trkpt lat="46.69543" lon="5.81017">
        <ele>625</ele>
        <time>2022-02-24T12:39:19Z</time>
      </trkpt>
      <trkpt lat="46.69547" lon="5.81019">
        <ele>625.8</ele>
        <time>2022-02-24T12:39:22Z</time>
      </trkpt>
      <trkpt lat="46.69552" lon="5.81019">
        <ele>626.9</ele>
        <time>2022-02-24T12:39:26Z</time>
      </trkpt>
      <trkpt lat="46.69557" lon="5.81021">
        <ele>628.1</ele>
        <time>2022-02-24T12:39:32Z</time>
      </trkpt>
      <trkpt lat="46.69561" lon="5.81024">
        <ele>628.7</ele>
        <time>2022-02-24T12:39:36Z</time>
      </trkpt>
      <trkpt lat="46.69566" lon="5.81023">
        <ele>628.8</ele>
        <time>2022-02-24T12:39:40Z</time>
      </trkpt>
      <trkpt lat="46.69571" lon="5.81024">
        <ele>628.6</ele>
        <time>2022-02-24T12:39:45Z</time>
      </trkpt>
      <trkpt lat="46.69575" lon="5.81027">
        <ele>628.1</ele>
        <time>2022-02-24T12:39:50Z</time>
      </trkpt>
      <trkpt lat="46.6958" lon="5.81031">
        <ele>627.8</ele>
        <time>2022-02-24T12:39:54Z</time>
      </trkpt>
      <trkpt lat="46.69585" lon="5.81032">
        <ele>627.4</ele>
        <time>2022-02-24T12:39:58Z</time>
      </trkpt>
      <trkpt lat="46.6959" lon="5.81033">
        <ele>627.2</ele>
        <time>2022-02-24T12:40:02Z</time>
      </trkpt>
      <trkpt lat="46.69594" lon="5.81035">
        <ele>627.1</ele>
        <time>2022-02-24T12:40:06Z</time>
      </trkpt>
      <trkpt lat="46.69598" lon="5.81039">
        <ele>626.9</ele>
        <time>2022-02-24T12:40:10Z</time>
      </trkpt>
      <trkpt lat="46.69602" lon="5.81041">
        <ele>626.7</ele>
        <time>2022-02-24T12:40:14Z</time>
      </trkpt>
      <trkpt lat="46.69607" lon="5.81043">
        <ele>626.6</ele>
        <time>2022-02-24T12:40:18Z</time>
      </trkpt>
      <trkpt lat="46.69612" lon="5.81045">
        <ele>626.3</ele>
        <time>2022-02-24T12:40:23Z</time>
      </trkpt>
      <trkpt lat="46.69617" lon="5.81047">
        <ele>626</ele>
        <time>2022-02-24T12:40:27Z</time>
      </trkpt>
      <trkpt lat="46.69621" lon="5.8105">
        <ele>625.5</ele>
        <time>2022-02-24T12:40:31Z</time>
      </trkpt>
      <trkpt lat="46.69626" lon="5.81053">
        <ele>624.5</ele>
        <time>2022-02-24T12:40:36Z</time>
      </trkpt>
      <trkpt lat="46.69632" lon="5.81055">
        <ele>624</ele>
        <time>2022-02-24T12:40:41Z</time>
      </trkpt>
      <trkpt lat="46.69637" lon="5.81055">
        <ele>623.7</ele>
        <time>2022-02-24T12:40:45Z</time>
      </trkpt>
      <trkpt lat="46.69642" lon="5.81057">
        <ele>623.1</ele>
        <time>2022-02-24T12:40:51Z</time>
      </trkpt>
      <trkpt lat="46.69646" lon="5.8106">
        <ele>622.7</ele>
        <time>2022-02-24T12:40:56Z</time>
      </trkpt>
      <trkpt lat="46.69652" lon="5.81062">
        <ele>622.1</ele>
        <time>2022-02-24T12:41:01Z</time>
      </trkpt>
      <trkpt lat="46.69656" lon="5.81065">
        <ele>621.5</ele>
        <time>2022-02-24T12:41:05Z</time>
      </trkpt>
      <trkpt lat="46.6966" lon="5.81068">
        <ele>621</ele>
        <time>2022-02-24T12:41:09Z</time>
      </trkpt>
      <trkpt lat="46.69665" lon="5.81071">
        <ele>620.4</ele>
        <time>2022-02-24T12:41:14Z</time>
      </trkpt>
      <trkpt lat="46.6967" lon="5.81074">
        <ele>620.2</ele>
        <time>2022-02-24T12:41:18Z</time>
      </trkpt>
      <trkpt lat="46.69675" lon="5.81077">
        <ele>620</ele>
        <time>2022-02-24T12:41:22Z</time>
      </trkpt>
      <trkpt lat="46.69679" lon="5.81081">
        <ele>620.1</ele>
        <time>2022-02-24T12:41:27Z</time>
      </trkpt>
      <trkpt lat="46.69683" lon="5.81083">
        <ele>620.9</ele>
        <time>2022-02-24T12:41:34Z</time>
      </trkpt>
      <trkpt lat="46.69688" lon="5.81081">
        <ele>629.7</ele>
        <time>2022-02-24T12:42:17Z</time>
      </trkpt>
      <trkpt lat="46.69692" lon="5.81079">
        <ele>629.3</ele>
        <time>2022-02-24T12:42:20Z</time>
      </trkpt>
      <trkpt lat="46.69697" lon="5.8108">
        <ele>628.6</ele>
        <time>2022-02-24T12:42:23Z</time>
      </trkpt>
      <trkpt lat="46.69703" lon="5.8108">
        <ele>627.5</ele>
        <time>2022-02-24T12:42:27Z</time>
      </trkpt>
      <trkpt lat="46.69708" lon="5.81079">
        <ele>626.3</ele>
        <time>2022-02-24T12:42:31Z</time>
      </trkpt>
      <trkpt lat="46.69711" lon="5.81074">
        <ele>623.7</ele>
        <time>2022-02-24T12:42:41Z</time>
      </trkpt>
      <trkpt lat="46.69715" lon="5.81069">
        <ele>622</ele>
        <time>2022-02-24T12:42:56Z</time>
      </trkpt>
      <trkpt lat="46.69719" lon="5.81065">
        <ele>620.5</ele>
        <time>2022-02-24T12:43:01Z</time>
      </trkpt>
      <trkpt lat="46.69724" lon="5.81063">
        <ele>619</ele>
        <time>2022-02-24T12:43:05Z</time>
      </trkpt>
      <trkpt lat="46.69728" lon="5.8106">
        <ele>617.4</ele>
        <time>2022-02-24T12:43:10Z</time>
      </trkpt>
      <trkpt lat="46.69733" lon="5.81057">
        <ele>616.5</ele>
        <time>2022-02-24T12:43:14Z</time>
      </trkpt>
      <trkpt lat="46.69737" lon="5.81052">
        <ele>616.6</ele>
        <time>2022-02-24T12:43:18Z</time>
      </trkpt>
      <trkpt lat="46.69741" lon="5.81047">
        <ele>617.3</ele>
        <time>2022-02-24T12:43:22Z</time>
      </trkpt>
      <trkpt lat="46.69746" lon="5.81044">
        <ele>617.7</ele>
        <time>2022-02-24T12:43:26Z</time>
      </trkpt>
      <trkpt lat="46.6975" lon="5.81041">
        <ele>618.4</ele>
        <time>2022-02-24T12:43:30Z</time>
      </trkpt>
      <trkpt lat="46.69754" lon="5.81038">
        <ele>619.2</ele>
        <time>2022-02-24T12:43:34Z</time>
      </trkpt>
      <trkpt lat="46.69759" lon="5.81034">
        <ele>620.1</ele>
        <time>2022-02-24T12:43:39Z</time>
      </trkpt>
      <trkpt lat="46.69763" lon="5.81029">
        <ele>620.8</ele>
        <time>2022-02-24T12:43:44Z</time>
      </trkpt>
      <trkpt lat="46.69767" lon="5.81024">
        <ele>621.3</ele>
        <time>2022-02-24T12:43:49Z</time>
      </trkpt>
      <trkpt lat="46.69771" lon="5.8102">
        <ele>621.6</ele>
        <time>2022-02-24T12:43:54Z</time>
      </trkpt>
      <trkpt lat="46.69776" lon="5.81016">
        <ele>621.9</ele>
        <time>2022-02-24T12:43:59Z</time>
      </trkpt>
      <trkpt lat="46.6978" lon="5.81014">
        <ele>622.1</ele>
        <time>2022-02-24T12:44:03Z</time>
      </trkpt>
      <trkpt lat="46.69784" lon="5.8101">
        <ele>622.3</ele>
        <time>2022-02-24T12:44:07Z</time>
      </trkpt>
      <trkpt lat="46.69788" lon="5.81005">
        <ele>622.3</ele>
        <time>2022-02-24T12:44:12Z</time>
      </trkpt>
      <trkpt lat="46.69792" lon="5.80999">
        <ele>622.1</ele>
        <time>2022-02-24T12:44:17Z</time>
      </trkpt>
      <trkpt lat="46.69795" lon="5.80993">
        <ele>621.6</ele>
        <time>2022-02-24T12:44:21Z</time>
      </trkpt>
      <trkpt lat="46.698" lon="5.80988">
        <ele>621.3</ele>
        <time>2022-02-24T12:44:25Z</time>
      </trkpt>
      <trkpt lat="46.69804" lon="5.80983">
        <ele>620.9</ele>
        <time>2022-02-24T12:44:29Z</time>
      </trkpt>
      <trkpt lat="46.69808" lon="5.80979">
        <ele>620.6</ele>
        <time>2022-02-24T12:44:33Z</time>
      </trkpt>
      <trkpt lat="46.69812" lon="5.80975">
        <ele>620.3</ele>
        <time>2022-02-24T12:44:38Z</time>
      </trkpt>
      <trkpt lat="46.69816" lon="5.80971">
        <ele>620.1</ele>
        <time>2022-02-24T12:44:42Z</time>
      </trkpt>
      <trkpt lat="46.69819" lon="5.80966">
        <ele>620</ele>
        <time>2022-02-24T12:44:46Z</time>
      </trkpt>
      <trkpt lat="46.69822" lon="5.8096">
        <ele>620</ele>
        <time>2022-02-24T12:44:50Z</time>
      </trkpt>
      <trkpt lat="46.69825" lon="5.80955">
        <ele>619.8</ele>
        <time>2022-02-24T12:44:54Z</time>
      </trkpt>
      <trkpt lat="46.6983" lon="5.8095">
        <ele>619.6</ele>
        <time>2022-02-24T12:44:59Z</time>
      </trkpt>
      <trkpt lat="46.69833" lon="5.80945">
        <ele>619.4</ele>
        <time>2022-02-24T12:45:03Z</time>
      </trkpt>
      <trkpt lat="46.69836" lon="5.80939">
        <ele>619.4</ele>
        <time>2022-02-24T12:45:07Z</time>
      </trkpt>
      <trkpt lat="46.6984" lon="5.80933">
        <ele>619.3</ele>
        <time>2022-02-24T12:45:11Z</time>
      </trkpt>
      <trkpt lat="46.69844" lon="5.80928">
        <ele>619.2</ele>
        <time>2022-02-24T12:45:16Z</time>
      </trkpt>
      <trkpt lat="46.69848" lon="5.80923">
        <ele>619.2</ele>
        <time>2022-02-24T12:45:21Z</time>
      </trkpt>
      <trkpt lat="46.69852" lon="5.80919">
        <ele>619.1</ele>
        <time>2022-02-24T12:45:25Z</time>
      </trkpt>
      <trkpt lat="46.69856" lon="5.80914">
        <ele>618.8</ele>
        <time>2022-02-24T12:45:29Z</time>
      </trkpt>
      <trkpt lat="46.69859" lon="5.80909">
        <ele>618.5</ele>
        <time>2022-02-24T12:45:33Z</time>
      </trkpt>
      <trkpt lat="46.69861" lon="5.80903">
        <ele>617.9</ele>
        <time>2022-02-24T12:45:38Z</time>
      </trkpt>
      <trkpt lat="46.69863" lon="5.80897">
        <ele>617.3</ele>
        <time>2022-02-24T12:45:43Z</time>
      </trkpt>
      <trkpt lat="46.69866" lon="5.80891">
        <ele>616.7</ele>
        <time>2022-02-24T12:45:47Z</time>
      </trkpt>
      <trkpt lat="46.69869" lon="5.80884">
        <ele>616</ele>
        <time>2022-02-24T12:45:51Z</time>
      </trkpt>
      <trkpt lat="46.69872" lon="5.80879">
        <ele>615.4</ele>
        <time>2022-02-24T12:45:55Z</time>
      </trkpt>
      <trkpt lat="46.69876" lon="5.80874">
        <ele>614.9</ele>
        <time>2022-02-24T12:45:58Z</time>
      </trkpt>
      <trkpt lat="46.69879" lon="5.80868">
        <ele>614</ele>
        <time>2022-02-24T12:46:02Z</time>
      </trkpt>
      <trkpt lat="46.69881" lon="5.80861">
        <ele>613</ele>
        <time>2022-02-24T12:46:06Z</time>
      </trkpt>
      <trkpt lat="46.69884" lon="5.80856">
        <ele>612.1</ele>
        <time>2022-02-24T12:46:10Z</time>
      </trkpt>
      <trkpt lat="46.69885" lon="5.80848">
        <ele>611.5</ele>
        <time>2022-02-24T12:46:14Z</time>
      </trkpt>
      <trkpt lat="46.69888" lon="5.80841">
        <ele>611</ele>
        <time>2022-02-24T12:46:18Z</time>
      </trkpt>
      <trkpt lat="46.69889" lon="5.80835">
        <ele>610.5</ele>
        <time>2022-02-24T12:46:22Z</time>
      </trkpt>
      <trkpt lat="46.69891" lon="5.80828">
        <ele>610.1</ele>
        <time>2022-02-24T12:46:27Z</time>
      </trkpt>
      <trkpt lat="46.69894" lon="5.80822">
        <ele>609.6</ele>
        <time>2022-02-24T12:46:31Z</time>
      </trkpt>
      <trkpt lat="46.69896" lon="5.80816">
        <ele>609.3</ele>
        <time>2022-02-24T12:46:36Z</time>
      </trkpt>
      <trkpt lat="46.699" lon="5.80811">
        <ele>609</ele>
        <time>2022-02-24T12:46:40Z</time>
      </trkpt>
      <trkpt lat="46.69903" lon="5.80806">
        <ele>609.1</ele>
        <time>2022-02-24T12:46:44Z</time>
      </trkpt>
      <trkpt lat="46.69906" lon="5.808">
        <ele>609.4</ele>
        <time>2022-02-24T12:46:48Z</time>
      </trkpt>
      <trkpt lat="46.69909" lon="5.80794">
        <ele>609.2</ele>
        <time>2022-02-24T12:46:54Z</time>
      </trkpt>
      <trkpt lat="46.69911" lon="5.80786">
        <ele>609.3</ele>
        <time>2022-02-24T12:46:59Z</time>
      </trkpt>
      <trkpt lat="46.69913" lon="5.8078">
        <ele>609.6</ele>
        <time>2022-02-24T12:47:03Z</time>
      </trkpt>
      <trkpt lat="46.69916" lon="5.80774">
        <ele>610.1</ele>
        <time>2022-02-24T12:47:07Z</time>
      </trkpt>
      <trkpt lat="46.69918" lon="5.80766">
        <ele>611</ele>
        <time>2022-02-24T12:47:11Z</time>
      </trkpt>
      <trkpt lat="46.69921" lon="5.80761">
        <ele>611.5</ele>
        <time>2022-02-24T12:47:14Z</time>
      </trkpt>
      <trkpt lat="46.69924" lon="5.80754">
        <ele>612.2</ele>
        <time>2022-02-24T12:47:18Z</time>
      </trkpt>
      <trkpt lat="46.69927" lon="5.80749">
        <ele>612.6</ele>
        <time>2022-02-24T12:47:22Z</time>
      </trkpt>
      <trkpt lat="46.6993" lon="5.80743">
        <ele>613.4</ele>
        <time>2022-02-24T12:47:27Z</time>
      </trkpt>
      <trkpt lat="46.69932" lon="5.80737">
        <ele>613.8</ele>
        <time>2022-02-24T12:47:32Z</time>
      </trkpt>
      <trkpt lat="46.69933" lon="5.80729">
        <ele>614</ele>
        <time>2022-02-24T12:47:37Z</time>
      </trkpt>
      <trkpt lat="46.69934" lon="5.80722">
        <ele>613.9</ele>
        <time>2022-02-24T12:47:41Z</time>
      </trkpt>
      <trkpt lat="46.69936" lon="5.80715">
        <ele>613.7</ele>
        <time>2022-02-24T12:47:45Z</time>
      </trkpt>
      <trkpt lat="46.6994" lon="5.8071">
        <ele>613.7</ele>
        <time>2022-02-24T12:47:50Z</time>
      </trkpt>
      <trkpt lat="46.69943" lon="5.80704">
        <ele>613.6</ele>
        <time>2022-02-24T12:47:55Z</time>
      </trkpt>
      <trkpt lat="46.69945" lon="5.80698">
        <ele>613.8</ele>
        <time>2022-02-24T12:48:00Z</time>
      </trkpt>
      <trkpt lat="46.69949" lon="5.80693">
        <ele>613.5</ele>
        <time>2022-02-24T12:48:05Z</time>
      </trkpt>
      <trkpt lat="46.69952" lon="5.80687">
        <ele>613</ele>
        <time>2022-02-24T12:48:10Z</time>
      </trkpt>
      <trkpt lat="46.69952" lon="5.8068">
        <ele>613.1</ele>
        <time>2022-02-24T12:48:15Z</time>
      </trkpt>
      <trkpt lat="46.69954" lon="5.80673">
        <ele>613</ele>
        <time>2022-02-24T12:48:20Z</time>
      </trkpt>
      <trkpt lat="46.69957" lon="5.80666">
        <ele>612.9</ele>
        <time>2022-02-24T12:48:25Z</time>
      </trkpt>
      <trkpt lat="46.69958" lon="5.80659">
        <ele>612</ele>
        <time>2022-02-24T12:48:31Z</time>
      </trkpt>
      <trkpt lat="46.69962" lon="5.80653">
        <ele>611.1</ele>
        <time>2022-02-24T12:48:36Z</time>
      </trkpt>
      <trkpt lat="46.69965" lon="5.8065">
        <ele>610.3</ele>
        <time>2022-02-24T12:48:40Z</time>
      </trkpt>
      <trkpt lat="46.69968" lon="5.80644">
        <ele>609.7</ele>
        <time>2022-02-24T12:48:44Z</time>
      </trkpt>
      <trkpt lat="46.69971" lon="5.80638">
        <ele>609.3</ele>
        <time>2022-02-24T12:48:49Z</time>
      </trkpt>
      <trkpt lat="46.69975" lon="5.80632">
        <ele>609.1</ele>
        <time>2022-02-24T12:48:54Z</time>
      </trkpt>
      <trkpt lat="46.69979" lon="5.80629">
        <ele>609.1</ele>
        <time>2022-02-24T12:48:58Z</time>
      </trkpt>
      <trkpt lat="46.69985" lon="5.80627">
        <ele>609.6</ele>
        <time>2022-02-24T12:49:02Z</time>
      </trkpt>
      <trkpt lat="46.69989" lon="5.80625">
        <ele>610.2</ele>
        <time>2022-02-24T12:49:06Z</time>
      </trkpt>
      <trkpt lat="46.69994" lon="5.80622">
        <ele>611</ele>
        <time>2022-02-24T12:49:11Z</time>
      </trkpt>
      <trkpt lat="46.69997" lon="5.80617">
        <ele>611.4</ele>
        <time>2022-02-24T12:49:16Z</time>
      </trkpt>
      <trkpt lat="46.69999" lon="5.8061">
        <ele>611.8</ele>
        <time>2022-02-24T12:49:20Z</time>
      </trkpt>
      <trkpt lat="46.70002" lon="5.80605">
        <ele>611.9</ele>
        <time>2022-02-24T12:49:25Z</time>
      </trkpt>
      <trkpt lat="46.70005" lon="5.806">
        <ele>612</ele>
        <time>2022-02-24T12:49:30Z</time>
      </trkpt>
      <trkpt lat="46.70009" lon="5.80595">
        <ele>612</ele>
        <time>2022-02-24T12:49:34Z</time>
      </trkpt>
      <trkpt lat="46.70013" lon="5.80591">
        <ele>611.8</ele>
        <time>2022-02-24T12:49:38Z</time>
      </trkpt>
      <trkpt lat="46.70018" lon="5.80587">
        <ele>611.5</ele>
        <time>2022-02-24T12:49:43Z</time>
      </trkpt>
      <trkpt lat="46.7002" lon="5.80581">
        <ele>611.8</ele>
        <time>2022-02-24T12:49:47Z</time>
      </trkpt>
      <trkpt lat="46.70025" lon="5.80576">
        <ele>612.1</ele>
        <time>2022-02-24T12:49:51Z</time>
      </trkpt>
      <trkpt lat="46.7003" lon="5.80572">
        <ele>612.2</ele>
        <time>2022-02-24T12:49:55Z</time>
      </trkpt>
      <trkpt lat="46.70033" lon="5.80566">
        <ele>612.1</ele>
        <time>2022-02-24T12:50:00Z</time>
      </trkpt>
      <trkpt lat="46.70036" lon="5.8056">
        <ele>611.5</ele>
        <time>2022-02-24T12:50:06Z</time>
      </trkpt>
      <trkpt lat="46.70039" lon="5.80554">
        <ele>610.7</ele>
        <time>2022-02-24T12:50:11Z</time>
      </trkpt>
      <trkpt lat="46.70043" lon="5.8055">
        <ele>609.8</ele>
        <time>2022-02-24T12:50:16Z</time>
      </trkpt>
      <trkpt lat="46.70047" lon="5.80546">
        <ele>609.4</ele>
        <time>2022-02-24T12:50:20Z</time>
      </trkpt>
      <trkpt lat="46.70052" lon="5.80543">
        <ele>609.2</ele>
        <time>2022-02-24T12:50:24Z</time>
      </trkpt>
      <trkpt lat="46.70056" lon="5.80537">
        <ele>609</ele>
        <time>2022-02-24T12:50:28Z</time>
      </trkpt>
      <trkpt lat="46.70059" lon="5.80533">
        <ele>609</ele>
        <time>2022-02-24T12:50:33Z</time>
      </trkpt>
      <trkpt lat="46.70061" lon="5.80525">
        <ele>609.8</ele>
        <time>2022-02-24T12:50:39Z</time>
      </trkpt>
      <trkpt lat="46.70063" lon="5.80519">
        <ele>610</ele>
        <time>2022-02-24T12:50:45Z</time>
      </trkpt>
      <trkpt lat="46.70068" lon="5.80522">
        <ele>608.7</ele>
        <time>2022-02-24T12:50:51Z</time>
      </trkpt>
      <trkpt lat="46.70073" lon="5.80521">
        <ele>607.3</ele>
        <time>2022-02-24T12:50:57Z</time>
      </trkpt>
      <trkpt lat="46.70077" lon="5.80518">
        <ele>605.8</ele>
        <time>2022-02-24T12:51:00Z</time>
      </trkpt>
      <trkpt lat="46.70082" lon="5.80513">
        <ele>604.6</ele>
        <time>2022-02-24T12:51:03Z</time>
      </trkpt>
      <trkpt lat="46.70085" lon="5.80508">
        <ele>604.5</ele>
        <time>2022-02-24T12:51:06Z</time>
      </trkpt>
      <trkpt lat="46.70089" lon="5.80503">
        <ele>605.3</ele>
        <time>2022-02-24T12:51:09Z</time>
      </trkpt>
      <trkpt lat="46.70093" lon="5.80499">
        <ele>605.7</ele>
        <time>2022-02-24T12:51:12Z</time>
      </trkpt>
      <trkpt lat="46.70098" lon="5.80496">
        <ele>605.9</ele>
        <time>2022-02-24T12:51:15Z</time>
      </trkpt>
      <trkpt lat="46.70102" lon="5.8049">
        <ele>606.2</ele>
        <time>2022-02-24T12:51:19Z</time>
      </trkpt>
      <trkpt lat="46.70104" lon="5.80485">
        <ele>607.5</ele>
        <time>2022-02-24T12:51:23Z</time>
      </trkpt>
      <trkpt lat="46.70107" lon="5.80479">
        <ele>609.5</ele>
        <time>2022-02-24T12:51:28Z</time>
      </trkpt>
      <trkpt lat="46.70109" lon="5.80472">
        <ele>610.9</ele>
        <time>2022-02-24T12:51:33Z</time>
      </trkpt>
      <trkpt lat="46.70112" lon="5.80467">
        <ele>611.8</ele>
        <time>2022-02-24T12:51:39Z</time>
      </trkpt>
      <trkpt lat="46.70116" lon="5.80461">
        <ele>612.7</ele>
        <time>2022-02-24T12:51:45Z</time>
      </trkpt>
      <trkpt lat="46.70119" lon="5.80455">
        <ele>613.2</ele>
        <time>2022-02-24T12:51:50Z</time>
      </trkpt>
      <trkpt lat="46.70122" lon="5.80449">
        <ele>613.4</ele>
        <time>2022-02-24T12:51:56Z</time>
      </trkpt>
      <trkpt lat="46.70125" lon="5.80444">
        <ele>613.5</ele>
        <time>2022-02-24T12:52:03Z</time>
      </trkpt>
      <trkpt lat="46.70121" lon="5.8044">
        <ele>614.1</ele>
        <time>2022-02-24T12:52:09Z</time>
      </trkpt>
      <trkpt lat="46.70118" lon="5.80435">
        <ele>615.8</ele>
        <time>2022-02-24T12:52:25Z</time>
      </trkpt>
      <trkpt lat="46.70112" lon="5.80436">
        <ele>616.5</ele>
        <time>2022-02-24T12:52:41Z</time>
      </trkpt>
      <trkpt lat="46.70117" lon="5.80435">
        <ele>616.9</ele>
        <time>2022-02-24T12:52:49Z</time>
      </trkpt>
      <trkpt lat="46.70121" lon="5.80437">
        <ele>616</ele>
        <time>2022-02-24T12:52:53Z</time>
      </trkpt>
      <trkpt lat="46.70127" lon="5.80438">
        <ele>614</ele>
        <time>2022-02-24T12:52:57Z</time>
      </trkpt>
      <trkpt lat="46.70133" lon="5.80434">
        <ele>612.7</ele>
        <time>2022-02-24T12:53:00Z</time>
      </trkpt>
      <trkpt lat="46.70137" lon="5.8043">
        <ele>611.2</ele>
        <time>2022-02-24T12:53:03Z</time>
      </trkpt>
      <trkpt lat="46.70141" lon="5.80426">
        <ele>609.6</ele>
        <time>2022-02-24T12:53:07Z</time>
      </trkpt>
      <trkpt lat="46.70144" lon="5.8042">
        <ele>608.9</ele>
        <time>2022-02-24T12:53:11Z</time>
      </trkpt>
      <trkpt lat="46.70147" lon="5.80414">
        <ele>608.9</ele>
        <time>2022-02-24T12:53:15Z</time>
      </trkpt>
      <trkpt lat="46.70151" lon="5.80408">
        <ele>608.6</ele>
        <time>2022-02-24T12:53:20Z</time>
      </trkpt>
      <trkpt lat="46.70155" lon="5.80405">
        <ele>608.4</ele>
        <time>2022-02-24T12:53:24Z</time>
      </trkpt>
      <trkpt lat="46.7016" lon="5.80402">
        <ele>608</ele>
        <time>2022-02-24T12:53:29Z</time>
      </trkpt>
      <trkpt lat="46.70164" lon="5.80397">
        <ele>607.9</ele>
        <time>2022-02-24T12:53:33Z</time>
      </trkpt>
      <trkpt lat="46.70168" lon="5.80394">
        <ele>607.4</ele>
        <time>2022-02-24T12:53:37Z</time>
      </trkpt>
      <trkpt lat="46.70173" lon="5.8039">
        <ele>606.5</ele>
        <time>2022-02-24T12:53:42Z</time>
      </trkpt>
      <trkpt lat="46.70178" lon="5.80388">
        <ele>605.6</ele>
        <time>2022-02-24T12:53:46Z</time>
      </trkpt>
      <trkpt lat="46.70182" lon="5.80385">
        <ele>604.3</ele>
        <time>2022-02-24T12:53:50Z</time>
      </trkpt>
      <trkpt lat="46.70188" lon="5.80382">
        <ele>602.7</ele>
        <time>2022-02-24T12:53:54Z</time>
      </trkpt>
      <trkpt lat="46.70193" lon="5.8038">
        <ele>600.9</ele>
        <time>2022-02-24T12:53:58Z</time>
      </trkpt>
      <trkpt lat="46.70198" lon="5.80377">
        <ele>599.4</ele>
        <time>2022-02-24T12:54:02Z</time>
      </trkpt>
      <trkpt lat="46.70203" lon="5.80374">
        <ele>597.7</ele>
        <time>2022-02-24T12:54:07Z</time>
      </trkpt>
      <trkpt lat="46.70208" lon="5.80372">
        <ele>596.3</ele>
        <time>2022-02-24T12:54:12Z</time>
      </trkpt>
      <trkpt lat="46.70213" lon="5.80372">
        <ele>595.1</ele>
        <time>2022-02-24T12:54:16Z</time>
      </trkpt>
      <trkpt lat="46.70218" lon="5.80369">
        <ele>593.8</ele>
        <time>2022-02-24T12:54:20Z</time>
      </trkpt>
      <trkpt lat="46.70223" lon="5.80364">
        <ele>592.5</ele>
        <time>2022-02-24T12:54:24Z</time>
      </trkpt>
      <trkpt lat="46.70227" lon="5.80359">
        <ele>590.7</ele>
        <time>2022-02-24T12:54:29Z</time>
      </trkpt>
      <trkpt lat="46.70231" lon="5.80355">
        <ele>589</ele>
        <time>2022-02-24T12:54:33Z</time>
      </trkpt>
      <trkpt lat="46.70235" lon="5.8035">
        <ele>587.2</ele>
        <time>2022-02-24T12:54:37Z</time>
      </trkpt>
      <trkpt lat="46.70239" lon="5.80345">
        <ele>585.2</ele>
        <time>2022-02-24T12:54:41Z</time>
      </trkpt>
      <trkpt lat="46.70242" lon="5.80339">
        <ele>583.2</ele>
        <time>2022-02-24T12:54:46Z</time>
      </trkpt>
      <trkpt lat="46.70247" lon="5.80335">
        <ele>581.5</ele>
        <time>2022-02-24T12:54:51Z</time>
      </trkpt>
      <trkpt lat="46.70251" lon="5.80331">
        <ele>580.3</ele>
        <time>2022-02-24T12:54:55Z</time>
      </trkpt>
      <trkpt lat="46.70255" lon="5.80327">
        <ele>579.3</ele>
        <time>2022-02-24T12:54:59Z</time>
      </trkpt>
      <trkpt lat="46.7026" lon="5.80323">
        <ele>578.1</ele>
        <time>2022-02-24T12:55:03Z</time>
      </trkpt>
      <trkpt lat="46.70263" lon="5.80317">
        <ele>576.5</ele>
        <time>2022-02-24T12:55:08Z</time>
      </trkpt>
      <trkpt lat="46.70266" lon="5.80311">
        <ele>575.1</ele>
        <time>2022-02-24T12:55:12Z</time>
      </trkpt>
      <trkpt lat="46.70269" lon="5.80307">
        <ele>574</ele>
        <time>2022-02-24T12:55:15Z</time>
      </trkpt>
      <trkpt lat="46.70274" lon="5.80301">
        <ele>572.6</ele>
        <time>2022-02-24T12:55:19Z</time>
      </trkpt>
      <trkpt lat="46.70276" lon="5.80296">
        <ele>571.8</ele>
        <time>2022-02-24T12:55:22Z</time>
      </trkpt>
      <trkpt lat="46.70281" lon="5.80293">
        <ele>570.8</ele>
        <time>2022-02-24T12:55:27Z</time>
      </trkpt>
      <trkpt lat="46.70285" lon="5.80289">
        <ele>569.3</ele>
        <time>2022-02-24T12:55:33Z</time>
      </trkpt>
      <trkpt lat="46.70286" lon="5.80281">
        <ele>568</ele>
        <time>2022-02-24T12:55:38Z</time>
      </trkpt>
      <trkpt lat="46.70289" lon="5.80274">
        <ele>566.7</ele>
        <time>2022-02-24T12:55:43Z</time>
      </trkpt>
      <trkpt lat="46.70289" lon="5.80265">
        <ele>566</ele>
        <time>2022-02-24T12:55:47Z</time>
      </trkpt>
      <trkpt lat="46.7029" lon="5.80257">
        <ele>565.9</ele>
        <time>2022-02-24T12:55:50Z</time>
      </trkpt>
      <trkpt lat="46.70292" lon="5.8025">
        <ele>565.6</ele>
        <time>2022-02-24T12:55:53Z</time>
      </trkpt>
      <trkpt lat="46.70296" lon="5.80244">
        <ele>565.4</ele>
        <time>2022-02-24T12:55:57Z</time>
      </trkpt>
      <trkpt lat="46.70298" lon="5.80237">
        <ele>565.6</ele>
        <time>2022-02-24T12:56:00Z</time>
      </trkpt>
      <trkpt lat="46.70301" lon="5.80231">
        <ele>566.2</ele>
        <time>2022-02-24T12:56:03Z</time>
      </trkpt>
      <trkpt lat="46.70302" lon="5.80224">
        <ele>566.6</ele>
        <time>2022-02-24T12:56:07Z</time>
      </trkpt>
      <trkpt lat="46.70302" lon="5.80217">
        <ele>567.3</ele>
        <time>2022-02-24T12:56:11Z</time>
      </trkpt>
      <trkpt lat="46.70303" lon="5.80209">
        <ele>568.5</ele>
        <time>2022-02-24T12:56:16Z</time>
      </trkpt>
      <trkpt lat="46.70305" lon="5.80203">
        <ele>569.3</ele>
        <time>2022-02-24T12:56:21Z</time>
      </trkpt>
      <trkpt lat="46.70308" lon="5.80197">
        <ele>569.7</ele>
        <time>2022-02-24T12:56:25Z</time>
      </trkpt>
      <trkpt lat="46.70309" lon="5.8019">
        <ele>570.4</ele>
        <time>2022-02-24T12:56:29Z</time>
      </trkpt>
      <trkpt lat="46.70307" lon="5.80183">
        <ele>571.5</ele>
        <time>2022-02-24T12:56:33Z</time>
      </trkpt>
      <trkpt lat="46.70306" lon="5.80177">
        <ele>572.4</ele>
        <time>2022-02-24T12:56:36Z</time>
      </trkpt>
      <trkpt lat="46.70307" lon="5.80169">
        <ele>573.7</ele>
        <time>2022-02-24T12:56:40Z</time>
      </trkpt>
      <trkpt lat="46.70308" lon="5.80163">
        <ele>574.5</ele>
        <time>2022-02-24T12:56:44Z</time>
      </trkpt>
      <trkpt lat="46.70311" lon="5.80156">
        <ele>574.4</ele>
        <time>2022-02-24T12:56:48Z</time>
      </trkpt>
      <trkpt lat="46.7031" lon="5.80148">
        <ele>573.7</ele>
        <time>2022-02-24T12:56:53Z</time>
      </trkpt>
      <trkpt lat="46.70312" lon="5.8014">
        <ele>572.8</ele>
        <time>2022-02-24T12:56:58Z</time>
      </trkpt>
      <trkpt lat="46.70312" lon="5.80133">
        <ele>571.9</ele>
        <time>2022-02-24T12:57:02Z</time>
      </trkpt>
      <trkpt lat="46.70312" lon="5.80127">
        <ele>571.1</ele>
        <time>2022-02-24T12:57:06Z</time>
      </trkpt>
      <trkpt lat="46.70312" lon="5.80119">
        <ele>570</ele>
        <time>2022-02-24T12:57:13Z</time>
      </trkpt>
      <trkpt lat="46.70315" lon="5.80113">
        <ele>569.5</ele>
        <time>2022-02-24T12:57:19Z</time>
      </trkpt>
      <trkpt lat="46.70317" lon="5.80106">
        <ele>568.8</ele>
        <time>2022-02-24T12:57:25Z</time>
      </trkpt>
      <trkpt lat="46.70316" lon="5.80099">
        <ele>568.4</ele>
        <time>2022-02-24T12:57:30Z</time>
      </trkpt>
      <trkpt lat="46.70314" lon="5.80093">
        <ele>568.4</ele>
        <time>2022-02-24T12:57:34Z</time>
      </trkpt>
      <trkpt lat="46.70312" lon="5.80085">
        <ele>568.5</ele>
        <time>2022-02-24T12:57:38Z</time>
      </trkpt>
      <trkpt lat="46.70311" lon="5.80078">
        <ele>568.4</ele>
        <time>2022-02-24T12:57:42Z</time>
      </trkpt>
      <trkpt lat="46.70312" lon="5.8007">
        <ele>568.3</ele>
        <time>2022-02-24T12:57:47Z</time>
      </trkpt>
      <trkpt lat="46.70313" lon="5.80063">
        <ele>567.7</ele>
        <time>2022-02-24T12:57:52Z</time>
      </trkpt>
      <trkpt lat="46.70313" lon="5.80056">
        <ele>567</ele>
        <time>2022-02-24T12:57:56Z</time>
      </trkpt>
      <trkpt lat="46.70313" lon="5.80049">
        <ele>566.4</ele>
        <time>2022-02-24T12:58:00Z</time>
      </trkpt>
      <trkpt lat="46.70314" lon="5.80042">
        <ele>565.8</ele>
        <time>2022-02-24T12:58:04Z</time>
      </trkpt>
      <trkpt lat="46.70316" lon="5.80035">
        <ele>565.4</ele>
        <time>2022-02-24T12:58:09Z</time>
      </trkpt>
      <trkpt lat="46.70317" lon="5.80028">
        <ele>565.1</ele>
        <time>2022-02-24T12:58:15Z</time>
      </trkpt>
      <trkpt lat="46.70319" lon="5.80021">
        <ele>564.5</ele>
        <time>2022-02-24T12:58:20Z</time>
      </trkpt>
      <trkpt lat="46.70318" lon="5.80014">
        <ele>564</ele>
        <time>2022-02-24T12:58:25Z</time>
      </trkpt>
      <trkpt lat="46.70316" lon="5.80008">
        <ele>563.3</ele>
        <time>2022-02-24T12:58:31Z</time>
      </trkpt>
      <trkpt lat="46.70314" lon="5.80001">
        <ele>562.7</ele>
        <time>2022-02-24T12:58:37Z</time>
      </trkpt>
      <trkpt lat="46.70314" lon="5.79993">
        <ele>562.3</ele>
        <time>2022-02-24T12:58:43Z</time>
      </trkpt>
      <trkpt lat="46.70313" lon="5.79986">
        <ele>561.4</ele>
        <time>2022-02-24T12:58:49Z</time>
      </trkpt>
      <trkpt lat="46.70313" lon="5.79979">
        <ele>560.1</ele>
        <time>2022-02-24T12:58:54Z</time>
      </trkpt>
      <trkpt lat="46.70314" lon="5.79972">
        <ele>558.6</ele>
        <time>2022-02-24T12:58:59Z</time>
      </trkpt>
      <trkpt lat="46.70316" lon="5.79966">
        <ele>556.8</ele>
        <time>2022-02-24T12:59:05Z</time>
      </trkpt>
      <trkpt lat="46.70316" lon="5.79959">
        <ele>555</ele>
        <time>2022-02-24T12:59:11Z</time>
      </trkpt>
      <trkpt lat="46.70315" lon="5.79953">
        <ele>553.7</ele>
        <time>2022-02-24T12:59:16Z</time>
      </trkpt>
      <trkpt lat="46.70315" lon="5.79946">
        <ele>553</ele>
        <time>2022-02-24T12:59:20Z</time>
      </trkpt>
      <trkpt lat="46.70316" lon="5.79938">
        <ele>552.5</ele>
        <time>2022-02-24T12:59:24Z</time>
      </trkpt>
      <trkpt lat="46.70318" lon="5.79931">
        <ele>552</ele>
        <time>2022-02-24T12:59:30Z</time>
      </trkpt>
      <trkpt lat="46.7032" lon="5.79925">
        <ele>551.5</ele>
        <time>2022-02-24T12:59:35Z</time>
      </trkpt>
      <trkpt lat="46.70322" lon="5.79918">
        <ele>550.5</ele>
        <time>2022-02-24T12:59:41Z</time>
      </trkpt>
      <trkpt lat="46.70323" lon="5.79911">
        <ele>549.3</ele>
        <time>2022-02-24T12:59:46Z</time>
      </trkpt>
      <trkpt lat="46.70327" lon="5.79906">
        <ele>547.2</ele>
        <time>2022-02-24T12:59:52Z</time>
      </trkpt>
      <trkpt lat="46.70329" lon="5.799">
        <ele>545.7</ele>
        <time>2022-02-24T12:59:57Z</time>
      </trkpt>
      <trkpt lat="46.70332" lon="5.79894">
        <ele>544.1</ele>
        <time>2022-02-24T13:00:02Z</time>
      </trkpt>
      <trkpt lat="46.70333" lon="5.79887">
        <ele>541.9</ele>
        <time>2022-02-24T13:00:07Z</time>
      </trkpt>
      <trkpt lat="46.70334" lon="5.7988">
        <ele>539.8</ele>
        <time>2022-02-24T13:00:12Z</time>
      </trkpt>
      <trkpt lat="46.70334" lon="5.79873">
        <ele>537.3</ele>
        <time>2022-02-24T13:00:18Z</time>
      </trkpt>
      <trkpt lat="46.70336" lon="5.79866">
        <ele>535.8</ele>
        <time>2022-02-24T13:00:22Z</time>
      </trkpt>
      <trkpt lat="46.70337" lon="5.79859">
        <ele>534.3</ele>
        <time>2022-02-24T13:00:26Z</time>
      </trkpt>
      <trkpt lat="46.70339" lon="5.79852">
        <ele>532.9</ele>
        <time>2022-02-24T13:00:31Z</time>
      </trkpt>
      <trkpt lat="46.70343" lon="5.79845">
        <ele>532.2</ele>
        <time>2022-02-24T13:00:36Z</time>
      </trkpt>
      <trkpt lat="46.70346" lon="5.7984">
        <ele>531.6</ele>
        <time>2022-02-24T13:00:40Z</time>
      </trkpt>
      <trkpt lat="46.70348" lon="5.79833">
        <ele>531</ele>
        <time>2022-02-24T13:00:45Z</time>
      </trkpt>
      <trkpt lat="46.70351" lon="5.79828">
        <ele>530.5</ele>
        <time>2022-02-24T13:00:51Z</time>
      </trkpt>
      <trkpt lat="46.70355" lon="5.79823">
        <ele>530.2</ele>
        <time>2022-02-24T13:00:56Z</time>
      </trkpt>
      <trkpt lat="46.70357" lon="5.79817">
        <ele>530.1</ele>
        <time>2022-02-24T13:01:00Z</time>
      </trkpt>
      <trkpt lat="46.70359" lon="5.79811">
        <ele>530</ele>
        <time>2022-02-24T13:01:04Z</time>
      </trkpt>
      <trkpt lat="46.70361" lon="5.79805">
        <ele>529.8</ele>
        <time>2022-02-24T13:01:08Z</time>
      </trkpt>
      <trkpt lat="46.70365" lon="5.79799">
        <ele>529.6</ele>
        <time>2022-02-24T13:01:13Z</time>
      </trkpt>
      <trkpt lat="46.70368" lon="5.79794">
        <ele>529.1</ele>
        <time>2022-02-24T13:01:20Z</time>
      </trkpt>
      <trkpt lat="46.70372" lon="5.79788">
        <ele>528.8</ele>
        <time>2022-02-24T13:01:27Z</time>
      </trkpt>
      <trkpt lat="46.70375" lon="5.79784">
        <ele>528.5</ele>
        <time>2022-02-24T13:01:33Z</time>
      </trkpt>
      <trkpt lat="46.70378" lon="5.79778">
        <ele>527.9</ele>
        <time>2022-02-24T13:01:39Z</time>
      </trkpt>
      <trkpt lat="46.70382" lon="5.79774">
        <ele>527.2</ele>
        <time>2022-02-24T13:01:43Z</time>
      </trkpt>
      <trkpt lat="46.70387" lon="5.79768">
        <ele>526.4</ele>
        <time>2022-02-24T13:01:47Z</time>
      </trkpt>
      <trkpt lat="46.7039" lon="5.79763">
        <ele>525.4</ele>
        <time>2022-02-24T13:01:51Z</time>
      </trkpt>
      <trkpt lat="46.70392" lon="5.79758">
        <ele>524.4</ele>
        <time>2022-02-24T13:01:55Z</time>
      </trkpt>
      <trkpt lat="46.70396" lon="5.79753">
        <ele>523.6</ele>
        <time>2022-02-24T13:02:00Z</time>
      </trkpt>
      <trkpt lat="46.704" lon="5.79751">
        <ele>522.8</ele>
        <time>2022-02-24T13:02:06Z</time>
      </trkpt>
      <trkpt lat="46.70405" lon="5.79749">
        <ele>521.9</ele>
        <time>2022-02-24T13:02:11Z</time>
      </trkpt>
      <trkpt lat="46.7041" lon="5.79746">
        <ele>521.1</ele>
        <time>2022-02-24T13:02:16Z</time>
      </trkpt>
      <trkpt lat="46.70415" lon="5.79744">
        <ele>520.3</ele>
        <time>2022-02-24T13:02:21Z</time>
      </trkpt>
      <trkpt lat="46.7042" lon="5.79741">
        <ele>519.6</ele>
        <time>2022-02-24T13:02:26Z</time>
      </trkpt>
      <trkpt lat="46.70423" lon="5.79736">
        <ele>519.1</ele>
        <time>2022-02-24T13:02:31Z</time>
      </trkpt>
      <trkpt lat="46.70427" lon="5.79732">
        <ele>518.9</ele>
        <time>2022-02-24T13:02:36Z</time>
      </trkpt>
      <trkpt lat="46.70431" lon="5.7973">
        <ele>518.7</ele>
        <time>2022-02-24T13:02:41Z</time>
      </trkpt>
      <trkpt lat="46.70436" lon="5.79728">
        <ele>518.6</ele>
        <time>2022-02-24T13:02:47Z</time>
      </trkpt>
      <trkpt lat="46.7044" lon="5.79727">
        <ele>518.4</ele>
        <time>2022-02-24T13:02:53Z</time>
      </trkpt>
      <trkpt lat="46.70443" lon="5.79721">
        <ele>518.3</ele>
        <time>2022-02-24T13:02:58Z</time>
      </trkpt>
      <trkpt lat="46.70447" lon="5.79715">
        <ele>518.2</ele>
        <time>2022-02-24T13:03:02Z</time>
      </trkpt>
      <trkpt lat="46.70451" lon="5.79709">
        <ele>518.1</ele>
        <time>2022-02-24T13:03:06Z</time>
      </trkpt>
      <trkpt lat="46.70454" lon="5.79705">
        <ele>517.9</ele>
        <time>2022-02-24T13:03:10Z</time>
      </trkpt>
      <trkpt lat="46.70457" lon="5.797">
        <ele>517.8</ele>
        <time>2022-02-24T13:03:15Z</time>
      </trkpt>
      <trkpt lat="46.70461" lon="5.79696">
        <ele>517.6</ele>
        <time>2022-02-24T13:03:19Z</time>
      </trkpt>
      <trkpt lat="46.70465" lon="5.79691">
        <ele>517.2</ele>
        <time>2022-02-24T13:03:23Z</time>
      </trkpt>
      <trkpt lat="46.70469" lon="5.79686">
        <ele>516.7</ele>
        <time>2022-02-24T13:03:27Z</time>
      </trkpt>
      <trkpt lat="46.70472" lon="5.7968">
        <ele>516.1</ele>
        <time>2022-02-24T13:03:32Z</time>
      </trkpt>
      <trkpt lat="46.70475" lon="5.79674">
        <ele>515.3</ele>
        <time>2022-02-24T13:03:37Z</time>
      </trkpt>
      <trkpt lat="46.70479" lon="5.79669">
        <ele>514.6</ele>
        <time>2022-02-24T13:03:42Z</time>
      </trkpt>
      <trkpt lat="46.70481" lon="5.79663">
        <ele>514.1</ele>
        <time>2022-02-24T13:03:46Z</time>
      </trkpt>
      <trkpt lat="46.70484" lon="5.79656">
        <ele>513.2</ele>
        <time>2022-02-24T13:03:51Z</time>
      </trkpt>
      <trkpt lat="46.70486" lon="5.79651">
        <ele>512.2</ele>
        <time>2022-02-24T13:03:56Z</time>
      </trkpt>
      <trkpt lat="46.70489" lon="5.79644">
        <ele>511.5</ele>
        <time>2022-02-24T13:04:00Z</time>
      </trkpt>
      <trkpt lat="46.7049" lon="5.79637">
        <ele>511.1</ele>
        <time>2022-02-24T13:04:04Z</time>
      </trkpt>
      <trkpt lat="46.70491" lon="5.7963">
        <ele>510.7</ele>
        <time>2022-02-24T13:04:08Z</time>
      </trkpt>
      <trkpt lat="46.70493" lon="5.79623">
        <ele>510.3</ele>
        <time>2022-02-24T13:04:13Z</time>
      </trkpt>
      <trkpt lat="46.70494" lon="5.79617">
        <ele>509.7</ele>
        <time>2022-02-24T13:04:18Z</time>
      </trkpt>
      <trkpt lat="46.70496" lon="5.7961">
        <ele>509.4</ele>
        <time>2022-02-24T13:04:22Z</time>
      </trkpt>
      <trkpt lat="46.70499" lon="5.79604">
        <ele>509.1</ele>
        <time>2022-02-24T13:04:26Z</time>
      </trkpt>
      <trkpt lat="46.70501" lon="5.79596">
        <ele>508.9</ele>
        <time>2022-02-24T13:04:31Z</time>
      </trkpt>
      <trkpt lat="46.70503" lon="5.79589">
        <ele>508.8</ele>
        <time>2022-02-24T13:04:36Z</time>
      </trkpt>
      <trkpt lat="46.70506" lon="5.79583">
        <ele>508.8</ele>
        <time>2022-02-24T13:04:41Z</time>
      </trkpt>
      <trkpt lat="46.70507" lon="5.79576">
        <ele>508.6</ele>
        <time>2022-02-24T13:04:46Z</time>
      </trkpt>
      <trkpt lat="46.70509" lon="5.7957">
        <ele>508.5</ele>
        <time>2022-02-24T13:04:51Z</time>
      </trkpt>
      <trkpt lat="46.70511" lon="5.79564">
        <ele>508.4</ele>
        <time>2022-02-24T13:04:55Z</time>
      </trkpt>
      <trkpt lat="46.70513" lon="5.79557">
        <ele>508.5</ele>
        <time>2022-02-24T13:04:59Z</time>
      </trkpt>
      <trkpt lat="46.70516" lon="5.7955">
        <ele>508.5</ele>
        <time>2022-02-24T13:05:03Z</time>
      </trkpt>
      <trkpt lat="46.70518" lon="5.79543">
        <ele>508.5</ele>
        <time>2022-02-24T13:05:08Z</time>
      </trkpt>
      <trkpt lat="46.70521" lon="5.79537">
        <ele>508.7</ele>
        <time>2022-02-24T13:05:13Z</time>
      </trkpt>
      <trkpt lat="46.70524" lon="5.79531">
        <ele>508.8</ele>
        <time>2022-02-24T13:05:17Z</time>
      </trkpt>
      <trkpt lat="46.70527" lon="5.79526">
        <ele>508.8</ele>
        <time>2022-02-24T13:05:21Z</time>
      </trkpt>
      <trkpt lat="46.7053" lon="5.7952">
        <ele>508.8</ele>
        <time>2022-02-24T13:05:26Z</time>
      </trkpt>
      <trkpt lat="46.70533" lon="5.79514">
        <ele>508.8</ele>
        <time>2022-02-24T13:05:31Z</time>
      </trkpt>
      <trkpt lat="46.70536" lon="5.79508">
        <ele>508.6</ele>
        <time>2022-02-24T13:05:36Z</time>
      </trkpt>
      <trkpt lat="46.70539" lon="5.79501">
        <ele>508.5</ele>
        <time>2022-02-24T13:05:40Z</time>
      </trkpt>
      <trkpt lat="46.70542" lon="5.79496">
        <ele>508.7</ele>
        <time>2022-02-24T13:05:44Z</time>
      </trkpt>
      <trkpt lat="46.70545" lon="5.79492">
        <ele>508.9</ele>
        <time>2022-02-24T13:05:48Z</time>
      </trkpt>
      <trkpt lat="46.7055" lon="5.79487">
        <ele>509.1</ele>
        <time>2022-02-24T13:05:53Z</time>
      </trkpt>
      <trkpt lat="46.70554" lon="5.79483">
        <ele>509.1</ele>
        <time>2022-02-24T13:05:58Z</time>
      </trkpt>
      <trkpt lat="46.70558" lon="5.7948">
        <ele>509.5</ele>
        <time>2022-02-24T13:06:04Z</time>
      </trkpt>
      <trkpt lat="46.70563" lon="5.79481">
        <ele>509.7</ele>
        <time>2022-02-24T13:06:12Z</time>
      </trkpt>
      <trkpt lat="46.70566" lon="5.79487">
        <ele>509.1</ele>
        <time>2022-02-24T13:06:31Z</time>
      </trkpt>
      <trkpt lat="46.7057" lon="5.7949">
        <ele>509</ele>
        <time>2022-02-24T13:06:36Z</time>
      </trkpt>
      <trkpt lat="46.70575" lon="5.79493">
        <ele>508.8</ele>
        <time>2022-02-24T13:06:41Z</time>
      </trkpt>
      <trkpt lat="46.7058" lon="5.79496">
        <ele>508.5</ele>
        <time>2022-02-24T13:06:45Z</time>
      </trkpt>
      <trkpt lat="46.70585" lon="5.79498">
        <ele>508.2</ele>
        <time>2022-02-24T13:06:50Z</time>
      </trkpt>
      <trkpt lat="46.7059" lon="5.79499">
        <ele>507.9</ele>
        <time>2022-02-24T13:06:55Z</time>
      </trkpt>
      <trkpt lat="46.70594" lon="5.79501">
        <ele>507.5</ele>
        <time>2022-02-24T13:07:00Z</time>
      </trkpt>
      <trkpt lat="46.70599" lon="5.795">
        <ele>507.1</ele>
        <time>2022-02-24T13:07:05Z</time>
      </trkpt>
      <trkpt lat="46.70604" lon="5.79498">
        <ele>506.6</ele>
        <time>2022-02-24T13:07:11Z</time>
      </trkpt>
      <trkpt lat="46.70609" lon="5.79497">
        <ele>506.3</ele>
        <time>2022-02-24T13:07:16Z</time>
      </trkpt>
      <trkpt lat="46.70614" lon="5.79495">
        <ele>506.1</ele>
        <time>2022-02-24T13:07:21Z</time>
      </trkpt>
      <trkpt lat="46.70618" lon="5.79492">
        <ele>505.8</ele>
        <time>2022-02-24T13:07:25Z</time>
      </trkpt>
      <trkpt lat="46.70622" lon="5.79488">
        <ele>505.6</ele>
        <time>2022-02-24T13:07:29Z</time>
      </trkpt>
      <trkpt lat="46.70626" lon="5.79482">
        <ele>505.5</ele>
        <time>2022-02-24T13:07:33Z</time>
      </trkpt>
      <trkpt lat="46.7063" lon="5.7948">
        <ele>505.6</ele>
        <time>2022-02-24T13:07:38Z</time>
      </trkpt>
      <trkpt lat="46.70635" lon="5.79477">
        <ele>505.2</ele>
        <time>2022-02-24T13:07:45Z</time>
      </trkpt>
      <trkpt lat="46.7064" lon="5.79475">
        <ele>505.1</ele>
        <time>2022-02-24T13:07:49Z</time>
      </trkpt>
      <trkpt lat="46.70645" lon="5.79473">
        <ele>505.3</ele>
        <time>2022-02-24T13:07:53Z</time>
      </trkpt>
      <trkpt lat="46.70649" lon="5.79471">
        <ele>505.9</ele>
        <time>2022-02-24T13:07:58Z</time>
      </trkpt>
      <trkpt lat="46.70654" lon="5.79468">
        <ele>506.6</ele>
        <time>2022-02-24T13:08:03Z</time>
      </trkpt>
      <trkpt lat="46.70658" lon="5.79468">
        <ele>507.3</ele>
        <time>2022-02-24T13:08:08Z</time>
      </trkpt>
      <trkpt lat="46.70664" lon="5.79467">
        <ele>508.1</ele>
        <time>2022-02-24T13:08:14Z</time>
      </trkpt>
      <trkpt lat="46.70668" lon="5.79467">
        <ele>508.6</ele>
        <time>2022-02-24T13:08:18Z</time>
      </trkpt>
      <trkpt lat="46.70673" lon="5.79468">
        <ele>509.2</ele>
        <time>2022-02-24T13:08:22Z</time>
      </trkpt>
      <trkpt lat="46.70678" lon="5.79469">
        <ele>510.1</ele>
        <time>2022-02-24T13:08:27Z</time>
      </trkpt>
      <trkpt lat="46.70684" lon="5.79471">
        <ele>510.5</ele>
        <time>2022-02-24T13:08:32Z</time>
      </trkpt>
      <trkpt lat="46.70689" lon="5.79472">
        <ele>510.8</ele>
        <time>2022-02-24T13:08:36Z</time>
      </trkpt>
      <trkpt lat="46.70694" lon="5.79473">
        <ele>511.3</ele>
        <time>2022-02-24T13:08:42Z</time>
      </trkpt>
      <trkpt lat="46.70699" lon="5.79474">
        <ele>512</ele>
        <time>2022-02-24T13:08:47Z</time>
      </trkpt>
      <trkpt lat="46.70704" lon="5.79475">
        <ele>512.2</ele>
        <time>2022-02-24T13:08:52Z</time>
      </trkpt>
      <trkpt lat="46.70709" lon="5.79477">
        <ele>511.3</ele>
        <time>2022-02-24T13:08:58Z</time>
      </trkpt>
      <trkpt lat="46.70714" lon="5.79477">
        <ele>510.5</ele>
        <time>2022-02-24T13:09:04Z</time>
      </trkpt>
      <trkpt lat="46.70719" lon="5.79476">
        <ele>510.2</ele>
        <time>2022-02-24T13:09:08Z</time>
      </trkpt>
      <trkpt lat="46.70723" lon="5.79475">
        <ele>510.1</ele>
        <time>2022-02-24T13:09:12Z</time>
      </trkpt>
      <trkpt lat="46.70728" lon="5.79476">
        <ele>510</ele>
        <time>2022-02-24T13:09:16Z</time>
      </trkpt>
      <trkpt lat="46.70733" lon="5.79478">
        <ele>509.5</ele>
        <time>2022-02-24T13:09:21Z</time>
      </trkpt>
      <trkpt lat="46.70738" lon="5.7948">
        <ele>509.2</ele>
        <time>2022-02-24T13:09:25Z</time>
      </trkpt>
      <trkpt lat="46.70742" lon="5.7948">
        <ele>509</ele>
        <time>2022-02-24T13:09:29Z</time>
      </trkpt>
      <trkpt lat="46.70747" lon="5.7948">
        <ele>509.1</ele>
        <time>2022-02-24T13:09:34Z</time>
      </trkpt>
      <trkpt lat="46.70752" lon="5.79479">
        <ele>509</ele>
        <time>2022-02-24T13:09:39Z</time>
      </trkpt>
      <trkpt lat="46.70757" lon="5.79476">
        <ele>509.2</ele>
        <time>2022-02-24T13:09:43Z</time>
      </trkpt>
      <trkpt lat="46.70762" lon="5.79473">
        <ele>509.4</ele>
        <time>2022-02-24T13:09:48Z</time>
      </trkpt>
      <trkpt lat="46.70767" lon="5.79472">
        <ele>509.5</ele>
        <time>2022-02-24T13:09:52Z</time>
      </trkpt>
      <trkpt lat="46.70771" lon="5.79471">
        <ele>509.4</ele>
        <time>2022-02-24T13:09:56Z</time>
      </trkpt>
      <trkpt lat="46.70777" lon="5.7947">
        <ele>509.5</ele>
        <time>2022-02-24T13:10:00Z</time>
      </trkpt>
      <trkpt lat="46.70782" lon="5.79468">
        <ele>509.7</ele>
        <time>2022-02-24T13:10:04Z</time>
      </trkpt>
      <trkpt lat="46.70787" lon="5.79467">
        <ele>509.8</ele>
        <time>2022-02-24T13:10:08Z</time>
      </trkpt>
      <trkpt lat="46.70791" lon="5.79466">
        <ele>509.5</ele>
        <time>2022-02-24T13:10:13Z</time>
      </trkpt>
      <trkpt lat="46.70796" lon="5.79465">
        <ele>509.1</ele>
        <time>2022-02-24T13:10:18Z</time>
      </trkpt>
      <trkpt lat="46.70802" lon="5.79466">
        <ele>508.6</ele>
        <time>2022-02-24T13:10:23Z</time>
      </trkpt>
      <trkpt lat="46.70807" lon="5.79467">
        <ele>507.9</ele>
        <time>2022-02-24T13:10:29Z</time>
      </trkpt>
      <trkpt lat="46.70812" lon="5.79468">
        <ele>507.3</ele>
        <time>2022-02-24T13:10:34Z</time>
      </trkpt>
      <trkpt lat="46.70817" lon="5.79469">
        <ele>506.6</ele>
        <time>2022-02-24T13:10:39Z</time>
      </trkpt>
      <trkpt lat="46.70822" lon="5.79471">
        <ele>505.9</ele>
        <time>2022-02-24T13:10:44Z</time>
      </trkpt>
      <trkpt lat="46.70826" lon="5.79474">
        <ele>505.5</ele>
        <time>2022-02-24T13:10:48Z</time>
      </trkpt>
      <trkpt lat="46.70832" lon="5.79474">
        <ele>504.9</ele>
        <time>2022-02-24T13:10:53Z</time>
      </trkpt>
      <trkpt lat="46.70836" lon="5.79474">
        <ele>504.2</ele>
        <time>2022-02-24T13:11:00Z</time>
      </trkpt>
      <trkpt lat="46.70842" lon="5.79473">
        <ele>503.9</ele>
        <time>2022-02-24T13:11:04Z</time>
      </trkpt>
      <trkpt lat="46.70847" lon="5.79472">
        <ele>503.9</ele>
        <time>2022-02-24T13:11:08Z</time>
      </trkpt>
      <trkpt lat="46.70852" lon="5.79472">
        <ele>503.9</ele>
        <time>2022-02-24T13:11:11Z</time>
      </trkpt>
      <trkpt lat="46.70857" lon="5.79471">
        <ele>503.9</ele>
        <time>2022-02-24T13:11:16Z</time>
      </trkpt>
      <trkpt lat="46.70862" lon="5.7947">
        <ele>504</ele>
        <time>2022-02-24T13:11:20Z</time>
      </trkpt>
      <trkpt lat="46.70867" lon="5.79471">
        <ele>504.1</ele>
        <time>2022-02-24T13:11:24Z</time>
      </trkpt>
      <trkpt lat="46.70872" lon="5.79471">
        <ele>504.2</ele>
        <time>2022-02-24T13:11:28Z</time>
      </trkpt>
      <trkpt lat="46.70877" lon="5.79472">
        <ele>504.5</ele>
        <time>2022-02-24T13:11:32Z</time>
      </trkpt>
      <trkpt lat="46.70883" lon="5.79474">
        <ele>504.7</ele>
        <time>2022-02-24T13:11:37Z</time>
      </trkpt>
      <trkpt lat="46.70887" lon="5.79474">
        <ele>504.9</ele>
        <time>2022-02-24T13:11:41Z</time>
      </trkpt>
      <trkpt lat="46.70892" lon="5.79475">
        <ele>504.7</ele>
        <time>2022-02-24T13:11:45Z</time>
      </trkpt>
      <trkpt lat="46.70897" lon="5.79476">
        <ele>504.6</ele>
        <time>2022-02-24T13:11:49Z</time>
      </trkpt>
      <trkpt lat="46.70902" lon="5.79479">
        <ele>504.1</ele>
        <time>2022-02-24T13:11:53Z</time>
      </trkpt>
      <trkpt lat="46.70907" lon="5.79482">
        <ele>503.7</ele>
        <time>2022-02-24T13:11:57Z</time>
      </trkpt>
      <trkpt lat="46.70912" lon="5.79483">
        <ele>503.5</ele>
        <time>2022-02-24T13:12:01Z</time>
      </trkpt>
      <trkpt lat="46.70917" lon="5.79484">
        <ele>503.5</ele>
        <time>2022-02-24T13:12:05Z</time>
      </trkpt>
      <trkpt lat="46.70923" lon="5.79485">
        <ele>503.4</ele>
        <time>2022-02-24T13:12:10Z</time>
      </trkpt>
      <trkpt lat="46.70927" lon="5.79487">
        <ele>503</ele>
        <time>2022-02-24T13:12:15Z</time>
      </trkpt>
      <trkpt lat="46.70931" lon="5.79488">
        <ele>502.8</ele>
        <time>2022-02-24T13:12:19Z</time>
      </trkpt>
      <trkpt lat="46.70936" lon="5.79487">
        <ele>502.4</ele>
        <time>2022-02-24T13:12:23Z</time>
      </trkpt>
      <trkpt lat="46.70941" lon="5.79487">
        <ele>502.3</ele>
        <time>2022-02-24T13:12:27Z</time>
      </trkpt>
      <trkpt lat="46.70945" lon="5.79486">
        <ele>502.3</ele>
        <time>2022-02-24T13:12:31Z</time>
      </trkpt>
      <trkpt lat="46.70951" lon="5.79486">
        <ele>502.1</ele>
        <time>2022-02-24T13:12:37Z</time>
      </trkpt>
      <trkpt lat="46.70956" lon="5.79487">
        <ele>501.9</ele>
        <time>2022-02-24T13:12:42Z</time>
      </trkpt>
      <trkpt lat="46.70961" lon="5.79489">
        <ele>501.6</ele>
        <time>2022-02-24T13:12:46Z</time>
      </trkpt>
      <trkpt lat="46.70966" lon="5.79491">
        <ele>501.5</ele>
        <time>2022-02-24T13:12:50Z</time>
      </trkpt>
      <trkpt lat="46.70972" lon="5.79492">
        <ele>501.5</ele>
        <time>2022-02-24T13:12:55Z</time>
      </trkpt>
      <trkpt lat="46.70976" lon="5.79493">
        <ele>501.5</ele>
        <time>2022-02-24T13:13:00Z</time>
      </trkpt>
      <trkpt lat="46.70981" lon="5.79496">
        <ele>501.1</ele>
        <time>2022-02-24T13:13:06Z</time>
      </trkpt>
      <trkpt lat="46.70985" lon="5.79498">
        <ele>500.9</ele>
        <time>2022-02-24T13:13:10Z</time>
      </trkpt>
      <trkpt lat="46.7099" lon="5.795">
        <ele>500.7</ele>
        <time>2022-02-24T13:13:14Z</time>
      </trkpt>
      <trkpt lat="46.70995" lon="5.79503">
        <ele>500.8</ele>
        <time>2022-02-24T13:13:18Z</time>
      </trkpt>
      <trkpt lat="46.70999" lon="5.79504">
        <ele>501.1</ele>
        <time>2022-02-24T13:13:23Z</time>
      </trkpt>
      <trkpt lat="46.71004" lon="5.79506">
        <ele>500.7</ele>
        <time>2022-02-24T13:13:28Z</time>
      </trkpt>
      <trkpt lat="46.71008" lon="5.79506">
        <ele>500.8</ele>
        <time>2022-02-24T13:13:31Z</time>
      </trkpt>
      <trkpt lat="46.71013" lon="5.79508">
        <ele>501.1</ele>
        <time>2022-02-24T13:13:35Z</time>
      </trkpt>
      <trkpt lat="46.71018" lon="5.79509">
        <ele>501.7</ele>
        <time>2022-02-24T13:13:40Z</time>
      </trkpt>
      <trkpt lat="46.71022" lon="5.79509">
        <ele>502.4</ele>
        <time>2022-02-24T13:13:44Z</time>
      </trkpt>
      <trkpt lat="46.71028" lon="5.79511">
        <ele>503</ele>
        <time>2022-02-24T13:13:48Z</time>
      </trkpt>
      <trkpt lat="46.71033" lon="5.79514">
        <ele>503.9</ele>
        <time>2022-02-24T13:13:53Z</time>
      </trkpt>
      <trkpt lat="46.71038" lon="5.79515">
        <ele>504.6</ele>
        <time>2022-02-24T13:13:57Z</time>
      </trkpt>
      <trkpt lat="46.71043" lon="5.79517">
        <ele>505.3</ele>
        <time>2022-02-24T13:14:01Z</time>
      </trkpt>
      <trkpt lat="46.71048" lon="5.79519">
        <ele>505.9</ele>
        <time>2022-02-24T13:14:06Z</time>
      </trkpt>
      <trkpt lat="46.71053" lon="5.79522">
        <ele>506.5</ele>
        <time>2022-02-24T13:14:11Z</time>
      </trkpt>
      <trkpt lat="46.71058" lon="5.79525">
        <ele>506.8</ele>
        <time>2022-02-24T13:14:16Z</time>
      </trkpt>
      <trkpt lat="46.71062" lon="5.79528">
        <ele>506.9</ele>
        <time>2022-02-24T13:14:20Z</time>
      </trkpt>
      <trkpt lat="46.71065" lon="5.79532">
        <ele>507</ele>
        <time>2022-02-24T13:14:24Z</time>
      </trkpt>
      <trkpt lat="46.7107" lon="5.79535">
        <ele>507.1</ele>
        <time>2022-02-24T13:14:28Z</time>
      </trkpt>
      <trkpt lat="46.71073" lon="5.79538">
        <ele>507.3</ele>
        <time>2022-02-24T13:14:32Z</time>
      </trkpt>
      <trkpt lat="46.71078" lon="5.79543">
        <ele>507.5</ele>
        <time>2022-02-24T13:14:37Z</time>
      </trkpt>
      <trkpt lat="46.71082" lon="5.79546">
        <ele>507.8</ele>
        <time>2022-02-24T13:14:41Z</time>
      </trkpt>
      <trkpt lat="46.71086" lon="5.79551">
        <ele>508.3</ele>
        <time>2022-02-24T13:14:46Z</time>
      </trkpt>
      <trkpt lat="46.7109" lon="5.79554">
        <ele>508.9</ele>
        <time>2022-02-24T13:14:50Z</time>
      </trkpt>
      <trkpt lat="46.71094" lon="5.79557">
        <ele>509.6</ele>
        <time>2022-02-24T13:14:54Z</time>
      </trkpt>
      <trkpt lat="46.71099" lon="5.79561">
        <ele>510.7</ele>
        <time>2022-02-24T13:14:59Z</time>
      </trkpt>
      <trkpt lat="46.71104" lon="5.79563">
        <ele>511.5</ele>
        <time>2022-02-24T13:15:04Z</time>
      </trkpt>
      <trkpt lat="46.71108" lon="5.79567">
        <ele>511.7</ele>
        <time>2022-02-24T13:15:09Z</time>
      </trkpt>
      <trkpt lat="46.71112" lon="5.7957">
        <ele>511.7</ele>
        <time>2022-02-24T13:15:13Z</time>
      </trkpt>
      <trkpt lat="46.71116" lon="5.79576">
        <ele>511.8</ele>
        <time>2022-02-24T13:15:18Z</time>
      </trkpt>
      <trkpt lat="46.71119" lon="5.7958">
        <ele>511.7</ele>
        <time>2022-02-24T13:15:22Z</time>
      </trkpt>
      <trkpt lat="46.71123" lon="5.79585">
        <ele>511.6</ele>
        <time>2022-02-24T13:15:27Z</time>
      </trkpt>
      <trkpt lat="46.71127" lon="5.79589">
        <ele>511.6</ele>
        <time>2022-02-24T13:15:32Z</time>
      </trkpt>
      <trkpt lat="46.71131" lon="5.79593">
        <ele>511.7</ele>
        <time>2022-02-24T13:15:36Z</time>
      </trkpt>
      <trkpt lat="46.71135" lon="5.79596">
        <ele>511.7</ele>
        <time>2022-02-24T13:15:40Z</time>
      </trkpt>
      <trkpt lat="46.7114" lon="5.79598">
        <ele>511.9</ele>
        <time>2022-02-24T13:15:44Z</time>
      </trkpt>
      <trkpt lat="46.71144" lon="5.79602">
        <ele>512</ele>
        <time>2022-02-24T13:15:48Z</time>
      </trkpt>
      <trkpt lat="46.71149" lon="5.79605">
        <ele>512.3</ele>
        <time>2022-02-24T13:15:52Z</time>
      </trkpt>
      <trkpt lat="46.71153" lon="5.79608">
        <ele>512.6</ele>
        <time>2022-02-24T13:15:56Z</time>
      </trkpt>
      <trkpt lat="46.71156" lon="5.79613">
        <ele>513</ele>
        <time>2022-02-24T13:16:00Z</time>
      </trkpt>
      <trkpt lat="46.71159" lon="5.79619">
        <ele>513.6</ele>
        <time>2022-02-24T13:16:05Z</time>
      </trkpt>
      <trkpt lat="46.71163" lon="5.79624">
        <ele>514.2</ele>
        <time>2022-02-24T13:16:11Z</time>
      </trkpt>
      <trkpt lat="46.71167" lon="5.79628">
        <ele>514.5</ele>
        <time>2022-02-24T13:16:16Z</time>
      </trkpt>
      <trkpt lat="46.7117" lon="5.79634">
        <ele>514.9</ele>
        <time>2022-02-24T13:16:21Z</time>
      </trkpt>
      <trkpt lat="46.71172" lon="5.7964">
        <ele>515.4</ele>
        <time>2022-02-24T13:16:27Z</time>
      </trkpt>
      <trkpt lat="46.71173" lon="5.79648">
        <ele>515.8</ele>
        <time>2022-02-24T13:16:32Z</time>
      </trkpt>
      <trkpt lat="46.71176" lon="5.79655">
        <ele>516</ele>
        <time>2022-02-24T13:16:36Z</time>
      </trkpt>
      <trkpt lat="46.71179" lon="5.79661">
        <ele>516.2</ele>
        <time>2022-02-24T13:16:40Z</time>
      </trkpt>
      <trkpt lat="46.71182" lon="5.79667">
        <ele>516.4</ele>
        <time>2022-02-24T13:16:44Z</time>
      </trkpt>
      <trkpt lat="46.71184" lon="5.79672">
        <ele>516.8</ele>
        <time>2022-02-24T13:16:48Z</time>
      </trkpt>
      <trkpt lat="46.71187" lon="5.79679">
        <ele>517</ele>
        <time>2022-02-24T13:16:52Z</time>
      </trkpt>
      <trkpt lat="46.71189" lon="5.79686">
        <ele>517.1</ele>
        <time>2022-02-24T13:16:56Z</time>
      </trkpt>
      <trkpt lat="46.71191" lon="5.79692">
        <ele>517.1</ele>
        <time>2022-02-24T13:17:00Z</time>
      </trkpt>
      <trkpt lat="46.71194" lon="5.797">
        <ele>517.4</ele>
        <time>2022-02-24T13:17:05Z</time>
      </trkpt>
      <trkpt lat="46.71195" lon="5.79706">
        <ele>517.5</ele>
        <time>2022-02-24T13:17:09Z</time>
      </trkpt>
      <trkpt lat="46.71198" lon="5.79712">
        <ele>518</ele>
        <time>2022-02-24T13:17:14Z</time>
      </trkpt>
      <trkpt lat="46.71199" lon="5.79719">
        <ele>518.7</ele>
        <time>2022-02-24T13:17:19Z</time>
      </trkpt>
      <trkpt lat="46.71201" lon="5.79726">
        <ele>519.3</ele>
        <time>2022-02-24T13:17:24Z</time>
      </trkpt>
      <trkpt lat="46.71202" lon="5.79732">
        <ele>519.5</ele>
        <time>2022-02-24T13:17:28Z</time>
      </trkpt>
      <trkpt lat="46.71206" lon="5.79737">
        <ele>519.6</ele>
        <time>2022-02-24T13:17:32Z</time>
      </trkpt>
      <trkpt lat="46.71209" lon="5.79742">
        <ele>519.3</ele>
        <time>2022-02-24T13:17:36Z</time>
      </trkpt>
      <trkpt lat="46.71212" lon="5.79748">
        <ele>519</ele>
        <time>2022-02-24T13:17:40Z</time>
      </trkpt>
      <trkpt lat="46.71215" lon="5.79753">
        <ele>518.7</ele>
        <time>2022-02-24T13:17:46Z</time>
      </trkpt>
      <trkpt lat="46.71217" lon="5.79759">
        <ele>518.6</ele>
        <time>2022-02-24T13:17:51Z</time>
      </trkpt>
      <trkpt lat="46.71218" lon="5.79766">
        <ele>518.8</ele>
        <time>2022-02-24T13:17:57Z</time>
      </trkpt>
      <trkpt lat="46.71217" lon="5.79774">
        <ele>518.7</ele>
        <time>2022-02-24T13:18:02Z</time>
      </trkpt>
      <trkpt lat="46.71216" lon="5.79781">
        <ele>518.3</ele>
        <time>2022-02-24T13:18:07Z</time>
      </trkpt>
      <trkpt lat="46.71215" lon="5.79788">
        <ele>518.4</ele>
        <time>2022-02-24T13:18:12Z</time>
      </trkpt>
      <trkpt lat="46.71214" lon="5.79795">
        <ele>518.7</ele>
        <time>2022-02-24T13:18:17Z</time>
      </trkpt>
      <trkpt lat="46.71213" lon="5.79802">
        <ele>518.9</ele>
        <time>2022-02-24T13:18:23Z</time>
      </trkpt>
      <trkpt lat="46.71212" lon="5.79809">
        <ele>519.1</ele>
        <time>2022-02-24T13:18:28Z</time>
      </trkpt>
      <trkpt lat="46.71212" lon="5.79816">
        <ele>519.3</ele>
        <time>2022-02-24T13:18:33Z</time>
      </trkpt>
      <trkpt lat="46.71212" lon="5.79823">
        <ele>519.2</ele>
        <time>2022-02-24T13:18:38Z</time>
      </trkpt>
      <trkpt lat="46.71213" lon="5.7983">
        <ele>519</ele>
        <time>2022-02-24T13:18:42Z</time>
      </trkpt>
      <trkpt lat="46.71216" lon="5.79837">
        <ele>518.5</ele>
        <time>2022-02-24T13:18:47Z</time>
      </trkpt>
      <trkpt lat="46.71219" lon="5.79844">
        <ele>518.1</ele>
        <time>2022-02-24T13:18:51Z</time>
      </trkpt>
      <trkpt lat="46.71221" lon="5.7985">
        <ele>517.8</ele>
        <time>2022-02-24T13:18:55Z</time>
      </trkpt>
      <trkpt lat="46.71225" lon="5.79856">
        <ele>517.3</ele>
        <time>2022-02-24T13:19:00Z</time>
      </trkpt>
      <trkpt lat="46.71229" lon="5.79862">
        <ele>516.7</ele>
        <time>2022-02-24T13:19:05Z</time>
      </trkpt>
      <trkpt lat="46.71233" lon="5.79867">
        <ele>516.3</ele>
        <time>2022-02-24T13:19:10Z</time>
      </trkpt>
      <trkpt lat="46.71237" lon="5.79871">
        <ele>516</ele>
        <time>2022-02-24T13:19:14Z</time>
      </trkpt>
      <trkpt lat="46.71242" lon="5.79875">
        <ele>515.7</ele>
        <time>2022-02-24T13:19:18Z</time>
      </trkpt>
      <trkpt lat="46.71247" lon="5.79877">
        <ele>515.4</ele>
        <time>2022-02-24T13:19:23Z</time>
      </trkpt>
      <trkpt lat="46.71252" lon="5.7988">
        <ele>515.4</ele>
        <time>2022-02-24T13:19:27Z</time>
      </trkpt>
      <trkpt lat="46.71258" lon="5.79882">
        <ele>515.1</ele>
        <time>2022-02-24T13:19:31Z</time>
      </trkpt>
      <trkpt lat="46.71262" lon="5.79884">
        <ele>514.9</ele>
        <time>2022-02-24T13:19:35Z</time>
      </trkpt>
      <trkpt lat="46.71268" lon="5.79884">
        <ele>514.9</ele>
        <time>2022-02-24T13:19:39Z</time>
      </trkpt>
      <trkpt lat="46.71272" lon="5.79886">
        <ele>515.1</ele>
        <time>2022-02-24T13:19:44Z</time>
      </trkpt>
      <trkpt lat="46.71276" lon="5.79887">
        <ele>515.4</ele>
        <time>2022-02-24T13:19:49Z</time>
      </trkpt>
      <trkpt lat="46.71281" lon="5.79888">
        <ele>515.5</ele>
        <time>2022-02-24T13:19:53Z</time>
      </trkpt>
      <trkpt lat="46.71287" lon="5.79888">
        <ele>515.6</ele>
        <time>2022-02-24T13:19:57Z</time>
      </trkpt>
      <trkpt lat="46.71292" lon="5.79887">
        <ele>515.6</ele>
        <time>2022-02-24T13:20:01Z</time>
      </trkpt>
      <trkpt lat="46.71297" lon="5.79887">
        <ele>515.7</ele>
        <time>2022-02-24T13:20:07Z</time>
      </trkpt>
      <trkpt lat="46.71302" lon="5.79887">
        <ele>515.7</ele>
        <time>2022-02-24T13:20:11Z</time>
      </trkpt>
      <trkpt lat="46.71307" lon="5.79886">
        <ele>515.9</ele>
        <time>2022-02-24T13:20:16Z</time>
      </trkpt>
      <trkpt lat="46.71311" lon="5.79885">
        <ele>515.9</ele>
        <time>2022-02-24T13:20:21Z</time>
      </trkpt>
      <trkpt lat="46.71316" lon="5.79884">
        <ele>515.8</ele>
        <time>2022-02-24T13:20:25Z</time>
      </trkpt>
      <trkpt lat="46.71321" lon="5.79881">
        <ele>515.4</ele>
        <time>2022-02-24T13:20:30Z</time>
      </trkpt>
      <trkpt lat="46.71326" lon="5.79878">
        <ele>514.7</ele>
        <time>2022-02-24T13:20:36Z</time>
      </trkpt>
      <trkpt lat="46.71329" lon="5.79873">
        <ele>514.1</ele>
        <time>2022-02-24T13:20:41Z</time>
      </trkpt>
      <trkpt lat="46.71333" lon="5.79869">
        <ele>513.5</ele>
        <time>2022-02-24T13:20:46Z</time>
      </trkpt>
      <trkpt lat="46.71338" lon="5.79864">
        <ele>512.9</ele>
        <time>2022-02-24T13:20:51Z</time>
      </trkpt>
      <trkpt lat="46.71342" lon="5.79861">
        <ele>512.3</ele>
        <time>2022-02-24T13:20:55Z</time>
      </trkpt>
      <trkpt lat="46.71346" lon="5.79857">
        <ele>511.6</ele>
        <time>2022-02-24T13:20:59Z</time>
      </trkpt>
      <trkpt lat="46.7135" lon="5.79852">
        <ele>511.1</ele>
        <time>2022-02-24T13:21:03Z</time>
      </trkpt>
      <trkpt lat="46.71354" lon="5.79849">
        <ele>510.9</ele>
        <time>2022-02-24T13:21:12Z</time>
      </trkpt>
      <trkpt lat="46.71358" lon="5.79843">
        <ele>511.3</ele>
        <time>2022-02-24T13:21:18Z</time>
      </trkpt>
      <trkpt lat="46.71362" lon="5.7984">
        <ele>512.1</ele>
        <time>2022-02-24T13:21:24Z</time>
      </trkpt>
      <trkpt lat="46.71365" lon="5.79834">
        <ele>512.6</ele>
        <time>2022-02-24T13:21:30Z</time>
      </trkpt>
      <trkpt lat="46.71369" lon="5.7983">
        <ele>512.8</ele>
        <time>2022-02-24T13:21:34Z</time>
      </trkpt>
      <trkpt lat="46.71372" lon="5.79826">
        <ele>512.9</ele>
        <time>2022-02-24T13:21:39Z</time>
      </trkpt>
      <trkpt lat="46.71376" lon="5.79821">
        <ele>512.6</ele>
        <time>2022-02-24T13:21:45Z</time>
      </trkpt>
      <trkpt lat="46.71381" lon="5.79817">
        <ele>512</ele>
        <time>2022-02-24T13:21:50Z</time>
      </trkpt>
      <trkpt lat="46.71385" lon="5.79813">
        <ele>511.5</ele>
        <time>2022-02-24T13:21:55Z</time>
      </trkpt>
      <trkpt lat="46.71389" lon="5.79809">
        <ele>511</ele>
        <time>2022-02-24T13:21:59Z</time>
      </trkpt>
      <trkpt lat="46.71393" lon="5.79805">
        <ele>510.6</ele>
        <time>2022-02-24T13:22:03Z</time>
      </trkpt>
      <trkpt lat="46.71397" lon="5.79801">
        <ele>510.1</ele>
        <time>2022-02-24T13:22:07Z</time>
      </trkpt>
      <trkpt lat="46.71401" lon="5.79798">
        <ele>509.6</ele>
        <time>2022-02-24T13:22:11Z</time>
      </trkpt>
      <trkpt lat="46.71406" lon="5.79797">
        <ele>508.7</ele>
        <time>2022-02-24T13:22:17Z</time>
      </trkpt>
      <trkpt lat="46.7141" lon="5.79794">
        <ele>507.9</ele>
        <time>2022-02-24T13:22:22Z</time>
      </trkpt>
      <trkpt lat="46.71415" lon="5.79791">
        <ele>507.5</ele>
        <time>2022-02-24T13:22:27Z</time>
      </trkpt>
      <trkpt lat="46.7142" lon="5.79787">
        <ele>507.2</ele>
        <time>2022-02-24T13:22:32Z</time>
      </trkpt>
      <trkpt lat="46.71424" lon="5.79782">
        <ele>507</ele>
        <time>2022-02-24T13:22:37Z</time>
      </trkpt>
      <trkpt lat="46.71428" lon="5.79779">
        <ele>506.7</ele>
        <time>2022-02-24T13:22:42Z</time>
      </trkpt>
      <trkpt lat="46.71432" lon="5.79775">
        <ele>506.3</ele>
        <time>2022-02-24T13:22:47Z</time>
      </trkpt>
      <trkpt lat="46.71436" lon="5.79771">
        <ele>505.2</ele>
        <time>2022-02-24T13:22:52Z</time>
      </trkpt>
      <trkpt lat="46.71441" lon="5.79769">
        <ele>503.9</ele>
        <time>2022-02-24T13:22:56Z</time>
      </trkpt>
      <trkpt lat="46.71447" lon="5.79768">
        <ele>502.8</ele>
        <time>2022-02-24T13:23:00Z</time>
      </trkpt>
      <trkpt lat="46.71452" lon="5.79769">
        <ele>501.9</ele>
        <time>2022-02-24T13:23:04Z</time>
      </trkpt>
    </trkseg>
  </trk>
</gpx>